<?xml version="1.0" encoding="UTF-8" standalone="no" ?>
<gpx xmlns="http://www.topografix.com/GPX/1/1" xmlns:xsi="http://www.w3.org/2001/XMLSchema-instance" xsi:schemaLocation="http://www.topografix.com/GPX/1/1 http://www.topografix.com/GPX/1/1/gpx.xsd" version="1.1" creator="VisuGPX - https://www.visugpx.com">
  <metadata>
    <name>6 Champigny =&gt; Sens</name>
  </metadata>
  <trk>
    <name><![CDATA[6 Champigny Sens]]></name>
    <trkseg>
      <trkpt lat="48.31992" lon="3.12518">
        <ele>75</ele>
        <time>2013-08-03T06:29:54Z</time>
      </trkpt>
      <trkpt lat="48.31986" lon="3.12561">
        <ele>75</ele>
        <time>2013-08-03T06:35:07Z</time>
      </trkpt>
      <trkpt lat="48.31983" lon="3.12564">
        <ele>75</ele>
        <time>2013-08-03T06:48:23Z</time>
      </trkpt>
      <trkpt lat="48.31986" lon="3.12572">
        <ele>75</ele>
        <time>2013-08-03T06:48:55Z</time>
      </trkpt>
      <trkpt lat="48.31989" lon="3.12577">
        <ele>74</ele>
        <time>2013-08-03T06:48:58Z</time>
      </trkpt>
      <trkpt lat="48.31992" lon="3.12583">
        <ele>74</ele>
        <time>2013-08-03T06:49:03Z</time>
      </trkpt>
      <trkpt lat="48.31997" lon="3.12586">
        <ele>73</ele>
        <time>2013-08-03T06:49:07Z</time>
      </trkpt>
      <trkpt lat="48.32" lon="3.12593">
        <ele>73</ele>
        <time>2013-08-03T06:49:14Z</time>
      </trkpt>
      <trkpt lat="48.32003" lon="3.12598">
        <ele>72</ele>
        <time>2013-08-03T06:49:18Z</time>
      </trkpt>
      <trkpt lat="48.32007" lon="3.12603">
        <ele>72</ele>
        <time>2013-08-03T06:49:22Z</time>
      </trkpt>
      <trkpt lat="48.32012" lon="3.12607">
        <ele>72</ele>
        <time>2013-08-03T06:49:26Z</time>
      </trkpt>
      <trkpt lat="48.32016" lon="3.12611">
        <ele>72</ele>
        <time>2013-08-03T06:49:30Z</time>
      </trkpt>
      <trkpt lat="48.3202" lon="3.12616">
        <ele>72</ele>
        <time>2013-08-03T06:49:35Z</time>
      </trkpt>
      <trkpt lat="48.32024" lon="3.1262">
        <ele>72</ele>
        <time>2013-08-03T06:49:40Z</time>
      </trkpt>
      <trkpt lat="48.32026" lon="3.12626">
        <ele>72</ele>
        <time>2013-08-03T06:49:44Z</time>
      </trkpt>
      <trkpt lat="48.32029" lon="3.12632">
        <ele>72</ele>
        <time>2013-08-03T06:49:49Z</time>
      </trkpt>
      <trkpt lat="48.32033" lon="3.12636">
        <ele>72</ele>
        <time>2013-08-03T06:49:54Z</time>
      </trkpt>
      <trkpt lat="48.32037" lon="3.12641">
        <ele>72</ele>
        <time>2013-08-03T06:49:59Z</time>
      </trkpt>
      <trkpt lat="48.32041" lon="3.12645">
        <ele>71</ele>
        <time>2013-08-03T06:50:04Z</time>
      </trkpt>
      <trkpt lat="48.32045" lon="3.12649">
        <ele>71</ele>
        <time>2013-08-03T06:50:08Z</time>
      </trkpt>
      <trkpt lat="48.32048" lon="3.12655">
        <ele>71</ele>
        <time>2013-08-03T06:50:13Z</time>
      </trkpt>
      <trkpt lat="48.32046" lon="3.12662">
        <ele>71</ele>
        <time>2013-08-03T06:50:17Z</time>
      </trkpt>
      <trkpt lat="48.32041" lon="3.12667">
        <ele>71</ele>
        <time>2013-08-03T06:50:21Z</time>
      </trkpt>
      <trkpt lat="48.32038" lon="3.12673">
        <ele>71</ele>
        <time>2013-08-03T06:50:24Z</time>
      </trkpt>
      <trkpt lat="48.32035" lon="3.1268">
        <ele>71</ele>
        <time>2013-08-03T06:50:27Z</time>
      </trkpt>
      <trkpt lat="48.32034" lon="3.12687">
        <ele>71</ele>
        <time>2013-08-03T06:50:31Z</time>
      </trkpt>
      <trkpt lat="48.3203" lon="3.12692">
        <ele>71</ele>
        <time>2013-08-03T06:50:35Z</time>
      </trkpt>
      <trkpt lat="48.32026" lon="3.12698">
        <ele>71</ele>
        <time>2013-08-03T06:50:40Z</time>
      </trkpt>
      <trkpt lat="48.32022" lon="3.12702">
        <ele>71</ele>
        <time>2013-08-03T06:50:44Z</time>
      </trkpt>
      <trkpt lat="48.32018" lon="3.12709">
        <ele>71</ele>
        <time>2013-08-03T06:50:48Z</time>
      </trkpt>
      <trkpt lat="48.32016" lon="3.12717">
        <ele>71</ele>
        <time>2013-08-03T06:50:52Z</time>
      </trkpt>
      <trkpt lat="48.32015" lon="3.12725">
        <ele>71</ele>
        <time>2013-08-03T06:50:56Z</time>
      </trkpt>
      <trkpt lat="48.32014" lon="3.12732">
        <ele>71</ele>
        <time>2013-08-03T06:51:00Z</time>
      </trkpt>
      <trkpt lat="48.32013" lon="3.12739">
        <ele>71</ele>
        <time>2013-08-03T06:51:04Z</time>
      </trkpt>
      <trkpt lat="48.32011" lon="3.12745">
        <ele>71</ele>
        <time>2013-08-03T06:51:08Z</time>
      </trkpt>
      <trkpt lat="48.32009" lon="3.12753">
        <ele>71</ele>
        <time>2013-08-03T06:51:13Z</time>
      </trkpt>
      <trkpt lat="48.32006" lon="3.1276">
        <ele>71</ele>
        <time>2013-08-03T06:51:18Z</time>
      </trkpt>
      <trkpt lat="48.32001" lon="3.12764">
        <ele>71</ele>
        <time>2013-08-03T06:51:22Z</time>
      </trkpt>
      <trkpt lat="48.31997" lon="3.12767">
        <ele>73</ele>
        <time>2013-08-03T06:51:26Z</time>
      </trkpt>
      <trkpt lat="48.31993" lon="3.12771">
        <ele>73</ele>
        <time>2013-08-03T06:51:30Z</time>
      </trkpt>
      <trkpt lat="48.31991" lon="3.12778">
        <ele>73</ele>
        <time>2013-08-03T06:51:33Z</time>
      </trkpt>
      <trkpt lat="48.31988" lon="3.12784">
        <ele>73</ele>
        <time>2013-08-03T06:51:36Z</time>
      </trkpt>
      <trkpt lat="48.31985" lon="3.1279">
        <ele>73</ele>
        <time>2013-08-03T06:51:39Z</time>
      </trkpt>
      <trkpt lat="48.31984" lon="3.12797">
        <ele>73</ele>
        <time>2013-08-03T06:51:44Z</time>
      </trkpt>
      <trkpt lat="48.31981" lon="3.12802">
        <ele>73</ele>
        <time>2013-08-03T06:51:50Z</time>
      </trkpt>
      <trkpt lat="48.31976" lon="3.12807">
        <ele>73</ele>
        <time>2013-08-03T06:51:55Z</time>
      </trkpt>
      <trkpt lat="48.31974" lon="3.12813">
        <ele>73</ele>
        <time>2013-08-03T06:52:01Z</time>
      </trkpt>
      <trkpt lat="48.3197" lon="3.1281">
        <ele>73</ele>
        <time>2013-08-03T06:52:12Z</time>
      </trkpt>
      <trkpt lat="48.31965" lon="3.12807">
        <ele>74</ele>
        <time>2013-08-03T06:52:16Z</time>
      </trkpt>
      <trkpt lat="48.31963" lon="3.12801">
        <ele>74</ele>
        <time>2013-08-03T06:52:21Z</time>
      </trkpt>
      <trkpt lat="48.31959" lon="3.12798">
        <ele>74</ele>
        <time>2013-08-03T06:52:25Z</time>
      </trkpt>
      <trkpt lat="48.31954" lon="3.12799">
        <ele>74</ele>
        <time>2013-08-03T06:52:28Z</time>
      </trkpt>
      <trkpt lat="48.31949" lon="3.12798">
        <ele>74</ele>
        <time>2013-08-03T06:52:33Z</time>
      </trkpt>
      <trkpt lat="48.31944" lon="3.12796">
        <ele>74</ele>
        <time>2013-08-03T06:52:36Z</time>
      </trkpt>
      <trkpt lat="48.3194" lon="3.12796">
        <ele>74</ele>
        <time>2013-08-03T06:52:40Z</time>
      </trkpt>
      <trkpt lat="48.31936" lon="3.12791">
        <ele>74</ele>
        <time>2013-08-03T06:53:19Z</time>
      </trkpt>
      <trkpt lat="48.31932" lon="3.12787">
        <ele>74</ele>
        <time>2013-08-03T06:53:22Z</time>
      </trkpt>
      <trkpt lat="48.31928" lon="3.12783">
        <ele>74</ele>
        <time>2013-08-03T06:53:25Z</time>
      </trkpt>
      <trkpt lat="48.31926" lon="3.12777">
        <ele>75</ele>
        <time>2013-08-03T06:53:31Z</time>
      </trkpt>
      <trkpt lat="48.31921" lon="3.12779">
        <ele>75</ele>
        <time>2013-08-03T06:53:36Z</time>
      </trkpt>
      <trkpt lat="48.31917" lon="3.12784">
        <ele>75</ele>
        <time>2013-08-03T06:53:40Z</time>
      </trkpt>
      <trkpt lat="48.31913" lon="3.1279">
        <ele>77</ele>
        <time>2013-08-03T06:53:45Z</time>
      </trkpt>
      <trkpt lat="48.31909" lon="3.12796">
        <ele>77</ele>
        <time>2013-08-03T06:53:50Z</time>
      </trkpt>
      <trkpt lat="48.31906" lon="3.12802">
        <ele>77</ele>
        <time>2013-08-03T06:53:55Z</time>
      </trkpt>
      <trkpt lat="48.31902" lon="3.12806">
        <ele>77</ele>
        <time>2013-08-03T06:53:59Z</time>
      </trkpt>
      <trkpt lat="48.31899" lon="3.12812">
        <ele>77</ele>
        <time>2013-08-03T06:54:05Z</time>
      </trkpt>
      <trkpt lat="48.31899" lon="3.12821">
        <ele>77</ele>
        <time>2013-08-03T06:54:10Z</time>
      </trkpt>
      <trkpt lat="48.31899" lon="3.12827">
        <ele>77</ele>
        <time>2013-08-03T06:54:14Z</time>
      </trkpt>
      <trkpt lat="48.31895" lon="3.12834">
        <ele>77</ele>
        <time>2013-08-03T06:54:18Z</time>
      </trkpt>
      <trkpt lat="48.31892" lon="3.1284">
        <ele>77</ele>
        <time>2013-08-03T06:54:21Z</time>
      </trkpt>
      <trkpt lat="48.31888" lon="3.12846">
        <ele>77</ele>
        <time>2013-08-03T06:54:25Z</time>
      </trkpt>
      <trkpt lat="48.31885" lon="3.1285">
        <ele>77</ele>
        <time>2013-08-03T06:54:29Z</time>
      </trkpt>
      <trkpt lat="48.31888" lon="3.12856">
        <ele>77</ele>
        <time>2013-08-03T06:54:34Z</time>
      </trkpt>
      <trkpt lat="48.31893" lon="3.12861">
        <ele>77</ele>
        <time>2013-08-03T06:54:38Z</time>
      </trkpt>
      <trkpt lat="48.31895" lon="3.12867">
        <ele>77</ele>
        <time>2013-08-03T06:54:42Z</time>
      </trkpt>
      <trkpt lat="48.31895" lon="3.12875">
        <ele>77</ele>
        <time>2013-08-03T06:54:47Z</time>
      </trkpt>
      <trkpt lat="48.31893" lon="3.12882">
        <ele>77</ele>
        <time>2013-08-03T06:54:51Z</time>
      </trkpt>
      <trkpt lat="48.31889" lon="3.12888">
        <ele>78</ele>
        <time>2013-08-03T06:54:56Z</time>
      </trkpt>
      <trkpt lat="48.31886" lon="3.12893">
        <ele>78</ele>
        <time>2013-08-03T06:55:01Z</time>
      </trkpt>
      <trkpt lat="48.31882" lon="3.12899">
        <ele>78</ele>
        <time>2013-08-03T06:55:07Z</time>
      </trkpt>
      <trkpt lat="48.31878" lon="3.12903">
        <ele>78</ele>
        <time>2013-08-03T06:55:11Z</time>
      </trkpt>
      <trkpt lat="48.31874" lon="3.12907">
        <ele>78</ele>
        <time>2013-08-03T06:55:14Z</time>
      </trkpt>
      <trkpt lat="48.3187" lon="3.12911">
        <ele>78</ele>
        <time>2013-08-03T06:55:17Z</time>
      </trkpt>
      <trkpt lat="48.31866" lon="3.12917">
        <ele>78</ele>
        <time>2013-08-03T06:55:21Z</time>
      </trkpt>
      <trkpt lat="48.31863" lon="3.12922">
        <ele>78</ele>
        <time>2013-08-03T06:55:27Z</time>
      </trkpt>
      <trkpt lat="48.31858" lon="3.1292">
        <ele>78</ele>
        <time>2013-08-03T06:55:32Z</time>
      </trkpt>
      <trkpt lat="48.31853" lon="3.12922">
        <ele>79</ele>
        <time>2013-08-03T06:55:39Z</time>
      </trkpt>
      <trkpt lat="48.31849" lon="3.12926">
        <ele>79</ele>
        <time>2013-08-03T06:55:44Z</time>
      </trkpt>
      <trkpt lat="48.31845" lon="3.1293">
        <ele>79</ele>
        <time>2013-08-03T06:55:49Z</time>
      </trkpt>
      <trkpt lat="48.3184" lon="3.12933">
        <ele>79</ele>
        <time>2013-08-03T06:55:54Z</time>
      </trkpt>
      <trkpt lat="48.31834" lon="3.12936">
        <ele>79</ele>
        <time>2013-08-03T06:55:58Z</time>
      </trkpt>
      <trkpt lat="48.3183" lon="3.1294">
        <ele>81</ele>
        <time>2013-08-03T06:56:03Z</time>
      </trkpt>
      <trkpt lat="48.31826" lon="3.12947">
        <ele>81</ele>
        <time>2013-08-03T06:56:08Z</time>
      </trkpt>
      <trkpt lat="48.31822" lon="3.1295">
        <ele>82</ele>
        <time>2013-08-03T06:56:13Z</time>
      </trkpt>
      <trkpt lat="48.31818" lon="3.12954">
        <ele>82</ele>
        <time>2013-08-03T06:56:17Z</time>
      </trkpt>
      <trkpt lat="48.31813" lon="3.12957">
        <ele>82</ele>
        <time>2013-08-03T06:56:22Z</time>
      </trkpt>
      <trkpt lat="48.31809" lon="3.12962">
        <ele>82</ele>
        <time>2013-08-03T06:56:28Z</time>
      </trkpt>
      <trkpt lat="48.31806" lon="3.12967">
        <ele>82</ele>
        <time>2013-08-03T06:56:36Z</time>
      </trkpt>
      <trkpt lat="48.31804" lon="3.12973">
        <ele>82</ele>
        <time>2013-08-03T06:56:43Z</time>
      </trkpt>
      <trkpt lat="48.318" lon="3.12976">
        <ele>82</ele>
        <time>2013-08-03T06:56:53Z</time>
      </trkpt>
      <trkpt lat="48.31797" lon="3.12981">
        <ele>82</ele>
        <time>2013-08-03T06:57:03Z</time>
      </trkpt>
      <trkpt lat="48.31798" lon="3.12988">
        <ele>82</ele>
        <time>2013-08-03T06:57:08Z</time>
      </trkpt>
      <trkpt lat="48.31797" lon="3.12996">
        <ele>82</ele>
        <time>2013-08-03T06:57:13Z</time>
      </trkpt>
      <trkpt lat="48.31794" lon="3.13005">
        <ele>83</ele>
        <time>2013-08-03T06:57:26Z</time>
      </trkpt>
      <trkpt lat="48.31794" lon="3.13013">
        <ele>83</ele>
        <time>2013-08-03T06:57:35Z</time>
      </trkpt>
      <trkpt lat="48.31794" lon="3.1302">
        <ele>83</ele>
        <time>2013-08-03T06:57:45Z</time>
      </trkpt>
      <trkpt lat="48.31791" lon="3.13026">
        <ele>83</ele>
        <time>2013-08-03T06:57:51Z</time>
      </trkpt>
      <trkpt lat="48.31788" lon="3.13032">
        <ele>83</ele>
        <time>2013-08-03T06:57:56Z</time>
      </trkpt>
      <trkpt lat="48.31785" lon="3.13038">
        <ele>83</ele>
        <time>2013-08-03T06:58:01Z</time>
      </trkpt>
      <trkpt lat="48.31788" lon="3.13044">
        <ele>83</ele>
        <time>2013-08-03T06:58:05Z</time>
      </trkpt>
      <trkpt lat="48.3179" lon="3.13051">
        <ele>83</ele>
        <time>2013-08-03T06:58:09Z</time>
      </trkpt>
      <trkpt lat="48.31789" lon="3.13058">
        <ele>83</ele>
        <time>2013-08-03T06:58:13Z</time>
      </trkpt>
      <trkpt lat="48.31789" lon="3.13066">
        <ele>83</ele>
        <time>2013-08-03T06:58:18Z</time>
      </trkpt>
      <trkpt lat="48.3179" lon="3.13073">
        <ele>83</ele>
        <time>2013-08-03T06:58:22Z</time>
      </trkpt>
      <trkpt lat="48.3179" lon="3.1308">
        <ele>83</ele>
        <time>2013-08-03T06:58:28Z</time>
      </trkpt>
      <trkpt lat="48.31788" lon="3.13087">
        <ele>83</ele>
        <time>2013-08-03T06:58:33Z</time>
      </trkpt>
      <trkpt lat="48.31781" lon="3.13097">
        <ele>83</ele>
        <time>2013-08-03T06:58:46Z</time>
      </trkpt>
      <trkpt lat="48.31772" lon="3.13106">
        <ele>83</ele>
        <time>2013-08-03T06:58:59Z</time>
      </trkpt>
      <trkpt lat="48.31767" lon="3.13118">
        <ele>83</ele>
        <time>2013-08-03T06:59:07Z</time>
      </trkpt>
      <trkpt lat="48.31762" lon="3.1313">
        <ele>82</ele>
        <time>2013-08-03T06:59:13Z</time>
      </trkpt>
      <trkpt lat="48.3176" lon="3.13136">
        <ele>82</ele>
        <time>2013-08-03T06:59:17Z</time>
      </trkpt>
      <trkpt lat="48.3176" lon="3.13144">
        <ele>82</ele>
        <time>2013-08-03T06:59:21Z</time>
      </trkpt>
      <trkpt lat="48.31756" lon="3.13148">
        <ele>82</ele>
        <time>2013-08-03T06:59:27Z</time>
      </trkpt>
      <trkpt lat="48.31754" lon="3.13155">
        <ele>81</ele>
        <time>2013-08-03T06:59:32Z</time>
      </trkpt>
      <trkpt lat="48.3175" lon="3.13162">
        <ele>81</ele>
        <time>2013-08-03T06:59:37Z</time>
      </trkpt>
      <trkpt lat="48.31747" lon="3.13168">
        <ele>81</ele>
        <time>2013-08-03T06:59:42Z</time>
      </trkpt>
      <trkpt lat="48.31744" lon="3.13175">
        <ele>80</ele>
        <time>2013-08-03T06:59:47Z</time>
      </trkpt>
      <trkpt lat="48.3174" lon="3.13179">
        <ele>80</ele>
        <time>2013-08-03T06:59:50Z</time>
      </trkpt>
      <trkpt lat="48.31734" lon="3.13182">
        <ele>80</ele>
        <time>2013-08-03T06:59:54Z</time>
      </trkpt>
      <trkpt lat="48.3173" lon="3.13187">
        <ele>80</ele>
        <time>2013-08-03T06:59:58Z</time>
      </trkpt>
      <trkpt lat="48.31727" lon="3.13192">
        <ele>80</ele>
        <time>2013-08-03T07:00:02Z</time>
      </trkpt>
      <trkpt lat="48.31726" lon="3.13201">
        <ele>80</ele>
        <time>2013-08-03T07:00:07Z</time>
      </trkpt>
      <trkpt lat="48.3173" lon="3.13206">
        <ele>80</ele>
        <time>2013-08-03T07:00:10Z</time>
      </trkpt>
      <trkpt lat="48.31732" lon="3.13214">
        <ele>79</ele>
        <time>2013-08-03T07:00:14Z</time>
      </trkpt>
      <trkpt lat="48.31732" lon="3.13223">
        <ele>79</ele>
        <time>2013-08-03T07:00:19Z</time>
      </trkpt>
      <trkpt lat="48.31732" lon="3.1323">
        <ele>79</ele>
        <time>2013-08-03T07:00:22Z</time>
      </trkpt>
      <trkpt lat="48.31727" lon="3.1324">
        <ele>79</ele>
        <time>2013-08-03T07:00:29Z</time>
      </trkpt>
      <trkpt lat="48.31724" lon="3.13246">
        <ele>79</ele>
        <time>2013-08-03T07:00:33Z</time>
      </trkpt>
      <trkpt lat="48.3172" lon="3.1325">
        <ele>79</ele>
        <time>2013-08-03T07:00:37Z</time>
      </trkpt>
      <trkpt lat="48.31721" lon="3.13257">
        <ele>79</ele>
        <time>2013-08-03T07:00:43Z</time>
      </trkpt>
      <trkpt lat="48.31722" lon="3.13264">
        <ele>80</ele>
        <time>2013-08-03T07:00:50Z</time>
      </trkpt>
      <trkpt lat="48.31724" lon="3.13271">
        <ele>80</ele>
        <time>2013-08-03T07:00:54Z</time>
      </trkpt>
      <trkpt lat="48.31724" lon="3.13279">
        <ele>80</ele>
        <time>2013-08-03T07:00:57Z</time>
      </trkpt>
      <trkpt lat="48.31724" lon="3.13286">
        <ele>80</ele>
        <time>2013-08-03T07:01:00Z</time>
      </trkpt>
      <trkpt lat="48.31726" lon="3.13293">
        <ele>80</ele>
        <time>2013-08-03T07:01:03Z</time>
      </trkpt>
      <trkpt lat="48.31726" lon="3.13301">
        <ele>80</ele>
        <time>2013-08-03T07:01:08Z</time>
      </trkpt>
      <trkpt lat="48.31725" lon="3.13309">
        <ele>80</ele>
        <time>2013-08-03T07:01:13Z</time>
      </trkpt>
      <trkpt lat="48.31723" lon="3.13315">
        <ele>80</ele>
        <time>2013-08-03T07:01:17Z</time>
      </trkpt>
      <trkpt lat="48.31721" lon="3.13322">
        <ele>80</ele>
        <time>2013-08-03T07:01:21Z</time>
      </trkpt>
      <trkpt lat="48.31721" lon="3.13331">
        <ele>80</ele>
        <time>2013-08-03T07:01:27Z</time>
      </trkpt>
      <trkpt lat="48.31721" lon="3.13338">
        <ele>82</ele>
        <time>2013-08-03T07:01:31Z</time>
      </trkpt>
      <trkpt lat="48.31721" lon="3.13346">
        <ele>82</ele>
        <time>2013-08-03T07:01:36Z</time>
      </trkpt>
      <trkpt lat="48.31719" lon="3.13354">
        <ele>82</ele>
        <time>2013-08-03T07:01:41Z</time>
      </trkpt>
      <trkpt lat="48.31719" lon="3.1336">
        <ele>82</ele>
        <time>2013-08-03T07:01:45Z</time>
      </trkpt>
      <trkpt lat="48.31719" lon="3.13369">
        <ele>83</ele>
        <time>2013-08-03T07:01:50Z</time>
      </trkpt>
      <trkpt lat="48.31717" lon="3.13377">
        <ele>83</ele>
        <time>2013-08-03T07:01:54Z</time>
      </trkpt>
      <trkpt lat="48.31716" lon="3.13384">
        <ele>83</ele>
        <time>2013-08-03T07:01:58Z</time>
      </trkpt>
      <trkpt lat="48.31715" lon="3.13392">
        <ele>83</ele>
        <time>2013-08-03T07:02:04Z</time>
      </trkpt>
      <trkpt lat="48.31713" lon="3.134">
        <ele>83</ele>
        <time>2013-08-03T07:02:09Z</time>
      </trkpt>
      <trkpt lat="48.31711" lon="3.13406">
        <ele>83</ele>
        <time>2013-08-03T07:02:14Z</time>
      </trkpt>
      <trkpt lat="48.3171" lon="3.13413">
        <ele>83</ele>
        <time>2013-08-03T07:02:20Z</time>
      </trkpt>
      <trkpt lat="48.31709" lon="3.1342">
        <ele>84</ele>
        <time>2013-08-03T07:02:25Z</time>
      </trkpt>
      <trkpt lat="48.31706" lon="3.13425">
        <ele>84</ele>
        <time>2013-08-03T07:02:29Z</time>
      </trkpt>
      <trkpt lat="48.31702" lon="3.13431">
        <ele>84</ele>
        <time>2013-08-03T07:02:34Z</time>
      </trkpt>
      <trkpt lat="48.31701" lon="3.13438">
        <ele>84</ele>
        <time>2013-08-03T07:02:38Z</time>
      </trkpt>
      <trkpt lat="48.31701" lon="3.13445">
        <ele>84</ele>
        <time>2013-08-03T07:02:44Z</time>
      </trkpt>
      <trkpt lat="48.317" lon="3.13452">
        <ele>84</ele>
        <time>2013-08-03T07:02:48Z</time>
      </trkpt>
      <trkpt lat="48.31684" lon="3.13501">
        <ele>82</ele>
        <time>2013-08-03T07:03:22Z</time>
      </trkpt>
      <trkpt lat="48.31683" lon="3.13509">
        <ele>82</ele>
        <time>2013-08-03T07:03:27Z</time>
      </trkpt>
      <trkpt lat="48.3168" lon="3.13518">
        <ele>82</ele>
        <time>2013-08-03T07:03:33Z</time>
      </trkpt>
      <trkpt lat="48.31676" lon="3.13526">
        <ele>82</ele>
        <time>2013-08-03T07:03:38Z</time>
      </trkpt>
      <trkpt lat="48.31675" lon="3.13535">
        <ele>81</ele>
        <time>2013-08-03T07:03:51Z</time>
      </trkpt>
      <trkpt lat="48.31672" lon="3.13542">
        <ele>81</ele>
        <time>2013-08-03T07:03:54Z</time>
      </trkpt>
      <trkpt lat="48.3167" lon="3.13548">
        <ele>81</ele>
        <time>2013-08-03T07:03:58Z</time>
      </trkpt>
      <trkpt lat="48.31668" lon="3.13556">
        <ele>81</ele>
        <time>2013-08-03T07:04:03Z</time>
      </trkpt>
      <trkpt lat="48.31667" lon="3.13563">
        <ele>81</ele>
        <time>2013-08-03T07:04:06Z</time>
      </trkpt>
      <trkpt lat="48.31665" lon="3.1357">
        <ele>83</ele>
        <time>2013-08-03T07:04:10Z</time>
      </trkpt>
      <trkpt lat="48.31663" lon="3.13587">
        <ele>81</ele>
        <time>2013-08-03T07:04:21Z</time>
      </trkpt>
      <trkpt lat="48.3166" lon="3.13601">
        <ele>82</ele>
        <time>2013-08-03T07:04:28Z</time>
      </trkpt>
      <trkpt lat="48.31656" lon="3.13612">
        <ele>82</ele>
        <time>2013-08-03T07:04:41Z</time>
      </trkpt>
      <trkpt lat="48.31654" lon="3.13618">
        <ele>82</ele>
        <time>2013-08-03T07:04:45Z</time>
      </trkpt>
      <trkpt lat="48.31652" lon="3.13625">
        <ele>82</ele>
        <time>2013-08-03T07:04:48Z</time>
      </trkpt>
      <trkpt lat="48.31651" lon="3.13632">
        <ele>81</ele>
        <time>2013-08-03T07:04:52Z</time>
      </trkpt>
      <trkpt lat="48.31651" lon="3.1364">
        <ele>81</ele>
        <time>2013-08-03T07:04:55Z</time>
      </trkpt>
      <trkpt lat="48.31652" lon="3.13651">
        <ele>81</ele>
        <time>2013-08-03T07:04:59Z</time>
      </trkpt>
      <trkpt lat="48.31652" lon="3.13658">
        <ele>81</ele>
        <time>2013-08-03T07:05:02Z</time>
      </trkpt>
      <trkpt lat="48.31648" lon="3.13665">
        <ele>81</ele>
        <time>2013-08-03T07:05:15Z</time>
      </trkpt>
      <trkpt lat="48.31646" lon="3.13671">
        <ele>79</ele>
        <time>2013-08-03T07:05:20Z</time>
      </trkpt>
      <trkpt lat="48.31644" lon="3.13678">
        <ele>79</ele>
        <time>2013-08-03T07:05:28Z</time>
      </trkpt>
      <trkpt lat="48.31642" lon="3.13688">
        <ele>79</ele>
        <time>2013-08-03T07:05:32Z</time>
      </trkpt>
      <trkpt lat="48.3164" lon="3.13696">
        <ele>79</ele>
        <time>2013-08-03T07:05:35Z</time>
      </trkpt>
      <trkpt lat="48.31638" lon="3.13704">
        <ele>79</ele>
        <time>2013-08-03T07:05:38Z</time>
      </trkpt>
      <trkpt lat="48.31636" lon="3.13711">
        <ele>78</ele>
        <time>2013-08-03T07:05:41Z</time>
      </trkpt>
      <trkpt lat="48.31633" lon="3.13717">
        <ele>78</ele>
        <time>2013-08-03T07:05:44Z</time>
      </trkpt>
      <trkpt lat="48.31631" lon="3.13724">
        <ele>78</ele>
        <time>2013-08-03T07:05:49Z</time>
      </trkpt>
      <trkpt lat="48.31632" lon="3.13731">
        <ele>78</ele>
        <time>2013-08-03T07:05:54Z</time>
      </trkpt>
      <trkpt lat="48.31631" lon="3.13739">
        <ele>78</ele>
        <time>2013-08-03T07:05:58Z</time>
      </trkpt>
      <trkpt lat="48.31629" lon="3.13746">
        <ele>78</ele>
        <time>2013-08-03T07:06:02Z</time>
      </trkpt>
      <trkpt lat="48.31626" lon="3.13751">
        <ele>75</ele>
        <time>2013-08-03T07:06:07Z</time>
      </trkpt>
      <trkpt lat="48.31622" lon="3.13765">
        <ele>75</ele>
        <time>2013-08-03T07:06:16Z</time>
      </trkpt>
      <trkpt lat="48.31618" lon="3.1377">
        <ele>75</ele>
        <time>2013-08-03T07:06:21Z</time>
      </trkpt>
      <trkpt lat="48.31615" lon="3.13775">
        <ele>75</ele>
        <time>2013-08-03T07:06:25Z</time>
      </trkpt>
      <trkpt lat="48.31613" lon="3.13782">
        <ele>75</ele>
        <time>2013-08-03T07:06:29Z</time>
      </trkpt>
      <trkpt lat="48.31611" lon="3.13789">
        <ele>75</ele>
        <time>2013-08-03T07:06:33Z</time>
      </trkpt>
      <trkpt lat="48.3161" lon="3.13797">
        <ele>75</ele>
        <time>2013-08-03T07:06:38Z</time>
      </trkpt>
      <trkpt lat="48.31608" lon="3.13803">
        <ele>75</ele>
        <time>2013-08-03T07:06:44Z</time>
      </trkpt>
      <trkpt lat="48.31605" lon="3.13809">
        <ele>74</ele>
        <time>2013-08-03T07:06:48Z</time>
      </trkpt>
      <trkpt lat="48.31601" lon="3.13812">
        <ele>74</ele>
        <time>2013-08-03T07:06:54Z</time>
      </trkpt>
      <trkpt lat="48.31595" lon="3.13816">
        <ele>74</ele>
        <time>2013-08-03T07:06:58Z</time>
      </trkpt>
      <trkpt lat="48.31591" lon="3.13818">
        <ele>74</ele>
        <time>2013-08-03T07:07:01Z</time>
      </trkpt>
      <trkpt lat="48.31586" lon="3.13819">
        <ele>74</ele>
        <time>2013-08-03T07:07:05Z</time>
      </trkpt>
      <trkpt lat="48.31582" lon="3.13817">
        <ele>76</ele>
        <time>2013-08-03T07:07:13Z</time>
      </trkpt>
      <trkpt lat="48.31578" lon="3.13822">
        <ele>76</ele>
        <time>2013-08-03T07:07:17Z</time>
      </trkpt>
      <trkpt lat="48.31576" lon="3.13828">
        <ele>76</ele>
        <time>2013-08-03T07:07:20Z</time>
      </trkpt>
      <trkpt lat="48.31575" lon="3.13836">
        <ele>75</ele>
        <time>2013-08-03T07:07:23Z</time>
      </trkpt>
      <trkpt lat="48.31573" lon="3.13843">
        <ele>75</ele>
        <time>2013-08-03T07:07:28Z</time>
      </trkpt>
      <trkpt lat="48.31567" lon="3.13853">
        <ele>76</ele>
        <time>2013-08-03T07:07:37Z</time>
      </trkpt>
      <trkpt lat="48.31563" lon="3.13858">
        <ele>76</ele>
        <time>2013-08-03T07:07:40Z</time>
      </trkpt>
      <trkpt lat="48.3156" lon="3.13863">
        <ele>76</ele>
        <time>2013-08-03T07:07:45Z</time>
      </trkpt>
      <trkpt lat="48.31554" lon="3.13874">
        <ele>76</ele>
        <time>2013-08-03T07:08:10Z</time>
      </trkpt>
      <trkpt lat="48.31551" lon="3.13881">
        <ele>76</ele>
        <time>2013-08-03T07:08:15Z</time>
      </trkpt>
      <trkpt lat="48.31547" lon="3.13889">
        <ele>76</ele>
        <time>2013-08-03T07:08:18Z</time>
      </trkpt>
      <trkpt lat="48.31543" lon="3.13893">
        <ele>76</ele>
        <time>2013-08-03T07:08:22Z</time>
      </trkpt>
      <trkpt lat="48.3154" lon="3.13901">
        <ele>76</ele>
        <time>2013-08-03T07:08:30Z</time>
      </trkpt>
      <trkpt lat="48.31536" lon="3.13908">
        <ele>76</ele>
        <time>2013-08-03T07:08:33Z</time>
      </trkpt>
      <trkpt lat="48.31532" lon="3.13913">
        <ele>76</ele>
        <time>2013-08-03T07:08:35Z</time>
      </trkpt>
      <trkpt lat="48.31528" lon="3.13919">
        <ele>75</ele>
        <time>2013-08-03T07:08:38Z</time>
      </trkpt>
      <trkpt lat="48.31524" lon="3.13927">
        <ele>75</ele>
        <time>2013-08-03T07:08:42Z</time>
      </trkpt>
      <trkpt lat="48.31521" lon="3.13936">
        <ele>75</ele>
        <time>2013-08-03T07:08:51Z</time>
      </trkpt>
      <trkpt lat="48.31517" lon="3.13943">
        <ele>75</ele>
        <time>2013-08-03T07:08:55Z</time>
      </trkpt>
      <trkpt lat="48.31513" lon="3.13949">
        <ele>74</ele>
        <time>2013-08-03T07:08:59Z</time>
      </trkpt>
      <trkpt lat="48.31511" lon="3.13956">
        <ele>74</ele>
        <time>2013-08-03T07:09:04Z</time>
      </trkpt>
      <trkpt lat="48.31507" lon="3.1396">
        <ele>74</ele>
        <time>2013-08-03T07:09:07Z</time>
      </trkpt>
      <trkpt lat="48.31502" lon="3.13964">
        <ele>74</ele>
        <time>2013-08-03T07:09:10Z</time>
      </trkpt>
      <trkpt lat="48.31499" lon="3.13969">
        <ele>76</ele>
        <time>2013-08-03T07:09:13Z</time>
      </trkpt>
      <trkpt lat="48.31496" lon="3.13974">
        <ele>75</ele>
        <time>2013-08-03T07:09:19Z</time>
      </trkpt>
      <trkpt lat="48.31494" lon="3.13981">
        <ele>75</ele>
        <time>2013-08-03T07:09:23Z</time>
      </trkpt>
      <trkpt lat="48.31492" lon="3.13988">
        <ele>75</ele>
        <time>2013-08-03T07:09:27Z</time>
      </trkpt>
      <trkpt lat="48.31489" lon="3.13995">
        <ele>74</ele>
        <time>2013-08-03T07:09:31Z</time>
      </trkpt>
      <trkpt lat="48.31487" lon="3.14001">
        <ele>73</ele>
        <time>2013-08-03T07:09:36Z</time>
      </trkpt>
      <trkpt lat="48.31484" lon="3.14005">
        <ele>73</ele>
        <time>2013-08-03T07:09:41Z</time>
      </trkpt>
      <trkpt lat="48.31479" lon="3.1401">
        <ele>73</ele>
        <time>2013-08-03T07:09:46Z</time>
      </trkpt>
      <trkpt lat="48.31475" lon="3.14015">
        <ele>73</ele>
        <time>2013-08-03T07:09:50Z</time>
      </trkpt>
      <trkpt lat="48.31474" lon="3.14022">
        <ele>73</ele>
        <time>2013-08-03T07:09:57Z</time>
      </trkpt>
      <trkpt lat="48.31472" lon="3.1403">
        <ele>73</ele>
        <time>2013-08-03T07:10:31Z</time>
      </trkpt>
      <trkpt lat="48.31468" lon="3.14035">
        <ele>73</ele>
        <time>2013-08-03T07:10:34Z</time>
      </trkpt>
      <trkpt lat="48.31464" lon="3.1404">
        <ele>73</ele>
        <time>2013-08-03T07:10:37Z</time>
      </trkpt>
      <trkpt lat="48.31462" lon="3.14046">
        <ele>73</ele>
        <time>2013-08-03T07:10:40Z</time>
      </trkpt>
      <trkpt lat="48.3146" lon="3.14054">
        <ele>73</ele>
        <time>2013-08-03T07:10:43Z</time>
      </trkpt>
      <trkpt lat="48.31458" lon="3.14061">
        <ele>73</ele>
        <time>2013-08-03T07:10:48Z</time>
      </trkpt>
      <trkpt lat="48.31455" lon="3.14066">
        <ele>73</ele>
        <time>2013-08-03T07:10:52Z</time>
      </trkpt>
      <trkpt lat="48.3145" lon="3.14071">
        <ele>73</ele>
        <time>2013-08-03T07:10:57Z</time>
      </trkpt>
      <trkpt lat="48.31447" lon="3.14076">
        <ele>72</ele>
        <time>2013-08-03T07:11:01Z</time>
      </trkpt>
      <trkpt lat="48.31443" lon="3.1408">
        <ele>72</ele>
        <time>2013-08-03T07:11:05Z</time>
      </trkpt>
      <trkpt lat="48.31438" lon="3.14082">
        <ele>72</ele>
        <time>2013-08-03T07:11:08Z</time>
      </trkpt>
      <trkpt lat="48.31434" lon="3.14086">
        <ele>71</ele>
        <time>2013-08-03T07:11:12Z</time>
      </trkpt>
      <trkpt lat="48.3143" lon="3.14091">
        <ele>71</ele>
        <time>2013-08-03T07:11:16Z</time>
      </trkpt>
      <trkpt lat="48.31426" lon="3.14095">
        <ele>71</ele>
        <time>2013-08-03T07:11:21Z</time>
      </trkpt>
      <trkpt lat="48.31421" lon="3.141">
        <ele>71</ele>
        <time>2013-08-03T07:11:26Z</time>
      </trkpt>
      <trkpt lat="48.31417" lon="3.14106">
        <ele>71</ele>
        <time>2013-08-03T07:11:31Z</time>
      </trkpt>
      <trkpt lat="48.31413" lon="3.1411">
        <ele>71</ele>
        <time>2013-08-03T07:11:36Z</time>
      </trkpt>
      <trkpt lat="48.31409" lon="3.14114">
        <ele>71</ele>
        <time>2013-08-03T07:11:40Z</time>
      </trkpt>
      <trkpt lat="48.31408" lon="3.14121">
        <ele>71</ele>
        <time>2013-08-03T07:11:46Z</time>
      </trkpt>
      <trkpt lat="48.31403" lon="3.14126">
        <ele>71</ele>
        <time>2013-08-03T07:11:50Z</time>
      </trkpt>
      <trkpt lat="48.31399" lon="3.1413">
        <ele>71</ele>
        <time>2013-08-03T07:11:53Z</time>
      </trkpt>
      <trkpt lat="48.31396" lon="3.14135">
        <ele>71</ele>
        <time>2013-08-03T07:11:56Z</time>
      </trkpt>
      <trkpt lat="48.31393" lon="3.14141">
        <ele>70</ele>
        <time>2013-08-03T07:12:01Z</time>
      </trkpt>
      <trkpt lat="48.31392" lon="3.14149">
        <ele>70</ele>
        <time>2013-08-03T07:12:05Z</time>
      </trkpt>
      <trkpt lat="48.31389" lon="3.14155">
        <ele>70</ele>
        <time>2013-08-03T07:12:10Z</time>
      </trkpt>
      <trkpt lat="48.31369" lon="3.142">
        <ele>71</ele>
        <time>2013-08-03T07:12:47Z</time>
      </trkpt>
      <trkpt lat="48.31366" lon="3.14207">
        <ele>71</ele>
        <time>2013-08-03T07:12:51Z</time>
      </trkpt>
      <trkpt lat="48.31364" lon="3.14213">
        <ele>72</ele>
        <time>2013-08-03T07:12:54Z</time>
      </trkpt>
      <trkpt lat="48.31363" lon="3.1422">
        <ele>72</ele>
        <time>2013-08-03T07:12:56Z</time>
      </trkpt>
      <trkpt lat="48.31359" lon="3.14226">
        <ele>72</ele>
        <time>2013-08-03T07:13:01Z</time>
      </trkpt>
      <trkpt lat="48.31357" lon="3.14228">
        <ele>72</ele>
        <time>2013-08-03T07:13:07Z</time>
      </trkpt>
      <trkpt lat="48.31356" lon="3.14236">
        <ele>72</ele>
        <time>2013-08-03T07:13:13Z</time>
      </trkpt>
      <trkpt lat="48.31356" lon="3.14243">
        <ele>72</ele>
        <time>2013-08-03T07:13:16Z</time>
      </trkpt>
      <trkpt lat="48.31354" lon="3.1425">
        <ele>72</ele>
        <time>2013-08-03T07:13:19Z</time>
      </trkpt>
      <trkpt lat="48.31352" lon="3.14258">
        <ele>74</ele>
        <time>2013-08-03T07:13:22Z</time>
      </trkpt>
      <trkpt lat="48.31349" lon="3.14264">
        <ele>75</ele>
        <time>2013-08-03T07:13:25Z</time>
      </trkpt>
      <trkpt lat="48.31347" lon="3.1427">
        <ele>75</ele>
        <time>2013-08-03T07:13:29Z</time>
      </trkpt>
      <trkpt lat="48.31346" lon="3.14278">
        <ele>75</ele>
        <time>2013-08-03T07:13:36Z</time>
      </trkpt>
      <trkpt lat="48.31344" lon="3.14285">
        <ele>75</ele>
        <time>2013-08-03T07:13:40Z</time>
      </trkpt>
      <trkpt lat="48.3134" lon="3.1429">
        <ele>75</ele>
        <time>2013-08-03T07:13:47Z</time>
      </trkpt>
      <trkpt lat="48.31337" lon="3.14297">
        <ele>76</ele>
        <time>2013-08-03T07:13:52Z</time>
      </trkpt>
      <trkpt lat="48.31335" lon="3.14303">
        <ele>76</ele>
        <time>2013-08-03T07:13:56Z</time>
      </trkpt>
      <trkpt lat="48.31332" lon="3.1431">
        <ele>79</ele>
        <time>2013-08-03T07:14:00Z</time>
      </trkpt>
      <trkpt lat="48.3133" lon="3.14317">
        <ele>79</ele>
        <time>2013-08-03T07:14:05Z</time>
      </trkpt>
      <trkpt lat="48.31329" lon="3.14324">
        <ele>79</ele>
        <time>2013-08-03T07:14:09Z</time>
      </trkpt>
      <trkpt lat="48.31327" lon="3.14334">
        <ele>80</ele>
        <time>2013-08-03T07:14:31Z</time>
      </trkpt>
      <trkpt lat="48.31324" lon="3.14341">
        <ele>81</ele>
        <time>2013-08-03T07:14:35Z</time>
      </trkpt>
      <trkpt lat="48.31322" lon="3.14348">
        <ele>82</ele>
        <time>2013-08-03T07:14:38Z</time>
      </trkpt>
      <trkpt lat="48.3132" lon="3.14354">
        <ele>83</ele>
        <time>2013-08-03T07:14:41Z</time>
      </trkpt>
      <trkpt lat="48.31318" lon="3.1436">
        <ele>83</ele>
        <time>2013-08-03T07:14:44Z</time>
      </trkpt>
      <trkpt lat="48.31314" lon="3.14367">
        <ele>84</ele>
        <time>2013-08-03T07:14:48Z</time>
      </trkpt>
      <trkpt lat="48.31312" lon="3.14373">
        <ele>84</ele>
        <time>2013-08-03T07:14:51Z</time>
      </trkpt>
      <trkpt lat="48.3131" lon="3.1438">
        <ele>85</ele>
        <time>2013-08-03T07:14:55Z</time>
      </trkpt>
      <trkpt lat="48.31308" lon="3.14387">
        <ele>85</ele>
        <time>2013-08-03T07:14:58Z</time>
      </trkpt>
      <trkpt lat="48.31306" lon="3.14394">
        <ele>85</ele>
        <time>2013-08-03T07:15:02Z</time>
      </trkpt>
      <trkpt lat="48.31305" lon="3.14398">
        <ele>85</ele>
        <time>2013-08-03T07:15:09Z</time>
      </trkpt>
      <trkpt lat="48.31305" lon="3.14406">
        <ele>86</ele>
        <time>2013-08-03T07:15:21Z</time>
      </trkpt>
      <trkpt lat="48.31306" lon="3.14413">
        <ele>86</ele>
        <time>2013-08-03T07:15:24Z</time>
      </trkpt>
      <trkpt lat="48.31304" lon="3.14421">
        <ele>88</ele>
        <time>2013-08-03T07:15:28Z</time>
      </trkpt>
      <trkpt lat="48.31301" lon="3.14426">
        <ele>88</ele>
        <time>2013-08-03T07:15:31Z</time>
      </trkpt>
      <trkpt lat="48.31298" lon="3.1443">
        <ele>89</ele>
        <time>2013-08-03T07:15:33Z</time>
      </trkpt>
      <trkpt lat="48.31294" lon="3.14436">
        <ele>89</ele>
        <time>2013-08-03T07:15:36Z</time>
      </trkpt>
      <trkpt lat="48.31291" lon="3.14442">
        <ele>89</ele>
        <time>2013-08-03T07:15:39Z</time>
      </trkpt>
      <trkpt lat="48.31286" lon="3.14447">
        <ele>89</ele>
        <time>2013-08-03T07:15:42Z</time>
      </trkpt>
      <trkpt lat="48.31283" lon="3.14451">
        <ele>89</ele>
        <time>2013-08-03T07:15:47Z</time>
      </trkpt>
      <trkpt lat="48.31282" lon="3.14459">
        <ele>90</ele>
        <time>2013-08-03T07:15:53Z</time>
      </trkpt>
      <trkpt lat="48.31281" lon="3.14466">
        <ele>90</ele>
        <time>2013-08-03T07:15:57Z</time>
      </trkpt>
      <trkpt lat="48.31281" lon="3.14473">
        <ele>90</ele>
        <time>2013-08-03T07:16:06Z</time>
      </trkpt>
      <trkpt lat="48.31283" lon="3.14477">
        <ele>90</ele>
        <time>2013-08-03T07:16:39Z</time>
      </trkpt>
      <trkpt lat="48.31284" lon="3.14484">
        <ele>90</ele>
        <time>2013-08-03T07:16:42Z</time>
      </trkpt>
      <trkpt lat="48.31285" lon="3.14491">
        <ele>90</ele>
        <time>2013-08-03T07:16:46Z</time>
      </trkpt>
      <trkpt lat="48.31286" lon="3.14498">
        <ele>90</ele>
        <time>2013-08-03T07:16:49Z</time>
      </trkpt>
      <trkpt lat="48.31285" lon="3.14506">
        <ele>90</ele>
        <time>2013-08-03T07:16:56Z</time>
      </trkpt>
      <trkpt lat="48.31285" lon="3.14514">
        <ele>89</ele>
        <time>2013-08-03T07:17:00Z</time>
      </trkpt>
      <trkpt lat="48.31283" lon="3.14521">
        <ele>89</ele>
        <time>2013-08-03T07:17:03Z</time>
      </trkpt>
      <trkpt lat="48.31283" lon="3.14528">
        <ele>89</ele>
        <time>2013-08-03T07:17:06Z</time>
      </trkpt>
      <trkpt lat="48.31282" lon="3.14536">
        <ele>89</ele>
        <time>2013-08-03T07:17:10Z</time>
      </trkpt>
      <trkpt lat="48.3128" lon="3.14543">
        <ele>89</ele>
        <time>2013-08-03T07:17:15Z</time>
      </trkpt>
      <trkpt lat="48.31279" lon="3.14549">
        <ele>89</ele>
        <time>2013-08-03T07:17:21Z</time>
      </trkpt>
      <trkpt lat="48.31276" lon="3.14555">
        <ele>89</ele>
        <time>2013-08-03T07:17:25Z</time>
      </trkpt>
      <trkpt lat="48.31272" lon="3.14559">
        <ele>89</ele>
        <time>2013-08-03T07:17:29Z</time>
      </trkpt>
      <trkpt lat="48.31246" lon="3.14596">
        <ele>89</ele>
        <time>2013-08-03T07:18:03Z</time>
      </trkpt>
      <trkpt lat="48.31243" lon="3.14602">
        <ele>89</ele>
        <time>2013-08-03T07:18:08Z</time>
      </trkpt>
      <trkpt lat="48.31241" lon="3.14607">
        <ele>88</ele>
        <time>2013-08-03T07:18:12Z</time>
      </trkpt>
      <trkpt lat="48.31239" lon="3.14614">
        <ele>88</ele>
        <time>2013-08-03T07:18:17Z</time>
      </trkpt>
      <trkpt lat="48.31237" lon="3.14621">
        <ele>88</ele>
        <time>2013-08-03T07:18:25Z</time>
      </trkpt>
      <trkpt lat="48.31237" lon="3.14629">
        <ele>87</ele>
        <time>2013-08-03T07:18:29Z</time>
      </trkpt>
      <trkpt lat="48.31236" lon="3.14636">
        <ele>87</ele>
        <time>2013-08-03T07:18:33Z</time>
      </trkpt>
      <trkpt lat="48.31234" lon="3.14643">
        <ele>87</ele>
        <time>2013-08-03T07:18:38Z</time>
      </trkpt>
      <trkpt lat="48.31232" lon="3.14651">
        <ele>86</ele>
        <time>2013-08-03T07:18:43Z</time>
      </trkpt>
      <trkpt lat="48.31229" lon="3.14658">
        <ele>86</ele>
        <time>2013-08-03T07:18:48Z</time>
      </trkpt>
      <trkpt lat="48.31226" lon="3.14665">
        <ele>86</ele>
        <time>2013-08-03T07:18:52Z</time>
      </trkpt>
      <trkpt lat="48.31223" lon="3.14671">
        <ele>83</ele>
        <time>2013-08-03T07:18:56Z</time>
      </trkpt>
      <trkpt lat="48.31222" lon="3.14678">
        <ele>83</ele>
        <time>2013-08-03T07:19:02Z</time>
      </trkpt>
      <trkpt lat="48.31219" lon="3.14684">
        <ele>83</ele>
        <time>2013-08-03T07:19:06Z</time>
      </trkpt>
      <trkpt lat="48.31217" lon="3.1469">
        <ele>83</ele>
        <time>2013-08-03T07:19:10Z</time>
      </trkpt>
      <trkpt lat="48.31216" lon="3.14698">
        <ele>83</ele>
        <time>2013-08-03T07:19:15Z</time>
      </trkpt>
      <trkpt lat="48.31211" lon="3.14707">
        <ele>82</ele>
        <time>2013-08-03T07:19:23Z</time>
      </trkpt>
      <trkpt lat="48.31207" lon="3.14717">
        <ele>82</ele>
        <time>2013-08-03T07:19:32Z</time>
      </trkpt>
      <trkpt lat="48.31207" lon="3.14725">
        <ele>82</ele>
        <time>2013-08-03T07:19:46Z</time>
      </trkpt>
      <trkpt lat="48.31208" lon="3.14732">
        <ele>82</ele>
        <time>2013-08-03T07:19:49Z</time>
      </trkpt>
      <trkpt lat="48.31206" lon="3.14741">
        <ele>82</ele>
        <time>2013-08-03T07:19:53Z</time>
      </trkpt>
      <trkpt lat="48.31203" lon="3.14748">
        <ele>82</ele>
        <time>2013-08-03T07:19:56Z</time>
      </trkpt>
      <trkpt lat="48.312" lon="3.14755">
        <ele>80</ele>
        <time>2013-08-03T07:19:59Z</time>
      </trkpt>
      <trkpt lat="48.31197" lon="3.14761">
        <ele>80</ele>
        <time>2013-08-03T07:20:02Z</time>
      </trkpt>
      <trkpt lat="48.31193" lon="3.14768">
        <ele>80</ele>
        <time>2013-08-03T07:20:06Z</time>
      </trkpt>
      <trkpt lat="48.31189" lon="3.14773">
        <ele>80</ele>
        <time>2013-08-03T07:20:09Z</time>
      </trkpt>
      <trkpt lat="48.31184" lon="3.14777">
        <ele>80</ele>
        <time>2013-08-03T07:20:13Z</time>
      </trkpt>
      <trkpt lat="48.3118" lon="3.14782">
        <ele>80</ele>
        <time>2013-08-03T07:20:18Z</time>
      </trkpt>
      <trkpt lat="48.31177" lon="3.14788">
        <ele>80</ele>
        <time>2013-08-03T07:20:23Z</time>
      </trkpt>
      <trkpt lat="48.31174" lon="3.14793">
        <ele>80</ele>
        <time>2013-08-03T07:20:29Z</time>
      </trkpt>
      <trkpt lat="48.3117" lon="3.14798">
        <ele>80</ele>
        <time>2013-08-03T07:20:34Z</time>
      </trkpt>
      <trkpt lat="48.31167" lon="3.14805">
        <ele>80</ele>
        <time>2013-08-03T07:20:38Z</time>
      </trkpt>
      <trkpt lat="48.31163" lon="3.1481">
        <ele>81</ele>
        <time>2013-08-03T07:20:43Z</time>
      </trkpt>
      <trkpt lat="48.31159" lon="3.14815">
        <ele>81</ele>
        <time>2013-08-03T07:20:47Z</time>
      </trkpt>
      <trkpt lat="48.31156" lon="3.14821">
        <ele>81</ele>
        <time>2013-08-03T07:20:50Z</time>
      </trkpt>
      <trkpt lat="48.31154" lon="3.14824">
        <ele>81</ele>
        <time>2013-08-03T07:20:57Z</time>
      </trkpt>
      <trkpt lat="48.31153" lon="3.14831">
        <ele>81</ele>
        <time>2013-08-03T07:21:07Z</time>
      </trkpt>
      <trkpt lat="48.31149" lon="3.14835">
        <ele>80</ele>
        <time>2013-08-03T07:21:10Z</time>
      </trkpt>
      <trkpt lat="48.31147" lon="3.14841">
        <ele>80</ele>
        <time>2013-08-03T07:21:12Z</time>
      </trkpt>
      <trkpt lat="48.31145" lon="3.14848">
        <ele>80</ele>
        <time>2013-08-03T07:21:15Z</time>
      </trkpt>
      <trkpt lat="48.31142" lon="3.14856">
        <ele>80</ele>
        <time>2013-08-03T07:21:18Z</time>
      </trkpt>
      <trkpt lat="48.31141" lon="3.14863">
        <ele>79</ele>
        <time>2013-08-03T07:21:21Z</time>
      </trkpt>
      <trkpt lat="48.31139" lon="3.14872">
        <ele>79</ele>
        <time>2013-08-03T07:21:33Z</time>
      </trkpt>
      <trkpt lat="48.31137" lon="3.14886">
        <ele>79</ele>
        <time>2013-08-03T07:21:40Z</time>
      </trkpt>
      <trkpt lat="48.31134" lon="3.14892">
        <ele>79</ele>
        <time>2013-08-03T07:21:47Z</time>
      </trkpt>
      <trkpt lat="48.31131" lon="3.14899">
        <ele>79</ele>
        <time>2013-08-03T07:21:51Z</time>
      </trkpt>
      <trkpt lat="48.31127" lon="3.14905">
        <ele>79</ele>
        <time>2013-08-03T07:21:54Z</time>
      </trkpt>
      <trkpt lat="48.31123" lon="3.14912">
        <ele>79</ele>
        <time>2013-08-03T07:21:57Z</time>
      </trkpt>
      <trkpt lat="48.3112" lon="3.14918">
        <ele>76</ele>
        <time>2013-08-03T07:21:59Z</time>
      </trkpt>
      <trkpt lat="48.31118" lon="3.14925">
        <ele>76</ele>
        <time>2013-08-03T07:22:03Z</time>
      </trkpt>
      <trkpt lat="48.31116" lon="3.1493">
        <ele>76</ele>
        <time>2013-08-03T07:22:13Z</time>
      </trkpt>
      <trkpt lat="48.31112" lon="3.14937">
        <ele>76</ele>
        <time>2013-08-03T07:22:23Z</time>
      </trkpt>
      <trkpt lat="48.31111" lon="3.14944">
        <ele>76</ele>
        <time>2013-08-03T07:22:26Z</time>
      </trkpt>
      <trkpt lat="48.31108" lon="3.14951">
        <ele>76</ele>
        <time>2013-08-03T07:22:29Z</time>
      </trkpt>
      <trkpt lat="48.31105" lon="3.14956">
        <ele>76</ele>
        <time>2013-08-03T07:22:31Z</time>
      </trkpt>
      <trkpt lat="48.311" lon="3.14963">
        <ele>75</ele>
        <time>2013-08-03T07:22:34Z</time>
      </trkpt>
      <trkpt lat="48.31096" lon="3.14969">
        <ele>75</ele>
        <time>2013-08-03T07:22:37Z</time>
      </trkpt>
      <trkpt lat="48.31094" lon="3.14973">
        <ele>75</ele>
        <time>2013-08-03T07:22:47Z</time>
      </trkpt>
      <trkpt lat="48.31092" lon="3.1498">
        <ele>75</ele>
        <time>2013-08-03T07:22:58Z</time>
      </trkpt>
      <trkpt lat="48.31087" lon="3.14985">
        <ele>75</ele>
        <time>2013-08-03T07:23:01Z</time>
      </trkpt>
      <trkpt lat="48.31081" lon="3.14992">
        <ele>74</ele>
        <time>2013-08-03T07:23:04Z</time>
      </trkpt>
      <trkpt lat="48.31077" lon="3.14999">
        <ele>74</ele>
        <time>2013-08-03T07:23:07Z</time>
      </trkpt>
      <trkpt lat="48.31074" lon="3.15005">
        <ele>73</ele>
        <time>2013-08-03T07:23:10Z</time>
      </trkpt>
      <trkpt lat="48.31071" lon="3.15011">
        <ele>72</ele>
        <time>2013-08-03T07:23:13Z</time>
      </trkpt>
      <trkpt lat="48.31068" lon="3.15016">
        <ele>72</ele>
        <time>2013-08-03T07:23:17Z</time>
      </trkpt>
      <trkpt lat="48.31064" lon="3.15021">
        <ele>71</ele>
        <time>2013-08-03T07:23:21Z</time>
      </trkpt>
      <trkpt lat="48.3106" lon="3.15027">
        <ele>71</ele>
        <time>2013-08-03T07:23:25Z</time>
      </trkpt>
      <trkpt lat="48.31057" lon="3.15033">
        <ele>71</ele>
        <time>2013-08-03T07:23:29Z</time>
      </trkpt>
      <trkpt lat="48.31053" lon="3.15038">
        <ele>70</ele>
        <time>2013-08-03T07:23:33Z</time>
      </trkpt>
      <trkpt lat="48.3105" lon="3.15043">
        <ele>70</ele>
        <time>2013-08-03T07:23:36Z</time>
      </trkpt>
      <trkpt lat="48.31046" lon="3.15048">
        <ele>70</ele>
        <time>2013-08-03T07:23:41Z</time>
      </trkpt>
      <trkpt lat="48.31041" lon="3.1505">
        <ele>70</ele>
        <time>2013-08-03T07:23:45Z</time>
      </trkpt>
      <trkpt lat="48.31037" lon="3.15052">
        <ele>70</ele>
        <time>2013-08-03T07:23:49Z</time>
      </trkpt>
      <trkpt lat="48.31032" lon="3.15055">
        <ele>70</ele>
        <time>2013-08-03T07:23:54Z</time>
      </trkpt>
      <trkpt lat="48.31028" lon="3.15057">
        <ele>70</ele>
        <time>2013-08-03T07:23:59Z</time>
      </trkpt>
      <trkpt lat="48.31023" lon="3.1506">
        <ele>70</ele>
        <time>2013-08-03T07:24:04Z</time>
      </trkpt>
      <trkpt lat="48.31018" lon="3.15064">
        <ele>69</ele>
        <time>2013-08-03T07:24:09Z</time>
      </trkpt>
      <trkpt lat="48.31015" lon="3.1507">
        <ele>69</ele>
        <time>2013-08-03T07:24:14Z</time>
      </trkpt>
      <trkpt lat="48.31011" lon="3.15075">
        <ele>69</ele>
        <time>2013-08-03T07:24:20Z</time>
      </trkpt>
      <trkpt lat="48.31007" lon="3.15078">
        <ele>69</ele>
        <time>2013-08-03T07:24:25Z</time>
      </trkpt>
      <trkpt lat="48.31004" lon="3.15083">
        <ele>68</ele>
        <time>2013-08-03T07:24:28Z</time>
      </trkpt>
      <trkpt lat="48.30999" lon="3.15087">
        <ele>68</ele>
        <time>2013-08-03T07:24:31Z</time>
      </trkpt>
      <trkpt lat="48.30995" lon="3.1509">
        <ele>68</ele>
        <time>2013-08-03T07:24:34Z</time>
      </trkpt>
      <trkpt lat="48.30991" lon="3.15095">
        <ele>69</ele>
        <time>2013-08-03T07:24:38Z</time>
      </trkpt>
      <trkpt lat="48.30987" lon="3.151">
        <ele>69</ele>
        <time>2013-08-03T07:24:46Z</time>
      </trkpt>
      <trkpt lat="48.30982" lon="3.15105">
        <ele>69</ele>
        <time>2013-08-03T07:24:50Z</time>
      </trkpt>
      <trkpt lat="48.30977" lon="3.15109">
        <ele>69</ele>
        <time>2013-08-03T07:24:53Z</time>
      </trkpt>
      <trkpt lat="48.30973" lon="3.15113">
        <ele>69</ele>
        <time>2013-08-03T07:24:57Z</time>
      </trkpt>
      <trkpt lat="48.30969" lon="3.15119">
        <ele>69</ele>
        <time>2013-08-03T07:25:02Z</time>
      </trkpt>
      <trkpt lat="48.30965" lon="3.15126">
        <ele>69</ele>
        <time>2013-08-03T07:25:06Z</time>
      </trkpt>
      <trkpt lat="48.30963" lon="3.15132">
        <ele>69</ele>
        <time>2013-08-03T07:25:09Z</time>
      </trkpt>
      <trkpt lat="48.30961" lon="3.15139">
        <ele>70</ele>
        <time>2013-08-03T07:25:13Z</time>
      </trkpt>
      <trkpt lat="48.3096" lon="3.15146">
        <ele>70</ele>
        <time>2013-08-03T07:25:17Z</time>
      </trkpt>
      <trkpt lat="48.30961" lon="3.15153">
        <ele>70</ele>
        <time>2013-08-03T07:25:21Z</time>
      </trkpt>
      <trkpt lat="48.3096" lon="3.15161">
        <ele>70</ele>
        <time>2013-08-03T07:25:26Z</time>
      </trkpt>
      <trkpt lat="48.30959" lon="3.15167">
        <ele>71</ele>
        <time>2013-08-03T07:25:29Z</time>
      </trkpt>
      <trkpt lat="48.30959" lon="3.15175">
        <ele>71</ele>
        <time>2013-08-03T07:25:33Z</time>
      </trkpt>
      <trkpt lat="48.30962" lon="3.15181">
        <ele>71</ele>
        <time>2013-08-03T07:25:37Z</time>
      </trkpt>
      <trkpt lat="48.30965" lon="3.15187">
        <ele>72</ele>
        <time>2013-08-03T07:25:43Z</time>
      </trkpt>
      <trkpt lat="48.30968" lon="3.15193">
        <ele>72</ele>
        <time>2013-08-03T07:25:47Z</time>
      </trkpt>
      <trkpt lat="48.3097" lon="3.15199">
        <ele>72</ele>
        <time>2013-08-03T07:25:51Z</time>
      </trkpt>
      <trkpt lat="48.30974" lon="3.15205">
        <ele>72</ele>
        <time>2013-08-03T07:25:56Z</time>
      </trkpt>
      <trkpt lat="48.30979" lon="3.15206">
        <ele>72</ele>
        <time>2013-08-03T07:25:59Z</time>
      </trkpt>
      <trkpt lat="48.30984" lon="3.15208">
        <ele>72</ele>
        <time>2013-08-03T07:26:02Z</time>
      </trkpt>
      <trkpt lat="48.30989" lon="3.1521">
        <ele>72</ele>
        <time>2013-08-03T07:26:06Z</time>
      </trkpt>
      <trkpt lat="48.30993" lon="3.15214">
        <ele>72</ele>
        <time>2013-08-03T07:26:12Z</time>
      </trkpt>
      <trkpt lat="48.30997" lon="3.15217">
        <ele>72</ele>
        <time>2013-08-03T07:26:17Z</time>
      </trkpt>
      <trkpt lat="48.31002" lon="3.15217">
        <ele>69</ele>
        <time>2013-08-03T07:26:21Z</time>
      </trkpt>
      <trkpt lat="48.31006" lon="3.15219">
        <ele>69</ele>
        <time>2013-08-03T07:26:26Z</time>
      </trkpt>
      <trkpt lat="48.31011" lon="3.15223">
        <ele>69</ele>
        <time>2013-08-03T07:26:31Z</time>
      </trkpt>
      <trkpt lat="48.31015" lon="3.15228">
        <ele>69</ele>
        <time>2013-08-03T07:26:36Z</time>
      </trkpt>
      <trkpt lat="48.3102" lon="3.15232">
        <ele>69</ele>
        <time>2013-08-03T07:26:40Z</time>
      </trkpt>
      <trkpt lat="48.31023" lon="3.15234">
        <ele>69</ele>
        <time>2013-08-03T07:26:48Z</time>
      </trkpt>
      <trkpt lat="48.31028" lon="3.15235">
        <ele>68</ele>
        <time>2013-08-03T07:26:53Z</time>
      </trkpt>
      <trkpt lat="48.31033" lon="3.15235">
        <ele>68</ele>
        <time>2013-08-03T07:26:58Z</time>
      </trkpt>
      <trkpt lat="48.31039" lon="3.15237">
        <ele>68</ele>
        <time>2013-08-03T07:27:02Z</time>
      </trkpt>
      <trkpt lat="48.31043" lon="3.15241">
        <ele>67</ele>
        <time>2013-08-03T07:27:05Z</time>
      </trkpt>
      <trkpt lat="48.31048" lon="3.15243">
        <ele>67</ele>
        <time>2013-08-03T07:27:09Z</time>
      </trkpt>
      <trkpt lat="48.31053" lon="3.15244">
        <ele>67</ele>
        <time>2013-08-03T07:27:12Z</time>
      </trkpt>
      <trkpt lat="48.31058" lon="3.15245">
        <ele>66</ele>
        <time>2013-08-03T07:27:17Z</time>
      </trkpt>
      <trkpt lat="48.31063" lon="3.15244">
        <ele>66</ele>
        <time>2013-08-03T07:27:22Z</time>
      </trkpt>
      <trkpt lat="48.31068" lon="3.15246">
        <ele>66</ele>
        <time>2013-08-03T07:27:27Z</time>
      </trkpt>
      <trkpt lat="48.31072" lon="3.15251">
        <ele>65</ele>
        <time>2013-08-03T07:27:31Z</time>
      </trkpt>
      <trkpt lat="48.31077" lon="3.15254">
        <ele>65</ele>
        <time>2013-08-03T07:27:35Z</time>
      </trkpt>
      <trkpt lat="48.31081" lon="3.15256">
        <ele>65</ele>
        <time>2013-08-03T07:27:39Z</time>
      </trkpt>
      <trkpt lat="48.31086" lon="3.15259">
        <ele>64</ele>
        <time>2013-08-03T07:27:45Z</time>
      </trkpt>
      <trkpt lat="48.31091" lon="3.15261">
        <ele>63</ele>
        <time>2013-08-03T07:27:51Z</time>
      </trkpt>
      <trkpt lat="48.31095" lon="3.15264">
        <ele>63</ele>
        <time>2013-08-03T07:27:56Z</time>
      </trkpt>
      <trkpt lat="48.311" lon="3.15267">
        <ele>63</ele>
        <time>2013-08-03T07:27:59Z</time>
      </trkpt>
      <trkpt lat="48.31104" lon="3.15271">
        <ele>63</ele>
        <time>2013-08-03T07:28:02Z</time>
      </trkpt>
      <trkpt lat="48.31109" lon="3.15274">
        <ele>63</ele>
        <time>2013-08-03T07:28:06Z</time>
      </trkpt>
      <trkpt lat="48.31113" lon="3.15279">
        <ele>63</ele>
        <time>2013-08-03T07:28:12Z</time>
      </trkpt>
      <trkpt lat="48.31116" lon="3.15285">
        <ele>63</ele>
        <time>2013-08-03T07:28:17Z</time>
      </trkpt>
      <trkpt lat="48.3112" lon="3.1529">
        <ele>63</ele>
        <time>2013-08-03T07:28:22Z</time>
      </trkpt>
      <trkpt lat="48.31124" lon="3.15294">
        <ele>63</ele>
        <time>2013-08-03T07:28:26Z</time>
      </trkpt>
      <trkpt lat="48.31128" lon="3.15299">
        <ele>63</ele>
        <time>2013-08-03T07:28:31Z</time>
      </trkpt>
      <trkpt lat="48.31132" lon="3.15302">
        <ele>63</ele>
        <time>2013-08-03T07:28:35Z</time>
      </trkpt>
      <trkpt lat="48.31135" lon="3.15306">
        <ele>63</ele>
        <time>2013-08-03T07:28:38Z</time>
      </trkpt>
      <trkpt lat="48.3114" lon="3.15312">
        <ele>63</ele>
        <time>2013-08-03T07:28:42Z</time>
      </trkpt>
      <trkpt lat="48.31143" lon="3.15317">
        <ele>63</ele>
        <time>2013-08-03T07:28:46Z</time>
      </trkpt>
      <trkpt lat="48.31147" lon="3.15322">
        <ele>62</ele>
        <time>2013-08-03T07:28:50Z</time>
      </trkpt>
      <trkpt lat="48.3115" lon="3.15326">
        <ele>62</ele>
        <time>2013-08-03T07:28:54Z</time>
      </trkpt>
      <trkpt lat="48.31154" lon="3.1533">
        <ele>62</ele>
        <time>2013-08-03T07:28:59Z</time>
      </trkpt>
      <trkpt lat="48.31158" lon="3.15335">
        <ele>62</ele>
        <time>2013-08-03T07:29:04Z</time>
      </trkpt>
      <trkpt lat="48.31162" lon="3.15339">
        <ele>62</ele>
        <time>2013-08-03T07:29:10Z</time>
      </trkpt>
      <trkpt lat="48.31167" lon="3.15344">
        <ele>62</ele>
        <time>2013-08-03T07:29:14Z</time>
      </trkpt>
      <trkpt lat="48.31172" lon="3.15348">
        <ele>62</ele>
        <time>2013-08-03T07:29:19Z</time>
      </trkpt>
      <trkpt lat="48.31176" lon="3.15351">
        <ele>61</ele>
        <time>2013-08-03T07:29:23Z</time>
      </trkpt>
      <trkpt lat="48.31179" lon="3.15355">
        <ele>61</ele>
        <time>2013-08-03T07:29:27Z</time>
      </trkpt>
      <trkpt lat="48.31183" lon="3.15359">
        <ele>61</ele>
        <time>2013-08-03T07:29:31Z</time>
      </trkpt>
      <trkpt lat="48.31188" lon="3.15364">
        <ele>61</ele>
        <time>2013-08-03T07:29:36Z</time>
      </trkpt>
      <trkpt lat="48.31192" lon="3.15369">
        <ele>61</ele>
        <time>2013-08-03T07:29:41Z</time>
      </trkpt>
      <trkpt lat="48.31193" lon="3.15376">
        <ele>61</ele>
        <time>2013-08-03T07:29:46Z</time>
      </trkpt>
      <trkpt lat="48.31192" lon="3.15383">
        <ele>61</ele>
        <time>2013-08-03T07:29:51Z</time>
      </trkpt>
      <trkpt lat="48.31189" lon="3.15389">
        <ele>61</ele>
        <time>2013-08-03T07:29:55Z</time>
      </trkpt>
      <trkpt lat="48.31187" lon="3.15395">
        <ele>61</ele>
        <time>2013-08-03T07:29:59Z</time>
      </trkpt>
      <trkpt lat="48.31185" lon="3.15402">
        <ele>61</ele>
        <time>2013-08-03T07:30:04Z</time>
      </trkpt>
      <trkpt lat="48.31187" lon="3.15408">
        <ele>61</ele>
        <time>2013-08-03T07:30:08Z</time>
      </trkpt>
      <trkpt lat="48.31183" lon="3.15411">
        <ele>61</ele>
        <time>2013-08-03T07:30:15Z</time>
      </trkpt>
      <trkpt lat="48.31177" lon="3.15412">
        <ele>60</ele>
        <time>2013-08-03T07:30:19Z</time>
      </trkpt>
      <trkpt lat="48.31173" lon="3.15414">
        <ele>60</ele>
        <time>2013-08-03T07:30:23Z</time>
      </trkpt>
      <trkpt lat="48.31168" lon="3.15418">
        <ele>60</ele>
        <time>2013-08-03T07:30:27Z</time>
      </trkpt>
      <trkpt lat="48.31164" lon="3.15423">
        <ele>60</ele>
        <time>2013-08-03T07:30:32Z</time>
      </trkpt>
      <trkpt lat="48.3116" lon="3.15428">
        <ele>60</ele>
        <time>2013-08-03T07:30:38Z</time>
      </trkpt>
      <trkpt lat="48.31156" lon="3.1543">
        <ele>60</ele>
        <time>2013-08-03T07:30:42Z</time>
      </trkpt>
      <trkpt lat="48.31151" lon="3.15433">
        <ele>60</ele>
        <time>2013-08-03T07:30:47Z</time>
      </trkpt>
      <trkpt lat="48.31146" lon="3.15437">
        <ele>60</ele>
        <time>2013-08-03T07:30:51Z</time>
      </trkpt>
      <trkpt lat="48.31146" lon="3.15444">
        <ele>60</ele>
        <time>2013-08-03T07:30:55Z</time>
      </trkpt>
      <trkpt lat="48.31143" lon="3.1545">
        <ele>60</ele>
        <time>2013-08-03T07:31:02Z</time>
      </trkpt>
      <trkpt lat="48.31137" lon="3.15451">
        <ele>60</ele>
        <time>2013-08-03T07:31:05Z</time>
      </trkpt>
      <trkpt lat="48.31131" lon="3.15451">
        <ele>60</ele>
        <time>2013-08-03T07:31:08Z</time>
      </trkpt>
      <trkpt lat="48.31126" lon="3.15453">
        <ele>60</ele>
        <time>2013-08-03T07:31:12Z</time>
      </trkpt>
      <trkpt lat="48.31121" lon="3.15452">
        <ele>60</ele>
        <time>2013-08-03T07:31:16Z</time>
      </trkpt>
      <trkpt lat="48.31116" lon="3.15451">
        <ele>60</ele>
        <time>2013-08-03T07:31:20Z</time>
      </trkpt>
      <trkpt lat="48.31111" lon="3.15451">
        <ele>59</ele>
        <time>2013-08-03T07:31:24Z</time>
      </trkpt>
      <trkpt lat="48.31105" lon="3.15451">
        <ele>59</ele>
        <time>2013-08-03T07:31:29Z</time>
      </trkpt>
      <trkpt lat="48.311" lon="3.1545">
        <ele>59</ele>
        <time>2013-08-03T07:31:33Z</time>
      </trkpt>
      <trkpt lat="48.31095" lon="3.15449">
        <ele>59</ele>
        <time>2013-08-03T07:31:38Z</time>
      </trkpt>
      <trkpt lat="48.3109" lon="3.1545">
        <ele>59</ele>
        <time>2013-08-03T07:31:43Z</time>
      </trkpt>
      <trkpt lat="48.31085" lon="3.1545">
        <ele>59</ele>
        <time>2013-08-03T07:31:50Z</time>
      </trkpt>
      <trkpt lat="48.31081" lon="3.15451">
        <ele>61</ele>
        <time>2013-08-03T07:32:05Z</time>
      </trkpt>
      <trkpt lat="48.31077" lon="3.15454">
        <ele>61</ele>
        <time>2013-08-03T07:32:59Z</time>
      </trkpt>
      <trkpt lat="48.31074" lon="3.1546">
        <ele>60</ele>
        <time>2013-08-03T07:33:04Z</time>
      </trkpt>
      <trkpt lat="48.31072" lon="3.15468">
        <ele>60</ele>
        <time>2013-08-03T07:33:13Z</time>
      </trkpt>
      <trkpt lat="48.31069" lon="3.15473">
        <ele>60</ele>
        <time>2013-08-03T07:33:17Z</time>
      </trkpt>
      <trkpt lat="48.31065" lon="3.1548">
        <ele>60</ele>
        <time>2013-08-03T07:33:21Z</time>
      </trkpt>
      <trkpt lat="48.31062" lon="3.15486">
        <ele>60</ele>
        <time>2013-08-03T07:33:25Z</time>
      </trkpt>
      <trkpt lat="48.31061" lon="3.15494">
        <ele>60</ele>
        <time>2013-08-03T07:33:28Z</time>
      </trkpt>
      <trkpt lat="48.31058" lon="3.15501">
        <ele>59</ele>
        <time>2013-08-03T07:33:42Z</time>
      </trkpt>
      <trkpt lat="48.31053" lon="3.15506">
        <ele>59</ele>
        <time>2013-08-03T07:33:46Z</time>
      </trkpt>
      <trkpt lat="48.31049" lon="3.15516">
        <ele>59</ele>
        <time>2013-08-03T07:33:54Z</time>
      </trkpt>
      <trkpt lat="48.31046" lon="3.15523">
        <ele>59</ele>
        <time>2013-08-03T07:33:58Z</time>
      </trkpt>
      <trkpt lat="48.31043" lon="3.15529">
        <ele>59</ele>
        <time>2013-08-03T07:34:00Z</time>
      </trkpt>
      <trkpt lat="48.31039" lon="3.15535">
        <ele>59</ele>
        <time>2013-08-03T07:34:03Z</time>
      </trkpt>
      <trkpt lat="48.31036" lon="3.15541">
        <ele>59</ele>
        <time>2013-08-03T07:34:06Z</time>
      </trkpt>
      <trkpt lat="48.31034" lon="3.15548">
        <ele>58</ele>
        <time>2013-08-03T07:34:09Z</time>
      </trkpt>
      <trkpt lat="48.31033" lon="3.15555">
        <ele>58</ele>
        <time>2013-08-03T07:34:12Z</time>
      </trkpt>
      <trkpt lat="48.31031" lon="3.15561">
        <ele>58</ele>
        <time>2013-08-03T07:34:16Z</time>
      </trkpt>
      <trkpt lat="48.31029" lon="3.15565">
        <ele>58</ele>
        <time>2013-08-03T07:34:22Z</time>
      </trkpt>
      <trkpt lat="48.31027" lon="3.1557">
        <ele>58</ele>
        <time>2013-08-03T07:34:33Z</time>
      </trkpt>
      <trkpt lat="48.31024" lon="3.15576">
        <ele>58</ele>
        <time>2013-08-03T07:34:37Z</time>
      </trkpt>
      <trkpt lat="48.31022" lon="3.15583">
        <ele>58</ele>
        <time>2013-08-03T07:34:43Z</time>
      </trkpt>
      <trkpt lat="48.31019" lon="3.15588">
        <ele>57</ele>
        <time>2013-08-03T07:34:50Z</time>
      </trkpt>
      <trkpt lat="48.31015" lon="3.15595">
        <ele>57</ele>
        <time>2013-08-03T07:34:54Z</time>
      </trkpt>
      <trkpt lat="48.31013" lon="3.15602">
        <ele>57</ele>
        <time>2013-08-03T07:34:58Z</time>
      </trkpt>
      <trkpt lat="48.31009" lon="3.15606">
        <ele>57</ele>
        <time>2013-08-03T07:35:02Z</time>
      </trkpt>
      <trkpt lat="48.31007" lon="3.15613">
        <ele>57</ele>
        <time>2013-08-03T07:35:08Z</time>
      </trkpt>
      <trkpt lat="48.31003" lon="3.15618">
        <ele>57</ele>
        <time>2013-08-03T07:35:12Z</time>
      </trkpt>
      <trkpt lat="48.31" lon="3.15622">
        <ele>59</ele>
        <time>2013-08-03T07:35:15Z</time>
      </trkpt>
      <trkpt lat="48.30997" lon="3.15628">
        <ele>59</ele>
        <time>2013-08-03T07:35:19Z</time>
      </trkpt>
      <trkpt lat="48.30994" lon="3.15634">
        <ele>59</ele>
        <time>2013-08-03T07:35:23Z</time>
      </trkpt>
      <trkpt lat="48.30992" lon="3.1564">
        <ele>59</ele>
        <time>2013-08-03T07:35:31Z</time>
      </trkpt>
      <trkpt lat="48.30988" lon="3.15644">
        <ele>59</ele>
        <time>2013-08-03T07:35:35Z</time>
      </trkpt>
      <trkpt lat="48.30985" lon="3.15649">
        <ele>59</ele>
        <time>2013-08-03T07:35:38Z</time>
      </trkpt>
      <trkpt lat="48.30982" lon="3.15655">
        <ele>59</ele>
        <time>2013-08-03T07:35:41Z</time>
      </trkpt>
      <trkpt lat="48.3098" lon="3.15662">
        <ele>59</ele>
        <time>2013-08-03T07:35:46Z</time>
      </trkpt>
      <trkpt lat="48.30977" lon="3.15668">
        <ele>58</ele>
        <time>2013-08-03T07:35:51Z</time>
      </trkpt>
      <trkpt lat="48.30974" lon="3.15674">
        <ele>58</ele>
        <time>2013-08-03T07:35:55Z</time>
      </trkpt>
      <trkpt lat="48.3097" lon="3.15679">
        <ele>58</ele>
        <time>2013-08-03T07:35:59Z</time>
      </trkpt>
      <trkpt lat="48.30966" lon="3.15683">
        <ele>58</ele>
        <time>2013-08-03T07:36:03Z</time>
      </trkpt>
      <trkpt lat="48.30963" lon="3.1569">
        <ele>58</ele>
        <time>2013-08-03T07:36:07Z</time>
      </trkpt>
      <trkpt lat="48.3096" lon="3.15697">
        <ele>58</ele>
        <time>2013-08-03T07:36:11Z</time>
      </trkpt>
      <trkpt lat="48.30958" lon="3.15703">
        <ele>58</ele>
        <time>2013-08-03T07:36:15Z</time>
      </trkpt>
      <trkpt lat="48.30954" lon="3.15709">
        <ele>58</ele>
        <time>2013-08-03T07:36:19Z</time>
      </trkpt>
      <trkpt lat="48.30951" lon="3.15715">
        <ele>58</ele>
        <time>2013-08-03T07:36:23Z</time>
      </trkpt>
      <trkpt lat="48.30948" lon="3.15719">
        <ele>58</ele>
        <time>2013-08-03T07:36:27Z</time>
      </trkpt>
      <trkpt lat="48.30943" lon="3.15724">
        <ele>58</ele>
        <time>2013-08-03T07:36:32Z</time>
      </trkpt>
      <trkpt lat="48.30941" lon="3.1573">
        <ele>58</ele>
        <time>2013-08-03T07:36:39Z</time>
      </trkpt>
      <trkpt lat="48.30938" lon="3.15735">
        <ele>58</ele>
        <time>2013-08-03T07:36:49Z</time>
      </trkpt>
      <trkpt lat="48.30936" lon="3.15736">
        <ele>58</ele>
        <time>2013-08-03T07:40:34Z</time>
      </trkpt>
      <trkpt lat="48.30929" lon="3.15742">
        <ele>57</ele>
        <time>2013-08-03T07:43:12Z</time>
      </trkpt>
      <trkpt lat="48.30925" lon="3.15747">
        <ele>57</ele>
        <time>2013-08-03T07:43:15Z</time>
      </trkpt>
      <trkpt lat="48.30921" lon="3.1575">
        <ele>57</ele>
        <time>2013-08-03T07:43:18Z</time>
      </trkpt>
      <trkpt lat="48.30916" lon="3.15755">
        <ele>58</ele>
        <time>2013-08-03T07:43:22Z</time>
      </trkpt>
      <trkpt lat="48.30912" lon="3.1576">
        <ele>58</ele>
        <time>2013-08-03T07:43:26Z</time>
      </trkpt>
      <trkpt lat="48.30907" lon="3.15764">
        <ele>58</ele>
        <time>2013-08-03T07:43:30Z</time>
      </trkpt>
      <trkpt lat="48.30903" lon="3.15769">
        <ele>59</ele>
        <time>2013-08-03T07:43:34Z</time>
      </trkpt>
      <trkpt lat="48.309" lon="3.15773">
        <ele>59</ele>
        <time>2013-08-03T07:43:38Z</time>
      </trkpt>
      <trkpt lat="48.30896" lon="3.15777">
        <ele>59</ele>
        <time>2013-08-03T07:43:42Z</time>
      </trkpt>
      <trkpt lat="48.30892" lon="3.15781">
        <ele>59</ele>
        <time>2013-08-03T07:43:46Z</time>
      </trkpt>
      <trkpt lat="48.30887" lon="3.15785">
        <ele>59</ele>
        <time>2013-08-03T07:43:50Z</time>
      </trkpt>
      <trkpt lat="48.30883" lon="3.1579">
        <ele>60</ele>
        <time>2013-08-03T07:43:54Z</time>
      </trkpt>
      <trkpt lat="48.30879" lon="3.15794">
        <ele>60</ele>
        <time>2013-08-03T07:43:58Z</time>
      </trkpt>
      <trkpt lat="48.30875" lon="3.15798">
        <ele>60</ele>
        <time>2013-08-03T07:44:02Z</time>
      </trkpt>
      <trkpt lat="48.3087" lon="3.15802">
        <ele>60</ele>
        <time>2013-08-03T07:44:07Z</time>
      </trkpt>
      <trkpt lat="48.30866" lon="3.15807">
        <ele>60</ele>
        <time>2013-08-03T07:44:12Z</time>
      </trkpt>
      <trkpt lat="48.30862" lon="3.15812">
        <ele>60</ele>
        <time>2013-08-03T07:44:16Z</time>
      </trkpt>
      <trkpt lat="48.30858" lon="3.15816">
        <ele>60</ele>
        <time>2013-08-03T07:44:19Z</time>
      </trkpt>
      <trkpt lat="48.30854" lon="3.15821">
        <ele>60</ele>
        <time>2013-08-03T07:44:22Z</time>
      </trkpt>
      <trkpt lat="48.30851" lon="3.15826">
        <ele>60</ele>
        <time>2013-08-03T07:44:26Z</time>
      </trkpt>
      <trkpt lat="48.30847" lon="3.1583">
        <ele>60</ele>
        <time>2013-08-03T07:44:30Z</time>
      </trkpt>
      <trkpt lat="48.30844" lon="3.15835">
        <ele>60</ele>
        <time>2013-08-03T07:44:36Z</time>
      </trkpt>
      <trkpt lat="48.3084" lon="3.1584">
        <ele>60</ele>
        <time>2013-08-03T07:44:40Z</time>
      </trkpt>
      <trkpt lat="48.30836" lon="3.15845">
        <ele>60</ele>
        <time>2013-08-03T07:44:45Z</time>
      </trkpt>
      <trkpt lat="48.30832" lon="3.1585">
        <ele>62</ele>
        <time>2013-08-03T07:44:49Z</time>
      </trkpt>
      <trkpt lat="48.30828" lon="3.15855">
        <ele>62</ele>
        <time>2013-08-03T07:44:53Z</time>
      </trkpt>
      <trkpt lat="48.30824" lon="3.15859">
        <ele>63</ele>
        <time>2013-08-03T07:44:58Z</time>
      </trkpt>
      <trkpt lat="48.3082" lon="3.15865">
        <ele>63</ele>
        <time>2013-08-03T07:45:03Z</time>
      </trkpt>
      <trkpt lat="48.30816" lon="3.1587">
        <ele>63</ele>
        <time>2013-08-03T07:45:08Z</time>
      </trkpt>
      <trkpt lat="48.30813" lon="3.15875">
        <ele>63</ele>
        <time>2013-08-03T07:45:12Z</time>
      </trkpt>
      <trkpt lat="48.3081" lon="3.15881">
        <ele>63</ele>
        <time>2013-08-03T07:45:16Z</time>
      </trkpt>
      <trkpt lat="48.30808" lon="3.15888">
        <ele>63</ele>
        <time>2013-08-03T07:45:21Z</time>
      </trkpt>
      <trkpt lat="48.30805" lon="3.15893">
        <ele>63</ele>
        <time>2013-08-03T07:45:25Z</time>
      </trkpt>
      <trkpt lat="48.30802" lon="3.15899">
        <ele>63</ele>
        <time>2013-08-03T07:45:29Z</time>
      </trkpt>
      <trkpt lat="48.30799" lon="3.15905">
        <ele>63</ele>
        <time>2013-08-03T07:45:34Z</time>
      </trkpt>
      <trkpt lat="48.30797" lon="3.1591">
        <ele>63</ele>
        <time>2013-08-03T07:45:42Z</time>
      </trkpt>
      <trkpt lat="48.30795" lon="3.15917">
        <ele>62</ele>
        <time>2013-08-03T07:45:47Z</time>
      </trkpt>
      <trkpt lat="48.30791" lon="3.15922">
        <ele>62</ele>
        <time>2013-08-03T07:45:50Z</time>
      </trkpt>
      <trkpt lat="48.30788" lon="3.15928">
        <ele>62</ele>
        <time>2013-08-03T07:45:54Z</time>
      </trkpt>
      <trkpt lat="48.30785" lon="3.15935">
        <ele>62</ele>
        <time>2013-08-03T07:45:58Z</time>
      </trkpt>
      <trkpt lat="48.30784" lon="3.15939">
        <ele>62</ele>
        <time>2013-08-03T07:46:04Z</time>
      </trkpt>
      <trkpt lat="48.30782" lon="3.15944">
        <ele>62</ele>
        <time>2013-08-03T07:46:09Z</time>
      </trkpt>
      <trkpt lat="48.30778" lon="3.15952">
        <ele>62</ele>
        <time>2013-08-03T07:46:13Z</time>
      </trkpt>
      <trkpt lat="48.30776" lon="3.1596">
        <ele>62</ele>
        <time>2013-08-03T07:46:16Z</time>
      </trkpt>
      <trkpt lat="48.30773" lon="3.15967">
        <ele>62</ele>
        <time>2013-08-03T07:46:20Z</time>
      </trkpt>
      <trkpt lat="48.30772" lon="3.15974">
        <ele>62</ele>
        <time>2013-08-03T07:46:24Z</time>
      </trkpt>
      <trkpt lat="48.30769" lon="3.1598">
        <ele>62</ele>
        <time>2013-08-03T07:46:30Z</time>
      </trkpt>
      <trkpt lat="48.30767" lon="3.15988">
        <ele>62</ele>
        <time>2013-08-03T07:46:35Z</time>
      </trkpt>
      <trkpt lat="48.30764" lon="3.15995">
        <ele>62</ele>
        <time>2013-08-03T07:46:39Z</time>
      </trkpt>
      <trkpt lat="48.30761" lon="3.16002">
        <ele>62</ele>
        <time>2013-08-03T07:46:43Z</time>
      </trkpt>
      <trkpt lat="48.30758" lon="3.16007">
        <ele>62</ele>
        <time>2013-08-03T07:46:46Z</time>
      </trkpt>
      <trkpt lat="48.30757" lon="3.16015">
        <ele>61</ele>
        <time>2013-08-03T07:46:51Z</time>
      </trkpt>
      <trkpt lat="48.30756" lon="3.16023">
        <ele>61</ele>
        <time>2013-08-03T07:46:56Z</time>
      </trkpt>
      <trkpt lat="48.30754" lon="3.1603">
        <ele>61</ele>
        <time>2013-08-03T07:47:00Z</time>
      </trkpt>
      <trkpt lat="48.30753" lon="3.16037">
        <ele>61</ele>
        <time>2013-08-03T07:47:03Z</time>
      </trkpt>
      <trkpt lat="48.30751" lon="3.16044">
        <ele>60</ele>
        <time>2013-08-03T07:47:07Z</time>
      </trkpt>
      <trkpt lat="48.30747" lon="3.16049">
        <ele>64</ele>
        <time>2013-08-03T07:47:10Z</time>
      </trkpt>
      <trkpt lat="48.30743" lon="3.16054">
        <ele>64</ele>
        <time>2013-08-03T07:47:13Z</time>
      </trkpt>
      <trkpt lat="48.3074" lon="3.1606">
        <ele>64</ele>
        <time>2013-08-03T07:47:17Z</time>
      </trkpt>
      <trkpt lat="48.30738" lon="3.16067">
        <ele>63</ele>
        <time>2013-08-03T07:47:23Z</time>
      </trkpt>
      <trkpt lat="48.30736" lon="3.16074">
        <ele>63</ele>
        <time>2013-08-03T07:47:27Z</time>
      </trkpt>
      <trkpt lat="48.30733" lon="3.16081">
        <ele>63</ele>
        <time>2013-08-03T07:47:31Z</time>
      </trkpt>
      <trkpt lat="48.30731" lon="3.16088">
        <ele>62</ele>
        <time>2013-08-03T07:47:35Z</time>
      </trkpt>
      <trkpt lat="48.30728" lon="3.16094">
        <ele>62</ele>
        <time>2013-08-03T07:47:39Z</time>
      </trkpt>
      <trkpt lat="48.30726" lon="3.16099">
        <ele>62</ele>
        <time>2013-08-03T07:47:48Z</time>
      </trkpt>
      <trkpt lat="48.30723" lon="3.16105">
        <ele>63</ele>
        <time>2013-08-03T07:47:52Z</time>
      </trkpt>
      <trkpt lat="48.30721" lon="3.16108">
        <ele>63</ele>
        <time>2013-08-03T07:48:00Z</time>
      </trkpt>
      <trkpt lat="48.30717" lon="3.16115">
        <ele>63</ele>
        <time>2013-08-03T07:48:05Z</time>
      </trkpt>
      <trkpt lat="48.30714" lon="3.16121">
        <ele>63</ele>
        <time>2013-08-03T07:48:09Z</time>
      </trkpt>
      <trkpt lat="48.3071" lon="3.16126">
        <ele>63</ele>
        <time>2013-08-03T07:48:13Z</time>
      </trkpt>
      <trkpt lat="48.30707" lon="3.16132">
        <ele>63</ele>
        <time>2013-08-03T07:48:16Z</time>
      </trkpt>
      <trkpt lat="48.30703" lon="3.16136">
        <ele>63</ele>
        <time>2013-08-03T07:48:20Z</time>
      </trkpt>
      <trkpt lat="48.30698" lon="3.16141">
        <ele>63</ele>
        <time>2013-08-03T07:48:25Z</time>
      </trkpt>
      <trkpt lat="48.30695" lon="3.16145">
        <ele>63</ele>
        <time>2013-08-03T07:48:29Z</time>
      </trkpt>
      <trkpt lat="48.30691" lon="3.16149">
        <ele>63</ele>
        <time>2013-08-03T07:48:33Z</time>
      </trkpt>
      <trkpt lat="48.30687" lon="3.16154">
        <ele>63</ele>
        <time>2013-08-03T07:48:37Z</time>
      </trkpt>
      <trkpt lat="48.30684" lon="3.16158">
        <ele>63</ele>
        <time>2013-08-03T07:48:41Z</time>
      </trkpt>
      <trkpt lat="48.3068" lon="3.16162">
        <ele>64</ele>
        <time>2013-08-03T07:48:45Z</time>
      </trkpt>
      <trkpt lat="48.30676" lon="3.16167">
        <ele>63</ele>
        <time>2013-08-03T07:48:49Z</time>
      </trkpt>
      <trkpt lat="48.30673" lon="3.16171">
        <ele>63</ele>
        <time>2013-08-03T07:48:53Z</time>
      </trkpt>
      <trkpt lat="48.3067" lon="3.16177">
        <ele>63</ele>
        <time>2013-08-03T07:48:58Z</time>
      </trkpt>
      <trkpt lat="48.30665" lon="3.16181">
        <ele>65</ele>
        <time>2013-08-03T07:49:03Z</time>
      </trkpt>
      <trkpt lat="48.3066" lon="3.16184">
        <ele>65</ele>
        <time>2013-08-03T07:49:07Z</time>
      </trkpt>
      <trkpt lat="48.30656" lon="3.16189">
        <ele>65</ele>
        <time>2013-08-03T07:49:12Z</time>
      </trkpt>
      <trkpt lat="48.30652" lon="3.16194">
        <ele>65</ele>
        <time>2013-08-03T07:49:17Z</time>
      </trkpt>
      <trkpt lat="48.30648" lon="3.16198">
        <ele>65</ele>
        <time>2013-08-03T07:49:21Z</time>
      </trkpt>
      <trkpt lat="48.30642" lon="3.16205">
        <ele>65</ele>
        <time>2013-08-03T07:49:38Z</time>
      </trkpt>
      <trkpt lat="48.3064" lon="3.16211">
        <ele>65</ele>
        <time>2013-08-03T07:49:42Z</time>
      </trkpt>
      <trkpt lat="48.30636" lon="3.16216">
        <ele>65</ele>
        <time>2013-08-03T07:49:46Z</time>
      </trkpt>
      <trkpt lat="48.30632" lon="3.1622">
        <ele>66</ele>
        <time>2013-08-03T07:49:57Z</time>
      </trkpt>
      <trkpt lat="48.30627" lon="3.16224">
        <ele>66</ele>
        <time>2013-08-03T07:50:03Z</time>
      </trkpt>
      <trkpt lat="48.30623" lon="3.16229">
        <ele>66</ele>
        <time>2013-08-03T07:50:08Z</time>
      </trkpt>
      <trkpt lat="48.30619" lon="3.16233">
        <ele>66</ele>
        <time>2013-08-03T07:50:13Z</time>
      </trkpt>
      <trkpt lat="48.30615" lon="3.16236">
        <ele>66</ele>
        <time>2013-08-03T07:50:18Z</time>
      </trkpt>
      <trkpt lat="48.30611" lon="3.16242">
        <ele>67</ele>
        <time>2013-08-03T07:50:23Z</time>
      </trkpt>
      <trkpt lat="48.30607" lon="3.16246">
        <ele>67</ele>
        <time>2013-08-03T07:50:33Z</time>
      </trkpt>
      <trkpt lat="48.30603" lon="3.16249">
        <ele>67</ele>
        <time>2013-08-03T07:50:57Z</time>
      </trkpt>
      <trkpt lat="48.306" lon="3.16252">
        <ele>66</ele>
        <time>2013-08-03T07:51:07Z</time>
      </trkpt>
      <trkpt lat="48.30596" lon="3.16256">
        <ele>67</ele>
        <time>2013-08-03T07:51:11Z</time>
      </trkpt>
      <trkpt lat="48.30592" lon="3.16262">
        <ele>67</ele>
        <time>2013-08-03T07:51:15Z</time>
      </trkpt>
      <trkpt lat="48.30589" lon="3.16267">
        <ele>66</ele>
        <time>2013-08-03T07:51:20Z</time>
      </trkpt>
      <trkpt lat="48.30585" lon="3.16272">
        <ele>66</ele>
        <time>2013-08-03T07:51:24Z</time>
      </trkpt>
      <trkpt lat="48.30583" lon="3.16278">
        <ele>70</ele>
        <time>2013-08-03T07:51:29Z</time>
      </trkpt>
      <trkpt lat="48.30579" lon="3.16284">
        <ele>70</ele>
        <time>2013-08-03T07:51:35Z</time>
      </trkpt>
      <trkpt lat="48.30577" lon="3.1629">
        <ele>70</ele>
        <time>2013-08-03T07:51:38Z</time>
      </trkpt>
      <trkpt lat="48.30575" lon="3.16298">
        <ele>70</ele>
        <time>2013-08-03T07:51:42Z</time>
      </trkpt>
      <trkpt lat="48.30575" lon="3.16306">
        <ele>69</ele>
        <time>2013-08-03T07:51:46Z</time>
      </trkpt>
      <trkpt lat="48.30573" lon="3.16314">
        <ele>69</ele>
        <time>2013-08-03T07:51:52Z</time>
      </trkpt>
      <trkpt lat="48.3057" lon="3.1632">
        <ele>69</ele>
        <time>2013-08-03T07:51:56Z</time>
      </trkpt>
      <trkpt lat="48.30568" lon="3.16327">
        <ele>69</ele>
        <time>2013-08-03T07:52:00Z</time>
      </trkpt>
      <trkpt lat="48.30567" lon="3.16332">
        <ele>69</ele>
        <time>2013-08-03T07:52:09Z</time>
      </trkpt>
      <trkpt lat="48.30564" lon="3.16338">
        <ele>67</ele>
        <time>2013-08-03T07:52:18Z</time>
      </trkpt>
      <trkpt lat="48.30561" lon="3.16345">
        <ele>67</ele>
        <time>2013-08-03T07:52:23Z</time>
      </trkpt>
      <trkpt lat="48.30559" lon="3.16351">
        <ele>68</ele>
        <time>2013-08-03T07:52:29Z</time>
      </trkpt>
      <trkpt lat="48.30557" lon="3.16357">
        <ele>68</ele>
        <time>2013-08-03T07:52:34Z</time>
      </trkpt>
      <trkpt lat="48.30553" lon="3.16367">
        <ele>68</ele>
        <time>2013-08-03T07:52:52Z</time>
      </trkpt>
      <trkpt lat="48.30551" lon="3.16373">
        <ele>68</ele>
        <time>2013-08-03T07:52:56Z</time>
      </trkpt>
      <trkpt lat="48.30549" lon="3.16379">
        <ele>68</ele>
        <time>2013-08-03T07:53:01Z</time>
      </trkpt>
      <trkpt lat="48.30547" lon="3.16387">
        <ele>67</ele>
        <time>2013-08-03T07:53:45Z</time>
      </trkpt>
      <trkpt lat="48.30544" lon="3.16393">
        <ele>67</ele>
        <time>2013-08-03T07:53:48Z</time>
      </trkpt>
      <trkpt lat="48.30543" lon="3.164">
        <ele>67</ele>
        <time>2013-08-03T07:53:51Z</time>
      </trkpt>
      <trkpt lat="48.30541" lon="3.16407">
        <ele>67</ele>
        <time>2013-08-03T07:53:54Z</time>
      </trkpt>
      <trkpt lat="48.30539" lon="3.16415">
        <ele>67</ele>
        <time>2013-08-03T07:53:58Z</time>
      </trkpt>
      <trkpt lat="48.30536" lon="3.1642">
        <ele>65</ele>
        <time>2013-08-03T07:54:02Z</time>
      </trkpt>
      <trkpt lat="48.30535" lon="3.16427">
        <ele>65</ele>
        <time>2013-08-03T07:54:07Z</time>
      </trkpt>
      <trkpt lat="48.30534" lon="3.16434">
        <ele>65</ele>
        <time>2013-08-03T07:54:12Z</time>
      </trkpt>
      <trkpt lat="48.3053" lon="3.16439">
        <ele>66</ele>
        <time>2013-08-03T07:54:17Z</time>
      </trkpt>
      <trkpt lat="48.30528" lon="3.16445">
        <ele>65</ele>
        <time>2013-08-03T07:54:21Z</time>
      </trkpt>
      <trkpt lat="48.30524" lon="3.16451">
        <ele>66</ele>
        <time>2013-08-03T07:54:25Z</time>
      </trkpt>
      <trkpt lat="48.30522" lon="3.16457">
        <ele>65</ele>
        <time>2013-08-03T07:54:29Z</time>
      </trkpt>
      <trkpt lat="48.30519" lon="3.16464">
        <ele>65</ele>
        <time>2013-08-03T07:54:33Z</time>
      </trkpt>
      <trkpt lat="48.30517" lon="3.16472">
        <ele>65</ele>
        <time>2013-08-03T07:54:37Z</time>
      </trkpt>
      <trkpt lat="48.30512" lon="3.16479">
        <ele>66</ele>
        <time>2013-08-03T07:54:40Z</time>
      </trkpt>
      <trkpt lat="48.30509" lon="3.16484">
        <ele>66</ele>
        <time>2013-08-03T07:54:42Z</time>
      </trkpt>
      <trkpt lat="48.30506" lon="3.1649">
        <ele>66</ele>
        <time>2013-08-03T07:54:47Z</time>
      </trkpt>
      <trkpt lat="48.3051" lon="3.16495">
        <ele>66</ele>
        <time>2013-08-03T07:54:57Z</time>
      </trkpt>
      <trkpt lat="48.30506" lon="3.16501">
        <ele>66</ele>
        <time>2013-08-03T07:55:03Z</time>
      </trkpt>
      <trkpt lat="48.30503" lon="3.16508">
        <ele>65</ele>
        <time>2013-08-03T07:55:05Z</time>
      </trkpt>
      <trkpt lat="48.30501" lon="3.16516">
        <ele>65</ele>
        <time>2013-08-03T07:55:08Z</time>
      </trkpt>
      <trkpt lat="48.30502" lon="3.16524">
        <ele>64</ele>
        <time>2013-08-03T07:55:12Z</time>
      </trkpt>
      <trkpt lat="48.30501" lon="3.1653">
        <ele>63</ele>
        <time>2013-08-03T07:55:16Z</time>
      </trkpt>
      <trkpt lat="48.30499" lon="3.16538">
        <ele>67</ele>
        <time>2013-08-03T07:55:19Z</time>
      </trkpt>
      <trkpt lat="48.30496" lon="3.16545">
        <ele>67</ele>
        <time>2013-08-03T07:55:22Z</time>
      </trkpt>
      <trkpt lat="48.30493" lon="3.16552">
        <ele>66</ele>
        <time>2013-08-03T07:55:25Z</time>
      </trkpt>
      <trkpt lat="48.30492" lon="3.16562">
        <ele>66</ele>
        <time>2013-08-03T07:55:28Z</time>
      </trkpt>
      <trkpt lat="48.30492" lon="3.16568">
        <ele>65</ele>
        <time>2013-08-03T07:55:32Z</time>
      </trkpt>
      <trkpt lat="48.30492" lon="3.16576">
        <ele>64</ele>
        <time>2013-08-03T07:55:37Z</time>
      </trkpt>
      <trkpt lat="48.30494" lon="3.16583">
        <ele>63</ele>
        <time>2013-08-03T07:55:42Z</time>
      </trkpt>
      <trkpt lat="48.30495" lon="3.1659">
        <ele>63</ele>
        <time>2013-08-03T07:55:47Z</time>
      </trkpt>
      <trkpt lat="48.30493" lon="3.16598">
        <ele>64</ele>
        <time>2013-08-03T07:55:55Z</time>
      </trkpt>
      <trkpt lat="48.30491" lon="3.16605">
        <ele>65</ele>
        <time>2013-08-03T07:56:08Z</time>
      </trkpt>
      <trkpt lat="48.3049" lon="3.16614">
        <ele>65</ele>
        <time>2013-08-03T07:56:11Z</time>
      </trkpt>
      <trkpt lat="48.30487" lon="3.16625">
        <ele>65</ele>
        <time>2013-08-03T07:56:18Z</time>
      </trkpt>
      <trkpt lat="48.30485" lon="3.16635">
        <ele>65</ele>
        <time>2013-08-03T07:56:23Z</time>
      </trkpt>
      <trkpt lat="48.30483" lon="3.16641">
        <ele>65</ele>
        <time>2013-08-03T07:56:32Z</time>
      </trkpt>
      <trkpt lat="48.3048" lon="3.16646">
        <ele>66</ele>
        <time>2013-08-03T07:56:36Z</time>
      </trkpt>
      <trkpt lat="48.30477" lon="3.16653">
        <ele>66</ele>
        <time>2013-08-03T07:56:39Z</time>
      </trkpt>
      <trkpt lat="48.30475" lon="3.16659">
        <ele>66</ele>
        <time>2013-08-03T07:56:41Z</time>
      </trkpt>
      <trkpt lat="48.30473" lon="3.16666">
        <ele>66</ele>
        <time>2013-08-03T07:56:44Z</time>
      </trkpt>
      <trkpt lat="48.30472" lon="3.16674">
        <ele>66</ele>
        <time>2013-08-03T07:56:48Z</time>
      </trkpt>
      <trkpt lat="48.3047" lon="3.16682">
        <ele>66</ele>
        <time>2013-08-03T07:56:52Z</time>
      </trkpt>
      <trkpt lat="48.30467" lon="3.16688">
        <ele>66</ele>
        <time>2013-08-03T07:56:55Z</time>
      </trkpt>
      <trkpt lat="48.30463" lon="3.16694">
        <ele>66</ele>
        <time>2013-08-03T07:56:59Z</time>
      </trkpt>
      <trkpt lat="48.3046" lon="3.16699">
        <ele>66</ele>
        <time>2013-08-03T07:57:05Z</time>
      </trkpt>
      <trkpt lat="48.30458" lon="3.16706">
        <ele>66</ele>
        <time>2013-08-03T07:57:10Z</time>
      </trkpt>
      <trkpt lat="48.30456" lon="3.16713">
        <ele>66</ele>
        <time>2013-08-03T07:57:14Z</time>
      </trkpt>
      <trkpt lat="48.30453" lon="3.16719">
        <ele>66</ele>
        <time>2013-08-03T07:57:18Z</time>
      </trkpt>
      <trkpt lat="48.3045" lon="3.16726">
        <ele>67</ele>
        <time>2013-08-03T07:57:22Z</time>
      </trkpt>
      <trkpt lat="48.30448" lon="3.16733">
        <ele>67</ele>
        <time>2013-08-03T07:57:26Z</time>
      </trkpt>
      <trkpt lat="48.30446" lon="3.16739">
        <ele>67</ele>
        <time>2013-08-03T07:57:30Z</time>
      </trkpt>
      <trkpt lat="48.30443" lon="3.16747">
        <ele>67</ele>
        <time>2013-08-03T07:57:34Z</time>
      </trkpt>
      <trkpt lat="48.30441" lon="3.16753">
        <ele>67</ele>
        <time>2013-08-03T07:57:37Z</time>
      </trkpt>
      <trkpt lat="48.30439" lon="3.16759">
        <ele>67</ele>
        <time>2013-08-03T07:57:41Z</time>
      </trkpt>
      <trkpt lat="48.30435" lon="3.16765">
        <ele>67</ele>
        <time>2013-08-03T07:57:45Z</time>
      </trkpt>
      <trkpt lat="48.30432" lon="3.1677">
        <ele>67</ele>
        <time>2013-08-03T07:57:49Z</time>
      </trkpt>
      <trkpt lat="48.30429" lon="3.16776">
        <ele>67</ele>
        <time>2013-08-03T07:57:57Z</time>
      </trkpt>
      <trkpt lat="48.30427" lon="3.16783">
        <ele>67</ele>
        <time>2013-08-03T07:58:01Z</time>
      </trkpt>
      <trkpt lat="48.30424" lon="3.16789">
        <ele>67</ele>
        <time>2013-08-03T07:58:05Z</time>
      </trkpt>
      <trkpt lat="48.30423" lon="3.16798">
        <ele>67</ele>
        <time>2013-08-03T07:58:09Z</time>
      </trkpt>
      <trkpt lat="48.30421" lon="3.16806">
        <ele>67</ele>
        <time>2013-08-03T07:58:13Z</time>
      </trkpt>
      <trkpt lat="48.30419" lon="3.16812">
        <ele>67</ele>
        <time>2013-08-03T07:58:17Z</time>
      </trkpt>
      <trkpt lat="48.30416" lon="3.16819">
        <ele>71</ele>
        <time>2013-08-03T07:58:23Z</time>
      </trkpt>
      <trkpt lat="48.30413" lon="3.16824">
        <ele>70</ele>
        <time>2013-08-03T07:58:27Z</time>
      </trkpt>
      <trkpt lat="48.3041" lon="3.16832">
        <ele>70</ele>
        <time>2013-08-03T07:58:32Z</time>
      </trkpt>
      <trkpt lat="48.30408" lon="3.16839">
        <ele>71</ele>
        <time>2013-08-03T07:58:36Z</time>
      </trkpt>
      <trkpt lat="48.30406" lon="3.16847">
        <ele>71</ele>
        <time>2013-08-03T07:58:40Z</time>
      </trkpt>
      <trkpt lat="48.30404" lon="3.16854">
        <ele>72</ele>
        <time>2013-08-03T07:58:43Z</time>
      </trkpt>
      <trkpt lat="48.30402" lon="3.16861">
        <ele>72</ele>
        <time>2013-08-03T07:58:47Z</time>
      </trkpt>
      <trkpt lat="48.30399" lon="3.16867">
        <ele>73</ele>
        <time>2013-08-03T07:58:51Z</time>
      </trkpt>
      <trkpt lat="48.30396" lon="3.16873">
        <ele>73</ele>
        <time>2013-08-03T07:58:56Z</time>
      </trkpt>
      <trkpt lat="48.30398" lon="3.16881">
        <ele>73</ele>
        <time>2013-08-03T07:59:02Z</time>
      </trkpt>
      <trkpt lat="48.30396" lon="3.16888">
        <ele>73</ele>
        <time>2013-08-03T07:59:11Z</time>
      </trkpt>
      <trkpt lat="48.30393" lon="3.16894">
        <ele>73</ele>
        <time>2013-08-03T07:59:16Z</time>
      </trkpt>
      <trkpt lat="48.30388" lon="3.16905">
        <ele>73</ele>
        <time>2013-08-03T07:59:24Z</time>
      </trkpt>
      <trkpt lat="48.30386" lon="3.16913">
        <ele>73</ele>
        <time>2013-08-03T07:59:29Z</time>
      </trkpt>
      <trkpt lat="48.30385" lon="3.1692">
        <ele>73</ele>
        <time>2013-08-03T07:59:33Z</time>
      </trkpt>
      <trkpt lat="48.30384" lon="3.16927">
        <ele>73</ele>
        <time>2013-08-03T07:59:37Z</time>
      </trkpt>
      <trkpt lat="48.30382" lon="3.16934">
        <ele>73</ele>
        <time>2013-08-03T07:59:41Z</time>
      </trkpt>
      <trkpt lat="48.30381" lon="3.16941">
        <ele>73</ele>
        <time>2013-08-03T07:59:45Z</time>
      </trkpt>
      <trkpt lat="48.30379" lon="3.16948">
        <ele>73</ele>
        <time>2013-08-03T07:59:49Z</time>
      </trkpt>
      <trkpt lat="48.30378" lon="3.16955">
        <ele>73</ele>
        <time>2013-08-03T07:59:53Z</time>
      </trkpt>
      <trkpt lat="48.30376" lon="3.16963">
        <ele>73</ele>
        <time>2013-08-03T07:59:58Z</time>
      </trkpt>
      <trkpt lat="48.30375" lon="3.16971">
        <ele>73</ele>
        <time>2013-08-03T08:00:02Z</time>
      </trkpt>
      <trkpt lat="48.30373" lon="3.16978">
        <ele>73</ele>
        <time>2013-08-03T08:00:06Z</time>
      </trkpt>
      <trkpt lat="48.30371" lon="3.16984">
        <ele>73</ele>
        <time>2013-08-03T08:00:10Z</time>
      </trkpt>
      <trkpt lat="48.30369" lon="3.16992">
        <ele>73</ele>
        <time>2013-08-03T08:00:15Z</time>
      </trkpt>
      <trkpt lat="48.30367" lon="3.16999">
        <ele>73</ele>
        <time>2013-08-03T08:00:19Z</time>
      </trkpt>
      <trkpt lat="48.30364" lon="3.17005">
        <ele>72</ele>
        <time>2013-08-03T08:00:24Z</time>
      </trkpt>
      <trkpt lat="48.30361" lon="3.17011">
        <ele>72</ele>
        <time>2013-08-03T08:00:30Z</time>
      </trkpt>
      <trkpt lat="48.30359" lon="3.17017">
        <ele>72</ele>
        <time>2013-08-03T08:00:34Z</time>
      </trkpt>
      <trkpt lat="48.30356" lon="3.17023">
        <ele>72</ele>
        <time>2013-08-03T08:00:37Z</time>
      </trkpt>
      <trkpt lat="48.30354" lon="3.17029">
        <ele>72</ele>
        <time>2013-08-03T08:00:40Z</time>
      </trkpt>
      <trkpt lat="48.30351" lon="3.17036">
        <ele>72</ele>
        <time>2013-08-03T08:00:44Z</time>
      </trkpt>
      <trkpt lat="48.30349" lon="3.17043">
        <ele>72</ele>
        <time>2013-08-03T08:00:49Z</time>
      </trkpt>
      <trkpt lat="48.30347" lon="3.1705">
        <ele>72</ele>
        <time>2013-08-03T08:00:53Z</time>
      </trkpt>
      <trkpt lat="48.30345" lon="3.17057">
        <ele>72</ele>
        <time>2013-08-03T08:00:57Z</time>
      </trkpt>
      <trkpt lat="48.30343" lon="3.17064">
        <ele>72</ele>
        <time>2013-08-03T08:01:03Z</time>
      </trkpt>
      <trkpt lat="48.30342" lon="3.17071">
        <ele>72</ele>
        <time>2013-08-03T08:01:09Z</time>
      </trkpt>
      <trkpt lat="48.30339" lon="3.17077">
        <ele>72</ele>
        <time>2013-08-03T08:01:13Z</time>
      </trkpt>
      <trkpt lat="48.30338" lon="3.17085">
        <ele>72</ele>
        <time>2013-08-03T08:01:18Z</time>
      </trkpt>
      <trkpt lat="48.30337" lon="3.17093">
        <ele>72</ele>
        <time>2013-08-03T08:01:24Z</time>
      </trkpt>
      <trkpt lat="48.30339" lon="3.171">
        <ele>71</ele>
        <time>2013-08-03T08:01:30Z</time>
      </trkpt>
      <trkpt lat="48.30337" lon="3.17107">
        <ele>71</ele>
        <time>2013-08-03T08:01:34Z</time>
      </trkpt>
      <trkpt lat="48.30336" lon="3.17111">
        <ele>71</ele>
        <time>2013-08-03T08:01:42Z</time>
      </trkpt>
      <trkpt lat="48.30334" lon="3.17118">
        <ele>70</ele>
        <time>2013-08-03T08:01:52Z</time>
      </trkpt>
      <trkpt lat="48.30333" lon="3.17126">
        <ele>76</ele>
        <time>2013-08-03T08:01:56Z</time>
      </trkpt>
      <trkpt lat="48.30331" lon="3.17134">
        <ele>76</ele>
        <time>2013-08-03T08:01:59Z</time>
      </trkpt>
      <trkpt lat="48.30329" lon="3.1714">
        <ele>75</ele>
        <time>2013-08-03T08:02:03Z</time>
      </trkpt>
      <trkpt lat="48.30329" lon="3.17147">
        <ele>75</ele>
        <time>2013-08-03T08:02:06Z</time>
      </trkpt>
      <trkpt lat="48.30328" lon="3.17155">
        <ele>75</ele>
        <time>2013-08-03T08:02:09Z</time>
      </trkpt>
      <trkpt lat="48.30325" lon="3.1716">
        <ele>75</ele>
        <time>2013-08-03T08:02:12Z</time>
      </trkpt>
      <trkpt lat="48.30323" lon="3.17167">
        <ele>75</ele>
        <time>2013-08-03T08:02:16Z</time>
      </trkpt>
      <trkpt lat="48.30324" lon="3.17175">
        <ele>75</ele>
        <time>2013-08-03T08:02:20Z</time>
      </trkpt>
      <trkpt lat="48.30324" lon="3.17183">
        <ele>75</ele>
        <time>2013-08-03T08:02:24Z</time>
      </trkpt>
      <trkpt lat="48.30323" lon="3.17191">
        <ele>76</ele>
        <time>2013-08-03T08:02:27Z</time>
      </trkpt>
      <trkpt lat="48.30321" lon="3.17197">
        <ele>76</ele>
        <time>2013-08-03T08:02:30Z</time>
      </trkpt>
      <trkpt lat="48.30318" lon="3.17203">
        <ele>76</ele>
        <time>2013-08-03T08:02:34Z</time>
      </trkpt>
      <trkpt lat="48.30316" lon="3.17211">
        <ele>76</ele>
        <time>2013-08-03T08:02:39Z</time>
      </trkpt>
      <trkpt lat="48.30315" lon="3.17218">
        <ele>76</ele>
        <time>2013-08-03T08:02:44Z</time>
      </trkpt>
      <trkpt lat="48.30316" lon="3.17225">
        <ele>76</ele>
        <time>2013-08-03T08:02:50Z</time>
      </trkpt>
      <trkpt lat="48.30315" lon="3.17232">
        <ele>76</ele>
        <time>2013-08-03T08:02:54Z</time>
      </trkpt>
      <trkpt lat="48.30315" lon="3.17239">
        <ele>76</ele>
        <time>2013-08-03T08:02:58Z</time>
      </trkpt>
      <trkpt lat="48.30315" lon="3.17246">
        <ele>75</ele>
        <time>2013-08-03T08:03:02Z</time>
      </trkpt>
      <trkpt lat="48.30315" lon="3.17253">
        <ele>75</ele>
        <time>2013-08-03T08:03:05Z</time>
      </trkpt>
      <trkpt lat="48.30314" lon="3.17261">
        <ele>75</ele>
        <time>2013-08-03T08:03:08Z</time>
      </trkpt>
      <trkpt lat="48.30313" lon="3.17268">
        <ele>75</ele>
        <time>2013-08-03T08:03:12Z</time>
      </trkpt>
      <trkpt lat="48.30311" lon="3.17277">
        <ele>76</ele>
        <time>2013-08-03T08:03:17Z</time>
      </trkpt>
      <trkpt lat="48.3031" lon="3.17284">
        <ele>76</ele>
        <time>2013-08-03T08:03:21Z</time>
      </trkpt>
      <trkpt lat="48.30307" lon="3.17293">
        <ele>76</ele>
        <time>2013-08-03T08:03:25Z</time>
      </trkpt>
      <trkpt lat="48.30306" lon="3.173">
        <ele>76</ele>
        <time>2013-08-03T08:03:29Z</time>
      </trkpt>
      <trkpt lat="48.30304" lon="3.17304">
        <ele>76</ele>
        <time>2013-08-03T08:03:35Z</time>
      </trkpt>
      <trkpt lat="48.30302" lon="3.1731">
        <ele>75</ele>
        <time>2013-08-03T08:03:46Z</time>
      </trkpt>
      <trkpt lat="48.30301" lon="3.17317">
        <ele>75</ele>
        <time>2013-08-03T08:03:53Z</time>
      </trkpt>
      <trkpt lat="48.30299" lon="3.17324">
        <ele>75</ele>
        <time>2013-08-03T08:03:56Z</time>
      </trkpt>
      <trkpt lat="48.30297" lon="3.17331">
        <ele>76</ele>
        <time>2013-08-03T08:03:59Z</time>
      </trkpt>
      <trkpt lat="48.30295" lon="3.17339">
        <ele>74</ele>
        <time>2013-08-03T08:04:02Z</time>
      </trkpt>
      <trkpt lat="48.30292" lon="3.17347">
        <ele>74</ele>
        <time>2013-08-03T08:04:05Z</time>
      </trkpt>
      <trkpt lat="48.3029" lon="3.17353">
        <ele>74</ele>
        <time>2013-08-03T08:04:08Z</time>
      </trkpt>
      <trkpt lat="48.30288" lon="3.17361">
        <ele>74</ele>
        <time>2013-08-03T08:04:12Z</time>
      </trkpt>
      <trkpt lat="48.30285" lon="3.17369">
        <ele>74</ele>
        <time>2013-08-03T08:04:16Z</time>
      </trkpt>
      <trkpt lat="48.30283" lon="3.17376">
        <ele>74</ele>
        <time>2013-08-03T08:04:20Z</time>
      </trkpt>
      <trkpt lat="48.3028" lon="3.17382">
        <ele>74</ele>
        <time>2013-08-03T08:04:24Z</time>
      </trkpt>
      <trkpt lat="48.30278" lon="3.17389">
        <ele>74</ele>
        <time>2013-08-03T08:04:29Z</time>
      </trkpt>
      <trkpt lat="48.30275" lon="3.17397">
        <ele>74</ele>
        <time>2013-08-03T08:04:34Z</time>
      </trkpt>
      <trkpt lat="48.30271" lon="3.17402">
        <ele>75</ele>
        <time>2013-08-03T08:04:43Z</time>
      </trkpt>
      <trkpt lat="48.30268" lon="3.1741">
        <ele>75</ele>
        <time>2013-08-03T08:04:53Z</time>
      </trkpt>
      <trkpt lat="48.30265" lon="3.17418">
        <ele>74</ele>
        <time>2013-08-03T08:04:58Z</time>
      </trkpt>
      <trkpt lat="48.30262" lon="3.17424">
        <ele>74</ele>
        <time>2013-08-03T08:05:02Z</time>
      </trkpt>
      <trkpt lat="48.3026" lon="3.17431">
        <ele>74</ele>
        <time>2013-08-03T08:05:06Z</time>
      </trkpt>
      <trkpt lat="48.30258" lon="3.17438">
        <ele>73</ele>
        <time>2013-08-03T08:05:11Z</time>
      </trkpt>
      <trkpt lat="48.30257" lon="3.17447">
        <ele>73</ele>
        <time>2013-08-03T08:05:16Z</time>
      </trkpt>
      <trkpt lat="48.30255" lon="3.17455">
        <ele>73</ele>
        <time>2013-08-03T08:05:21Z</time>
      </trkpt>
      <trkpt lat="48.30252" lon="3.17462">
        <ele>73</ele>
        <time>2013-08-03T08:05:26Z</time>
      </trkpt>
      <trkpt lat="48.3025" lon="3.17466">
        <ele>73</ele>
        <time>2013-08-03T08:05:40Z</time>
      </trkpt>
      <trkpt lat="48.30251" lon="3.17473">
        <ele>73</ele>
        <time>2013-08-03T08:05:50Z</time>
      </trkpt>
      <trkpt lat="48.3025" lon="3.1748">
        <ele>77</ele>
        <time>2013-08-03T08:05:54Z</time>
      </trkpt>
      <trkpt lat="48.30247" lon="3.17487">
        <ele>77</ele>
        <time>2013-08-03T08:05:58Z</time>
      </trkpt>
      <trkpt lat="48.30247" lon="3.17495">
        <ele>76</ele>
        <time>2013-08-03T08:06:03Z</time>
      </trkpt>
      <trkpt lat="48.30247" lon="3.17503">
        <ele>76</ele>
        <time>2013-08-03T08:06:07Z</time>
      </trkpt>
      <trkpt lat="48.30248" lon="3.17511">
        <ele>76</ele>
        <time>2013-08-03T08:06:11Z</time>
      </trkpt>
      <trkpt lat="48.30249" lon="3.17517">
        <ele>77</ele>
        <time>2013-08-03T08:06:17Z</time>
      </trkpt>
      <trkpt lat="48.3025" lon="3.17524">
        <ele>71</ele>
        <time>2013-08-03T08:06:21Z</time>
      </trkpt>
      <trkpt lat="48.30248" lon="3.17532">
        <ele>77</ele>
        <time>2013-08-03T08:06:25Z</time>
      </trkpt>
      <trkpt lat="48.30245" lon="3.17538">
        <ele>77</ele>
        <time>2013-08-03T08:06:30Z</time>
      </trkpt>
      <trkpt lat="48.30241" lon="3.17543">
        <ele>77</ele>
        <time>2013-08-03T08:06:35Z</time>
      </trkpt>
      <trkpt lat="48.30236" lon="3.17549">
        <ele>77</ele>
        <time>2013-08-03T08:06:39Z</time>
      </trkpt>
      <trkpt lat="48.30232" lon="3.17552">
        <ele>77</ele>
        <time>2013-08-03T08:06:43Z</time>
      </trkpt>
      <trkpt lat="48.30228" lon="3.17553">
        <ele>77</ele>
        <time>2013-08-03T08:06:47Z</time>
      </trkpt>
      <trkpt lat="48.30223" lon="3.17555">
        <ele>78</ele>
        <time>2013-08-03T08:06:52Z</time>
      </trkpt>
      <trkpt lat="48.30218" lon="3.17558">
        <ele>78</ele>
        <time>2013-08-03T08:06:57Z</time>
      </trkpt>
      <trkpt lat="48.30213" lon="3.17561">
        <ele>78</ele>
        <time>2013-08-03T08:07:01Z</time>
      </trkpt>
      <trkpt lat="48.3021" lon="3.17566">
        <ele>79</ele>
        <time>2013-08-03T08:07:07Z</time>
      </trkpt>
      <trkpt lat="48.30204" lon="3.17567">
        <ele>79</ele>
        <time>2013-08-03T08:07:39Z</time>
      </trkpt>
      <trkpt lat="48.30199" lon="3.17569">
        <ele>80</ele>
        <time>2013-08-03T08:07:43Z</time>
      </trkpt>
      <trkpt lat="48.30194" lon="3.17572">
        <ele>80</ele>
        <time>2013-08-03T08:07:48Z</time>
      </trkpt>
      <trkpt lat="48.30188" lon="3.17575">
        <ele>81</ele>
        <time>2013-08-03T08:07:52Z</time>
      </trkpt>
      <trkpt lat="48.30184" lon="3.17578">
        <ele>82</ele>
        <time>2013-08-03T08:07:54Z</time>
      </trkpt>
      <trkpt lat="48.30183" lon="3.17584">
        <ele>81</ele>
        <time>2013-08-03T08:08:01Z</time>
      </trkpt>
      <trkpt lat="48.30179" lon="3.17589">
        <ele>81</ele>
        <time>2013-08-03T08:08:05Z</time>
      </trkpt>
      <trkpt lat="48.30175" lon="3.17592">
        <ele>82</ele>
        <time>2013-08-03T08:08:09Z</time>
      </trkpt>
      <trkpt lat="48.3017" lon="3.17592">
        <ele>82</ele>
        <time>2013-08-03T08:08:16Z</time>
      </trkpt>
      <trkpt lat="48.30166" lon="3.17594">
        <ele>85</ele>
        <time>2013-08-03T08:08:20Z</time>
      </trkpt>
      <trkpt lat="48.30161" lon="3.17594">
        <ele>85</ele>
        <time>2013-08-03T08:08:28Z</time>
      </trkpt>
      <trkpt lat="48.30156" lon="3.17593">
        <ele>85</ele>
        <time>2013-08-03T08:08:33Z</time>
      </trkpt>
      <trkpt lat="48.30152" lon="3.17595">
        <ele>86</ele>
        <time>2013-08-03T08:08:37Z</time>
      </trkpt>
      <trkpt lat="48.30147" lon="3.17598">
        <ele>86</ele>
        <time>2013-08-03T08:08:41Z</time>
      </trkpt>
      <trkpt lat="48.30143" lon="3.17602">
        <ele>86</ele>
        <time>2013-08-03T08:08:45Z</time>
      </trkpt>
      <trkpt lat="48.30139" lon="3.17609">
        <ele>86</ele>
        <time>2013-08-03T08:08:50Z</time>
      </trkpt>
      <trkpt lat="48.30137" lon="3.17615">
        <ele>86</ele>
        <time>2013-08-03T08:08:53Z</time>
      </trkpt>
      <trkpt lat="48.30134" lon="3.17622">
        <ele>86</ele>
        <time>2013-08-03T08:08:57Z</time>
      </trkpt>
      <trkpt lat="48.30132" lon="3.17628">
        <ele>86</ele>
        <time>2013-08-03T08:09:02Z</time>
      </trkpt>
      <trkpt lat="48.30128" lon="3.17633">
        <ele>86</ele>
        <time>2013-08-03T08:09:06Z</time>
      </trkpt>
      <trkpt lat="48.30124" lon="3.17639">
        <ele>86</ele>
        <time>2013-08-03T08:09:10Z</time>
      </trkpt>
      <trkpt lat="48.30122" lon="3.17647">
        <ele>86</ele>
        <time>2013-08-03T08:09:13Z</time>
      </trkpt>
      <trkpt lat="48.3012" lon="3.17654">
        <ele>86</ele>
        <time>2013-08-03T08:09:16Z</time>
      </trkpt>
      <trkpt lat="48.30119" lon="3.17661">
        <ele>86</ele>
        <time>2013-08-03T08:09:19Z</time>
      </trkpt>
      <trkpt lat="48.30116" lon="3.17668">
        <ele>84</ele>
        <time>2013-08-03T08:09:23Z</time>
      </trkpt>
      <trkpt lat="48.30112" lon="3.17674">
        <ele>84</ele>
        <time>2013-08-03T08:09:27Z</time>
      </trkpt>
      <trkpt lat="48.30108" lon="3.17679">
        <ele>84</ele>
        <time>2013-08-03T08:09:30Z</time>
      </trkpt>
      <trkpt lat="48.30107" lon="3.17687">
        <ele>84</ele>
        <time>2013-08-03T08:09:36Z</time>
      </trkpt>
      <trkpt lat="48.30102" lon="3.17688">
        <ele>84</ele>
        <time>2013-08-03T08:09:44Z</time>
      </trkpt>
      <trkpt lat="48.30099" lon="3.17694">
        <ele>84</ele>
        <time>2013-08-03T08:09:48Z</time>
      </trkpt>
      <trkpt lat="48.30095" lon="3.17701">
        <ele>84</ele>
        <time>2013-08-03T08:09:51Z</time>
      </trkpt>
      <trkpt lat="48.30093" lon="3.17707">
        <ele>83</ele>
        <time>2013-08-03T08:09:54Z</time>
      </trkpt>
      <trkpt lat="48.3009" lon="3.1772">
        <ele>83</ele>
        <time>2013-08-03T08:10:01Z</time>
      </trkpt>
      <trkpt lat="48.30087" lon="3.17726">
        <ele>83</ele>
        <time>2013-08-03T08:10:04Z</time>
      </trkpt>
      <trkpt lat="48.30083" lon="3.17732">
        <ele>86</ele>
        <time>2013-08-03T08:10:08Z</time>
      </trkpt>
      <trkpt lat="48.30081" lon="3.17739">
        <ele>85</ele>
        <time>2013-08-03T08:10:12Z</time>
      </trkpt>
      <trkpt lat="48.30079" lon="3.17746">
        <ele>85</ele>
        <time>2013-08-03T08:10:17Z</time>
      </trkpt>
      <trkpt lat="48.30076" lon="3.17754">
        <ele>84</ele>
        <time>2013-08-03T08:10:21Z</time>
      </trkpt>
      <trkpt lat="48.30074" lon="3.17761">
        <ele>83</ele>
        <time>2013-08-03T08:10:25Z</time>
      </trkpt>
      <trkpt lat="48.30071" lon="3.17766">
        <ele>83</ele>
        <time>2013-08-03T08:10:28Z</time>
      </trkpt>
      <trkpt lat="48.30067" lon="3.1777">
        <ele>83</ele>
        <time>2013-08-03T08:10:30Z</time>
      </trkpt>
      <trkpt lat="48.30063" lon="3.17777">
        <ele>83</ele>
        <time>2013-08-03T08:10:33Z</time>
      </trkpt>
      <trkpt lat="48.30061" lon="3.17784">
        <ele>83</ele>
        <time>2013-08-03T08:10:37Z</time>
      </trkpt>
      <trkpt lat="48.30059" lon="3.17793">
        <ele>82</ele>
        <time>2013-08-03T08:10:50Z</time>
      </trkpt>
      <trkpt lat="48.30055" lon="3.17799">
        <ele>82</ele>
        <time>2013-08-03T08:10:55Z</time>
      </trkpt>
      <trkpt lat="48.30049" lon="3.178">
        <ele>82</ele>
        <time>2013-08-03T08:11:03Z</time>
      </trkpt>
      <trkpt lat="48.30045" lon="3.17803">
        <ele>82</ele>
        <time>2013-08-03T08:11:07Z</time>
      </trkpt>
      <trkpt lat="48.30042" lon="3.17809">
        <ele>82</ele>
        <time>2013-08-03T08:11:12Z</time>
      </trkpt>
      <trkpt lat="48.30039" lon="3.17815">
        <ele>82</ele>
        <time>2013-08-03T08:11:17Z</time>
      </trkpt>
      <trkpt lat="48.30035" lon="3.1782">
        <ele>82</ele>
        <time>2013-08-03T08:11:21Z</time>
      </trkpt>
      <trkpt lat="48.30031" lon="3.17825">
        <ele>82</ele>
        <time>2013-08-03T08:11:26Z</time>
      </trkpt>
      <trkpt lat="48.30027" lon="3.17831">
        <ele>81</ele>
        <time>2013-08-03T08:11:31Z</time>
      </trkpt>
      <trkpt lat="48.30022" lon="3.17836">
        <ele>79</ele>
        <time>2013-08-03T08:11:36Z</time>
      </trkpt>
      <trkpt lat="48.30019" lon="3.1784">
        <ele>79</ele>
        <time>2013-08-03T08:11:40Z</time>
      </trkpt>
      <trkpt lat="48.30015" lon="3.17846">
        <ele>79</ele>
        <time>2013-08-03T08:11:44Z</time>
      </trkpt>
      <trkpt lat="48.30012" lon="3.17853">
        <ele>79</ele>
        <time>2013-08-03T08:11:48Z</time>
      </trkpt>
      <trkpt lat="48.30008" lon="3.17857">
        <ele>79</ele>
        <time>2013-08-03T08:11:52Z</time>
      </trkpt>
      <trkpt lat="48.30004" lon="3.17864">
        <ele>78</ele>
        <time>2013-08-03T08:11:57Z</time>
      </trkpt>
      <trkpt lat="48.3" lon="3.17871">
        <ele>78</ele>
        <time>2013-08-03T08:12:03Z</time>
      </trkpt>
      <trkpt lat="48.29996" lon="3.17876">
        <ele>76</ele>
        <time>2013-08-03T08:12:08Z</time>
      </trkpt>
      <trkpt lat="48.29992" lon="3.17882">
        <ele>75</ele>
        <time>2013-08-03T08:12:12Z</time>
      </trkpt>
      <trkpt lat="48.29987" lon="3.17887">
        <ele>75</ele>
        <time>2013-08-03T08:12:20Z</time>
      </trkpt>
      <trkpt lat="48.29983" lon="3.17892">
        <ele>75</ele>
        <time>2013-08-03T08:12:25Z</time>
      </trkpt>
      <trkpt lat="48.29979" lon="3.17898">
        <ele>75</ele>
        <time>2013-08-03T08:12:30Z</time>
      </trkpt>
      <trkpt lat="48.29976" lon="3.17904">
        <ele>75</ele>
        <time>2013-08-03T08:12:37Z</time>
      </trkpt>
      <trkpt lat="48.29972" lon="3.17908">
        <ele>74</ele>
        <time>2013-08-03T08:12:42Z</time>
      </trkpt>
      <trkpt lat="48.29969" lon="3.17914">
        <ele>74</ele>
        <time>2013-08-03T08:12:47Z</time>
      </trkpt>
      <trkpt lat="48.29965" lon="3.17917">
        <ele>72</ele>
        <time>2013-08-03T08:12:52Z</time>
      </trkpt>
      <trkpt lat="48.2996" lon="3.17924">
        <ele>71</ele>
        <time>2013-08-03T08:13:03Z</time>
      </trkpt>
      <trkpt lat="48.29957" lon="3.1793">
        <ele>71</ele>
        <time>2013-08-03T08:13:08Z</time>
      </trkpt>
      <trkpt lat="48.29954" lon="3.17935">
        <ele>71</ele>
        <time>2013-08-03T08:13:14Z</time>
      </trkpt>
      <trkpt lat="48.29951" lon="3.17942">
        <ele>71</ele>
        <time>2013-08-03T08:13:18Z</time>
      </trkpt>
      <trkpt lat="48.29948" lon="3.17947">
        <ele>71</ele>
        <time>2013-08-03T08:13:22Z</time>
      </trkpt>
      <trkpt lat="48.29944" lon="3.17951">
        <ele>70</ele>
        <time>2013-08-03T08:13:28Z</time>
      </trkpt>
      <trkpt lat="48.29941" lon="3.17957">
        <ele>70</ele>
        <time>2013-08-03T08:13:34Z</time>
      </trkpt>
      <trkpt lat="48.29938" lon="3.17963">
        <ele>70</ele>
        <time>2013-08-03T08:13:39Z</time>
      </trkpt>
      <trkpt lat="48.29935" lon="3.17969">
        <ele>70</ele>
        <time>2013-08-03T08:13:43Z</time>
      </trkpt>
      <trkpt lat="48.29932" lon="3.17975">
        <ele>70</ele>
        <time>2013-08-03T08:13:47Z</time>
      </trkpt>
      <trkpt lat="48.29929" lon="3.17981">
        <ele>70</ele>
        <time>2013-08-03T08:13:52Z</time>
      </trkpt>
      <trkpt lat="48.29925" lon="3.17986">
        <ele>69</ele>
        <time>2013-08-03T08:14:00Z</time>
      </trkpt>
      <trkpt lat="48.29922" lon="3.17992">
        <ele>69</ele>
        <time>2013-08-03T08:14:05Z</time>
      </trkpt>
      <trkpt lat="48.29919" lon="3.17998">
        <ele>68</ele>
        <time>2013-08-03T08:14:11Z</time>
      </trkpt>
      <trkpt lat="48.29915" lon="3.18002">
        <ele>68</ele>
        <time>2013-08-03T08:14:19Z</time>
      </trkpt>
      <trkpt lat="48.29912" lon="3.18008">
        <ele>67</ele>
        <time>2013-08-03T08:14:24Z</time>
      </trkpt>
      <trkpt lat="48.29908" lon="3.18016">
        <ele>67</ele>
        <time>2013-08-03T08:14:27Z</time>
      </trkpt>
      <trkpt lat="48.29905" lon="3.18022">
        <ele>67</ele>
        <time>2013-08-03T08:14:30Z</time>
      </trkpt>
      <trkpt lat="48.29902" lon="3.18028">
        <ele>67</ele>
        <time>2013-08-03T08:14:34Z</time>
      </trkpt>
      <trkpt lat="48.29898" lon="3.18034">
        <ele>67</ele>
        <time>2013-08-03T08:14:38Z</time>
      </trkpt>
      <trkpt lat="48.29894" lon="3.1804">
        <ele>67</ele>
        <time>2013-08-03T08:14:42Z</time>
      </trkpt>
      <trkpt lat="48.29892" lon="3.18046">
        <ele>67</ele>
        <time>2013-08-03T08:14:53Z</time>
      </trkpt>
      <trkpt lat="48.29892" lon="3.18056">
        <ele>67</ele>
        <time>2013-08-03T08:15:09Z</time>
      </trkpt>
      <trkpt lat="48.29889" lon="3.18063">
        <ele>67</ele>
        <time>2013-08-03T08:15:12Z</time>
      </trkpt>
      <trkpt lat="48.29885" lon="3.18069">
        <ele>66</ele>
        <time>2013-08-03T08:15:16Z</time>
      </trkpt>
      <trkpt lat="48.29882" lon="3.18076">
        <ele>66</ele>
        <time>2013-08-03T08:15:21Z</time>
      </trkpt>
      <trkpt lat="48.29878" lon="3.1808">
        <ele>66</ele>
        <time>2013-08-03T08:15:24Z</time>
      </trkpt>
      <trkpt lat="48.29875" lon="3.18086">
        <ele>66</ele>
        <time>2013-08-03T08:15:28Z</time>
      </trkpt>
      <trkpt lat="48.29872" lon="3.18092">
        <ele>66</ele>
        <time>2013-08-03T08:15:31Z</time>
      </trkpt>
      <trkpt lat="48.29868" lon="3.18097">
        <ele>66</ele>
        <time>2013-08-03T08:15:35Z</time>
      </trkpt>
      <trkpt lat="48.29865" lon="3.18103">
        <ele>66</ele>
        <time>2013-08-03T08:15:42Z</time>
      </trkpt>
      <trkpt lat="48.29862" lon="3.1811">
        <ele>66</ele>
        <time>2013-08-03T08:15:47Z</time>
      </trkpt>
      <trkpt lat="48.2986" lon="3.18117">
        <ele>66</ele>
        <time>2013-08-03T08:15:54Z</time>
      </trkpt>
      <trkpt lat="48.29857" lon="3.18123">
        <ele>66</ele>
        <time>2013-08-03T08:16:07Z</time>
      </trkpt>
      <trkpt lat="48.29855" lon="3.1813">
        <ele>66</ele>
        <time>2013-08-03T08:16:12Z</time>
      </trkpt>
      <trkpt lat="48.29854" lon="3.18136">
        <ele>66</ele>
        <time>2013-08-03T08:16:17Z</time>
      </trkpt>
      <trkpt lat="48.29852" lon="3.18144">
        <ele>66</ele>
        <time>2013-08-03T08:16:22Z</time>
      </trkpt>
      <trkpt lat="48.2985" lon="3.18151">
        <ele>66</ele>
        <time>2013-08-03T08:16:27Z</time>
      </trkpt>
      <trkpt lat="48.29849" lon="3.18158">
        <ele>66</ele>
        <time>2013-08-03T08:16:32Z</time>
      </trkpt>
      <trkpt lat="48.29847" lon="3.18165">
        <ele>66</ele>
        <time>2013-08-03T08:16:37Z</time>
      </trkpt>
      <trkpt lat="48.29846" lon="3.18172">
        <ele>67</ele>
        <time>2013-08-03T08:16:43Z</time>
      </trkpt>
      <trkpt lat="48.29843" lon="3.18178">
        <ele>67</ele>
        <time>2013-08-03T08:16:49Z</time>
      </trkpt>
      <trkpt lat="48.29843" lon="3.18183">
        <ele>66</ele>
        <time>2013-08-03T08:16:57Z</time>
      </trkpt>
      <trkpt lat="48.29843" lon="3.1819">
        <ele>66</ele>
        <time>2013-08-03T08:17:04Z</time>
      </trkpt>
      <trkpt lat="48.29842" lon="3.18198">
        <ele>66</ele>
        <time>2013-08-03T08:17:09Z</time>
      </trkpt>
      <trkpt lat="48.29842" lon="3.18205">
        <ele>66</ele>
        <time>2013-08-03T08:17:13Z</time>
      </trkpt>
      <trkpt lat="48.29841" lon="3.18213">
        <ele>67</ele>
        <time>2013-08-03T08:17:18Z</time>
      </trkpt>
      <trkpt lat="48.29841" lon="3.1822">
        <ele>67</ele>
        <time>2013-08-03T08:17:22Z</time>
      </trkpt>
      <trkpt lat="48.29843" lon="3.18227">
        <ele>67</ele>
        <time>2013-08-03T08:17:26Z</time>
      </trkpt>
      <trkpt lat="48.29845" lon="3.18233">
        <ele>67</ele>
        <time>2013-08-03T08:17:30Z</time>
      </trkpt>
      <trkpt lat="48.29848" lon="3.1824">
        <ele>67</ele>
        <time>2013-08-03T08:17:34Z</time>
      </trkpt>
      <trkpt lat="48.29849" lon="3.18247">
        <ele>67</ele>
        <time>2013-08-03T08:17:39Z</time>
      </trkpt>
      <trkpt lat="48.29851" lon="3.18253">
        <ele>67</ele>
        <time>2013-08-03T08:17:43Z</time>
      </trkpt>
      <trkpt lat="48.29851" lon="3.18257">
        <ele>67</ele>
        <time>2013-08-03T08:17:49Z</time>
      </trkpt>
      <trkpt lat="48.29846" lon="3.1826">
        <ele>67</ele>
        <time>2013-08-03T08:18:14Z</time>
      </trkpt>
      <trkpt lat="48.2984" lon="3.18266">
        <ele>67</ele>
        <time>2013-08-03T08:18:17Z</time>
      </trkpt>
      <trkpt lat="48.29836" lon="3.1827">
        <ele>67</ele>
        <time>2013-08-03T08:18:19Z</time>
      </trkpt>
      <trkpt lat="48.29832" lon="3.18275">
        <ele>71</ele>
        <time>2013-08-03T08:18:22Z</time>
      </trkpt>
      <trkpt lat="48.29828" lon="3.18278">
        <ele>71</ele>
        <time>2013-08-03T08:18:26Z</time>
      </trkpt>
      <trkpt lat="48.29824" lon="3.18282">
        <ele>71</ele>
        <time>2013-08-03T08:18:30Z</time>
      </trkpt>
      <trkpt lat="48.29819" lon="3.18282">
        <ele>71</ele>
        <time>2013-08-03T08:18:36Z</time>
      </trkpt>
      <trkpt lat="48.29814" lon="3.18285">
        <ele>71</ele>
        <time>2013-08-03T08:18:40Z</time>
      </trkpt>
      <trkpt lat="48.29809" lon="3.18286">
        <ele>72</ele>
        <time>2013-08-03T08:18:44Z</time>
      </trkpt>
      <trkpt lat="48.29804" lon="3.1829">
        <ele>72</ele>
        <time>2013-08-03T08:18:48Z</time>
      </trkpt>
      <trkpt lat="48.298" lon="3.18295">
        <ele>72</ele>
        <time>2013-08-03T08:18:53Z</time>
      </trkpt>
      <trkpt lat="48.29796" lon="3.18299">
        <ele>72</ele>
        <time>2013-08-03T08:18:57Z</time>
      </trkpt>
      <trkpt lat="48.29793" lon="3.18305">
        <ele>72</ele>
        <time>2013-08-03T08:19:01Z</time>
      </trkpt>
      <trkpt lat="48.2979" lon="3.18311">
        <ele>72</ele>
        <time>2013-08-03T08:19:06Z</time>
      </trkpt>
      <trkpt lat="48.29787" lon="3.18316">
        <ele>73</ele>
        <time>2013-08-03T08:19:10Z</time>
      </trkpt>
      <trkpt lat="48.29784" lon="3.18322">
        <ele>73</ele>
        <time>2013-08-03T08:19:15Z</time>
      </trkpt>
      <trkpt lat="48.2978" lon="3.18328">
        <ele>73</ele>
        <time>2013-08-03T08:19:21Z</time>
      </trkpt>
      <trkpt lat="48.29777" lon="3.18334">
        <ele>75</ele>
        <time>2013-08-03T08:19:25Z</time>
      </trkpt>
      <trkpt lat="48.29775" lon="3.1834">
        <ele>75</ele>
        <time>2013-08-03T08:19:29Z</time>
      </trkpt>
      <trkpt lat="48.29773" lon="3.18346">
        <ele>75</ele>
        <time>2013-08-03T08:19:33Z</time>
      </trkpt>
      <trkpt lat="48.29768" lon="3.18351">
        <ele>75</ele>
        <time>2013-08-03T08:19:38Z</time>
      </trkpt>
      <trkpt lat="48.29765" lon="3.18356">
        <ele>75</ele>
        <time>2013-08-03T08:19:42Z</time>
      </trkpt>
      <trkpt lat="48.29761" lon="3.18359">
        <ele>75</ele>
        <time>2013-08-03T08:19:49Z</time>
      </trkpt>
      <trkpt lat="48.29757" lon="3.18364">
        <ele>75</ele>
        <time>2013-08-03T08:19:53Z</time>
      </trkpt>
      <trkpt lat="48.29752" lon="3.18368">
        <ele>75</ele>
        <time>2013-08-03T08:19:58Z</time>
      </trkpt>
      <trkpt lat="48.29747" lon="3.18373">
        <ele>81</ele>
        <time>2013-08-03T08:20:03Z</time>
      </trkpt>
      <trkpt lat="48.29744" lon="3.18379">
        <ele>81</ele>
        <time>2013-08-03T08:20:07Z</time>
      </trkpt>
      <trkpt lat="48.2974" lon="3.18384">
        <ele>81</ele>
        <time>2013-08-03T08:20:12Z</time>
      </trkpt>
      <trkpt lat="48.29734" lon="3.18388">
        <ele>81</ele>
        <time>2013-08-03T08:20:28Z</time>
      </trkpt>
      <trkpt lat="48.29729" lon="3.18392">
        <ele>81</ele>
        <time>2013-08-03T08:20:36Z</time>
      </trkpt>
      <trkpt lat="48.29725" lon="3.18395">
        <ele>82</ele>
        <time>2013-08-03T08:20:39Z</time>
      </trkpt>
      <trkpt lat="48.29721" lon="3.184">
        <ele>82</ele>
        <time>2013-08-03T08:20:42Z</time>
      </trkpt>
      <trkpt lat="48.29716" lon="3.18406">
        <ele>82</ele>
        <time>2013-08-03T08:20:45Z</time>
      </trkpt>
      <trkpt lat="48.29712" lon="3.18413">
        <ele>82</ele>
        <time>2013-08-03T08:20:48Z</time>
      </trkpt>
      <trkpt lat="48.29709" lon="3.18418">
        <ele>84</ele>
        <time>2013-08-03T08:20:52Z</time>
      </trkpt>
      <trkpt lat="48.29704" lon="3.18423">
        <ele>84</ele>
        <time>2013-08-03T08:20:56Z</time>
      </trkpt>
      <trkpt lat="48.297" lon="3.18428">
        <ele>84</ele>
        <time>2013-08-03T08:21:00Z</time>
      </trkpt>
      <trkpt lat="48.29697" lon="3.18434">
        <ele>84</ele>
        <time>2013-08-03T08:21:05Z</time>
      </trkpt>
      <trkpt lat="48.29695" lon="3.18444">
        <ele>85</ele>
        <time>2013-08-03T08:21:30Z</time>
      </trkpt>
      <trkpt lat="48.2969" lon="3.18451">
        <ele>85</ele>
        <time>2013-08-03T08:21:33Z</time>
      </trkpt>
      <trkpt lat="48.29687" lon="3.18456">
        <ele>85</ele>
        <time>2013-08-03T08:21:35Z</time>
      </trkpt>
      <trkpt lat="48.29683" lon="3.18462">
        <ele>85</ele>
        <time>2013-08-03T08:21:38Z</time>
      </trkpt>
      <trkpt lat="48.29679" lon="3.18468">
        <ele>85</ele>
        <time>2013-08-03T08:21:42Z</time>
      </trkpt>
      <trkpt lat="48.29675" lon="3.18472">
        <ele>85</ele>
        <time>2013-08-03T08:21:45Z</time>
      </trkpt>
      <trkpt lat="48.2967" lon="3.18477">
        <ele>86</ele>
        <time>2013-08-03T08:21:48Z</time>
      </trkpt>
      <trkpt lat="48.29668" lon="3.18483">
        <ele>86</ele>
        <time>2013-08-03T08:21:52Z</time>
      </trkpt>
      <trkpt lat="48.29664" lon="3.18488">
        <ele>89</ele>
        <time>2013-08-03T08:21:57Z</time>
      </trkpt>
      <trkpt lat="48.2966" lon="3.18493">
        <ele>89</ele>
        <time>2013-08-03T08:22:06Z</time>
      </trkpt>
      <trkpt lat="48.29655" lon="3.18499">
        <ele>89</ele>
        <time>2013-08-03T08:22:12Z</time>
      </trkpt>
      <trkpt lat="48.29651" lon="3.18505">
        <ele>90</ele>
        <time>2013-08-03T08:22:14Z</time>
      </trkpt>
      <trkpt lat="48.29648" lon="3.1851">
        <ele>90</ele>
        <time>2013-08-03T08:22:16Z</time>
      </trkpt>
      <trkpt lat="48.29644" lon="3.18514">
        <ele>90</ele>
        <time>2013-08-03T08:22:21Z</time>
      </trkpt>
      <trkpt lat="48.2964" lon="3.1852">
        <ele>91</ele>
        <time>2013-08-03T08:22:24Z</time>
      </trkpt>
      <trkpt lat="48.29635" lon="3.18526">
        <ele>91</ele>
        <time>2013-08-03T08:22:27Z</time>
      </trkpt>
      <trkpt lat="48.29631" lon="3.18531">
        <ele>91</ele>
        <time>2013-08-03T08:22:34Z</time>
      </trkpt>
      <trkpt lat="48.29627" lon="3.18536">
        <ele>91</ele>
        <time>2013-08-03T08:22:37Z</time>
      </trkpt>
      <trkpt lat="48.29623" lon="3.1854">
        <ele>92</ele>
        <time>2013-08-03T08:22:41Z</time>
      </trkpt>
      <trkpt lat="48.29624" lon="3.18543">
        <ele>92</ele>
        <time>2013-08-03T08:22:48Z</time>
      </trkpt>
      <trkpt lat="48.2962" lon="3.18546">
        <ele>92</ele>
        <time>2013-08-03T08:22:51Z</time>
      </trkpt>
      <trkpt lat="48.29616" lon="3.18551">
        <ele>92</ele>
        <time>2013-08-03T08:22:57Z</time>
      </trkpt>
      <trkpt lat="48.29615" lon="3.18559">
        <ele>92</ele>
        <time>2013-08-03T08:23:01Z</time>
      </trkpt>
      <trkpt lat="48.29611" lon="3.18564">
        <ele>92</ele>
        <time>2013-08-03T08:23:04Z</time>
      </trkpt>
      <trkpt lat="48.29608" lon="3.1857">
        <ele>93</ele>
        <time>2013-08-03T08:23:13Z</time>
      </trkpt>
      <trkpt lat="48.29605" lon="3.18576">
        <ele>93</ele>
        <time>2013-08-03T08:23:19Z</time>
      </trkpt>
      <trkpt lat="48.29601" lon="3.18582">
        <ele>94</ele>
        <time>2013-08-03T08:23:24Z</time>
      </trkpt>
      <trkpt lat="48.29598" lon="3.18589">
        <ele>94</ele>
        <time>2013-08-03T08:23:28Z</time>
      </trkpt>
      <trkpt lat="48.29596" lon="3.18596">
        <ele>93</ele>
        <time>2013-08-03T08:23:34Z</time>
      </trkpt>
      <trkpt lat="48.29593" lon="3.18602">
        <ele>93</ele>
        <time>2013-08-03T08:23:39Z</time>
      </trkpt>
      <trkpt lat="48.2959" lon="3.18609">
        <ele>93</ele>
        <time>2013-08-03T08:23:43Z</time>
      </trkpt>
      <trkpt lat="48.29588" lon="3.18616">
        <ele>93</ele>
        <time>2013-08-03T08:23:48Z</time>
      </trkpt>
      <trkpt lat="48.29584" lon="3.18621">
        <ele>92</ele>
        <time>2013-08-03T08:23:52Z</time>
      </trkpt>
      <trkpt lat="48.29581" lon="3.18627">
        <ele>97</ele>
        <time>2013-08-03T08:23:56Z</time>
      </trkpt>
      <trkpt lat="48.29579" lon="3.18633">
        <ele>97</ele>
        <time>2013-08-03T08:24:03Z</time>
      </trkpt>
      <trkpt lat="48.29576" lon="3.18639">
        <ele>96</ele>
        <time>2013-08-03T08:24:08Z</time>
      </trkpt>
      <trkpt lat="48.29572" lon="3.18644">
        <ele>96</ele>
        <time>2013-08-03T08:24:11Z</time>
      </trkpt>
      <trkpt lat="48.2957" lon="3.1865">
        <ele>96</ele>
        <time>2013-08-03T08:24:14Z</time>
      </trkpt>
      <trkpt lat="48.29568" lon="3.18657">
        <ele>96</ele>
        <time>2013-08-03T08:24:19Z</time>
      </trkpt>
      <trkpt lat="48.29566" lon="3.18665">
        <ele>96</ele>
        <time>2013-08-03T08:24:25Z</time>
      </trkpt>
      <trkpt lat="48.29562" lon="3.18669">
        <ele>95</ele>
        <time>2013-08-03T08:24:29Z</time>
      </trkpt>
      <trkpt lat="48.29559" lon="3.18675">
        <ele>95</ele>
        <time>2013-08-03T08:24:33Z</time>
      </trkpt>
      <trkpt lat="48.29558" lon="3.18682">
        <ele>96</ele>
        <time>2013-08-03T08:24:37Z</time>
      </trkpt>
      <trkpt lat="48.29555" lon="3.18689">
        <ele>96</ele>
        <time>2013-08-03T08:24:41Z</time>
      </trkpt>
      <trkpt lat="48.29553" lon="3.18695">
        <ele>96</ele>
        <time>2013-08-03T08:24:44Z</time>
      </trkpt>
      <trkpt lat="48.29551" lon="3.18702">
        <ele>96</ele>
        <time>2013-08-03T08:24:49Z</time>
      </trkpt>
      <trkpt lat="48.29548" lon="3.18708">
        <ele>96</ele>
        <time>2013-08-03T08:24:56Z</time>
      </trkpt>
      <trkpt lat="48.29545" lon="3.18714">
        <ele>96</ele>
        <time>2013-08-03T08:24:59Z</time>
      </trkpt>
      <trkpt lat="48.29542" lon="3.18719">
        <ele>96</ele>
        <time>2013-08-03T08:25:02Z</time>
      </trkpt>
      <trkpt lat="48.29538" lon="3.18725">
        <ele>97</ele>
        <time>2013-08-03T08:25:05Z</time>
      </trkpt>
      <trkpt lat="48.29535" lon="3.18731">
        <ele>97</ele>
        <time>2013-08-03T08:25:08Z</time>
      </trkpt>
      <trkpt lat="48.29532" lon="3.18738">
        <ele>97</ele>
        <time>2013-08-03T08:25:14Z</time>
      </trkpt>
      <trkpt lat="48.29528" lon="3.18742">
        <ele>97</ele>
        <time>2013-08-03T08:25:17Z</time>
      </trkpt>
      <trkpt lat="48.29524" lon="3.18747">
        <ele>98</ele>
        <time>2013-08-03T08:25:19Z</time>
      </trkpt>
      <trkpt lat="48.2952" lon="3.18752">
        <ele>97</ele>
        <time>2013-08-03T08:25:21Z</time>
      </trkpt>
      <trkpt lat="48.29516" lon="3.18757">
        <ele>98</ele>
        <time>2013-08-03T08:25:23Z</time>
      </trkpt>
      <trkpt lat="48.29512" lon="3.18763">
        <ele>98</ele>
        <time>2013-08-03T08:25:27Z</time>
      </trkpt>
      <trkpt lat="48.29508" lon="3.18767">
        <ele>98</ele>
        <time>2013-08-03T08:25:32Z</time>
      </trkpt>
      <trkpt lat="48.29503" lon="3.18772">
        <ele>98</ele>
        <time>2013-08-03T08:25:35Z</time>
      </trkpt>
      <trkpt lat="48.29499" lon="3.18777">
        <ele>101</ele>
        <time>2013-08-03T08:25:38Z</time>
      </trkpt>
      <trkpt lat="48.29496" lon="3.18784">
        <ele>101</ele>
        <time>2013-08-03T08:25:46Z</time>
      </trkpt>
      <trkpt lat="48.29492" lon="3.18791">
        <ele>101</ele>
        <time>2013-08-03T08:25:49Z</time>
      </trkpt>
      <trkpt lat="48.29488" lon="3.18795">
        <ele>102</ele>
        <time>2013-08-03T08:25:52Z</time>
      </trkpt>
      <trkpt lat="48.29489" lon="3.18802">
        <ele>101</ele>
        <time>2013-08-03T08:26:01Z</time>
      </trkpt>
      <trkpt lat="48.29484" lon="3.18805">
        <ele>101</ele>
        <time>2013-08-03T08:26:05Z</time>
      </trkpt>
      <trkpt lat="48.2948" lon="3.18809">
        <ele>101</ele>
        <time>2013-08-03T08:26:07Z</time>
      </trkpt>
      <trkpt lat="48.29476" lon="3.18814">
        <ele>101</ele>
        <time>2013-08-03T08:26:16Z</time>
      </trkpt>
      <trkpt lat="48.29469" lon="3.18823">
        <ele>102</ele>
        <time>2013-08-03T08:26:19Z</time>
      </trkpt>
      <trkpt lat="48.29465" lon="3.18829">
        <ele>102</ele>
        <time>2013-08-03T08:26:21Z</time>
      </trkpt>
      <trkpt lat="48.29461" lon="3.18836">
        <ele>99</ele>
        <time>2013-08-03T08:26:24Z</time>
      </trkpt>
      <trkpt lat="48.29458" lon="3.18841">
        <ele>99</ele>
        <time>2013-08-03T08:26:27Z</time>
      </trkpt>
      <trkpt lat="48.29454" lon="3.18846">
        <ele>99</ele>
        <time>2013-08-03T08:26:30Z</time>
      </trkpt>
      <trkpt lat="48.2945" lon="3.1885">
        <ele>99</ele>
        <time>2013-08-03T08:26:36Z</time>
      </trkpt>
      <trkpt lat="48.29445" lon="3.18854">
        <ele>100</ele>
        <time>2013-08-03T08:26:39Z</time>
      </trkpt>
      <trkpt lat="48.2944" lon="3.18859">
        <ele>100</ele>
        <time>2013-08-03T08:26:42Z</time>
      </trkpt>
      <trkpt lat="48.29442" lon="3.18865">
        <ele>99</ele>
        <time>2013-08-03T08:26:52Z</time>
      </trkpt>
      <trkpt lat="48.29438" lon="3.18869">
        <ele>99</ele>
        <time>2013-08-03T08:26:57Z</time>
      </trkpt>
      <trkpt lat="48.29432" lon="3.18871">
        <ele>99</ele>
        <time>2013-08-03T08:27:00Z</time>
      </trkpt>
      <trkpt lat="48.29428" lon="3.18878">
        <ele>99</ele>
        <time>2013-08-03T08:27:11Z</time>
      </trkpt>
      <trkpt lat="48.2942" lon="3.18887">
        <ele>98</ele>
        <time>2013-08-03T08:27:17Z</time>
      </trkpt>
      <trkpt lat="48.29416" lon="3.1889">
        <ele>100</ele>
        <time>2013-08-03T08:27:31Z</time>
      </trkpt>
      <trkpt lat="48.2941" lon="3.18903">
        <ele>99</ele>
        <time>2013-08-03T08:27:36Z</time>
      </trkpt>
      <trkpt lat="48.29411" lon="3.18909">
        <ele>98</ele>
        <time>2013-08-03T08:27:44Z</time>
      </trkpt>
      <trkpt lat="48.29408" lon="3.18917">
        <ele>96</ele>
        <time>2013-08-03T08:27:52Z</time>
      </trkpt>
      <trkpt lat="48.29404" lon="3.18922">
        <ele>96</ele>
        <time>2013-08-03T08:27:54Z</time>
      </trkpt>
      <trkpt lat="48.294" lon="3.18929">
        <ele>96</ele>
        <time>2013-08-03T08:27:57Z</time>
      </trkpt>
      <trkpt lat="48.29398" lon="3.18937">
        <ele>95</ele>
        <time>2013-08-03T08:28:17Z</time>
      </trkpt>
      <trkpt lat="48.29397" lon="3.18946">
        <ele>95</ele>
        <time>2013-08-03T08:28:20Z</time>
      </trkpt>
      <trkpt lat="48.29395" lon="3.18953">
        <ele>95</ele>
        <time>2013-08-03T08:28:26Z</time>
      </trkpt>
      <trkpt lat="48.29392" lon="3.18961">
        <ele>94</ele>
        <time>2013-08-03T08:28:30Z</time>
      </trkpt>
      <trkpt lat="48.29389" lon="3.18966">
        <ele>94</ele>
        <time>2013-08-03T08:28:33Z</time>
      </trkpt>
      <trkpt lat="48.29389" lon="3.18973">
        <ele>94</ele>
        <time>2013-08-03T08:28:39Z</time>
      </trkpt>
      <trkpt lat="48.29386" lon="3.18978">
        <ele>94</ele>
        <time>2013-08-03T08:28:44Z</time>
      </trkpt>
      <trkpt lat="48.29383" lon="3.18985">
        <ele>94</ele>
        <time>2013-08-03T08:28:47Z</time>
      </trkpt>
      <trkpt lat="48.2938" lon="3.18992">
        <ele>93</ele>
        <time>2013-08-03T08:28:51Z</time>
      </trkpt>
      <trkpt lat="48.29379" lon="3.19">
        <ele>93</ele>
        <time>2013-08-03T08:29:01Z</time>
      </trkpt>
      <trkpt lat="48.29376" lon="3.19005">
        <ele>90</ele>
        <time>2013-08-03T08:29:03Z</time>
      </trkpt>
      <trkpt lat="48.29372" lon="3.19013">
        <ele>89</ele>
        <time>2013-08-03T08:29:06Z</time>
      </trkpt>
      <trkpt lat="48.29369" lon="3.19021">
        <ele>89</ele>
        <time>2013-08-03T08:29:09Z</time>
      </trkpt>
      <trkpt lat="48.29371" lon="3.19024">
        <ele>89</ele>
        <time>2013-08-03T08:29:21Z</time>
      </trkpt>
      <trkpt lat="48.29368" lon="3.19031">
        <ele>89</ele>
        <time>2013-08-03T08:29:24Z</time>
      </trkpt>
      <trkpt lat="48.29365" lon="3.19037">
        <ele>89</ele>
        <time>2013-08-03T08:29:26Z</time>
      </trkpt>
      <trkpt lat="48.29362" lon="3.19045">
        <ele>88</ele>
        <time>2013-08-03T08:29:29Z</time>
      </trkpt>
      <trkpt lat="48.2936" lon="3.19051">
        <ele>88</ele>
        <time>2013-08-03T08:29:32Z</time>
      </trkpt>
      <trkpt lat="48.2936" lon="3.19058">
        <ele>88</ele>
        <time>2013-08-03T08:29:40Z</time>
      </trkpt>
      <trkpt lat="48.29356" lon="3.19066">
        <ele>87</ele>
        <time>2013-08-03T08:29:44Z</time>
      </trkpt>
      <trkpt lat="48.29352" lon="3.19073">
        <ele>87</ele>
        <time>2013-08-03T08:29:47Z</time>
      </trkpt>
      <trkpt lat="48.2935" lon="3.19079">
        <ele>86</ele>
        <time>2013-08-03T08:29:51Z</time>
      </trkpt>
      <trkpt lat="48.29348" lon="3.19083">
        <ele>86</ele>
        <time>2013-08-03T08:30:01Z</time>
      </trkpt>
      <trkpt lat="48.29345" lon="3.19092">
        <ele>83</ele>
        <time>2013-08-03T08:30:06Z</time>
      </trkpt>
      <trkpt lat="48.29342" lon="3.19098">
        <ele>83</ele>
        <time>2013-08-03T08:30:10Z</time>
      </trkpt>
      <trkpt lat="48.29339" lon="3.19106">
        <ele>82</ele>
        <time>2013-08-03T08:30:16Z</time>
      </trkpt>
      <trkpt lat="48.29335" lon="3.19112">
        <ele>82</ele>
        <time>2013-08-03T08:30:20Z</time>
      </trkpt>
      <trkpt lat="48.29334" lon="3.19119">
        <ele>82</ele>
        <time>2013-08-03T08:30:23Z</time>
      </trkpt>
      <trkpt lat="48.29331" lon="3.19125">
        <ele>79</ele>
        <time>2013-08-03T08:30:28Z</time>
      </trkpt>
      <trkpt lat="48.29329" lon="3.19132">
        <ele>79</ele>
        <time>2013-08-03T08:30:33Z</time>
      </trkpt>
      <trkpt lat="48.29325" lon="3.19139">
        <ele>78</ele>
        <time>2013-08-03T08:30:38Z</time>
      </trkpt>
      <trkpt lat="48.29323" lon="3.19146">
        <ele>78</ele>
        <time>2013-08-03T08:30:43Z</time>
      </trkpt>
      <trkpt lat="48.2932" lon="3.19152">
        <ele>78</ele>
        <time>2013-08-03T08:30:48Z</time>
      </trkpt>
      <trkpt lat="48.29317" lon="3.19158">
        <ele>78</ele>
        <time>2013-08-03T08:30:54Z</time>
      </trkpt>
      <trkpt lat="48.29314" lon="3.19164">
        <ele>77</ele>
        <time>2013-08-03T08:31:00Z</time>
      </trkpt>
      <trkpt lat="48.29311" lon="3.1917">
        <ele>75</ele>
        <time>2013-08-03T08:31:06Z</time>
      </trkpt>
      <trkpt lat="48.29309" lon="3.19175">
        <ele>75</ele>
        <time>2013-08-03T08:31:11Z</time>
      </trkpt>
      <trkpt lat="48.29306" lon="3.19182">
        <ele>74</ele>
        <time>2013-08-03T08:31:19Z</time>
      </trkpt>
      <trkpt lat="48.29303" lon="3.19188">
        <ele>74</ele>
        <time>2013-08-03T08:31:24Z</time>
      </trkpt>
      <trkpt lat="48.293" lon="3.19195">
        <ele>74</ele>
        <time>2013-08-03T08:31:29Z</time>
      </trkpt>
      <trkpt lat="48.29298" lon="3.19197">
        <ele>74</ele>
        <time>2013-08-03T08:31:35Z</time>
      </trkpt>
      <trkpt lat="48.29295" lon="3.19203">
        <ele>74</ele>
        <time>2013-08-03T08:31:39Z</time>
      </trkpt>
      <trkpt lat="48.29292" lon="3.19209">
        <ele>74</ele>
        <time>2013-08-03T08:31:43Z</time>
      </trkpt>
      <trkpt lat="48.29289" lon="3.19215">
        <ele>74</ele>
        <time>2013-08-03T08:31:48Z</time>
      </trkpt>
      <trkpt lat="48.29286" lon="3.19222">
        <ele>74</ele>
        <time>2013-08-03T08:31:53Z</time>
      </trkpt>
      <trkpt lat="48.29284" lon="3.19228">
        <ele>73</ele>
        <time>2013-08-03T08:31:58Z</time>
      </trkpt>
      <trkpt lat="48.29281" lon="3.19234">
        <ele>73</ele>
        <time>2013-08-03T08:32:02Z</time>
      </trkpt>
      <trkpt lat="48.29278" lon="3.19239">
        <ele>73</ele>
        <time>2013-08-03T08:32:08Z</time>
      </trkpt>
      <trkpt lat="48.29275" lon="3.19247">
        <ele>73</ele>
        <time>2013-08-03T08:32:27Z</time>
      </trkpt>
      <trkpt lat="48.29272" lon="3.19254">
        <ele>72</ele>
        <time>2013-08-03T08:32:36Z</time>
      </trkpt>
      <trkpt lat="48.29268" lon="3.19265">
        <ele>73</ele>
        <time>2013-08-03T08:32:44Z</time>
      </trkpt>
      <trkpt lat="48.29264" lon="3.19271">
        <ele>73</ele>
        <time>2013-08-03T08:32:50Z</time>
      </trkpt>
      <trkpt lat="48.29262" lon="3.19277">
        <ele>73</ele>
        <time>2013-08-03T08:32:53Z</time>
      </trkpt>
      <trkpt lat="48.29258" lon="3.19283">
        <ele>73</ele>
        <time>2013-08-03T08:32:57Z</time>
      </trkpt>
      <trkpt lat="48.29255" lon="3.19288">
        <ele>73</ele>
        <time>2013-08-03T08:33:03Z</time>
      </trkpt>
      <trkpt lat="48.29251" lon="3.19294">
        <ele>73</ele>
        <time>2013-08-03T08:33:10Z</time>
      </trkpt>
      <trkpt lat="48.29248" lon="3.193">
        <ele>77</ele>
        <time>2013-08-03T08:33:14Z</time>
      </trkpt>
      <trkpt lat="48.29246" lon="3.19306">
        <ele>77</ele>
        <time>2013-08-03T08:33:19Z</time>
      </trkpt>
      <trkpt lat="48.29244" lon="3.19313">
        <ele>77</ele>
        <time>2013-08-03T08:33:24Z</time>
      </trkpt>
      <trkpt lat="48.29244" lon="3.19321">
        <ele>77</ele>
        <time>2013-08-03T08:33:29Z</time>
      </trkpt>
      <trkpt lat="48.29241" lon="3.19327">
        <ele>77</ele>
        <time>2013-08-03T08:33:32Z</time>
      </trkpt>
      <trkpt lat="48.2924" lon="3.19334">
        <ele>78</ele>
        <time>2013-08-03T08:33:37Z</time>
      </trkpt>
      <trkpt lat="48.2924" lon="3.19337">
        <ele>78</ele>
        <time>2013-08-03T08:33:42Z</time>
      </trkpt>
      <trkpt lat="48.2924" lon="3.19345">
        <ele>79</ele>
        <time>2013-08-03T08:33:48Z</time>
      </trkpt>
      <trkpt lat="48.29241" lon="3.19352">
        <ele>80</ele>
        <time>2013-08-03T08:33:53Z</time>
      </trkpt>
      <trkpt lat="48.29242" lon="3.19359">
        <ele>80</ele>
        <time>2013-08-03T08:34:00Z</time>
      </trkpt>
      <trkpt lat="48.29244" lon="3.19367">
        <ele>80</ele>
        <time>2013-08-03T08:34:18Z</time>
      </trkpt>
      <trkpt lat="48.29244" lon="3.19376">
        <ele>81</ele>
        <time>2013-08-03T08:34:25Z</time>
      </trkpt>
      <trkpt lat="48.29245" lon="3.19384">
        <ele>81</ele>
        <time>2013-08-03T08:34:30Z</time>
      </trkpt>
      <trkpt lat="48.29247" lon="3.19392">
        <ele>80</ele>
        <time>2013-08-03T08:34:36Z</time>
      </trkpt>
      <trkpt lat="48.29247" lon="3.19401">
        <ele>80</ele>
        <time>2013-08-03T08:34:40Z</time>
      </trkpt>
      <trkpt lat="48.29246" lon="3.19404">
        <ele>80</ele>
        <time>2013-08-03T08:34:46Z</time>
      </trkpt>
      <trkpt lat="48.29245" lon="3.19412">
        <ele>79</ele>
        <time>2013-08-03T08:34:49Z</time>
      </trkpt>
      <trkpt lat="48.29245" lon="3.19419">
        <ele>80</ele>
        <time>2013-08-03T08:34:52Z</time>
      </trkpt>
      <trkpt lat="48.29244" lon="3.19426">
        <ele>81</ele>
        <time>2013-08-03T08:34:56Z</time>
      </trkpt>
      <trkpt lat="48.29244" lon="3.19433">
        <ele>82</ele>
        <time>2013-08-03T08:35:00Z</time>
      </trkpt>
      <trkpt lat="48.29243" lon="3.19441">
        <ele>83</ele>
        <time>2013-08-03T08:35:03Z</time>
      </trkpt>
      <trkpt lat="48.2924" lon="3.19447">
        <ele>84</ele>
        <time>2013-08-03T08:35:07Z</time>
      </trkpt>
      <trkpt lat="48.29239" lon="3.19454">
        <ele>84</ele>
        <time>2013-08-03T08:35:10Z</time>
      </trkpt>
      <trkpt lat="48.29243" lon="3.19457">
        <ele>84</ele>
        <time>2013-08-03T08:35:15Z</time>
      </trkpt>
      <trkpt lat="48.29243" lon="3.19465">
        <ele>85</ele>
        <time>2013-08-03T08:35:37Z</time>
      </trkpt>
      <trkpt lat="48.29244" lon="3.19473">
        <ele>85</ele>
        <time>2013-08-03T08:35:44Z</time>
      </trkpt>
      <trkpt lat="48.29246" lon="3.19482">
        <ele>85</ele>
        <time>2013-08-03T08:35:47Z</time>
      </trkpt>
      <trkpt lat="48.29246" lon="3.19489">
        <ele>84</ele>
        <time>2013-08-03T08:35:50Z</time>
      </trkpt>
      <trkpt lat="48.29245" lon="3.19497">
        <ele>84</ele>
        <time>2013-08-03T08:35:54Z</time>
      </trkpt>
      <trkpt lat="48.29244" lon="3.19504">
        <ele>84</ele>
        <time>2013-08-03T08:36:00Z</time>
      </trkpt>
      <trkpt lat="48.29243" lon="3.19512">
        <ele>84</ele>
        <time>2013-08-03T08:36:04Z</time>
      </trkpt>
      <trkpt lat="48.29241" lon="3.1952">
        <ele>85</ele>
        <time>2013-08-03T08:36:09Z</time>
      </trkpt>
      <trkpt lat="48.29239" lon="3.19526">
        <ele>85</ele>
        <time>2013-08-03T08:36:13Z</time>
      </trkpt>
      <trkpt lat="48.29236" lon="3.19531">
        <ele>85</ele>
        <time>2013-08-03T08:36:20Z</time>
      </trkpt>
      <trkpt lat="48.29232" lon="3.19536">
        <ele>85</ele>
        <time>2013-08-03T08:36:24Z</time>
      </trkpt>
      <trkpt lat="48.29227" lon="3.1954">
        <ele>85</ele>
        <time>2013-08-03T08:36:28Z</time>
      </trkpt>
      <trkpt lat="48.29221" lon="3.19543">
        <ele>86</ele>
        <time>2013-08-03T08:36:36Z</time>
      </trkpt>
      <trkpt lat="48.29217" lon="3.19547">
        <ele>86</ele>
        <time>2013-08-03T08:36:40Z</time>
      </trkpt>
      <trkpt lat="48.29212" lon="3.19553">
        <ele>86</ele>
        <time>2013-08-03T08:36:44Z</time>
      </trkpt>
      <trkpt lat="48.29208" lon="3.19558">
        <ele>86</ele>
        <time>2013-08-03T08:36:47Z</time>
      </trkpt>
      <trkpt lat="48.29204" lon="3.19562">
        <ele>87</ele>
        <time>2013-08-03T08:36:50Z</time>
      </trkpt>
      <trkpt lat="48.292" lon="3.19568">
        <ele>87</ele>
        <time>2013-08-03T08:36:54Z</time>
      </trkpt>
      <trkpt lat="48.29197" lon="3.19573">
        <ele>88</ele>
        <time>2013-08-03T08:36:58Z</time>
      </trkpt>
      <trkpt lat="48.29194" lon="3.19574">
        <ele>88</ele>
        <time>2013-08-03T08:37:05Z</time>
      </trkpt>
      <trkpt lat="48.2919" lon="3.19578">
        <ele>89</ele>
        <time>2013-08-03T08:37:10Z</time>
      </trkpt>
      <trkpt lat="48.29186" lon="3.19581">
        <ele>89</ele>
        <time>2013-08-03T08:37:15Z</time>
      </trkpt>
      <trkpt lat="48.29182" lon="3.19585">
        <ele>87</ele>
        <time>2013-08-03T08:37:19Z</time>
      </trkpt>
      <trkpt lat="48.29178" lon="3.1959">
        <ele>88</ele>
        <time>2013-08-03T08:37:26Z</time>
      </trkpt>
      <trkpt lat="48.29175" lon="3.19596">
        <ele>87</ele>
        <time>2013-08-03T08:37:32Z</time>
      </trkpt>
      <trkpt lat="48.29172" lon="3.19599">
        <ele>87</ele>
        <time>2013-08-03T08:37:40Z</time>
      </trkpt>
      <trkpt lat="48.29168" lon="3.19603">
        <ele>86</ele>
        <time>2013-08-03T08:37:49Z</time>
      </trkpt>
      <trkpt lat="48.29163" lon="3.19607">
        <ele>93</ele>
        <time>2013-08-03T08:37:53Z</time>
      </trkpt>
      <trkpt lat="48.29158" lon="3.19609">
        <ele>93</ele>
        <time>2013-08-03T08:37:57Z</time>
      </trkpt>
      <trkpt lat="48.29155" lon="3.19614">
        <ele>93</ele>
        <time>2013-08-03T08:38:01Z</time>
      </trkpt>
      <trkpt lat="48.29151" lon="3.1962">
        <ele>93</ele>
        <time>2013-08-03T08:38:05Z</time>
      </trkpt>
      <trkpt lat="48.29146" lon="3.19623">
        <ele>93</ele>
        <time>2013-08-03T08:38:09Z</time>
      </trkpt>
      <trkpt lat="48.29145" lon="3.1963">
        <ele>92</ele>
        <time>2013-08-03T08:38:13Z</time>
      </trkpt>
      <trkpt lat="48.29142" lon="3.19636">
        <ele>92</ele>
        <time>2013-08-03T08:38:18Z</time>
      </trkpt>
      <trkpt lat="48.2914" lon="3.19643">
        <ele>92</ele>
        <time>2013-08-03T08:38:22Z</time>
      </trkpt>
      <trkpt lat="48.29137" lon="3.19649">
        <ele>92</ele>
        <time>2013-08-03T08:38:26Z</time>
      </trkpt>
      <trkpt lat="48.29134" lon="3.19656">
        <ele>92</ele>
        <time>2013-08-03T08:38:30Z</time>
      </trkpt>
      <trkpt lat="48.2913" lon="3.19661">
        <ele>92</ele>
        <time>2013-08-03T08:38:35Z</time>
      </trkpt>
      <trkpt lat="48.29126" lon="3.19668">
        <ele>87</ele>
        <time>2013-08-03T08:38:39Z</time>
      </trkpt>
      <trkpt lat="48.29123" lon="3.19674">
        <ele>87</ele>
        <time>2013-08-03T08:38:44Z</time>
      </trkpt>
      <trkpt lat="48.29121" lon="3.19681">
        <ele>87</ele>
        <time>2013-08-03T08:38:49Z</time>
      </trkpt>
      <trkpt lat="48.29118" lon="3.19687">
        <ele>87</ele>
        <time>2013-08-03T08:38:54Z</time>
      </trkpt>
      <trkpt lat="48.29114" lon="3.19693">
        <ele>87</ele>
        <time>2013-08-03T08:38:59Z</time>
      </trkpt>
      <trkpt lat="48.29112" lon="3.19697">
        <ele>87</ele>
        <time>2013-08-03T08:39:06Z</time>
      </trkpt>
      <trkpt lat="48.29108" lon="3.19702">
        <ele>87</ele>
        <time>2013-08-03T08:39:21Z</time>
      </trkpt>
      <trkpt lat="48.29105" lon="3.19707">
        <ele>87</ele>
        <time>2013-08-03T08:39:25Z</time>
      </trkpt>
      <trkpt lat="48.29102" lon="3.19713">
        <ele>87</ele>
        <time>2013-08-03T08:39:29Z</time>
      </trkpt>
      <trkpt lat="48.29099" lon="3.19721">
        <ele>86</ele>
        <time>2013-08-03T08:39:33Z</time>
      </trkpt>
      <trkpt lat="48.29096" lon="3.19728">
        <ele>86</ele>
        <time>2013-08-03T08:39:37Z</time>
      </trkpt>
      <trkpt lat="48.29093" lon="3.19735">
        <ele>87</ele>
        <time>2013-08-03T08:39:41Z</time>
      </trkpt>
      <trkpt lat="48.2909" lon="3.19742">
        <ele>87</ele>
        <time>2013-08-03T08:39:44Z</time>
      </trkpt>
      <trkpt lat="48.29087" lon="3.19748">
        <ele>88</ele>
        <time>2013-08-03T08:39:47Z</time>
      </trkpt>
      <trkpt lat="48.29085" lon="3.19752">
        <ele>87</ele>
        <time>2013-08-03T08:39:54Z</time>
      </trkpt>
      <trkpt lat="48.29082" lon="3.19757">
        <ele>88</ele>
        <time>2013-08-03T08:39:58Z</time>
      </trkpt>
      <trkpt lat="48.29079" lon="3.19763">
        <ele>88</ele>
        <time>2013-08-03T08:40:02Z</time>
      </trkpt>
      <trkpt lat="48.29075" lon="3.1977">
        <ele>87</ele>
        <time>2013-08-03T08:40:06Z</time>
      </trkpt>
      <trkpt lat="48.29074" lon="3.19772">
        <ele>87</ele>
        <time>2013-08-03T08:40:12Z</time>
      </trkpt>
      <trkpt lat="48.29071" lon="3.19778">
        <ele>87</ele>
        <time>2013-08-03T08:40:15Z</time>
      </trkpt>
      <trkpt lat="48.29067" lon="3.19783">
        <ele>87</ele>
        <time>2013-08-03T08:40:19Z</time>
      </trkpt>
      <trkpt lat="48.29063" lon="3.19789">
        <ele>86</ele>
        <time>2013-08-03T08:40:23Z</time>
      </trkpt>
      <trkpt lat="48.2906" lon="3.19795">
        <ele>86</ele>
        <time>2013-08-03T08:40:27Z</time>
      </trkpt>
      <trkpt lat="48.29056" lon="3.19801">
        <ele>86</ele>
        <time>2013-08-03T08:40:31Z</time>
      </trkpt>
      <trkpt lat="48.29053" lon="3.19806">
        <ele>86</ele>
        <time>2013-08-03T08:40:34Z</time>
      </trkpt>
      <trkpt lat="48.29049" lon="3.19811">
        <ele>85</ele>
        <time>2013-08-03T08:40:38Z</time>
      </trkpt>
      <trkpt lat="48.29045" lon="3.19816">
        <ele>85</ele>
        <time>2013-08-03T08:40:41Z</time>
      </trkpt>
      <trkpt lat="48.29041" lon="3.19822">
        <ele>85</ele>
        <time>2013-08-03T08:40:45Z</time>
      </trkpt>
      <trkpt lat="48.29037" lon="3.19827">
        <ele>86</ele>
        <time>2013-08-03T08:40:49Z</time>
      </trkpt>
      <trkpt lat="48.29033" lon="3.19832">
        <ele>86</ele>
        <time>2013-08-03T08:40:53Z</time>
      </trkpt>
      <trkpt lat="48.29029" lon="3.19837">
        <ele>80</ele>
        <time>2013-08-03T08:40:57Z</time>
      </trkpt>
      <trkpt lat="48.29026" lon="3.19842">
        <ele>80</ele>
        <time>2013-08-03T08:41:02Z</time>
      </trkpt>
      <trkpt lat="48.29022" lon="3.19848">
        <ele>80</ele>
        <time>2013-08-03T08:41:08Z</time>
      </trkpt>
      <trkpt lat="48.2902" lon="3.19854">
        <ele>80</ele>
        <time>2013-08-03T08:41:12Z</time>
      </trkpt>
      <trkpt lat="48.29018" lon="3.19861">
        <ele>80</ele>
        <time>2013-08-03T08:41:21Z</time>
      </trkpt>
      <trkpt lat="48.29018" lon="3.19869">
        <ele>79</ele>
        <time>2013-08-03T08:41:42Z</time>
      </trkpt>
      <trkpt lat="48.29016" lon="3.19875">
        <ele>79</ele>
        <time>2013-08-03T08:41:46Z</time>
      </trkpt>
      <trkpt lat="48.29015" lon="3.19883">
        <ele>78</ele>
        <time>2013-08-03T08:41:51Z</time>
      </trkpt>
      <trkpt lat="48.29013" lon="3.19889">
        <ele>78</ele>
        <time>2013-08-03T08:42:03Z</time>
      </trkpt>
      <trkpt lat="48.29012" lon="3.19893">
        <ele>78</ele>
        <time>2013-08-03T08:42:14Z</time>
      </trkpt>
      <trkpt lat="48.29011" lon="3.19903">
        <ele>78</ele>
        <time>2013-08-03T08:42:26Z</time>
      </trkpt>
      <trkpt lat="48.29008" lon="3.19911">
        <ele>78</ele>
        <time>2013-08-03T08:42:30Z</time>
      </trkpt>
      <trkpt lat="48.29005" lon="3.19918">
        <ele>77</ele>
        <time>2013-08-03T08:42:34Z</time>
      </trkpt>
      <trkpt lat="48.29002" lon="3.19925">
        <ele>76</ele>
        <time>2013-08-03T08:42:37Z</time>
      </trkpt>
      <trkpt lat="48.29002" lon="3.19933">
        <ele>75</ele>
        <time>2013-08-03T08:42:42Z</time>
      </trkpt>
      <trkpt lat="48.29002" lon="3.1994">
        <ele>74</ele>
        <time>2013-08-03T08:42:48Z</time>
      </trkpt>
      <trkpt lat="48.28999" lon="3.19948">
        <ele>82</ele>
        <time>2013-08-03T08:42:52Z</time>
      </trkpt>
      <trkpt lat="48.28997" lon="3.19954">
        <ele>82</ele>
        <time>2013-08-03T08:42:56Z</time>
      </trkpt>
      <trkpt lat="48.28993" lon="3.19959">
        <ele>82</ele>
        <time>2013-08-03T08:43:00Z</time>
      </trkpt>
      <trkpt lat="48.28993" lon="3.19966">
        <ele>81</ele>
        <time>2013-08-03T08:43:09Z</time>
      </trkpt>
      <trkpt lat="48.28989" lon="3.19974">
        <ele>81</ele>
        <time>2013-08-03T08:43:14Z</time>
      </trkpt>
      <trkpt lat="48.28986" lon="3.1998">
        <ele>80</ele>
        <time>2013-08-03T08:43:18Z</time>
      </trkpt>
      <trkpt lat="48.28983" lon="3.19986">
        <ele>80</ele>
        <time>2013-08-03T08:43:22Z</time>
      </trkpt>
      <trkpt lat="48.2898" lon="3.19992">
        <ele>80</ele>
        <time>2013-08-03T08:43:29Z</time>
      </trkpt>
      <trkpt lat="48.28978" lon="3.19998">
        <ele>80</ele>
        <time>2013-08-03T08:43:32Z</time>
      </trkpt>
      <trkpt lat="48.28976" lon="3.20006">
        <ele>77</ele>
        <time>2013-08-03T08:43:35Z</time>
      </trkpt>
      <trkpt lat="48.28974" lon="3.20014">
        <ele>78</ele>
        <time>2013-08-03T08:43:39Z</time>
      </trkpt>
      <trkpt lat="48.28971" lon="3.20019">
        <ele>78</ele>
        <time>2013-08-03T08:43:43Z</time>
      </trkpt>
      <trkpt lat="48.28967" lon="3.20024">
        <ele>78</ele>
        <time>2013-08-03T08:43:47Z</time>
      </trkpt>
      <trkpt lat="48.28964" lon="3.2003">
        <ele>79</ele>
        <time>2013-08-03T08:43:52Z</time>
      </trkpt>
      <trkpt lat="48.28962" lon="3.20036">
        <ele>79</ele>
        <time>2013-08-03T08:43:55Z</time>
      </trkpt>
      <trkpt lat="48.28959" lon="3.20042">
        <ele>79</ele>
        <time>2013-08-03T08:43:58Z</time>
      </trkpt>
      <trkpt lat="48.28957" lon="3.20044">
        <ele>79</ele>
        <time>2013-08-03T08:44:04Z</time>
      </trkpt>
      <trkpt lat="48.28953" lon="3.2005">
        <ele>79</ele>
        <time>2013-08-03T08:44:11Z</time>
      </trkpt>
      <trkpt lat="48.2895" lon="3.2006">
        <ele>79</ele>
        <time>2013-08-03T08:44:19Z</time>
      </trkpt>
      <trkpt lat="48.28948" lon="3.20066">
        <ele>79</ele>
        <time>2013-08-03T08:44:23Z</time>
      </trkpt>
      <trkpt lat="48.28945" lon="3.20071">
        <ele>79</ele>
        <time>2013-08-03T08:44:27Z</time>
      </trkpt>
      <trkpt lat="48.28941" lon="3.20076">
        <ele>79</ele>
        <time>2013-08-03T08:44:31Z</time>
      </trkpt>
      <trkpt lat="48.28936" lon="3.20081">
        <ele>80</ele>
        <time>2013-08-03T08:44:35Z</time>
      </trkpt>
      <trkpt lat="48.28932" lon="3.20084">
        <ele>77</ele>
        <time>2013-08-03T08:44:39Z</time>
      </trkpt>
      <trkpt lat="48.28927" lon="3.20091">
        <ele>78</ele>
        <time>2013-08-03T08:44:51Z</time>
      </trkpt>
      <trkpt lat="48.28923" lon="3.20093">
        <ele>78</ele>
        <time>2013-08-03T08:44:55Z</time>
      </trkpt>
      <trkpt lat="48.28918" lon="3.20094">
        <ele>78</ele>
        <time>2013-08-03T08:45:00Z</time>
      </trkpt>
      <trkpt lat="48.28913" lon="3.20095">
        <ele>81</ele>
        <time>2013-08-03T08:45:06Z</time>
      </trkpt>
      <trkpt lat="48.28908" lon="3.20095">
        <ele>81</ele>
        <time>2013-08-03T08:45:11Z</time>
      </trkpt>
      <trkpt lat="48.28903" lon="3.20095">
        <ele>81</ele>
        <time>2013-08-03T08:45:17Z</time>
      </trkpt>
      <trkpt lat="48.28898" lon="3.20096">
        <ele>81</ele>
        <time>2013-08-03T08:45:21Z</time>
      </trkpt>
      <trkpt lat="48.28894" lon="3.20099">
        <ele>81</ele>
        <time>2013-08-03T08:45:24Z</time>
      </trkpt>
      <trkpt lat="48.28889" lon="3.201">
        <ele>81</ele>
        <time>2013-08-03T08:45:30Z</time>
      </trkpt>
      <trkpt lat="48.28884" lon="3.201">
        <ele>81</ele>
        <time>2013-08-03T08:45:36Z</time>
      </trkpt>
      <trkpt lat="48.28879" lon="3.20102">
        <ele>81</ele>
        <time>2013-08-03T08:45:41Z</time>
      </trkpt>
      <trkpt lat="48.28874" lon="3.20103">
        <ele>82</ele>
        <time>2013-08-03T08:45:47Z</time>
      </trkpt>
      <trkpt lat="48.2887" lon="3.20101">
        <ele>82</ele>
        <time>2013-08-03T08:45:52Z</time>
      </trkpt>
      <trkpt lat="48.28865" lon="3.201">
        <ele>82</ele>
        <time>2013-08-03T08:45:58Z</time>
      </trkpt>
      <trkpt lat="48.28861" lon="3.20098">
        <ele>82</ele>
        <time>2013-08-03T08:46:02Z</time>
      </trkpt>
      <trkpt lat="48.28853" lon="3.20094">
        <ele>83</ele>
        <time>2013-08-03T08:46:14Z</time>
      </trkpt>
      <trkpt lat="48.2885" lon="3.20088">
        <ele>84</ele>
        <time>2013-08-03T08:46:31Z</time>
      </trkpt>
      <trkpt lat="48.28846" lon="3.20088">
        <ele>84</ele>
        <time>2013-08-03T08:47:11Z</time>
      </trkpt>
      <trkpt lat="48.28841" lon="3.20089">
        <ele>85</ele>
        <time>2013-08-03T08:47:16Z</time>
      </trkpt>
      <trkpt lat="48.28837" lon="3.20088">
        <ele>86</ele>
        <time>2013-08-03T08:47:49Z</time>
      </trkpt>
      <trkpt lat="48.28833" lon="3.20087">
        <ele>86</ele>
        <time>2013-08-03T08:47:54Z</time>
      </trkpt>
      <trkpt lat="48.28828" lon="3.20089">
        <ele>86</ele>
        <time>2013-08-03T08:48:01Z</time>
      </trkpt>
      <trkpt lat="48.28823" lon="3.20091">
        <ele>85</ele>
        <time>2013-08-03T08:48:06Z</time>
      </trkpt>
      <trkpt lat="48.28818" lon="3.20092">
        <ele>85</ele>
        <time>2013-08-03T08:48:10Z</time>
      </trkpt>
      <trkpt lat="48.28813" lon="3.20092">
        <ele>85</ele>
        <time>2013-08-03T08:48:14Z</time>
      </trkpt>
      <trkpt lat="48.28808" lon="3.20094">
        <ele>85</ele>
        <time>2013-08-03T08:48:20Z</time>
      </trkpt>
      <trkpt lat="48.28803" lon="3.20095">
        <ele>84</ele>
        <time>2013-08-03T08:48:25Z</time>
      </trkpt>
      <trkpt lat="48.28798" lon="3.20097">
        <ele>84</ele>
        <time>2013-08-03T08:48:29Z</time>
      </trkpt>
      <trkpt lat="48.28794" lon="3.201">
        <ele>84</ele>
        <time>2013-08-03T08:48:35Z</time>
      </trkpt>
      <trkpt lat="48.2877" lon="3.20112">
        <ele>84</ele>
        <time>2013-08-03T08:49:06Z</time>
      </trkpt>
      <trkpt lat="48.28765" lon="3.20114">
        <ele>84</ele>
        <time>2013-08-03T08:49:14Z</time>
      </trkpt>
      <trkpt lat="48.2876" lon="3.20116">
        <ele>84</ele>
        <time>2013-08-03T08:49:21Z</time>
      </trkpt>
      <trkpt lat="48.28755" lon="3.2012">
        <ele>83</ele>
        <time>2013-08-03T08:49:26Z</time>
      </trkpt>
      <trkpt lat="48.2875" lon="3.20121">
        <ele>83</ele>
        <time>2013-08-03T08:49:32Z</time>
      </trkpt>
      <trkpt lat="48.28745" lon="3.20122">
        <ele>80</ele>
        <time>2013-08-03T08:49:38Z</time>
      </trkpt>
      <trkpt lat="48.28741" lon="3.20121">
        <ele>80</ele>
        <time>2013-08-03T08:49:43Z</time>
      </trkpt>
      <trkpt lat="48.28738" lon="3.20118">
        <ele>80</ele>
        <time>2013-08-03T08:49:50Z</time>
      </trkpt>
      <trkpt lat="48.28738" lon="3.20112">
        <ele>81</ele>
        <time>2013-08-03T08:49:59Z</time>
      </trkpt>
      <trkpt lat="48.28734" lon="3.20109">
        <ele>81</ele>
        <time>2013-08-03T08:50:07Z</time>
      </trkpt>
      <trkpt lat="48.28729" lon="3.20108">
        <ele>80</ele>
        <time>2013-08-03T08:50:12Z</time>
      </trkpt>
      <trkpt lat="48.28724" lon="3.20106">
        <ele>80</ele>
        <time>2013-08-03T08:50:17Z</time>
      </trkpt>
      <trkpt lat="48.2872" lon="3.20107">
        <ele>80</ele>
        <time>2013-08-03T08:50:22Z</time>
      </trkpt>
      <trkpt lat="48.28712" lon="3.20106">
        <ele>79</ele>
        <time>2013-08-03T08:50:35Z</time>
      </trkpt>
      <trkpt lat="48.28707" lon="3.20106">
        <ele>79</ele>
        <time>2013-08-03T08:50:40Z</time>
      </trkpt>
      <trkpt lat="48.28703" lon="3.2011">
        <ele>78</ele>
        <time>2013-08-03T08:50:49Z</time>
      </trkpt>
      <trkpt lat="48.28699" lon="3.20113">
        <ele>78</ele>
        <time>2013-08-03T08:50:56Z</time>
      </trkpt>
      <trkpt lat="48.28694" lon="3.20118">
        <ele>78</ele>
        <time>2013-08-03T08:51:05Z</time>
      </trkpt>
      <trkpt lat="48.28691" lon="3.20118">
        <ele>78</ele>
        <time>2013-08-03T08:51:29Z</time>
      </trkpt>
      <trkpt lat="48.28694" lon="3.20125">
        <ele>77</ele>
        <time>2013-08-03T08:52:49Z</time>
      </trkpt>
      <trkpt lat="48.28704" lon="3.2016">
        <ele>77</ele>
        <time>2013-08-03T08:53:16Z</time>
      </trkpt>
      <trkpt lat="48.28709" lon="3.20162">
        <ele>77</ele>
        <time>2013-08-03T08:53:20Z</time>
      </trkpt>
      <trkpt lat="48.28714" lon="3.20165">
        <ele>77</ele>
        <time>2013-08-03T08:53:24Z</time>
      </trkpt>
      <trkpt lat="48.28718" lon="3.20169">
        <ele>74</ele>
        <time>2013-08-03T08:53:28Z</time>
      </trkpt>
      <trkpt lat="48.28722" lon="3.20173">
        <ele>75</ele>
        <time>2013-08-03T08:53:32Z</time>
      </trkpt>
      <trkpt lat="48.28727" lon="3.20179">
        <ele>75</ele>
        <time>2013-08-03T08:53:36Z</time>
      </trkpt>
      <trkpt lat="48.28729" lon="3.20185">
        <ele>75</ele>
        <time>2013-08-03T08:53:41Z</time>
      </trkpt>
      <trkpt lat="48.28729" lon="3.20193">
        <ele>75</ele>
        <time>2013-08-03T08:53:46Z</time>
      </trkpt>
      <trkpt lat="48.28731" lon="3.20201">
        <ele>74</ele>
        <time>2013-08-03T08:53:50Z</time>
      </trkpt>
      <trkpt lat="48.28733" lon="3.20207">
        <ele>74</ele>
        <time>2013-08-03T08:53:53Z</time>
      </trkpt>
      <trkpt lat="48.28737" lon="3.20213">
        <ele>74</ele>
        <time>2013-08-03T08:53:56Z</time>
      </trkpt>
      <trkpt lat="48.28739" lon="3.20218">
        <ele>74</ele>
        <time>2013-08-03T08:53:59Z</time>
      </trkpt>
      <trkpt lat="48.28741" lon="3.20225">
        <ele>74</ele>
        <time>2013-08-03T08:54:03Z</time>
      </trkpt>
      <trkpt lat="48.28742" lon="3.20233">
        <ele>74</ele>
        <time>2013-08-03T08:54:07Z</time>
      </trkpt>
      <trkpt lat="48.28743" lon="3.20236">
        <ele>74</ele>
        <time>2013-08-03T08:54:13Z</time>
      </trkpt>
      <trkpt lat="48.28745" lon="3.20244">
        <ele>74</ele>
        <time>2013-08-03T08:54:19Z</time>
      </trkpt>
      <trkpt lat="48.28746" lon="3.20251">
        <ele>74</ele>
        <time>2013-08-03T08:54:23Z</time>
      </trkpt>
      <trkpt lat="48.28746" lon="3.20258">
        <ele>73</ele>
        <time>2013-08-03T08:54:28Z</time>
      </trkpt>
      <trkpt lat="48.28747" lon="3.20266">
        <ele>72</ele>
        <time>2013-08-03T08:54:33Z</time>
      </trkpt>
      <trkpt lat="48.28747" lon="3.20273">
        <ele>72</ele>
        <time>2013-08-03T08:54:38Z</time>
      </trkpt>
      <trkpt lat="48.28747" lon="3.20281">
        <ele>71</ele>
        <time>2013-08-03T08:54:43Z</time>
      </trkpt>
      <trkpt lat="48.2875" lon="3.20287">
        <ele>71</ele>
        <time>2013-08-03T08:54:47Z</time>
      </trkpt>
      <trkpt lat="48.2875" lon="3.20294">
        <ele>73</ele>
        <time>2013-08-03T08:54:52Z</time>
      </trkpt>
      <trkpt lat="48.28749" lon="3.20302">
        <ele>70</ele>
        <time>2013-08-03T08:54:58Z</time>
      </trkpt>
      <trkpt lat="48.28749" lon="3.2031">
        <ele>70</ele>
        <time>2013-08-03T08:55:03Z</time>
      </trkpt>
      <trkpt lat="48.2875" lon="3.20318">
        <ele>70</ele>
        <time>2013-08-03T08:55:07Z</time>
      </trkpt>
      <trkpt lat="48.28751" lon="3.20326">
        <ele>71</ele>
        <time>2013-08-03T08:55:11Z</time>
      </trkpt>
      <trkpt lat="48.28753" lon="3.20332">
        <ele>70</ele>
        <time>2013-08-03T08:55:15Z</time>
      </trkpt>
      <trkpt lat="48.28754" lon="3.2034">
        <ele>70</ele>
        <time>2013-08-03T08:55:23Z</time>
      </trkpt>
      <trkpt lat="48.28754" lon="3.20349">
        <ele>69</ele>
        <time>2013-08-03T08:55:27Z</time>
      </trkpt>
      <trkpt lat="48.28756" lon="3.20356">
        <ele>69</ele>
        <time>2013-08-03T08:55:31Z</time>
      </trkpt>
      <trkpt lat="48.28757" lon="3.20365">
        <ele>69</ele>
        <time>2013-08-03T08:55:36Z</time>
      </trkpt>
      <trkpt lat="48.28755" lon="3.20372">
        <ele>69</ele>
        <time>2013-08-03T08:55:40Z</time>
      </trkpt>
      <trkpt lat="48.28751" lon="3.20376">
        <ele>69</ele>
        <time>2013-08-03T08:55:43Z</time>
      </trkpt>
      <trkpt lat="48.28746" lon="3.20378">
        <ele>68</ele>
        <time>2013-08-03T08:55:47Z</time>
      </trkpt>
      <trkpt lat="48.28744" lon="3.20384">
        <ele>68</ele>
        <time>2013-08-03T08:55:54Z</time>
      </trkpt>
      <trkpt lat="48.28744" lon="3.20392">
        <ele>68</ele>
        <time>2013-08-03T08:55:57Z</time>
      </trkpt>
      <trkpt lat="48.28756" lon="3.20483">
        <ele>65</ele>
        <time>2013-08-03T09:04:42Z</time>
      </trkpt>
      <trkpt lat="48.28758" lon="3.20492">
        <ele>65</ele>
        <time>2013-08-03T09:04:48Z</time>
      </trkpt>
      <trkpt lat="48.28608" lon="3.20199">
        <ele>69</ele>
        <time>2013-08-03T09:30:11Z</time>
      </trkpt>
      <trkpt lat="48.28601" lon="3.20186">
        <ele>69</ele>
        <time>2013-08-03T09:30:40Z</time>
      </trkpt>
      <trkpt lat="48.28598" lon="3.20179">
        <ele>69</ele>
        <time>2013-08-03T09:30:42Z</time>
      </trkpt>
      <trkpt lat="48.28596" lon="3.20173">
        <ele>69</ele>
        <time>2013-08-03T09:30:44Z</time>
      </trkpt>
      <trkpt lat="48.28592" lon="3.20168">
        <ele>69</ele>
        <time>2013-08-03T09:30:48Z</time>
      </trkpt>
      <trkpt lat="48.28591" lon="3.2016">
        <ele>70</ele>
        <time>2013-08-03T09:30:56Z</time>
      </trkpt>
      <trkpt lat="48.28589" lon="3.20154">
        <ele>70</ele>
        <time>2013-08-03T09:31:00Z</time>
      </trkpt>
      <trkpt lat="48.28586" lon="3.20148">
        <ele>70</ele>
        <time>2013-08-03T09:31:05Z</time>
      </trkpt>
      <trkpt lat="48.2858" lon="3.20149">
        <ele>71</ele>
        <time>2013-08-03T09:31:31Z</time>
      </trkpt>
      <trkpt lat="48.28576" lon="3.20152">
        <ele>71</ele>
        <time>2013-08-03T09:31:34Z</time>
      </trkpt>
      <trkpt lat="48.28571" lon="3.20156">
        <ele>71</ele>
        <time>2013-08-03T09:31:38Z</time>
      </trkpt>
      <trkpt lat="48.28567" lon="3.2016">
        <ele>71</ele>
        <time>2013-08-03T09:31:43Z</time>
      </trkpt>
      <trkpt lat="48.28563" lon="3.20164">
        <ele>71</ele>
        <time>2013-08-03T09:31:49Z</time>
      </trkpt>
      <trkpt lat="48.2856" lon="3.2017">
        <ele>70</ele>
        <time>2013-08-03T09:31:56Z</time>
      </trkpt>
      <trkpt lat="48.28555" lon="3.20173">
        <ele>71</ele>
        <time>2013-08-03T09:32:01Z</time>
      </trkpt>
      <trkpt lat="48.28549" lon="3.20173">
        <ele>71</ele>
        <time>2013-08-03T09:32:04Z</time>
      </trkpt>
      <trkpt lat="48.28544" lon="3.20172">
        <ele>71</ele>
        <time>2013-08-03T09:32:07Z</time>
      </trkpt>
      <trkpt lat="48.28538" lon="3.20171">
        <ele>71</ele>
        <time>2013-08-03T09:32:11Z</time>
      </trkpt>
      <trkpt lat="48.28534" lon="3.2017">
        <ele>72</ele>
        <time>2013-08-03T09:32:14Z</time>
      </trkpt>
      <trkpt lat="48.28529" lon="3.2017">
        <ele>72</ele>
        <time>2013-08-03T09:32:18Z</time>
      </trkpt>
      <trkpt lat="48.28524" lon="3.20171">
        <ele>72</ele>
        <time>2013-08-03T09:32:23Z</time>
      </trkpt>
      <trkpt lat="48.28519" lon="3.20174">
        <ele>72</ele>
        <time>2013-08-03T09:32:29Z</time>
      </trkpt>
      <trkpt lat="48.28519" lon="3.20182">
        <ele>72</ele>
        <time>2013-08-03T09:32:34Z</time>
      </trkpt>
      <trkpt lat="48.28515" lon="3.20187">
        <ele>72</ele>
        <time>2013-08-03T09:32:37Z</time>
      </trkpt>
      <trkpt lat="48.28511" lon="3.2019">
        <ele>72</ele>
        <time>2013-08-03T09:32:40Z</time>
      </trkpt>
      <trkpt lat="48.28507" lon="3.20196">
        <ele>72</ele>
        <time>2013-08-03T09:32:45Z</time>
      </trkpt>
      <trkpt lat="48.28503" lon="3.20201">
        <ele>72</ele>
        <time>2013-08-03T09:32:49Z</time>
      </trkpt>
      <trkpt lat="48.28499" lon="3.20199">
        <ele>75</ele>
        <time>2013-08-03T09:32:52Z</time>
      </trkpt>
      <trkpt lat="48.28493" lon="3.20199">
        <ele>75</ele>
        <time>2013-08-03T09:32:55Z</time>
      </trkpt>
      <trkpt lat="48.28488" lon="3.20197">
        <ele>75</ele>
        <time>2013-08-03T09:32:58Z</time>
      </trkpt>
      <trkpt lat="48.28482" lon="3.20198">
        <ele>75</ele>
        <time>2013-08-03T09:33:02Z</time>
      </trkpt>
      <trkpt lat="48.28478" lon="3.20201">
        <ele>75</ele>
        <time>2013-08-03T09:33:06Z</time>
      </trkpt>
      <trkpt lat="48.28473" lon="3.20202">
        <ele>75</ele>
        <time>2013-08-03T09:33:12Z</time>
      </trkpt>
      <trkpt lat="48.28469" lon="3.20206">
        <ele>75</ele>
        <time>2013-08-03T09:33:18Z</time>
      </trkpt>
      <trkpt lat="48.28466" lon="3.20212">
        <ele>75</ele>
        <time>2013-08-03T09:33:22Z</time>
      </trkpt>
      <trkpt lat="48.2846" lon="3.20214">
        <ele>75</ele>
        <time>2013-08-03T09:33:26Z</time>
      </trkpt>
      <trkpt lat="48.28454" lon="3.20214">
        <ele>76</ele>
        <time>2013-08-03T09:33:29Z</time>
      </trkpt>
      <trkpt lat="48.2845" lon="3.20219">
        <ele>76</ele>
        <time>2013-08-03T09:33:34Z</time>
      </trkpt>
      <trkpt lat="48.28447" lon="3.20225">
        <ele>76</ele>
        <time>2013-08-03T09:33:40Z</time>
      </trkpt>
      <trkpt lat="48.28443" lon="3.20229">
        <ele>76</ele>
        <time>2013-08-03T09:33:46Z</time>
      </trkpt>
      <trkpt lat="48.28439" lon="3.20234">
        <ele>76</ele>
        <time>2013-08-03T09:33:51Z</time>
      </trkpt>
      <trkpt lat="48.28434" lon="3.20236">
        <ele>76</ele>
        <time>2013-08-03T09:33:57Z</time>
      </trkpt>
      <trkpt lat="48.2843" lon="3.20239">
        <ele>76</ele>
        <time>2013-08-03T09:34:01Z</time>
      </trkpt>
      <trkpt lat="48.28425" lon="3.20241">
        <ele>76</ele>
        <time>2013-08-03T09:34:04Z</time>
      </trkpt>
      <trkpt lat="48.2842" lon="3.20244">
        <ele>77</ele>
        <time>2013-08-03T09:34:08Z</time>
      </trkpt>
      <trkpt lat="48.28417" lon="3.2025">
        <ele>77</ele>
        <time>2013-08-03T09:34:13Z</time>
      </trkpt>
      <trkpt lat="48.28412" lon="3.20254">
        <ele>77</ele>
        <time>2013-08-03T09:34:17Z</time>
      </trkpt>
      <trkpt lat="48.28408" lon="3.20257">
        <ele>77</ele>
        <time>2013-08-03T09:34:22Z</time>
      </trkpt>
      <trkpt lat="48.28403" lon="3.20262">
        <ele>77</ele>
        <time>2013-08-03T09:34:27Z</time>
      </trkpt>
      <trkpt lat="48.28399" lon="3.20266">
        <ele>77</ele>
        <time>2013-08-03T09:34:32Z</time>
      </trkpt>
      <trkpt lat="48.28394" lon="3.20271">
        <ele>77</ele>
        <time>2013-08-03T09:34:37Z</time>
      </trkpt>
      <trkpt lat="48.2839" lon="3.20275">
        <ele>77</ele>
        <time>2013-08-03T09:34:42Z</time>
      </trkpt>
      <trkpt lat="48.28387" lon="3.20281">
        <ele>77</ele>
        <time>2013-08-03T09:34:48Z</time>
      </trkpt>
      <trkpt lat="48.28383" lon="3.20286">
        <ele>77</ele>
        <time>2013-08-03T09:34:53Z</time>
      </trkpt>
      <trkpt lat="48.28381" lon="3.20293">
        <ele>77</ele>
        <time>2013-08-03T09:34:57Z</time>
      </trkpt>
      <trkpt lat="48.28375" lon="3.203">
        <ele>77</ele>
        <time>2013-08-03T09:35:09Z</time>
      </trkpt>
      <trkpt lat="48.28369" lon="3.20304">
        <ele>77</ele>
        <time>2013-08-03T09:35:12Z</time>
      </trkpt>
      <trkpt lat="48.28365" lon="3.20309">
        <ele>77</ele>
        <time>2013-08-03T09:35:15Z</time>
      </trkpt>
      <trkpt lat="48.28361" lon="3.20313">
        <ele>77</ele>
        <time>2013-08-03T09:35:18Z</time>
      </trkpt>
      <trkpt lat="48.28357" lon="3.20318">
        <ele>77</ele>
        <time>2013-08-03T09:35:22Z</time>
      </trkpt>
      <trkpt lat="48.28352" lon="3.20321">
        <ele>78</ele>
        <time>2013-08-03T09:35:25Z</time>
      </trkpt>
      <trkpt lat="48.28348" lon="3.20324">
        <ele>78</ele>
        <time>2013-08-03T09:35:28Z</time>
      </trkpt>
      <trkpt lat="48.28344" lon="3.20329">
        <ele>78</ele>
        <time>2013-08-03T09:35:32Z</time>
      </trkpt>
      <trkpt lat="48.2834" lon="3.20333">
        <ele>78</ele>
        <time>2013-08-03T09:35:35Z</time>
      </trkpt>
      <trkpt lat="48.28335" lon="3.20337">
        <ele>78</ele>
        <time>2013-08-03T09:35:38Z</time>
      </trkpt>
      <trkpt lat="48.28337" lon="3.20339">
        <ele>77</ele>
        <time>2013-08-03T09:36:03Z</time>
      </trkpt>
      <trkpt lat="48.28333" lon="3.20343">
        <ele>79</ele>
        <time>2013-08-03T09:36:13Z</time>
      </trkpt>
      <trkpt lat="48.28328" lon="3.20347">
        <ele>79</ele>
        <time>2013-08-03T09:36:18Z</time>
      </trkpt>
      <trkpt lat="48.28324" lon="3.2035">
        <ele>79</ele>
        <time>2013-08-03T09:36:22Z</time>
      </trkpt>
      <trkpt lat="48.28317" lon="3.20355">
        <ele>79</ele>
        <time>2013-08-03T09:36:32Z</time>
      </trkpt>
      <trkpt lat="48.28311" lon="3.20359">
        <ele>79</ele>
        <time>2013-08-03T09:36:38Z</time>
      </trkpt>
      <trkpt lat="48.28306" lon="3.20362">
        <ele>79</ele>
        <time>2013-08-03T09:36:41Z</time>
      </trkpt>
      <trkpt lat="48.283" lon="3.20366">
        <ele>80</ele>
        <time>2013-08-03T09:36:44Z</time>
      </trkpt>
      <trkpt lat="48.28294" lon="3.2037">
        <ele>80</ele>
        <time>2013-08-03T09:36:46Z</time>
      </trkpt>
      <trkpt lat="48.2829" lon="3.20374">
        <ele>80</ele>
        <time>2013-08-03T09:36:48Z</time>
      </trkpt>
      <trkpt lat="48.28286" lon="3.20378">
        <ele>80</ele>
        <time>2013-08-03T09:36:51Z</time>
      </trkpt>
      <trkpt lat="48.28284" lon="3.20387">
        <ele>80</ele>
        <time>2013-08-03T09:36:56Z</time>
      </trkpt>
      <trkpt lat="48.28281" lon="3.20394">
        <ele>80</ele>
        <time>2013-08-03T09:37:00Z</time>
      </trkpt>
      <trkpt lat="48.28279" lon="3.20401">
        <ele>80</ele>
        <time>2013-08-03T09:37:03Z</time>
      </trkpt>
      <trkpt lat="48.28277" lon="3.20407">
        <ele>80</ele>
        <time>2013-08-03T09:37:12Z</time>
      </trkpt>
      <trkpt lat="48.28273" lon="3.20408">
        <ele>80</ele>
        <time>2013-08-03T09:37:17Z</time>
      </trkpt>
      <trkpt lat="48.28269" lon="3.20413">
        <ele>80</ele>
        <time>2013-08-03T09:37:21Z</time>
      </trkpt>
      <trkpt lat="48.28265" lon="3.20417">
        <ele>80</ele>
        <time>2013-08-03T09:37:27Z</time>
      </trkpt>
      <trkpt lat="48.2826" lon="3.20422">
        <ele>80</ele>
        <time>2013-08-03T09:37:31Z</time>
      </trkpt>
      <trkpt lat="48.28257" lon="3.20427">
        <ele>79</ele>
        <time>2013-08-03T09:37:34Z</time>
      </trkpt>
      <trkpt lat="48.28253" lon="3.20432">
        <ele>79</ele>
        <time>2013-08-03T09:37:38Z</time>
      </trkpt>
      <trkpt lat="48.28249" lon="3.20438">
        <ele>82</ele>
        <time>2013-08-03T09:37:43Z</time>
      </trkpt>
      <trkpt lat="48.28245" lon="3.20442">
        <ele>82</ele>
        <time>2013-08-03T09:37:46Z</time>
      </trkpt>
      <trkpt lat="48.28242" lon="3.20448">
        <ele>82</ele>
        <time>2013-08-03T09:37:51Z</time>
      </trkpt>
      <trkpt lat="48.28239" lon="3.20453">
        <ele>81</ele>
        <time>2013-08-03T09:37:55Z</time>
      </trkpt>
      <trkpt lat="48.28234" lon="3.20457">
        <ele>81</ele>
        <time>2013-08-03T09:38:12Z</time>
      </trkpt>
      <trkpt lat="48.28229" lon="3.20462">
        <ele>81</ele>
        <time>2013-08-03T09:38:18Z</time>
      </trkpt>
      <trkpt lat="48.28225" lon="3.20467">
        <ele>81</ele>
        <time>2013-08-03T09:38:22Z</time>
      </trkpt>
      <trkpt lat="48.28222" lon="3.20473">
        <ele>81</ele>
        <time>2013-08-03T09:38:28Z</time>
      </trkpt>
      <trkpt lat="48.28222" lon="3.20483">
        <ele>81</ele>
        <time>2013-08-03T09:38:46Z</time>
      </trkpt>
      <trkpt lat="48.28216" lon="3.20485">
        <ele>81</ele>
        <time>2013-08-03T09:40:34Z</time>
      </trkpt>
      <trkpt lat="48.28214" lon="3.20492">
        <ele>81</ele>
        <time>2013-08-03T09:42:29Z</time>
      </trkpt>
      <trkpt lat="48.28209" lon="3.20493">
        <ele>82</ele>
        <time>2013-08-03T09:42:33Z</time>
      </trkpt>
      <trkpt lat="48.28205" lon="3.20497">
        <ele>82</ele>
        <time>2013-08-03T09:42:39Z</time>
      </trkpt>
      <trkpt lat="48.282" lon="3.20502">
        <ele>80</ele>
        <time>2013-08-03T09:42:45Z</time>
      </trkpt>
      <trkpt lat="48.28197" lon="3.20506">
        <ele>81</ele>
        <time>2013-08-03T09:42:49Z</time>
      </trkpt>
      <trkpt lat="48.28193" lon="3.2051">
        <ele>81</ele>
        <time>2013-08-03T09:42:55Z</time>
      </trkpt>
      <trkpt lat="48.2819" lon="3.20517">
        <ele>81</ele>
        <time>2013-08-03T09:43:00Z</time>
      </trkpt>
      <trkpt lat="48.28187" lon="3.20524">
        <ele>81</ele>
        <time>2013-08-03T09:43:03Z</time>
      </trkpt>
      <trkpt lat="48.28185" lon="3.20529">
        <ele>80</ele>
        <time>2013-08-03T09:43:06Z</time>
      </trkpt>
      <trkpt lat="48.28181" lon="3.20535">
        <ele>80</ele>
        <time>2013-08-03T09:43:09Z</time>
      </trkpt>
      <trkpt lat="48.28178" lon="3.20541">
        <ele>80</ele>
        <time>2013-08-03T09:43:13Z</time>
      </trkpt>
      <trkpt lat="48.28174" lon="3.20545">
        <ele>80</ele>
        <time>2013-08-03T09:43:19Z</time>
      </trkpt>
      <trkpt lat="48.28171" lon="3.20551">
        <ele>80</ele>
        <time>2013-08-03T09:43:23Z</time>
      </trkpt>
      <trkpt lat="48.28169" lon="3.20558">
        <ele>79</ele>
        <time>2013-08-03T09:43:28Z</time>
      </trkpt>
      <trkpt lat="48.28167" lon="3.20565">
        <ele>83</ele>
        <time>2013-08-03T09:43:33Z</time>
      </trkpt>
      <trkpt lat="48.28163" lon="3.2057">
        <ele>82</ele>
        <time>2013-08-03T09:43:38Z</time>
      </trkpt>
      <trkpt lat="48.28159" lon="3.20575">
        <ele>81</ele>
        <time>2013-08-03T09:43:42Z</time>
      </trkpt>
      <trkpt lat="48.28157" lon="3.20581">
        <ele>81</ele>
        <time>2013-08-03T09:43:45Z</time>
      </trkpt>
      <trkpt lat="48.28153" lon="3.20585">
        <ele>80</ele>
        <time>2013-08-03T09:43:48Z</time>
      </trkpt>
      <trkpt lat="48.28151" lon="3.20592">
        <ele>80</ele>
        <time>2013-08-03T09:43:52Z</time>
      </trkpt>
      <trkpt lat="48.28149" lon="3.20598">
        <ele>81</ele>
        <time>2013-08-03T09:43:57Z</time>
      </trkpt>
      <trkpt lat="48.28144" lon="3.20602">
        <ele>81</ele>
        <time>2013-08-03T09:44:02Z</time>
      </trkpt>
      <trkpt lat="48.2814" lon="3.20607">
        <ele>81</ele>
        <time>2013-08-03T09:44:05Z</time>
      </trkpt>
      <trkpt lat="48.28137" lon="3.20613">
        <ele>82</ele>
        <time>2013-08-03T09:44:08Z</time>
      </trkpt>
      <trkpt lat="48.28133" lon="3.2062">
        <ele>82</ele>
        <time>2013-08-03T09:44:12Z</time>
      </trkpt>
      <trkpt lat="48.28129" lon="3.20628">
        <ele>82</ele>
        <time>2013-08-03T09:44:15Z</time>
      </trkpt>
      <trkpt lat="48.28125" lon="3.20633">
        <ele>82</ele>
        <time>2013-08-03T09:44:18Z</time>
      </trkpt>
      <trkpt lat="48.28122" lon="3.20638">
        <ele>82</ele>
        <time>2013-08-03T09:44:27Z</time>
      </trkpt>
      <trkpt lat="48.2812" lon="3.20644">
        <ele>82</ele>
        <time>2013-08-03T09:44:29Z</time>
      </trkpt>
      <trkpt lat="48.28116" lon="3.20645">
        <ele>83</ele>
        <time>2013-08-03T09:44:34Z</time>
      </trkpt>
      <trkpt lat="48.28111" lon="3.20649">
        <ele>83</ele>
        <time>2013-08-03T09:44:38Z</time>
      </trkpt>
      <trkpt lat="48.28107" lon="3.20655">
        <ele>83</ele>
        <time>2013-08-03T09:44:42Z</time>
      </trkpt>
      <trkpt lat="48.28105" lon="3.20661">
        <ele>84</ele>
        <time>2013-08-03T09:44:45Z</time>
      </trkpt>
      <trkpt lat="48.28101" lon="3.20667">
        <ele>84</ele>
        <time>2013-08-03T09:44:49Z</time>
      </trkpt>
      <trkpt lat="48.28097" lon="3.20671">
        <ele>83</ele>
        <time>2013-08-03T09:44:53Z</time>
      </trkpt>
      <trkpt lat="48.28094" lon="3.20676">
        <ele>83</ele>
        <time>2013-08-03T09:44:57Z</time>
      </trkpt>
      <trkpt lat="48.28089" lon="3.20682">
        <ele>83</ele>
        <time>2013-08-03T09:45:02Z</time>
      </trkpt>
      <trkpt lat="48.28085" lon="3.20684">
        <ele>83</ele>
        <time>2013-08-03T09:45:07Z</time>
      </trkpt>
      <trkpt lat="48.28081" lon="3.20688">
        <ele>85</ele>
        <time>2013-08-03T09:45:14Z</time>
      </trkpt>
      <trkpt lat="48.28077" lon="3.20694">
        <ele>85</ele>
        <time>2013-08-03T09:45:18Z</time>
      </trkpt>
      <trkpt lat="48.28073" lon="3.207">
        <ele>84</ele>
        <time>2013-08-03T09:45:21Z</time>
      </trkpt>
      <trkpt lat="48.28069" lon="3.20704">
        <ele>84</ele>
        <time>2013-08-03T09:45:25Z</time>
      </trkpt>
      <trkpt lat="48.28065" lon="3.20705">
        <ele>84</ele>
        <time>2013-08-03T09:45:29Z</time>
      </trkpt>
      <trkpt lat="48.2806" lon="3.20708">
        <ele>84</ele>
        <time>2013-08-03T09:45:34Z</time>
      </trkpt>
      <trkpt lat="48.28055" lon="3.20712">
        <ele>84</ele>
        <time>2013-08-03T09:45:38Z</time>
      </trkpt>
      <trkpt lat="48.2805" lon="3.20716">
        <ele>84</ele>
        <time>2013-08-03T09:45:42Z</time>
      </trkpt>
      <trkpt lat="48.28046" lon="3.20719">
        <ele>84</ele>
        <time>2013-08-03T09:45:46Z</time>
      </trkpt>
      <trkpt lat="48.28042" lon="3.20725">
        <ele>84</ele>
        <time>2013-08-03T09:45:53Z</time>
      </trkpt>
      <trkpt lat="48.28038" lon="3.2073">
        <ele>84</ele>
        <time>2013-08-03T09:45:58Z</time>
      </trkpt>
      <trkpt lat="48.28034" lon="3.20734">
        <ele>84</ele>
        <time>2013-08-03T09:46:02Z</time>
      </trkpt>
      <trkpt lat="48.28031" lon="3.20739">
        <ele>84</ele>
        <time>2013-08-03T09:46:06Z</time>
      </trkpt>
      <trkpt lat="48.28028" lon="3.20746">
        <ele>84</ele>
        <time>2013-08-03T09:46:10Z</time>
      </trkpt>
      <trkpt lat="48.28023" lon="3.20751">
        <ele>81</ele>
        <time>2013-08-03T09:46:14Z</time>
      </trkpt>
      <trkpt lat="48.28019" lon="3.20755">
        <ele>82</ele>
        <time>2013-08-03T09:46:17Z</time>
      </trkpt>
      <trkpt lat="48.28015" lon="3.20758">
        <ele>82</ele>
        <time>2013-08-03T09:46:20Z</time>
      </trkpt>
      <trkpt lat="48.28011" lon="3.20761">
        <ele>82</ele>
        <time>2013-08-03T09:46:23Z</time>
      </trkpt>
      <trkpt lat="48.28007" lon="3.20765">
        <ele>82</ele>
        <time>2013-08-03T09:46:26Z</time>
      </trkpt>
      <trkpt lat="48.28003" lon="3.20769">
        <ele>82</ele>
        <time>2013-08-03T09:46:30Z</time>
      </trkpt>
      <trkpt lat="48.27998" lon="3.20768">
        <ele>84</ele>
        <time>2013-08-03T09:46:34Z</time>
      </trkpt>
      <trkpt lat="48.27995" lon="3.20774">
        <ele>85</ele>
        <time>2013-08-03T09:46:38Z</time>
      </trkpt>
      <trkpt lat="48.27992" lon="3.20779">
        <ele>85</ele>
        <time>2013-08-03T09:46:41Z</time>
      </trkpt>
      <trkpt lat="48.27987" lon="3.20781">
        <ele>85</ele>
        <time>2013-08-03T09:46:45Z</time>
      </trkpt>
      <trkpt lat="48.27983" lon="3.20786">
        <ele>85</ele>
        <time>2013-08-03T09:46:49Z</time>
      </trkpt>
      <trkpt lat="48.27979" lon="3.20793">
        <ele>85</ele>
        <time>2013-08-03T09:46:53Z</time>
      </trkpt>
      <trkpt lat="48.27976" lon="3.20798">
        <ele>85</ele>
        <time>2013-08-03T09:46:57Z</time>
      </trkpt>
      <trkpt lat="48.27972" lon="3.20805">
        <ele>84</ele>
        <time>2013-08-03T09:47:01Z</time>
      </trkpt>
      <trkpt lat="48.27968" lon="3.20811">
        <ele>84</ele>
        <time>2013-08-03T09:47:05Z</time>
      </trkpt>
      <trkpt lat="48.27963" lon="3.20815">
        <ele>85</ele>
        <time>2013-08-03T09:47:09Z</time>
      </trkpt>
      <trkpt lat="48.27961" lon="3.20821">
        <ele>85</ele>
        <time>2013-08-03T09:47:12Z</time>
      </trkpt>
      <trkpt lat="48.27956" lon="3.20825">
        <ele>85</ele>
        <time>2013-08-03T09:47:17Z</time>
      </trkpt>
      <trkpt lat="48.27952" lon="3.20828">
        <ele>85</ele>
        <time>2013-08-03T09:47:21Z</time>
      </trkpt>
      <trkpt lat="48.27947" lon="3.20831">
        <ele>85</ele>
        <time>2013-08-03T09:47:25Z</time>
      </trkpt>
      <trkpt lat="48.27943" lon="3.20834">
        <ele>84</ele>
        <time>2013-08-03T09:47:29Z</time>
      </trkpt>
      <trkpt lat="48.27939" lon="3.2084">
        <ele>84</ele>
        <time>2013-08-03T09:47:33Z</time>
      </trkpt>
      <trkpt lat="48.27934" lon="3.20843">
        <ele>84</ele>
        <time>2013-08-03T09:47:37Z</time>
      </trkpt>
      <trkpt lat="48.2793" lon="3.20846">
        <ele>84</ele>
        <time>2013-08-03T09:47:41Z</time>
      </trkpt>
      <trkpt lat="48.27926" lon="3.2085">
        <ele>84</ele>
        <time>2013-08-03T09:47:45Z</time>
      </trkpt>
      <trkpt lat="48.27922" lon="3.20855">
        <ele>84</ele>
        <time>2013-08-03T09:47:49Z</time>
      </trkpt>
      <trkpt lat="48.27918" lon="3.2086">
        <ele>84</ele>
        <time>2013-08-03T09:47:53Z</time>
      </trkpt>
      <trkpt lat="48.27915" lon="3.20865">
        <ele>89</ele>
        <time>2013-08-03T09:47:58Z</time>
      </trkpt>
      <trkpt lat="48.27911" lon="3.2087">
        <ele>89</ele>
        <time>2013-08-03T09:48:03Z</time>
      </trkpt>
      <trkpt lat="48.27907" lon="3.20874">
        <ele>89</ele>
        <time>2013-08-03T09:48:07Z</time>
      </trkpt>
      <trkpt lat="48.27902" lon="3.20879">
        <ele>89</ele>
        <time>2013-08-03T09:48:12Z</time>
      </trkpt>
      <trkpt lat="48.27899" lon="3.20886">
        <ele>89</ele>
        <time>2013-08-03T09:48:16Z</time>
      </trkpt>
      <trkpt lat="48.27896" lon="3.20892">
        <ele>89</ele>
        <time>2013-08-03T09:48:20Z</time>
      </trkpt>
      <trkpt lat="48.27891" lon="3.20895">
        <ele>89</ele>
        <time>2013-08-03T09:48:24Z</time>
      </trkpt>
      <trkpt lat="48.27887" lon="3.209">
        <ele>90</ele>
        <time>2013-08-03T09:48:28Z</time>
      </trkpt>
      <trkpt lat="48.27882" lon="3.20902">
        <ele>90</ele>
        <time>2013-08-03T09:48:33Z</time>
      </trkpt>
      <trkpt lat="48.27878" lon="3.20906">
        <ele>90</ele>
        <time>2013-08-03T09:48:37Z</time>
      </trkpt>
      <trkpt lat="48.27874" lon="3.20911">
        <ele>90</ele>
        <time>2013-08-03T09:48:41Z</time>
      </trkpt>
      <trkpt lat="48.27871" lon="3.20916">
        <ele>91</ele>
        <time>2013-08-03T09:48:45Z</time>
      </trkpt>
      <trkpt lat="48.27867" lon="3.2092">
        <ele>92</ele>
        <time>2013-08-03T09:48:48Z</time>
      </trkpt>
      <trkpt lat="48.27863" lon="3.20926">
        <ele>92</ele>
        <time>2013-08-03T09:48:52Z</time>
      </trkpt>
      <trkpt lat="48.27858" lon="3.2093">
        <ele>92</ele>
        <time>2013-08-03T09:48:56Z</time>
      </trkpt>
      <trkpt lat="48.27854" lon="3.20933">
        <ele>93</ele>
        <time>2013-08-03T09:49:00Z</time>
      </trkpt>
      <trkpt lat="48.2785" lon="3.20938">
        <ele>93</ele>
        <time>2013-08-03T09:49:04Z</time>
      </trkpt>
      <trkpt lat="48.27845" lon="3.20941">
        <ele>93</ele>
        <time>2013-08-03T09:49:08Z</time>
      </trkpt>
      <trkpt lat="48.27841" lon="3.20945">
        <ele>93</ele>
        <time>2013-08-03T09:49:12Z</time>
      </trkpt>
      <trkpt lat="48.27838" lon="3.2095">
        <ele>93</ele>
        <time>2013-08-03T09:49:15Z</time>
      </trkpt>
      <trkpt lat="48.27835" lon="3.20956">
        <ele>93</ele>
        <time>2013-08-03T09:49:18Z</time>
      </trkpt>
      <trkpt lat="48.27833" lon="3.20963">
        <ele>99</ele>
        <time>2013-08-03T09:49:21Z</time>
      </trkpt>
      <trkpt lat="48.2783" lon="3.20968">
        <ele>99</ele>
        <time>2013-08-03T09:49:25Z</time>
      </trkpt>
      <trkpt lat="48.27826" lon="3.20974">
        <ele>99</ele>
        <time>2013-08-03T09:49:30Z</time>
      </trkpt>
      <trkpt lat="48.27823" lon="3.2098">
        <ele>99</ele>
        <time>2013-08-03T09:49:34Z</time>
      </trkpt>
      <trkpt lat="48.27819" lon="3.20983">
        <ele>99</ele>
        <time>2013-08-03T09:49:38Z</time>
      </trkpt>
      <trkpt lat="48.27815" lon="3.20988">
        <ele>99</ele>
        <time>2013-08-03T09:49:42Z</time>
      </trkpt>
      <trkpt lat="48.27811" lon="3.20992">
        <ele>99</ele>
        <time>2013-08-03T09:49:46Z</time>
      </trkpt>
      <trkpt lat="48.27807" lon="3.20996">
        <ele>99</ele>
        <time>2013-08-03T09:49:50Z</time>
      </trkpt>
      <trkpt lat="48.27803" lon="3.21">
        <ele>100</ele>
        <time>2013-08-03T09:49:54Z</time>
      </trkpt>
      <trkpt lat="48.27799" lon="3.21004">
        <ele>100</ele>
        <time>2013-08-03T09:49:58Z</time>
      </trkpt>
      <trkpt lat="48.27797" lon="3.2101">
        <ele>100</ele>
        <time>2013-08-03T09:50:02Z</time>
      </trkpt>
      <trkpt lat="48.27794" lon="3.21017">
        <ele>100</ele>
        <time>2013-08-03T09:50:06Z</time>
      </trkpt>
      <trkpt lat="48.27791" lon="3.21022">
        <ele>100</ele>
        <time>2013-08-03T09:50:10Z</time>
      </trkpt>
      <trkpt lat="48.27788" lon="3.21028">
        <ele>100</ele>
        <time>2013-08-03T09:50:14Z</time>
      </trkpt>
      <trkpt lat="48.27786" lon="3.21034">
        <ele>100</ele>
        <time>2013-08-03T09:50:18Z</time>
      </trkpt>
      <trkpt lat="48.27783" lon="3.21041">
        <ele>101</ele>
        <time>2013-08-03T09:50:23Z</time>
      </trkpt>
      <trkpt lat="48.2778" lon="3.21046">
        <ele>101</ele>
        <time>2013-08-03T09:50:27Z</time>
      </trkpt>
      <trkpt lat="48.27776" lon="3.21053">
        <ele>101</ele>
        <time>2013-08-03T09:50:31Z</time>
      </trkpt>
      <trkpt lat="48.27774" lon="3.21059">
        <ele>101</ele>
        <time>2013-08-03T09:50:34Z</time>
      </trkpt>
      <trkpt lat="48.27771" lon="3.21065">
        <ele>101</ele>
        <time>2013-08-03T09:50:38Z</time>
      </trkpt>
      <trkpt lat="48.27767" lon="3.21069">
        <ele>102</ele>
        <time>2013-08-03T09:50:42Z</time>
      </trkpt>
      <trkpt lat="48.27763" lon="3.21074">
        <ele>102</ele>
        <time>2013-08-03T09:50:46Z</time>
      </trkpt>
      <trkpt lat="48.27758" lon="3.21079">
        <ele>103</ele>
        <time>2013-08-03T09:50:50Z</time>
      </trkpt>
      <trkpt lat="48.27754" lon="3.21085">
        <ele>103</ele>
        <time>2013-08-03T09:50:54Z</time>
      </trkpt>
      <trkpt lat="48.27751" lon="3.21091">
        <ele>102</ele>
        <time>2013-08-03T09:50:58Z</time>
      </trkpt>
      <trkpt lat="48.27746" lon="3.21097">
        <ele>104</ele>
        <time>2013-08-03T09:51:02Z</time>
      </trkpt>
      <trkpt lat="48.27742" lon="3.21103">
        <ele>104</ele>
        <time>2013-08-03T09:51:06Z</time>
      </trkpt>
      <trkpt lat="48.27739" lon="3.21109">
        <ele>104</ele>
        <time>2013-08-03T09:51:10Z</time>
      </trkpt>
      <trkpt lat="48.27735" lon="3.21114">
        <ele>104</ele>
        <time>2013-08-03T09:51:14Z</time>
      </trkpt>
      <trkpt lat="48.2773" lon="3.21117">
        <ele>104</ele>
        <time>2013-08-03T09:51:18Z</time>
      </trkpt>
      <trkpt lat="48.27726" lon="3.21122">
        <ele>104</ele>
        <time>2013-08-03T09:51:22Z</time>
      </trkpt>
      <trkpt lat="48.27722" lon="3.21124">
        <ele>104</ele>
        <time>2013-08-03T09:51:25Z</time>
      </trkpt>
      <trkpt lat="48.27717" lon="3.21126">
        <ele>104</ele>
        <time>2013-08-03T09:51:28Z</time>
      </trkpt>
      <trkpt lat="48.27713" lon="3.2113">
        <ele>104</ele>
        <time>2013-08-03T09:51:32Z</time>
      </trkpt>
      <trkpt lat="48.27707" lon="3.21132">
        <ele>104</ele>
        <time>2013-08-03T09:51:36Z</time>
      </trkpt>
      <trkpt lat="48.27703" lon="3.21135">
        <ele>104</ele>
        <time>2013-08-03T09:51:40Z</time>
      </trkpt>
      <trkpt lat="48.27698" lon="3.2114">
        <ele>104</ele>
        <time>2013-08-03T09:51:44Z</time>
      </trkpt>
      <trkpt lat="48.27693" lon="3.21145">
        <ele>104</ele>
        <time>2013-08-03T09:51:48Z</time>
      </trkpt>
      <trkpt lat="48.2769" lon="3.2115">
        <ele>103</ele>
        <time>2013-08-03T09:51:52Z</time>
      </trkpt>
      <trkpt lat="48.27687" lon="3.2115">
        <ele>103</ele>
        <time>2013-08-03T09:52:11Z</time>
      </trkpt>
      <trkpt lat="48.2768" lon="3.21147">
        <ele>103</ele>
        <time>2013-08-03T09:52:23Z</time>
      </trkpt>
      <trkpt lat="48.27677" lon="3.21153">
        <ele>103</ele>
        <time>2013-08-03T09:52:27Z</time>
      </trkpt>
      <trkpt lat="48.27674" lon="3.2116">
        <ele>103</ele>
        <time>2013-08-03T09:52:31Z</time>
      </trkpt>
      <trkpt lat="48.2767" lon="3.21165">
        <ele>102</ele>
        <time>2013-08-03T09:52:35Z</time>
      </trkpt>
      <trkpt lat="48.27666" lon="3.2117">
        <ele>102</ele>
        <time>2013-08-03T09:52:39Z</time>
      </trkpt>
      <trkpt lat="48.27662" lon="3.21174">
        <ele>102</ele>
        <time>2013-08-03T09:52:42Z</time>
      </trkpt>
      <trkpt lat="48.27658" lon="3.21177">
        <ele>101</ele>
        <time>2013-08-03T09:52:46Z</time>
      </trkpt>
      <trkpt lat="48.27653" lon="3.2118">
        <ele>101</ele>
        <time>2013-08-03T09:52:51Z</time>
      </trkpt>
      <trkpt lat="48.27647" lon="3.21181">
        <ele>101</ele>
        <time>2013-08-03T09:52:56Z</time>
      </trkpt>
      <trkpt lat="48.27643" lon="3.21179">
        <ele>101</ele>
        <time>2013-08-03T09:53:01Z</time>
      </trkpt>
      <trkpt lat="48.27639" lon="3.21183">
        <ele>101</ele>
        <time>2013-08-03T09:53:05Z</time>
      </trkpt>
      <trkpt lat="48.27635" lon="3.21188">
        <ele>101</ele>
        <time>2013-08-03T09:53:09Z</time>
      </trkpt>
      <trkpt lat="48.27631" lon="3.21193">
        <ele>101</ele>
        <time>2013-08-03T09:53:13Z</time>
      </trkpt>
      <trkpt lat="48.27626" lon="3.21195">
        <ele>101</ele>
        <time>2013-08-03T09:53:17Z</time>
      </trkpt>
      <trkpt lat="48.27622" lon="3.21201">
        <ele>101</ele>
        <time>2013-08-03T09:53:21Z</time>
      </trkpt>
      <trkpt lat="48.27617" lon="3.21206">
        <ele>101</ele>
        <time>2013-08-03T09:53:25Z</time>
      </trkpt>
      <trkpt lat="48.27613" lon="3.21211">
        <ele>100</ele>
        <time>2013-08-03T09:53:29Z</time>
      </trkpt>
      <trkpt lat="48.2761" lon="3.21214">
        <ele>100</ele>
        <time>2013-08-03T09:53:37Z</time>
      </trkpt>
      <trkpt lat="48.27605" lon="3.21216">
        <ele>100</ele>
        <time>2013-08-03T09:53:54Z</time>
      </trkpt>
      <trkpt lat="48.27601" lon="3.2122">
        <ele>100</ele>
        <time>2013-08-03T09:53:59Z</time>
      </trkpt>
      <trkpt lat="48.27598" lon="3.21225">
        <ele>100</ele>
        <time>2013-08-03T09:54:09Z</time>
      </trkpt>
      <trkpt lat="48.27595" lon="3.21226">
        <ele>100</ele>
        <time>2013-08-03T09:54:16Z</time>
      </trkpt>
      <trkpt lat="48.27591" lon="3.21228">
        <ele>100</ele>
        <time>2013-08-03T09:54:34Z</time>
      </trkpt>
      <trkpt lat="48.27587" lon="3.21232">
        <ele>99</ele>
        <time>2013-08-03T09:54:38Z</time>
      </trkpt>
      <trkpt lat="48.27583" lon="3.21238">
        <ele>98</ele>
        <time>2013-08-03T09:54:42Z</time>
      </trkpt>
      <trkpt lat="48.27584" lon="3.21245">
        <ele>98</ele>
        <time>2013-08-03T09:54:49Z</time>
      </trkpt>
      <trkpt lat="48.27585" lon="3.21253">
        <ele>98</ele>
        <time>2013-08-03T09:54:55Z</time>
      </trkpt>
      <trkpt lat="48.27581" lon="3.2126">
        <ele>97</ele>
        <time>2013-08-03T09:54:58Z</time>
      </trkpt>
      <trkpt lat="48.27578" lon="3.21265">
        <ele>96</ele>
        <time>2013-08-03T09:55:00Z</time>
      </trkpt>
      <trkpt lat="48.27573" lon="3.21272">
        <ele>96</ele>
        <time>2013-08-03T09:55:03Z</time>
      </trkpt>
      <trkpt lat="48.27569" lon="3.21278">
        <ele>96</ele>
        <time>2013-08-03T09:55:05Z</time>
      </trkpt>
      <trkpt lat="48.27565" lon="3.21283">
        <ele>95</ele>
        <time>2013-08-03T09:55:07Z</time>
      </trkpt>
      <trkpt lat="48.27561" lon="3.21288">
        <ele>95</ele>
        <time>2013-08-03T09:55:10Z</time>
      </trkpt>
      <trkpt lat="48.27557" lon="3.21291">
        <ele>95</ele>
        <time>2013-08-03T09:55:14Z</time>
      </trkpt>
      <trkpt lat="48.27552" lon="3.21297">
        <ele>95</ele>
        <time>2013-08-03T09:55:18Z</time>
      </trkpt>
      <trkpt lat="48.27549" lon="3.21303">
        <ele>95</ele>
        <time>2013-08-03T09:55:21Z</time>
      </trkpt>
      <trkpt lat="48.27545" lon="3.21308">
        <ele>94</ele>
        <time>2013-08-03T09:55:24Z</time>
      </trkpt>
      <trkpt lat="48.27542" lon="3.21314">
        <ele>94</ele>
        <time>2013-08-03T09:55:28Z</time>
      </trkpt>
      <trkpt lat="48.27539" lon="3.2132">
        <ele>94</ele>
        <time>2013-08-03T09:55:33Z</time>
      </trkpt>
      <trkpt lat="48.27535" lon="3.21324">
        <ele>94</ele>
        <time>2013-08-03T09:55:38Z</time>
      </trkpt>
      <trkpt lat="48.27531" lon="3.21329">
        <ele>94</ele>
        <time>2013-08-03T09:55:42Z</time>
      </trkpt>
      <trkpt lat="48.27527" lon="3.21335">
        <ele>92</ele>
        <time>2013-08-03T09:55:46Z</time>
      </trkpt>
      <trkpt lat="48.27523" lon="3.21341">
        <ele>92</ele>
        <time>2013-08-03T09:55:50Z</time>
      </trkpt>
      <trkpt lat="48.2752" lon="3.21347">
        <ele>92</ele>
        <time>2013-08-03T09:55:54Z</time>
      </trkpt>
      <trkpt lat="48.27518" lon="3.21351">
        <ele>92</ele>
        <time>2013-08-03T09:56:00Z</time>
      </trkpt>
      <trkpt lat="48.27519" lon="3.21354">
        <ele>92</ele>
        <time>2013-08-03T09:56:28Z</time>
      </trkpt>
      <trkpt lat="48.27516" lon="3.21359">
        <ele>92</ele>
        <time>2013-08-03T09:56:33Z</time>
      </trkpt>
      <trkpt lat="48.27513" lon="3.21365">
        <ele>91</ele>
        <time>2013-08-03T09:56:36Z</time>
      </trkpt>
      <trkpt lat="48.2751" lon="3.21371">
        <ele>91</ele>
        <time>2013-08-03T09:56:39Z</time>
      </trkpt>
      <trkpt lat="48.27507" lon="3.21376">
        <ele>91</ele>
        <time>2013-08-03T09:56:42Z</time>
      </trkpt>
      <trkpt lat="48.27504" lon="3.21383">
        <ele>91</ele>
        <time>2013-08-03T09:56:47Z</time>
      </trkpt>
      <trkpt lat="48.27502" lon="3.2139">
        <ele>91</ele>
        <time>2013-08-03T09:56:52Z</time>
      </trkpt>
      <trkpt lat="48.27498" lon="3.21393">
        <ele>88</ele>
        <time>2013-08-03T09:56:57Z</time>
      </trkpt>
      <trkpt lat="48.27494" lon="3.21397">
        <ele>88</ele>
        <time>2013-08-03T09:57:02Z</time>
      </trkpt>
      <trkpt lat="48.2749" lon="3.21398">
        <ele>88</ele>
        <time>2013-08-03T09:57:10Z</time>
      </trkpt>
      <trkpt lat="48.27487" lon="3.21403">
        <ele>88</ele>
        <time>2013-08-03T09:57:30Z</time>
      </trkpt>
      <trkpt lat="48.27484" lon="3.21408">
        <ele>88</ele>
        <time>2013-08-03T09:57:32Z</time>
      </trkpt>
      <trkpt lat="48.2748" lon="3.21414">
        <ele>88</ele>
        <time>2013-08-03T09:57:35Z</time>
      </trkpt>
      <trkpt lat="48.27484" lon="3.21418">
        <ele>87</ele>
        <time>2013-08-03T09:57:43Z</time>
      </trkpt>
      <trkpt lat="48.27481" lon="3.21426">
        <ele>87</ele>
        <time>2013-08-03T09:57:54Z</time>
      </trkpt>
      <trkpt lat="48.27477" lon="3.21431">
        <ele>86</ele>
        <time>2013-08-03T09:57:57Z</time>
      </trkpt>
      <trkpt lat="48.27474" lon="3.21435">
        <ele>86</ele>
        <time>2013-08-03T09:57:59Z</time>
      </trkpt>
      <trkpt lat="48.27469" lon="3.2144">
        <ele>86</ele>
        <time>2013-08-03T09:58:01Z</time>
      </trkpt>
      <trkpt lat="48.27466" lon="3.21445">
        <ele>85</ele>
        <time>2013-08-03T09:58:03Z</time>
      </trkpt>
      <trkpt lat="48.27462" lon="3.21452">
        <ele>85</ele>
        <time>2013-08-03T09:58:06Z</time>
      </trkpt>
      <trkpt lat="48.27459" lon="3.21456">
        <ele>85</ele>
        <time>2013-08-03T09:58:08Z</time>
      </trkpt>
      <trkpt lat="48.27456" lon="3.21462">
        <ele>85</ele>
        <time>2013-08-03T09:58:10Z</time>
      </trkpt>
      <trkpt lat="48.27453" lon="3.21468">
        <ele>85</ele>
        <time>2013-08-03T09:58:13Z</time>
      </trkpt>
      <trkpt lat="48.27451" lon="3.21474">
        <ele>85</ele>
        <time>2013-08-03T09:58:16Z</time>
      </trkpt>
      <trkpt lat="48.27448" lon="3.21481">
        <ele>84</ele>
        <time>2013-08-03T09:58:20Z</time>
      </trkpt>
      <trkpt lat="48.27445" lon="3.21487">
        <ele>84</ele>
        <time>2013-08-03T09:58:23Z</time>
      </trkpt>
      <trkpt lat="48.27441" lon="3.21493">
        <ele>84</ele>
        <time>2013-08-03T09:58:27Z</time>
      </trkpt>
      <trkpt lat="48.27437" lon="3.21498">
        <ele>84</ele>
        <time>2013-08-03T09:58:31Z</time>
      </trkpt>
      <trkpt lat="48.27433" lon="3.21503">
        <ele>83</ele>
        <time>2013-08-03T09:58:36Z</time>
      </trkpt>
      <trkpt lat="48.27428" lon="3.2151">
        <ele>83</ele>
        <time>2013-08-03T09:58:40Z</time>
      </trkpt>
      <trkpt lat="48.27425" lon="3.21515">
        <ele>83</ele>
        <time>2013-08-03T09:58:43Z</time>
      </trkpt>
      <trkpt lat="48.27422" lon="3.21522">
        <ele>83</ele>
        <time>2013-08-03T09:58:47Z</time>
      </trkpt>
      <trkpt lat="48.27418" lon="3.21529">
        <ele>83</ele>
        <time>2013-08-03T09:58:51Z</time>
      </trkpt>
      <trkpt lat="48.27415" lon="3.21534">
        <ele>80</ele>
        <time>2013-08-03T09:58:54Z</time>
      </trkpt>
      <trkpt lat="48.27413" lon="3.21541">
        <ele>79</ele>
        <time>2013-08-03T09:58:59Z</time>
      </trkpt>
      <trkpt lat="48.2741" lon="3.21547">
        <ele>79</ele>
        <time>2013-08-03T09:59:04Z</time>
      </trkpt>
      <trkpt lat="48.27407" lon="3.21553">
        <ele>79</ele>
        <time>2013-08-03T09:59:09Z</time>
      </trkpt>
      <trkpt lat="48.27403" lon="3.21559">
        <ele>79</ele>
        <time>2013-08-03T09:59:13Z</time>
      </trkpt>
      <trkpt lat="48.274" lon="3.21566">
        <ele>79</ele>
        <time>2013-08-03T09:59:17Z</time>
      </trkpt>
      <trkpt lat="48.27396" lon="3.21571">
        <ele>79</ele>
        <time>2013-08-03T09:59:24Z</time>
      </trkpt>
      <trkpt lat="48.27392" lon="3.21574">
        <ele>79</ele>
        <time>2013-08-03T09:59:27Z</time>
      </trkpt>
      <trkpt lat="48.27385" lon="3.21577">
        <ele>79</ele>
        <time>2013-08-03T09:59:30Z</time>
      </trkpt>
      <trkpt lat="48.2738" lon="3.21581">
        <ele>78</ele>
        <time>2013-08-03T09:59:32Z</time>
      </trkpt>
      <trkpt lat="48.27376" lon="3.21585">
        <ele>79</ele>
        <time>2013-08-03T09:59:34Z</time>
      </trkpt>
      <trkpt lat="48.27373" lon="3.2159">
        <ele>78</ele>
        <time>2013-08-03T09:59:36Z</time>
      </trkpt>
      <trkpt lat="48.27369" lon="3.21596">
        <ele>78</ele>
        <time>2013-08-03T09:59:38Z</time>
      </trkpt>
      <trkpt lat="48.27366" lon="3.21601">
        <ele>78</ele>
        <time>2013-08-03T09:59:40Z</time>
      </trkpt>
      <trkpt lat="48.27364" lon="3.21608">
        <ele>78</ele>
        <time>2013-08-03T09:59:45Z</time>
      </trkpt>
      <trkpt lat="48.27369" lon="3.21607">
        <ele>78</ele>
        <time>2013-08-03T09:59:47Z</time>
      </trkpt>
      <trkpt lat="48.27374" lon="3.21609">
        <ele>79</ele>
        <time>2013-08-03T09:59:51Z</time>
      </trkpt>
      <trkpt lat="48.27376" lon="3.21615">
        <ele>79</ele>
        <time>2013-08-03T09:59:58Z</time>
      </trkpt>
      <trkpt lat="48.27371" lon="3.2162">
        <ele>79</ele>
        <time>2013-08-03T10:00:02Z</time>
      </trkpt>
      <trkpt lat="48.27366" lon="3.21623">
        <ele>78</ele>
        <time>2013-08-03T10:00:04Z</time>
      </trkpt>
      <trkpt lat="48.27361" lon="3.21628">
        <ele>78</ele>
        <time>2013-08-03T10:00:06Z</time>
      </trkpt>
      <trkpt lat="48.27355" lon="3.21633">
        <ele>78</ele>
        <time>2013-08-03T10:00:08Z</time>
      </trkpt>
      <trkpt lat="48.2735" lon="3.21638">
        <ele>78</ele>
        <time>2013-08-03T10:00:10Z</time>
      </trkpt>
      <trkpt lat="48.27346" lon="3.21642">
        <ele>78</ele>
        <time>2013-08-03T10:00:12Z</time>
      </trkpt>
      <trkpt lat="48.27341" lon="3.21647">
        <ele>78</ele>
        <time>2013-08-03T10:00:15Z</time>
      </trkpt>
      <trkpt lat="48.27346" lon="3.21649">
        <ele>78</ele>
        <time>2013-08-03T10:00:21Z</time>
      </trkpt>
      <trkpt lat="48.27351" lon="3.21652">
        <ele>78</ele>
        <time>2013-08-03T10:00:26Z</time>
      </trkpt>
      <trkpt lat="48.2735" lon="3.2166">
        <ele>78</ele>
        <time>2013-08-03T10:00:34Z</time>
      </trkpt>
      <trkpt lat="48.27346" lon="3.21665">
        <ele>78</ele>
        <time>2013-08-03T10:00:37Z</time>
      </trkpt>
      <trkpt lat="48.2734" lon="3.2167">
        <ele>78</ele>
        <time>2013-08-03T10:00:40Z</time>
      </trkpt>
      <trkpt lat="48.27335" lon="3.21674">
        <ele>78</ele>
        <time>2013-08-03T10:00:42Z</time>
      </trkpt>
      <trkpt lat="48.2733" lon="3.2168">
        <ele>76</ele>
        <time>2013-08-03T10:00:44Z</time>
      </trkpt>
      <trkpt lat="48.27325" lon="3.21685">
        <ele>75</ele>
        <time>2013-08-03T10:00:46Z</time>
      </trkpt>
      <trkpt lat="48.27319" lon="3.21691">
        <ele>75</ele>
        <time>2013-08-03T10:00:48Z</time>
      </trkpt>
      <trkpt lat="48.27315" lon="3.21697">
        <ele>74</ele>
        <time>2013-08-03T10:00:50Z</time>
      </trkpt>
      <trkpt lat="48.2731" lon="3.21702">
        <ele>74</ele>
        <time>2013-08-03T10:00:52Z</time>
      </trkpt>
      <trkpt lat="48.27307" lon="3.21706">
        <ele>74</ele>
        <time>2013-08-03T10:00:54Z</time>
      </trkpt>
      <trkpt lat="48.27303" lon="3.21711">
        <ele>74</ele>
        <time>2013-08-03T10:00:56Z</time>
      </trkpt>
      <trkpt lat="48.27299" lon="3.21716">
        <ele>74</ele>
        <time>2013-08-03T10:00:58Z</time>
      </trkpt>
      <trkpt lat="48.27295" lon="3.2172">
        <ele>73</ele>
        <time>2013-08-03T10:01:00Z</time>
      </trkpt>
      <trkpt lat="48.2729" lon="3.21724">
        <ele>73</ele>
        <time>2013-08-03T10:01:03Z</time>
      </trkpt>
      <trkpt lat="48.27287" lon="3.21729">
        <ele>73</ele>
        <time>2013-08-03T10:01:05Z</time>
      </trkpt>
      <trkpt lat="48.27283" lon="3.21734">
        <ele>73</ele>
        <time>2013-08-03T10:01:07Z</time>
      </trkpt>
      <trkpt lat="48.27279" lon="3.21738">
        <ele>72</ele>
        <time>2013-08-03T10:01:09Z</time>
      </trkpt>
      <trkpt lat="48.27273" lon="3.21741">
        <ele>72</ele>
        <time>2013-08-03T10:01:12Z</time>
      </trkpt>
      <trkpt lat="48.27267" lon="3.21747">
        <ele>71</ele>
        <time>2013-08-03T10:01:15Z</time>
      </trkpt>
      <trkpt lat="48.2726" lon="3.21755">
        <ele>71</ele>
        <time>2013-08-03T10:01:19Z</time>
      </trkpt>
      <trkpt lat="48.27253" lon="3.21765">
        <ele>71</ele>
        <time>2013-08-03T10:01:25Z</time>
      </trkpt>
      <trkpt lat="48.27249" lon="3.21776">
        <ele>69</ele>
        <time>2013-08-03T10:01:37Z</time>
      </trkpt>
      <trkpt lat="48.27246" lon="3.21782">
        <ele>69</ele>
        <time>2013-08-03T10:01:43Z</time>
      </trkpt>
      <trkpt lat="48.27249" lon="3.21796">
        <ele>69</ele>
        <time>2013-08-03T10:01:52Z</time>
      </trkpt>
      <trkpt lat="48.2725" lon="3.21802">
        <ele>69</ele>
        <time>2013-08-03T10:01:56Z</time>
      </trkpt>
      <trkpt lat="48.27249" lon="3.2181">
        <ele>69</ele>
        <time>2013-08-03T10:02:00Z</time>
      </trkpt>
      <trkpt lat="48.27253" lon="3.21812">
        <ele>72</ele>
        <time>2013-08-03T10:02:10Z</time>
      </trkpt>
      <trkpt lat="48.27251" lon="3.21819">
        <ele>72</ele>
        <time>2013-08-03T10:02:19Z</time>
      </trkpt>
      <trkpt lat="48.27248" lon="3.21825">
        <ele>69</ele>
        <time>2013-08-03T10:02:26Z</time>
      </trkpt>
      <trkpt lat="48.27244" lon="3.21831">
        <ele>70</ele>
        <time>2013-08-03T10:02:30Z</time>
      </trkpt>
      <trkpt lat="48.2724" lon="3.21835">
        <ele>69</ele>
        <time>2013-08-03T10:02:34Z</time>
      </trkpt>
      <trkpt lat="48.27237" lon="3.2184">
        <ele>69</ele>
        <time>2013-08-03T10:02:38Z</time>
      </trkpt>
      <trkpt lat="48.27235" lon="3.21847">
        <ele>69</ele>
        <time>2013-08-03T10:02:45Z</time>
      </trkpt>
      <trkpt lat="48.27232" lon="3.21853">
        <ele>69</ele>
        <time>2013-08-03T10:02:49Z</time>
      </trkpt>
      <trkpt lat="48.27229" lon="3.2186">
        <ele>69</ele>
        <time>2013-08-03T10:02:53Z</time>
      </trkpt>
      <trkpt lat="48.27226" lon="3.21866">
        <ele>69</ele>
        <time>2013-08-03T10:02:58Z</time>
      </trkpt>
      <trkpt lat="48.27223" lon="3.21872">
        <ele>69</ele>
        <time>2013-08-03T10:03:02Z</time>
      </trkpt>
      <trkpt lat="48.27219" lon="3.21878">
        <ele>69</ele>
        <time>2013-08-03T10:03:07Z</time>
      </trkpt>
      <trkpt lat="48.27218" lon="3.21886">
        <ele>69</ele>
        <time>2013-08-03T10:03:12Z</time>
      </trkpt>
      <trkpt lat="48.27214" lon="3.21891">
        <ele>69</ele>
        <time>2013-08-03T10:03:17Z</time>
      </trkpt>
      <trkpt lat="48.2721" lon="3.21896">
        <ele>68</ele>
        <time>2013-08-03T10:03:20Z</time>
      </trkpt>
      <trkpt lat="48.27206" lon="3.21901">
        <ele>68</ele>
        <time>2013-08-03T10:03:24Z</time>
      </trkpt>
      <trkpt lat="48.27203" lon="3.21907">
        <ele>68</ele>
        <time>2013-08-03T10:03:28Z</time>
      </trkpt>
      <trkpt lat="48.27202" lon="3.21917">
        <ele>69</ele>
        <time>2013-08-03T10:03:38Z</time>
      </trkpt>
      <trkpt lat="48.27204" lon="3.21924">
        <ele>69</ele>
        <time>2013-08-03T10:03:42Z</time>
      </trkpt>
      <trkpt lat="48.27205" lon="3.21931">
        <ele>69</ele>
        <time>2013-08-03T10:03:46Z</time>
      </trkpt>
      <trkpt lat="48.27205" lon="3.21939">
        <ele>69</ele>
        <time>2013-08-03T10:03:50Z</time>
      </trkpt>
      <trkpt lat="48.27204" lon="3.21949">
        <ele>70</ele>
        <time>2013-08-03T10:03:54Z</time>
      </trkpt>
      <trkpt lat="48.27203" lon="3.21957">
        <ele>70</ele>
        <time>2013-08-03T10:03:58Z</time>
      </trkpt>
      <trkpt lat="48.27203" lon="3.21965">
        <ele>70</ele>
        <time>2013-08-03T10:04:03Z</time>
      </trkpt>
      <trkpt lat="48.27201" lon="3.21971">
        <ele>70</ele>
        <time>2013-08-03T10:04:06Z</time>
      </trkpt>
      <trkpt lat="48.27199" lon="3.21979">
        <ele>69</ele>
        <time>2013-08-03T10:04:10Z</time>
      </trkpt>
      <trkpt lat="48.27198" lon="3.21986">
        <ele>69</ele>
        <time>2013-08-03T10:04:13Z</time>
      </trkpt>
      <trkpt lat="48.27198" lon="3.21994">
        <ele>69</ele>
        <time>2013-08-03T10:04:17Z</time>
      </trkpt>
      <trkpt lat="48.27199" lon="3.22002">
        <ele>70</ele>
        <time>2013-08-03T10:04:21Z</time>
      </trkpt>
      <trkpt lat="48.272" lon="3.22011">
        <ele>70</ele>
        <time>2013-08-03T10:04:25Z</time>
      </trkpt>
      <trkpt lat="48.27201" lon="3.22018">
        <ele>70</ele>
        <time>2013-08-03T10:04:28Z</time>
      </trkpt>
      <trkpt lat="48.272" lon="3.22024">
        <ele>70</ele>
        <time>2013-08-03T10:04:37Z</time>
      </trkpt>
      <trkpt lat="48.27199" lon="3.22029">
        <ele>70</ele>
        <time>2013-08-03T10:04:50Z</time>
      </trkpt>
      <trkpt lat="48.27199" lon="3.22037">
        <ele>70</ele>
        <time>2013-08-03T10:04:53Z</time>
      </trkpt>
      <trkpt lat="48.27198" lon="3.22044">
        <ele>70</ele>
        <time>2013-08-03T10:04:56Z</time>
      </trkpt>
      <trkpt lat="48.27197" lon="3.22052">
        <ele>70</ele>
        <time>2013-08-03T10:05:01Z</time>
      </trkpt>
      <trkpt lat="48.27194" lon="3.22058">
        <ele>70</ele>
        <time>2013-08-03T10:05:05Z</time>
      </trkpt>
      <trkpt lat="48.27194" lon="3.22066">
        <ele>70</ele>
        <time>2013-08-03T10:05:09Z</time>
      </trkpt>
      <trkpt lat="48.27195" lon="3.22072">
        <ele>70</ele>
        <time>2013-08-03T10:05:14Z</time>
      </trkpt>
      <trkpt lat="48.27193" lon="3.22079">
        <ele>69</ele>
        <time>2013-08-03T10:05:18Z</time>
      </trkpt>
      <trkpt lat="48.27191" lon="3.22087">
        <ele>67</ele>
        <time>2013-08-03T10:05:22Z</time>
      </trkpt>
      <trkpt lat="48.27192" lon="3.22094">
        <ele>67</ele>
        <time>2013-08-03T10:05:26Z</time>
      </trkpt>
      <trkpt lat="48.27191" lon="3.22103">
        <ele>67</ele>
        <time>2013-08-03T10:05:30Z</time>
      </trkpt>
      <trkpt lat="48.27191" lon="3.2211">
        <ele>67</ele>
        <time>2013-08-03T10:05:34Z</time>
      </trkpt>
      <trkpt lat="48.27191" lon="3.22117">
        <ele>67</ele>
        <time>2013-08-03T10:05:37Z</time>
      </trkpt>
      <trkpt lat="48.27192" lon="3.22126">
        <ele>66</ele>
        <time>2013-08-03T10:05:41Z</time>
      </trkpt>
      <trkpt lat="48.27195" lon="3.22133">
        <ele>66</ele>
        <time>2013-08-03T10:05:45Z</time>
      </trkpt>
      <trkpt lat="48.27197" lon="3.2214">
        <ele>66</ele>
        <time>2013-08-03T10:05:53Z</time>
      </trkpt>
      <trkpt lat="48.27195" lon="3.22148">
        <ele>66</ele>
        <time>2013-08-03T10:05:58Z</time>
      </trkpt>
      <trkpt lat="48.27191" lon="3.22153">
        <ele>65</ele>
        <time>2013-08-03T10:06:05Z</time>
      </trkpt>
      <trkpt lat="48.27185" lon="3.22156">
        <ele>65</ele>
        <time>2013-08-03T10:06:11Z</time>
      </trkpt>
      <trkpt lat="48.2718" lon="3.22159">
        <ele>64</ele>
        <time>2013-08-03T10:06:13Z</time>
      </trkpt>
      <trkpt lat="48.27175" lon="3.22161">
        <ele>64</ele>
        <time>2013-08-03T10:06:15Z</time>
      </trkpt>
      <trkpt lat="48.27177" lon="3.22169">
        <ele>62</ele>
        <time>2013-08-03T10:06:21Z</time>
      </trkpt>
      <trkpt lat="48.27172" lon="3.22174">
        <ele>62</ele>
        <time>2013-08-03T10:06:25Z</time>
      </trkpt>
      <trkpt lat="48.27167" lon="3.22176">
        <ele>62</ele>
        <time>2013-08-03T10:06:28Z</time>
      </trkpt>
      <trkpt lat="48.27163" lon="3.22181">
        <ele>63</ele>
        <time>2013-08-03T10:06:33Z</time>
      </trkpt>
      <trkpt lat="48.2716" lon="3.22185">
        <ele>63</ele>
        <time>2013-08-03T10:06:36Z</time>
      </trkpt>
      <trkpt lat="48.27156" lon="3.22191">
        <ele>63</ele>
        <time>2013-08-03T10:06:40Z</time>
      </trkpt>
      <trkpt lat="48.27152" lon="3.22194">
        <ele>63</ele>
        <time>2013-08-03T10:06:45Z</time>
      </trkpt>
      <trkpt lat="48.27148" lon="3.222">
        <ele>63</ele>
        <time>2013-08-03T10:06:53Z</time>
      </trkpt>
      <trkpt lat="48.27145" lon="3.22206">
        <ele>63</ele>
        <time>2013-08-03T10:06:57Z</time>
      </trkpt>
      <trkpt lat="48.2714" lon="3.22209">
        <ele>63</ele>
        <time>2013-08-03T10:07:00Z</time>
      </trkpt>
      <trkpt lat="48.27138" lon="3.22216">
        <ele>63</ele>
        <time>2013-08-03T10:07:03Z</time>
      </trkpt>
      <trkpt lat="48.27133" lon="3.2222">
        <ele>63</ele>
        <time>2013-08-03T10:07:08Z</time>
      </trkpt>
      <trkpt lat="48.27128" lon="3.22223">
        <ele>63</ele>
        <time>2013-08-03T10:07:12Z</time>
      </trkpt>
      <trkpt lat="48.27123" lon="3.22224">
        <ele>63</ele>
        <time>2013-08-03T10:07:15Z</time>
      </trkpt>
      <trkpt lat="48.27119" lon="3.22227">
        <ele>63</ele>
        <time>2013-08-03T10:07:18Z</time>
      </trkpt>
      <trkpt lat="48.27114" lon="3.22229">
        <ele>63</ele>
        <time>2013-08-03T10:07:22Z</time>
      </trkpt>
      <trkpt lat="48.2711" lon="3.22234">
        <ele>63</ele>
        <time>2013-08-03T10:07:27Z</time>
      </trkpt>
      <trkpt lat="48.27112" lon="3.22235">
        <ele>63</ele>
        <time>2013-08-03T10:07:45Z</time>
      </trkpt>
      <trkpt lat="48.27108" lon="3.2224">
        <ele>63</ele>
        <time>2013-08-03T10:07:58Z</time>
      </trkpt>
      <trkpt lat="48.27104" lon="3.22246">
        <ele>63</ele>
        <time>2013-08-03T10:08:01Z</time>
      </trkpt>
      <trkpt lat="48.271" lon="3.2225">
        <ele>63</ele>
        <time>2013-08-03T10:08:04Z</time>
      </trkpt>
      <trkpt lat="48.27096" lon="3.22254">
        <ele>63</ele>
        <time>2013-08-03T10:08:09Z</time>
      </trkpt>
      <trkpt lat="48.27094" lon="3.22256">
        <ele>63</ele>
        <time>2013-08-03T10:08:14Z</time>
      </trkpt>
      <trkpt lat="48.27088" lon="3.22259">
        <ele>63</ele>
        <time>2013-08-03T10:08:19Z</time>
      </trkpt>
      <trkpt lat="48.27083" lon="3.2226">
        <ele>63</ele>
        <time>2013-08-03T10:08:21Z</time>
      </trkpt>
      <trkpt lat="48.27079" lon="3.22263">
        <ele>64</ele>
        <time>2013-08-03T10:08:24Z</time>
      </trkpt>
      <trkpt lat="48.27076" lon="3.22269">
        <ele>64</ele>
        <time>2013-08-03T10:08:33Z</time>
      </trkpt>
      <trkpt lat="48.27074" lon="3.22272">
        <ele>64</ele>
        <time>2013-08-03T10:08:55Z</time>
      </trkpt>
      <trkpt lat="48.2707" lon="3.22275">
        <ele>64</ele>
        <time>2013-08-03T10:09:07Z</time>
      </trkpt>
      <trkpt lat="48.27066" lon="3.22279">
        <ele>64</ele>
        <time>2013-08-03T10:09:10Z</time>
      </trkpt>
      <trkpt lat="48.27062" lon="3.22284">
        <ele>64</ele>
        <time>2013-08-03T10:09:13Z</time>
      </trkpt>
      <trkpt lat="48.27057" lon="3.22287">
        <ele>64</ele>
        <time>2013-08-03T10:09:16Z</time>
      </trkpt>
      <trkpt lat="48.27052" lon="3.2229">
        <ele>64</ele>
        <time>2013-08-03T10:09:21Z</time>
      </trkpt>
      <trkpt lat="48.27049" lon="3.22294">
        <ele>64</ele>
        <time>2013-08-03T10:09:24Z</time>
      </trkpt>
      <trkpt lat="48.27044" lon="3.22298">
        <ele>64</ele>
        <time>2013-08-03T10:09:27Z</time>
      </trkpt>
      <trkpt lat="48.27041" lon="3.223">
        <ele>64</ele>
        <time>2013-08-03T10:09:35Z</time>
      </trkpt>
      <trkpt lat="48.27037" lon="3.22306">
        <ele>64</ele>
        <time>2013-08-03T10:10:08Z</time>
      </trkpt>
      <trkpt lat="48.27032" lon="3.22311">
        <ele>64</ele>
        <time>2013-08-03T10:10:12Z</time>
      </trkpt>
      <trkpt lat="48.27029" lon="3.22316">
        <ele>65</ele>
        <time>2013-08-03T10:10:16Z</time>
      </trkpt>
      <trkpt lat="48.27025" lon="3.2232">
        <ele>65</ele>
        <time>2013-08-03T10:10:20Z</time>
      </trkpt>
      <trkpt lat="48.27023" lon="3.22323">
        <ele>65</ele>
        <time>2013-08-03T10:10:26Z</time>
      </trkpt>
      <trkpt lat="48.27019" lon="3.22326">
        <ele>65</ele>
        <time>2013-08-03T10:10:31Z</time>
      </trkpt>
      <trkpt lat="48.27014" lon="3.22329">
        <ele>65</ele>
        <time>2013-08-03T10:10:35Z</time>
      </trkpt>
      <trkpt lat="48.27009" lon="3.22327">
        <ele>65</ele>
        <time>2013-08-03T10:10:37Z</time>
      </trkpt>
      <trkpt lat="48.27004" lon="3.22326">
        <ele>65</ele>
        <time>2013-08-03T10:10:41Z</time>
      </trkpt>
      <trkpt lat="48.27" lon="3.22321">
        <ele>68</ele>
        <time>2013-08-03T10:10:44Z</time>
      </trkpt>
      <trkpt lat="48.26996" lon="3.22316">
        <ele>68</ele>
        <time>2013-08-03T10:10:46Z</time>
      </trkpt>
      <trkpt lat="48.26993" lon="3.2231">
        <ele>69</ele>
        <time>2013-08-03T10:10:48Z</time>
      </trkpt>
      <trkpt lat="48.2699" lon="3.22304">
        <ele>70</ele>
        <time>2013-08-03T10:10:50Z</time>
      </trkpt>
      <trkpt lat="48.26987" lon="3.223">
        <ele>70</ele>
        <time>2013-08-03T10:11:00Z</time>
      </trkpt>
      <trkpt lat="48.26984" lon="3.22299">
        <ele>70</ele>
        <time>2013-08-03T10:11:30Z</time>
      </trkpt>
      <trkpt lat="48.26981" lon="3.22291">
        <ele>71</ele>
        <time>2013-08-03T10:11:35Z</time>
      </trkpt>
      <trkpt lat="48.2698" lon="3.22284">
        <ele>71</ele>
        <time>2013-08-03T10:11:37Z</time>
      </trkpt>
      <trkpt lat="48.26978" lon="3.22277">
        <ele>71</ele>
        <time>2013-08-03T10:11:39Z</time>
      </trkpt>
      <trkpt lat="48.26977" lon="3.2227">
        <ele>71</ele>
        <time>2013-08-03T10:11:41Z</time>
      </trkpt>
      <trkpt lat="48.26973" lon="3.22267">
        <ele>71</ele>
        <time>2013-08-03T10:11:45Z</time>
      </trkpt>
      <trkpt lat="48.26968" lon="3.22265">
        <ele>72</ele>
        <time>2013-08-03T10:11:50Z</time>
      </trkpt>
      <trkpt lat="48.26965" lon="3.22256">
        <ele>72</ele>
        <time>2013-08-03T10:12:01Z</time>
      </trkpt>
      <trkpt lat="48.26962" lon="3.2225">
        <ele>72</ele>
        <time>2013-08-03T10:12:04Z</time>
      </trkpt>
      <trkpt lat="48.26959" lon="3.22243">
        <ele>74</ele>
        <time>2013-08-03T10:12:06Z</time>
      </trkpt>
      <trkpt lat="48.26957" lon="3.22236">
        <ele>74</ele>
        <time>2013-08-03T10:12:08Z</time>
      </trkpt>
      <trkpt lat="48.26954" lon="3.22232">
        <ele>74</ele>
        <time>2013-08-03T10:12:13Z</time>
      </trkpt>
      <trkpt lat="48.2695" lon="3.22225">
        <ele>74</ele>
        <time>2013-08-03T10:12:19Z</time>
      </trkpt>
      <trkpt lat="48.26948" lon="3.22218">
        <ele>74</ele>
        <time>2013-08-03T10:12:21Z</time>
      </trkpt>
      <trkpt lat="48.26945" lon="3.2221">
        <ele>75</ele>
        <time>2013-08-03T10:12:24Z</time>
      </trkpt>
      <trkpt lat="48.26941" lon="3.22206">
        <ele>75</ele>
        <time>2013-08-03T10:12:30Z</time>
      </trkpt>
      <trkpt lat="48.26938" lon="3.22197">
        <ele>75</ele>
        <time>2013-08-03T10:12:33Z</time>
      </trkpt>
      <trkpt lat="48.26934" lon="3.22194">
        <ele>75</ele>
        <time>2013-08-03T10:12:36Z</time>
      </trkpt>
      <trkpt lat="48.26929" lon="3.2219">
        <ele>75</ele>
        <time>2013-08-03T10:12:39Z</time>
      </trkpt>
      <trkpt lat="48.26924" lon="3.22191">
        <ele>76</ele>
        <time>2013-08-03T10:12:42Z</time>
      </trkpt>
      <trkpt lat="48.26922" lon="3.22197">
        <ele>76</ele>
        <time>2013-08-03T10:12:47Z</time>
      </trkpt>
      <trkpt lat="48.26918" lon="3.22205">
        <ele>76</ele>
        <time>2013-08-03T10:12:55Z</time>
      </trkpt>
      <trkpt lat="48.26916" lon="3.22211">
        <ele>81</ele>
        <time>2013-08-03T10:12:58Z</time>
      </trkpt>
      <trkpt lat="48.26915" lon="3.22218">
        <ele>81</ele>
        <time>2013-08-03T10:13:01Z</time>
      </trkpt>
      <trkpt lat="48.26912" lon="3.22225">
        <ele>81</ele>
        <time>2013-08-03T10:13:04Z</time>
      </trkpt>
      <trkpt lat="48.26907" lon="3.22229">
        <ele>81</ele>
        <time>2013-08-03T10:13:08Z</time>
      </trkpt>
      <trkpt lat="48.26904" lon="3.22229">
        <ele>81</ele>
        <time>2013-08-03T10:13:17Z</time>
      </trkpt>
      <trkpt lat="48.26901" lon="3.22235">
        <ele>81</ele>
        <time>2013-08-03T10:13:23Z</time>
      </trkpt>
      <trkpt lat="48.269" lon="3.22242">
        <ele>81</ele>
        <time>2013-08-03T10:13:27Z</time>
      </trkpt>
      <trkpt lat="48.26897" lon="3.2225">
        <ele>81</ele>
        <time>2013-08-03T10:13:31Z</time>
      </trkpt>
      <trkpt lat="48.26893" lon="3.22254">
        <ele>81</ele>
        <time>2013-08-03T10:13:37Z</time>
      </trkpt>
      <trkpt lat="48.2689" lon="3.22261">
        <ele>81</ele>
        <time>2013-08-03T10:13:42Z</time>
      </trkpt>
      <trkpt lat="48.26886" lon="3.22266">
        <ele>82</ele>
        <time>2013-08-03T10:13:46Z</time>
      </trkpt>
      <trkpt lat="48.26882" lon="3.22271">
        <ele>82</ele>
        <time>2013-08-03T10:13:50Z</time>
      </trkpt>
      <trkpt lat="48.26879" lon="3.22278">
        <ele>82</ele>
        <time>2013-08-03T10:13:54Z</time>
      </trkpt>
      <trkpt lat="48.26876" lon="3.22285">
        <ele>82</ele>
        <time>2013-08-03T10:13:59Z</time>
      </trkpt>
      <trkpt lat="48.26874" lon="3.22292">
        <ele>82</ele>
        <time>2013-08-03T10:14:03Z</time>
      </trkpt>
      <trkpt lat="48.26872" lon="3.22299">
        <ele>82</ele>
        <time>2013-08-03T10:14:07Z</time>
      </trkpt>
      <trkpt lat="48.26869" lon="3.22306">
        <ele>82</ele>
        <time>2013-08-03T10:14:11Z</time>
      </trkpt>
      <trkpt lat="48.26867" lon="3.22314">
        <ele>82</ele>
        <time>2013-08-03T10:14:15Z</time>
      </trkpt>
      <trkpt lat="48.26865" lon="3.22321">
        <ele>82</ele>
        <time>2013-08-03T10:14:20Z</time>
      </trkpt>
      <trkpt lat="48.26861" lon="3.22325">
        <ele>83</ele>
        <time>2013-08-03T10:14:25Z</time>
      </trkpt>
      <trkpt lat="48.26857" lon="3.22332">
        <ele>83</ele>
        <time>2013-08-03T10:14:30Z</time>
      </trkpt>
      <trkpt lat="48.26853" lon="3.22338">
        <ele>82</ele>
        <time>2013-08-03T10:14:34Z</time>
      </trkpt>
      <trkpt lat="48.2685" lon="3.22345">
        <ele>82</ele>
        <time>2013-08-03T10:14:38Z</time>
      </trkpt>
      <trkpt lat="48.26847" lon="3.2235">
        <ele>82</ele>
        <time>2013-08-03T10:14:41Z</time>
      </trkpt>
      <trkpt lat="48.26842" lon="3.22356">
        <ele>82</ele>
        <time>2013-08-03T10:14:45Z</time>
      </trkpt>
      <trkpt lat="48.2684" lon="3.22362">
        <ele>82</ele>
        <time>2013-08-03T10:14:49Z</time>
      </trkpt>
      <trkpt lat="48.26834" lon="3.22366">
        <ele>82</ele>
        <time>2013-08-03T10:14:52Z</time>
      </trkpt>
      <trkpt lat="48.26828" lon="3.22369">
        <ele>90</ele>
        <time>2013-08-03T10:14:54Z</time>
      </trkpt>
      <trkpt lat="48.26824" lon="3.22374">
        <ele>90</ele>
        <time>2013-08-03T10:14:58Z</time>
      </trkpt>
      <trkpt lat="48.26823" lon="3.22381">
        <ele>90</ele>
        <time>2013-08-03T10:15:02Z</time>
      </trkpt>
      <trkpt lat="48.26821" lon="3.22389">
        <ele>90</ele>
        <time>2013-08-03T10:15:07Z</time>
      </trkpt>
      <trkpt lat="48.2682" lon="3.22397">
        <ele>89</ele>
        <time>2013-08-03T10:15:12Z</time>
      </trkpt>
      <trkpt lat="48.26818" lon="3.22403">
        <ele>89</ele>
        <time>2013-08-03T10:15:17Z</time>
      </trkpt>
      <trkpt lat="48.26815" lon="3.22409">
        <ele>89</ele>
        <time>2013-08-03T10:15:21Z</time>
      </trkpt>
      <trkpt lat="48.26812" lon="3.22415">
        <ele>90</ele>
        <time>2013-08-03T10:15:25Z</time>
      </trkpt>
      <trkpt lat="48.2681" lon="3.22423">
        <ele>89</ele>
        <time>2013-08-03T10:15:30Z</time>
      </trkpt>
      <trkpt lat="48.26807" lon="3.2243">
        <ele>89</ele>
        <time>2013-08-03T10:15:34Z</time>
      </trkpt>
      <trkpt lat="48.26805" lon="3.22436">
        <ele>89</ele>
        <time>2013-08-03T10:15:38Z</time>
      </trkpt>
      <trkpt lat="48.26803" lon="3.22443">
        <ele>90</ele>
        <time>2013-08-03T10:15:42Z</time>
      </trkpt>
      <trkpt lat="48.268" lon="3.22449">
        <ele>90</ele>
        <time>2013-08-03T10:15:46Z</time>
      </trkpt>
      <trkpt lat="48.26797" lon="3.22456">
        <ele>90</ele>
        <time>2013-08-03T10:15:50Z</time>
      </trkpt>
      <trkpt lat="48.26795" lon="3.22462">
        <ele>90</ele>
        <time>2013-08-03T10:15:54Z</time>
      </trkpt>
      <trkpt lat="48.26794" lon="3.22471">
        <ele>90</ele>
        <time>2013-08-03T10:15:58Z</time>
      </trkpt>
      <trkpt lat="48.26794" lon="3.2248">
        <ele>90</ele>
        <time>2013-08-03T10:16:01Z</time>
      </trkpt>
      <trkpt lat="48.2679" lon="3.22486">
        <ele>90</ele>
        <time>2013-08-03T10:16:05Z</time>
      </trkpt>
      <trkpt lat="48.26785" lon="3.22486">
        <ele>91</ele>
        <time>2013-08-03T10:16:17Z</time>
      </trkpt>
      <trkpt lat="48.26781" lon="3.2249">
        <ele>92</ele>
        <time>2013-08-03T10:16:20Z</time>
      </trkpt>
      <trkpt lat="48.26776" lon="3.22494">
        <ele>93</ele>
        <time>2013-08-03T10:16:23Z</time>
      </trkpt>
      <trkpt lat="48.26771" lon="3.22499">
        <ele>94</ele>
        <time>2013-08-03T10:16:27Z</time>
      </trkpt>
      <trkpt lat="48.2677" lon="3.22506">
        <ele>90</ele>
        <time>2013-08-03T10:16:31Z</time>
      </trkpt>
      <trkpt lat="48.26766" lon="3.2251">
        <ele>91</ele>
        <time>2013-08-03T10:16:35Z</time>
      </trkpt>
      <trkpt lat="48.26762" lon="3.22515">
        <ele>91</ele>
        <time>2013-08-03T10:16:38Z</time>
      </trkpt>
      <trkpt lat="48.26759" lon="3.22519">
        <ele>90</ele>
        <time>2013-08-03T10:16:41Z</time>
      </trkpt>
      <trkpt lat="48.26755" lon="3.22523">
        <ele>90</ele>
        <time>2013-08-03T10:16:45Z</time>
      </trkpt>
      <trkpt lat="48.2675" lon="3.22529">
        <ele>89</ele>
        <time>2013-08-03T10:17:04Z</time>
      </trkpt>
      <trkpt lat="48.26745" lon="3.22532">
        <ele>100</ele>
        <time>2013-08-03T10:17:08Z</time>
      </trkpt>
      <trkpt lat="48.26742" lon="3.22538">
        <ele>99</ele>
        <time>2013-08-03T10:17:13Z</time>
      </trkpt>
      <trkpt lat="48.26738" lon="3.22542">
        <ele>99</ele>
        <time>2013-08-03T10:17:17Z</time>
      </trkpt>
      <trkpt lat="48.26734" lon="3.22549">
        <ele>99</ele>
        <time>2013-08-03T10:17:32Z</time>
      </trkpt>
      <trkpt lat="48.26729" lon="3.22552">
        <ele>99</ele>
        <time>2013-08-03T10:17:34Z</time>
      </trkpt>
      <trkpt lat="48.26724" lon="3.22555">
        <ele>99</ele>
        <time>2013-08-03T10:17:38Z</time>
      </trkpt>
      <trkpt lat="48.26719" lon="3.22558">
        <ele>99</ele>
        <time>2013-08-03T10:17:43Z</time>
      </trkpt>
      <trkpt lat="48.26715" lon="3.22562">
        <ele>99</ele>
        <time>2013-08-03T10:17:51Z</time>
      </trkpt>
      <trkpt lat="48.26711" lon="3.22567">
        <ele>99</ele>
        <time>2013-08-03T10:17:55Z</time>
      </trkpt>
      <trkpt lat="48.26707" lon="3.22572">
        <ele>100</ele>
        <time>2013-08-03T10:17:59Z</time>
      </trkpt>
      <trkpt lat="48.26702" lon="3.22575">
        <ele>100</ele>
        <time>2013-08-03T10:18:03Z</time>
      </trkpt>
      <trkpt lat="48.26697" lon="3.22576">
        <ele>101</ele>
        <time>2013-08-03T10:18:11Z</time>
      </trkpt>
      <trkpt lat="48.26693" lon="3.22578">
        <ele>101</ele>
        <time>2013-08-03T10:18:18Z</time>
      </trkpt>
      <trkpt lat="48.26688" lon="3.22581">
        <ele>101</ele>
        <time>2013-08-03T10:18:23Z</time>
      </trkpt>
      <trkpt lat="48.26683" lon="3.22581">
        <ele>102</ele>
        <time>2013-08-03T10:18:28Z</time>
      </trkpt>
      <trkpt lat="48.26678" lon="3.22582">
        <ele>102</ele>
        <time>2013-08-03T10:18:33Z</time>
      </trkpt>
      <trkpt lat="48.26672" lon="3.22586">
        <ele>99</ele>
        <time>2013-08-03T10:18:40Z</time>
      </trkpt>
      <trkpt lat="48.26667" lon="3.22587">
        <ele>101</ele>
        <time>2013-08-03T10:18:44Z</time>
      </trkpt>
      <trkpt lat="48.26662" lon="3.22589">
        <ele>101</ele>
        <time>2013-08-03T10:18:48Z</time>
      </trkpt>
      <trkpt lat="48.26657" lon="3.2259">
        <ele>100</ele>
        <time>2013-08-03T10:18:52Z</time>
      </trkpt>
      <trkpt lat="48.26652" lon="3.22593">
        <ele>99</ele>
        <time>2013-08-03T10:18:56Z</time>
      </trkpt>
      <trkpt lat="48.26647" lon="3.22596">
        <ele>98</ele>
        <time>2013-08-03T10:19:01Z</time>
      </trkpt>
      <trkpt lat="48.26643" lon="3.22597">
        <ele>98</ele>
        <time>2013-08-03T10:19:07Z</time>
      </trkpt>
      <trkpt lat="48.26638" lon="3.22601">
        <ele>97</ele>
        <time>2013-08-03T10:19:12Z</time>
      </trkpt>
      <trkpt lat="48.26633" lon="3.22605">
        <ele>97</ele>
        <time>2013-08-03T10:19:17Z</time>
      </trkpt>
      <trkpt lat="48.26629" lon="3.22608">
        <ele>97</ele>
        <time>2013-08-03T10:19:21Z</time>
      </trkpt>
      <trkpt lat="48.26625" lon="3.22613">
        <ele>96</ele>
        <time>2013-08-03T10:19:26Z</time>
      </trkpt>
      <trkpt lat="48.26621" lon="3.22618">
        <ele>96</ele>
        <time>2013-08-03T10:19:30Z</time>
      </trkpt>
      <trkpt lat="48.26617" lon="3.22622">
        <ele>96</ele>
        <time>2013-08-03T10:19:34Z</time>
      </trkpt>
      <trkpt lat="48.26612" lon="3.22626">
        <ele>95</ele>
        <time>2013-08-03T10:19:38Z</time>
      </trkpt>
      <trkpt lat="48.26608" lon="3.2263">
        <ele>95</ele>
        <time>2013-08-03T10:19:42Z</time>
      </trkpt>
      <trkpt lat="48.26604" lon="3.22634">
        <ele>95</ele>
        <time>2013-08-03T10:19:46Z</time>
      </trkpt>
      <trkpt lat="48.26601" lon="3.2264">
        <ele>94</ele>
        <time>2013-08-03T10:19:51Z</time>
      </trkpt>
      <trkpt lat="48.26597" lon="3.22644">
        <ele>94</ele>
        <time>2013-08-03T10:19:57Z</time>
      </trkpt>
      <trkpt lat="48.26593" lon="3.22649">
        <ele>93</ele>
        <time>2013-08-03T10:20:00Z</time>
      </trkpt>
      <trkpt lat="48.26588" lon="3.22654">
        <ele>92</ele>
        <time>2013-08-03T10:20:04Z</time>
      </trkpt>
      <trkpt lat="48.26584" lon="3.22658">
        <ele>91</ele>
        <time>2013-08-03T10:20:07Z</time>
      </trkpt>
      <trkpt lat="48.26581" lon="3.22664">
        <ele>91</ele>
        <time>2013-08-03T10:20:11Z</time>
      </trkpt>
      <trkpt lat="48.26577" lon="3.2267">
        <ele>89</ele>
        <time>2013-08-03T10:20:17Z</time>
      </trkpt>
      <trkpt lat="48.26572" lon="3.22674">
        <ele>88</ele>
        <time>2013-08-03T10:20:21Z</time>
      </trkpt>
      <trkpt lat="48.26569" lon="3.22679">
        <ele>88</ele>
        <time>2013-08-03T10:20:27Z</time>
      </trkpt>
      <trkpt lat="48.26568" lon="3.22686">
        <ele>87</ele>
        <time>2013-08-03T10:20:32Z</time>
      </trkpt>
      <trkpt lat="48.26564" lon="3.22692">
        <ele>87</ele>
        <time>2013-08-03T10:20:39Z</time>
      </trkpt>
      <trkpt lat="48.2656" lon="3.22696">
        <ele>87</ele>
        <time>2013-08-03T10:20:44Z</time>
      </trkpt>
      <trkpt lat="48.26555" lon="3.22699">
        <ele>87</ele>
        <time>2013-08-03T10:20:49Z</time>
      </trkpt>
      <trkpt lat="48.2655" lon="3.22701">
        <ele>87</ele>
        <time>2013-08-03T10:20:52Z</time>
      </trkpt>
      <trkpt lat="48.26545" lon="3.22705">
        <ele>87</ele>
        <time>2013-08-03T10:20:55Z</time>
      </trkpt>
      <trkpt lat="48.26541" lon="3.22708">
        <ele>87</ele>
        <time>2013-08-03T10:20:58Z</time>
      </trkpt>
      <trkpt lat="48.26536" lon="3.22711">
        <ele>87</ele>
        <time>2013-08-03T10:21:02Z</time>
      </trkpt>
      <trkpt lat="48.26531" lon="3.22712">
        <ele>87</ele>
        <time>2013-08-03T10:21:07Z</time>
      </trkpt>
      <trkpt lat="48.2653" lon="3.22717">
        <ele>87</ele>
        <time>2013-08-03T10:21:14Z</time>
      </trkpt>
      <trkpt lat="48.26529" lon="3.22724">
        <ele>86</ele>
        <time>2013-08-03T10:21:26Z</time>
      </trkpt>
      <trkpt lat="48.26524" lon="3.22727">
        <ele>86</ele>
        <time>2013-08-03T10:21:32Z</time>
      </trkpt>
      <trkpt lat="48.2652" lon="3.22732">
        <ele>86</ele>
        <time>2013-08-03T10:21:36Z</time>
      </trkpt>
      <trkpt lat="48.26516" lon="3.22738">
        <ele>86</ele>
        <time>2013-08-03T10:21:40Z</time>
      </trkpt>
      <trkpt lat="48.26512" lon="3.22742">
        <ele>87</ele>
        <time>2013-08-03T10:21:45Z</time>
      </trkpt>
      <trkpt lat="48.26508" lon="3.22747">
        <ele>87</ele>
        <time>2013-08-03T10:21:52Z</time>
      </trkpt>
      <trkpt lat="48.26503" lon="3.22754">
        <ele>85</ele>
        <time>2013-08-03T10:22:11Z</time>
      </trkpt>
      <trkpt lat="48.26498" lon="3.22758">
        <ele>86</ele>
        <time>2013-08-03T10:22:16Z</time>
      </trkpt>
      <trkpt lat="48.26493" lon="3.22761">
        <ele>86</ele>
        <time>2013-08-03T10:22:23Z</time>
      </trkpt>
      <trkpt lat="48.26489" lon="3.22766">
        <ele>86</ele>
        <time>2013-08-03T10:22:27Z</time>
      </trkpt>
      <trkpt lat="48.26485" lon="3.22771">
        <ele>86</ele>
        <time>2013-08-03T10:22:31Z</time>
      </trkpt>
      <trkpt lat="48.26482" lon="3.22777">
        <ele>86</ele>
        <time>2013-08-03T10:22:37Z</time>
      </trkpt>
      <trkpt lat="48.26478" lon="3.22782">
        <ele>85</ele>
        <time>2013-08-03T10:22:42Z</time>
      </trkpt>
      <trkpt lat="48.26474" lon="3.22785">
        <ele>85</ele>
        <time>2013-08-03T10:22:46Z</time>
      </trkpt>
      <trkpt lat="48.26469" lon="3.22788">
        <ele>85</ele>
        <time>2013-08-03T10:22:50Z</time>
      </trkpt>
      <trkpt lat="48.26465" lon="3.22793">
        <ele>85</ele>
        <time>2013-08-03T10:22:54Z</time>
      </trkpt>
      <trkpt lat="48.2646" lon="3.22796">
        <ele>85</ele>
        <time>2013-08-03T10:22:59Z</time>
      </trkpt>
      <trkpt lat="48.26456" lon="3.228">
        <ele>85</ele>
        <time>2013-08-03T10:23:04Z</time>
      </trkpt>
      <trkpt lat="48.26452" lon="3.22803">
        <ele>85</ele>
        <time>2013-08-03T10:23:09Z</time>
      </trkpt>
      <trkpt lat="48.26447" lon="3.22808">
        <ele>85</ele>
        <time>2013-08-03T10:23:13Z</time>
      </trkpt>
      <trkpt lat="48.26443" lon="3.22812">
        <ele>85</ele>
        <time>2013-08-03T10:23:17Z</time>
      </trkpt>
      <trkpt lat="48.26439" lon="3.22817">
        <ele>85</ele>
        <time>2013-08-03T10:23:22Z</time>
      </trkpt>
      <trkpt lat="48.26435" lon="3.22822">
        <ele>86</ele>
        <time>2013-08-03T10:23:28Z</time>
      </trkpt>
      <trkpt lat="48.26431" lon="3.22827">
        <ele>86</ele>
        <time>2013-08-03T10:23:32Z</time>
      </trkpt>
      <trkpt lat="48.26427" lon="3.22833">
        <ele>86</ele>
        <time>2013-08-03T10:23:37Z</time>
      </trkpt>
      <trkpt lat="48.26425" lon="3.2284">
        <ele>83</ele>
        <time>2013-08-03T10:23:43Z</time>
      </trkpt>
      <trkpt lat="48.2642" lon="3.22844">
        <ele>83</ele>
        <time>2013-08-03T10:23:47Z</time>
      </trkpt>
      <trkpt lat="48.26417" lon="3.2285">
        <ele>84</ele>
        <time>2013-08-03T10:23:52Z</time>
      </trkpt>
      <trkpt lat="48.26413" lon="3.22856">
        <ele>84</ele>
        <time>2013-08-03T10:23:57Z</time>
      </trkpt>
      <trkpt lat="48.26409" lon="3.22861">
        <ele>84</ele>
        <time>2013-08-03T10:24:00Z</time>
      </trkpt>
      <trkpt lat="48.26405" lon="3.22866">
        <ele>83</ele>
        <time>2013-08-03T10:24:03Z</time>
      </trkpt>
      <trkpt lat="48.26402" lon="3.22871">
        <ele>83</ele>
        <time>2013-08-03T10:24:06Z</time>
      </trkpt>
      <trkpt lat="48.26398" lon="3.22875">
        <ele>83</ele>
        <time>2013-08-03T10:24:09Z</time>
      </trkpt>
      <trkpt lat="48.26394" lon="3.22882">
        <ele>83</ele>
        <time>2013-08-03T10:24:13Z</time>
      </trkpt>
      <trkpt lat="48.2639" lon="3.22888">
        <ele>82</ele>
        <time>2013-08-03T10:24:19Z</time>
      </trkpt>
      <trkpt lat="48.26387" lon="3.22894">
        <ele>82</ele>
        <time>2013-08-03T10:24:23Z</time>
      </trkpt>
      <trkpt lat="48.26383" lon="3.22899">
        <ele>82</ele>
        <time>2013-08-03T10:24:28Z</time>
      </trkpt>
      <trkpt lat="48.26379" lon="3.22903">
        <ele>82</ele>
        <time>2013-08-03T10:24:33Z</time>
      </trkpt>
      <trkpt lat="48.26375" lon="3.22906">
        <ele>82</ele>
        <time>2013-08-03T10:24:39Z</time>
      </trkpt>
      <trkpt lat="48.26369" lon="3.22908">
        <ele>82</ele>
        <time>2013-08-03T10:24:43Z</time>
      </trkpt>
      <trkpt lat="48.26366" lon="3.22914">
        <ele>82</ele>
        <time>2013-08-03T10:24:45Z</time>
      </trkpt>
      <trkpt lat="48.26362" lon="3.22919">
        <ele>77</ele>
        <time>2013-08-03T10:24:49Z</time>
      </trkpt>
      <trkpt lat="48.26358" lon="3.22922">
        <ele>77</ele>
        <time>2013-08-03T10:24:53Z</time>
      </trkpt>
      <trkpt lat="48.26353" lon="3.22923">
        <ele>78</ele>
        <time>2013-08-03T10:24:59Z</time>
      </trkpt>
      <trkpt lat="48.26348" lon="3.22926">
        <ele>78</ele>
        <time>2013-08-03T10:25:02Z</time>
      </trkpt>
      <trkpt lat="48.26344" lon="3.2293">
        <ele>78</ele>
        <time>2013-08-03T10:25:05Z</time>
      </trkpt>
      <trkpt lat="48.2634" lon="3.22934">
        <ele>78</ele>
        <time>2013-08-03T10:25:11Z</time>
      </trkpt>
      <trkpt lat="48.26335" lon="3.22939">
        <ele>77</ele>
        <time>2013-08-03T10:25:16Z</time>
      </trkpt>
      <trkpt lat="48.26331" lon="3.22942">
        <ele>77</ele>
        <time>2013-08-03T10:25:20Z</time>
      </trkpt>
      <trkpt lat="48.26327" lon="3.22942">
        <ele>76</ele>
        <time>2013-08-03T10:25:28Z</time>
      </trkpt>
      <trkpt lat="48.26322" lon="3.22946">
        <ele>76</ele>
        <time>2013-08-03T10:25:33Z</time>
      </trkpt>
      <trkpt lat="48.26318" lon="3.22949">
        <ele>75</ele>
        <time>2013-08-03T10:25:37Z</time>
      </trkpt>
      <trkpt lat="48.26313" lon="3.22951">
        <ele>75</ele>
        <time>2013-08-03T10:25:42Z</time>
      </trkpt>
      <trkpt lat="48.26309" lon="3.22956">
        <ele>74</ele>
        <time>2013-08-03T10:25:46Z</time>
      </trkpt>
      <trkpt lat="48.26305" lon="3.22961">
        <ele>74</ele>
        <time>2013-08-03T10:25:49Z</time>
      </trkpt>
      <trkpt lat="48.26301" lon="3.22966">
        <ele>74</ele>
        <time>2013-08-03T10:26:03Z</time>
      </trkpt>
      <trkpt lat="48.26296" lon="3.22969">
        <ele>73</ele>
        <time>2013-08-03T10:26:07Z</time>
      </trkpt>
      <trkpt lat="48.26291" lon="3.2297">
        <ele>73</ele>
        <time>2013-08-03T10:26:12Z</time>
      </trkpt>
      <trkpt lat="48.26286" lon="3.22972">
        <ele>73</ele>
        <time>2013-08-03T10:26:17Z</time>
      </trkpt>
      <trkpt lat="48.26282" lon="3.22974">
        <ele>73</ele>
        <time>2013-08-03T10:26:27Z</time>
      </trkpt>
      <trkpt lat="48.26278" lon="3.2298">
        <ele>72</ele>
        <time>2013-08-03T10:26:38Z</time>
      </trkpt>
      <trkpt lat="48.26272" lon="3.22984">
        <ele>72</ele>
        <time>2013-08-03T10:26:42Z</time>
      </trkpt>
      <trkpt lat="48.26266" lon="3.22985">
        <ele>72</ele>
        <time>2013-08-03T10:26:45Z</time>
      </trkpt>
      <trkpt lat="48.26261" lon="3.22983">
        <ele>72</ele>
        <time>2013-08-03T10:26:48Z</time>
      </trkpt>
      <trkpt lat="48.26257" lon="3.22982">
        <ele>71</ele>
        <time>2013-08-03T10:26:53Z</time>
      </trkpt>
      <trkpt lat="48.26252" lon="3.22985">
        <ele>71</ele>
        <time>2013-08-03T10:26:57Z</time>
      </trkpt>
      <trkpt lat="48.26248" lon="3.22989">
        <ele>70</ele>
        <time>2013-08-03T10:27:01Z</time>
      </trkpt>
      <trkpt lat="48.26243" lon="3.22987">
        <ele>70</ele>
        <time>2013-08-03T10:27:07Z</time>
      </trkpt>
      <trkpt lat="48.26239" lon="3.22989">
        <ele>70</ele>
        <time>2013-08-03T10:27:13Z</time>
      </trkpt>
      <trkpt lat="48.26234" lon="3.22992">
        <ele>70</ele>
        <time>2013-08-03T10:27:18Z</time>
      </trkpt>
      <trkpt lat="48.2623" lon="3.22997">
        <ele>70</ele>
        <time>2013-08-03T10:27:23Z</time>
      </trkpt>
      <trkpt lat="48.26225" lon="3.23">
        <ele>69</ele>
        <time>2013-08-03T10:27:28Z</time>
      </trkpt>
      <trkpt lat="48.2622" lon="3.23">
        <ele>71</ele>
        <time>2013-08-03T10:27:34Z</time>
      </trkpt>
      <trkpt lat="48.26216" lon="3.23003">
        <ele>69</ele>
        <time>2013-08-03T10:27:38Z</time>
      </trkpt>
      <trkpt lat="48.26212" lon="3.23007">
        <ele>69</ele>
        <time>2013-08-03T10:27:42Z</time>
      </trkpt>
      <trkpt lat="48.26207" lon="3.2301">
        <ele>69</ele>
        <time>2013-08-03T10:27:47Z</time>
      </trkpt>
      <trkpt lat="48.26203" lon="3.23019">
        <ele>69</ele>
        <time>2013-08-03T10:28:05Z</time>
      </trkpt>
      <trkpt lat="48.26199" lon="3.23027">
        <ele>69</ele>
        <time>2013-08-03T10:28:09Z</time>
      </trkpt>
      <trkpt lat="48.26195" lon="3.23034">
        <ele>68</ele>
        <time>2013-08-03T10:28:23Z</time>
      </trkpt>
      <trkpt lat="48.26191" lon="3.23041">
        <ele>68</ele>
        <time>2013-08-03T10:28:29Z</time>
      </trkpt>
      <trkpt lat="48.26186" lon="3.23045">
        <ele>68</ele>
        <time>2013-08-03T10:28:32Z</time>
      </trkpt>
      <trkpt lat="48.26182" lon="3.23049">
        <ele>68</ele>
        <time>2013-08-03T10:28:35Z</time>
      </trkpt>
      <trkpt lat="48.26178" lon="3.23054">
        <ele>68</ele>
        <time>2013-08-03T10:28:39Z</time>
      </trkpt>
      <trkpt lat="48.26174" lon="3.23058">
        <ele>68</ele>
        <time>2013-08-03T10:28:46Z</time>
      </trkpt>
      <trkpt lat="48.2617" lon="3.23063">
        <ele>68</ele>
        <time>2013-08-03T10:28:50Z</time>
      </trkpt>
      <trkpt lat="48.26167" lon="3.23068">
        <ele>71</ele>
        <time>2013-08-03T10:28:54Z</time>
      </trkpt>
      <trkpt lat="48.26163" lon="3.23072">
        <ele>70</ele>
        <time>2013-08-03T10:28:57Z</time>
      </trkpt>
      <trkpt lat="48.26159" lon="3.23076">
        <ele>70</ele>
        <time>2013-08-03T10:29:01Z</time>
      </trkpt>
      <trkpt lat="48.26153" lon="3.2308">
        <ele>71</ele>
        <time>2013-08-03T10:29:05Z</time>
      </trkpt>
      <trkpt lat="48.26148" lon="3.23082">
        <ele>71</ele>
        <time>2013-08-03T10:29:08Z</time>
      </trkpt>
      <trkpt lat="48.26143" lon="3.23085">
        <ele>69</ele>
        <time>2013-08-03T10:29:12Z</time>
      </trkpt>
      <trkpt lat="48.26139" lon="3.23088">
        <ele>69</ele>
        <time>2013-08-03T10:29:16Z</time>
      </trkpt>
      <trkpt lat="48.26135" lon="3.23091">
        <ele>70</ele>
        <time>2013-08-03T10:29:21Z</time>
      </trkpt>
      <trkpt lat="48.26131" lon="3.23095">
        <ele>70</ele>
        <time>2013-08-03T10:29:25Z</time>
      </trkpt>
      <trkpt lat="48.26126" lon="3.23097">
        <ele>70</ele>
        <time>2013-08-03T10:29:29Z</time>
      </trkpt>
      <trkpt lat="48.26122" lon="3.23101">
        <ele>70</ele>
        <time>2013-08-03T10:29:33Z</time>
      </trkpt>
      <trkpt lat="48.26117" lon="3.23105">
        <ele>70</ele>
        <time>2013-08-03T10:29:37Z</time>
      </trkpt>
      <trkpt lat="48.26113" lon="3.23109">
        <ele>71</ele>
        <time>2013-08-03T10:29:41Z</time>
      </trkpt>
      <trkpt lat="48.26108" lon="3.23113">
        <ele>71</ele>
        <time>2013-08-03T10:29:45Z</time>
      </trkpt>
      <trkpt lat="48.26103" lon="3.23117">
        <ele>71</ele>
        <time>2013-08-03T10:29:49Z</time>
      </trkpt>
      <trkpt lat="48.26099" lon="3.23121">
        <ele>70</ele>
        <time>2013-08-03T10:29:53Z</time>
      </trkpt>
      <trkpt lat="48.26094" lon="3.23125">
        <ele>70</ele>
        <time>2013-08-03T10:29:57Z</time>
      </trkpt>
      <trkpt lat="48.2609" lon="3.2313">
        <ele>70</ele>
        <time>2013-08-03T10:30:01Z</time>
      </trkpt>
      <trkpt lat="48.26086" lon="3.23133">
        <ele>70</ele>
        <time>2013-08-03T10:30:05Z</time>
      </trkpt>
      <trkpt lat="48.26081" lon="3.23135">
        <ele>74</ele>
        <time>2013-08-03T10:30:09Z</time>
      </trkpt>
      <trkpt lat="48.26077" lon="3.23139">
        <ele>73</ele>
        <time>2013-08-03T10:30:13Z</time>
      </trkpt>
      <trkpt lat="48.26072" lon="3.23143">
        <ele>73</ele>
        <time>2013-08-03T10:30:17Z</time>
      </trkpt>
      <trkpt lat="48.26068" lon="3.23146">
        <ele>73</ele>
        <time>2013-08-03T10:30:21Z</time>
      </trkpt>
      <trkpt lat="48.26063" lon="3.23149">
        <ele>73</ele>
        <time>2013-08-03T10:30:25Z</time>
      </trkpt>
      <trkpt lat="48.26058" lon="3.23153">
        <ele>73</ele>
        <time>2013-08-03T10:30:29Z</time>
      </trkpt>
      <trkpt lat="48.26054" lon="3.23157">
        <ele>73</ele>
        <time>2013-08-03T10:30:33Z</time>
      </trkpt>
      <trkpt lat="48.2605" lon="3.23161">
        <ele>74</ele>
        <time>2013-08-03T10:30:37Z</time>
      </trkpt>
      <trkpt lat="48.26046" lon="3.23166">
        <ele>74</ele>
        <time>2013-08-03T10:30:41Z</time>
      </trkpt>
      <trkpt lat="48.26041" lon="3.23168">
        <ele>69</ele>
        <time>2013-08-03T10:30:45Z</time>
      </trkpt>
      <trkpt lat="48.26036" lon="3.23171">
        <ele>69</ele>
        <time>2013-08-03T10:30:50Z</time>
      </trkpt>
      <trkpt lat="48.26032" lon="3.23173">
        <ele>69</ele>
        <time>2013-08-03T10:30:54Z</time>
      </trkpt>
      <trkpt lat="48.26027" lon="3.23174">
        <ele>69</ele>
        <time>2013-08-03T10:30:58Z</time>
      </trkpt>
      <trkpt lat="48.26023" lon="3.23178">
        <ele>70</ele>
        <time>2013-08-03T10:31:02Z</time>
      </trkpt>
      <trkpt lat="48.26018" lon="3.23181">
        <ele>70</ele>
        <time>2013-08-03T10:31:06Z</time>
      </trkpt>
      <trkpt lat="48.26014" lon="3.2318">
        <ele>70</ele>
        <time>2013-08-03T10:31:10Z</time>
      </trkpt>
      <trkpt lat="48.26009" lon="3.23177">
        <ele>71</ele>
        <time>2013-08-03T10:31:14Z</time>
      </trkpt>
      <trkpt lat="48.26004" lon="3.23176">
        <ele>72</ele>
        <time>2013-08-03T10:31:19Z</time>
      </trkpt>
      <trkpt lat="48.25998" lon="3.23172">
        <ele>74</ele>
        <time>2013-08-03T10:31:43Z</time>
      </trkpt>
      <trkpt lat="48.25994" lon="3.2317">
        <ele>74</ele>
        <time>2013-08-03T10:31:47Z</time>
      </trkpt>
      <trkpt lat="48.25989" lon="3.23168">
        <ele>73</ele>
        <time>2013-08-03T10:31:51Z</time>
      </trkpt>
      <trkpt lat="48.25984" lon="3.23166">
        <ele>77</ele>
        <time>2013-08-03T10:31:55Z</time>
      </trkpt>
      <trkpt lat="48.25979" lon="3.23165">
        <ele>78</ele>
        <time>2013-08-03T10:31:59Z</time>
      </trkpt>
      <trkpt lat="48.25974" lon="3.23164">
        <ele>78</ele>
        <time>2013-08-03T10:32:03Z</time>
      </trkpt>
      <trkpt lat="48.25969" lon="3.23164">
        <ele>79</ele>
        <time>2013-08-03T10:32:07Z</time>
      </trkpt>
      <trkpt lat="48.25963" lon="3.23164">
        <ele>79</ele>
        <time>2013-08-03T10:32:12Z</time>
      </trkpt>
      <trkpt lat="48.25959" lon="3.23166">
        <ele>79</ele>
        <time>2013-08-03T10:32:16Z</time>
      </trkpt>
      <trkpt lat="48.25954" lon="3.23167">
        <ele>74</ele>
        <time>2013-08-03T10:32:21Z</time>
      </trkpt>
      <trkpt lat="48.25949" lon="3.23168">
        <ele>74</ele>
        <time>2013-08-03T10:32:25Z</time>
      </trkpt>
      <trkpt lat="48.25944" lon="3.2317">
        <ele>75</ele>
        <time>2013-08-03T10:32:29Z</time>
      </trkpt>
      <trkpt lat="48.25939" lon="3.23171">
        <ele>75</ele>
        <time>2013-08-03T10:32:34Z</time>
      </trkpt>
      <trkpt lat="48.25935" lon="3.23172">
        <ele>76</ele>
        <time>2013-08-03T10:32:39Z</time>
      </trkpt>
      <trkpt lat="48.25929" lon="3.23174">
        <ele>76</ele>
        <time>2013-08-03T10:32:44Z</time>
      </trkpt>
      <trkpt lat="48.25924" lon="3.23175">
        <ele>77</ele>
        <time>2013-08-03T10:32:49Z</time>
      </trkpt>
      <trkpt lat="48.2592" lon="3.23178">
        <ele>76</ele>
        <time>2013-08-03T10:32:53Z</time>
      </trkpt>
      <trkpt lat="48.25915" lon="3.23181">
        <ele>79</ele>
        <time>2013-08-03T10:32:58Z</time>
      </trkpt>
      <trkpt lat="48.2591" lon="3.23183">
        <ele>79</ele>
        <time>2013-08-03T10:33:03Z</time>
      </trkpt>
      <trkpt lat="48.25906" lon="3.23185">
        <ele>79</ele>
        <time>2013-08-03T10:33:08Z</time>
      </trkpt>
      <trkpt lat="48.25901" lon="3.23188">
        <ele>79</ele>
        <time>2013-08-03T10:33:12Z</time>
      </trkpt>
      <trkpt lat="48.25897" lon="3.23191">
        <ele>79</ele>
        <time>2013-08-03T10:33:18Z</time>
      </trkpt>
      <trkpt lat="48.25891" lon="3.23192">
        <ele>80</ele>
        <time>2013-08-03T10:33:23Z</time>
      </trkpt>
      <trkpt lat="48.25887" lon="3.23192">
        <ele>80</ele>
        <time>2013-08-03T10:33:28Z</time>
      </trkpt>
      <trkpt lat="48.2588" lon="3.23195">
        <ele>80</ele>
        <time>2013-08-03T10:33:43Z</time>
      </trkpt>
      <trkpt lat="48.25875" lon="3.23195">
        <ele>80</ele>
        <time>2013-08-03T10:33:48Z</time>
      </trkpt>
      <trkpt lat="48.25871" lon="3.23198">
        <ele>81</ele>
        <time>2013-08-03T10:33:53Z</time>
      </trkpt>
      <trkpt lat="48.25867" lon="3.23202">
        <ele>81</ele>
        <time>2013-08-03T10:33:56Z</time>
      </trkpt>
      <trkpt lat="48.25862" lon="3.23205">
        <ele>81</ele>
        <time>2013-08-03T10:33:58Z</time>
      </trkpt>
      <trkpt lat="48.25857" lon="3.23211">
        <ele>81</ele>
        <time>2013-08-03T10:34:01Z</time>
      </trkpt>
      <trkpt lat="48.25852" lon="3.23212">
        <ele>81</ele>
        <time>2013-08-03T10:34:08Z</time>
      </trkpt>
      <trkpt lat="48.25847" lon="3.23212">
        <ele>81</ele>
        <time>2013-08-03T10:34:14Z</time>
      </trkpt>
      <trkpt lat="48.25842" lon="3.23213">
        <ele>81</ele>
        <time>2013-08-03T10:34:18Z</time>
      </trkpt>
      <trkpt lat="48.25837" lon="3.23214">
        <ele>81</ele>
        <time>2013-08-03T10:34:21Z</time>
      </trkpt>
      <trkpt lat="48.25832" lon="3.23212">
        <ele>87</ele>
        <time>2013-08-03T10:34:24Z</time>
      </trkpt>
      <trkpt lat="48.25829" lon="3.23218">
        <ele>86</ele>
        <time>2013-08-03T10:34:34Z</time>
      </trkpt>
      <trkpt lat="48.25824" lon="3.2322">
        <ele>87</ele>
        <time>2013-08-03T10:34:37Z</time>
      </trkpt>
      <trkpt lat="48.25819" lon="3.23221">
        <ele>87</ele>
        <time>2013-08-03T10:34:41Z</time>
      </trkpt>
      <trkpt lat="48.25814" lon="3.23222">
        <ele>87</ele>
        <time>2013-08-03T10:34:44Z</time>
      </trkpt>
      <trkpt lat="48.25808" lon="3.23224">
        <ele>87</ele>
        <time>2013-08-03T10:34:48Z</time>
      </trkpt>
      <trkpt lat="48.25803" lon="3.23225">
        <ele>87</ele>
        <time>2013-08-03T10:34:50Z</time>
      </trkpt>
      <trkpt lat="48.25798" lon="3.23227">
        <ele>87</ele>
        <time>2013-08-03T10:34:52Z</time>
      </trkpt>
      <trkpt lat="48.25795" lon="3.23231">
        <ele>88</ele>
        <time>2013-08-03T10:34:57Z</time>
      </trkpt>
      <trkpt lat="48.25792" lon="3.23236">
        <ele>88</ele>
        <time>2013-08-03T10:35:03Z</time>
      </trkpt>
      <trkpt lat="48.25787" lon="3.23238">
        <ele>88</ele>
        <time>2013-08-03T10:35:07Z</time>
      </trkpt>
      <trkpt lat="48.25783" lon="3.23241">
        <ele>88</ele>
        <time>2013-08-03T10:35:11Z</time>
      </trkpt>
      <trkpt lat="48.25776" lon="3.23244">
        <ele>88</ele>
        <time>2013-08-03T10:35:14Z</time>
      </trkpt>
      <trkpt lat="48.25772" lon="3.23246">
        <ele>89</ele>
        <time>2013-08-03T10:35:16Z</time>
      </trkpt>
      <trkpt lat="48.25766" lon="3.23248">
        <ele>89</ele>
        <time>2013-08-03T10:35:19Z</time>
      </trkpt>
      <trkpt lat="48.25762" lon="3.23251">
        <ele>87</ele>
        <time>2013-08-03T10:35:23Z</time>
      </trkpt>
      <trkpt lat="48.25758" lon="3.23255">
        <ele>87</ele>
        <time>2013-08-03T10:35:29Z</time>
      </trkpt>
      <trkpt lat="48.25753" lon="3.23256">
        <ele>88</ele>
        <time>2013-08-03T10:35:32Z</time>
      </trkpt>
      <trkpt lat="48.25749" lon="3.23259">
        <ele>90</ele>
        <time>2013-08-03T10:35:36Z</time>
      </trkpt>
      <trkpt lat="48.25745" lon="3.23264">
        <ele>89</ele>
        <time>2013-08-03T10:35:43Z</time>
      </trkpt>
      <trkpt lat="48.2574" lon="3.23266">
        <ele>89</ele>
        <time>2013-08-03T10:35:47Z</time>
      </trkpt>
      <trkpt lat="48.25735" lon="3.23266">
        <ele>89</ele>
        <time>2013-08-03T10:35:49Z</time>
      </trkpt>
      <trkpt lat="48.25731" lon="3.23268">
        <ele>89</ele>
        <time>2013-08-03T10:35:52Z</time>
      </trkpt>
      <trkpt lat="48.25724" lon="3.23274">
        <ele>89</ele>
        <time>2013-08-03T10:36:06Z</time>
      </trkpt>
      <trkpt lat="48.2572" lon="3.23278">
        <ele>89</ele>
        <time>2013-08-03T10:36:09Z</time>
      </trkpt>
      <trkpt lat="48.25716" lon="3.23282">
        <ele>89</ele>
        <time>2013-08-03T10:36:15Z</time>
      </trkpt>
      <trkpt lat="48.25711" lon="3.23287">
        <ele>89</ele>
        <time>2013-08-03T10:36:18Z</time>
      </trkpt>
      <trkpt lat="48.25709" lon="3.2329">
        <ele>90</ele>
        <time>2013-08-03T10:36:25Z</time>
      </trkpt>
      <trkpt lat="48.25704" lon="3.2329">
        <ele>90</ele>
        <time>2013-08-03T10:36:33Z</time>
      </trkpt>
      <trkpt lat="48.25699" lon="3.23291">
        <ele>90</ele>
        <time>2013-08-03T10:36:36Z</time>
      </trkpt>
      <trkpt lat="48.25693" lon="3.23295">
        <ele>90</ele>
        <time>2013-08-03T10:36:39Z</time>
      </trkpt>
      <trkpt lat="48.25689" lon="3.23296">
        <ele>90</ele>
        <time>2013-08-03T10:36:44Z</time>
      </trkpt>
      <trkpt lat="48.25684" lon="3.23297">
        <ele>91</ele>
        <time>2013-08-03T10:36:49Z</time>
      </trkpt>
      <trkpt lat="48.25678" lon="3.23298">
        <ele>91</ele>
        <time>2013-08-03T10:36:54Z</time>
      </trkpt>
      <trkpt lat="48.25673" lon="3.23301">
        <ele>91</ele>
        <time>2013-08-03T10:36:58Z</time>
      </trkpt>
      <trkpt lat="48.25668" lon="3.23305">
        <ele>91</ele>
        <time>2013-08-03T10:37:02Z</time>
      </trkpt>
      <trkpt lat="48.25663" lon="3.23308">
        <ele>93</ele>
        <time>2013-08-03T10:37:07Z</time>
      </trkpt>
      <trkpt lat="48.25659" lon="3.23309">
        <ele>93</ele>
        <time>2013-08-03T10:37:16Z</time>
      </trkpt>
      <trkpt lat="48.25655" lon="3.23313">
        <ele>93</ele>
        <time>2013-08-03T10:37:34Z</time>
      </trkpt>
      <trkpt lat="48.25651" lon="3.23316">
        <ele>93</ele>
        <time>2013-08-03T10:37:37Z</time>
      </trkpt>
      <trkpt lat="48.25645" lon="3.23315">
        <ele>93</ele>
        <time>2013-08-03T10:37:41Z</time>
      </trkpt>
      <trkpt lat="48.25641" lon="3.23316">
        <ele>93</ele>
        <time>2013-08-03T10:37:49Z</time>
      </trkpt>
      <trkpt lat="48.25636" lon="3.23318">
        <ele>93</ele>
        <time>2013-08-03T10:37:55Z</time>
      </trkpt>
      <trkpt lat="48.2563" lon="3.23318">
        <ele>93</ele>
        <time>2013-08-03T10:38:00Z</time>
      </trkpt>
      <trkpt lat="48.25624" lon="3.23317">
        <ele>93</ele>
        <time>2013-08-03T10:38:03Z</time>
      </trkpt>
      <trkpt lat="48.25619" lon="3.23318">
        <ele>93</ele>
        <time>2013-08-03T10:38:07Z</time>
      </trkpt>
      <trkpt lat="48.25613" lon="3.23319">
        <ele>93</ele>
        <time>2013-08-03T10:38:17Z</time>
      </trkpt>
      <trkpt lat="48.25608" lon="3.23317">
        <ele>93</ele>
        <time>2013-08-03T10:38:19Z</time>
      </trkpt>
      <trkpt lat="48.25603" lon="3.23316">
        <ele>93</ele>
        <time>2013-08-03T10:38:21Z</time>
      </trkpt>
      <trkpt lat="48.25599" lon="3.23317">
        <ele>93</ele>
        <time>2013-08-03T10:38:25Z</time>
      </trkpt>
      <trkpt lat="48.25595" lon="3.2332">
        <ele>92</ele>
        <time>2013-08-03T10:38:29Z</time>
      </trkpt>
      <trkpt lat="48.25588" lon="3.23321">
        <ele>92</ele>
        <time>2013-08-03T10:38:32Z</time>
      </trkpt>
      <trkpt lat="48.25583" lon="3.23321">
        <ele>91</ele>
        <time>2013-08-03T10:38:35Z</time>
      </trkpt>
      <trkpt lat="48.25578" lon="3.23327">
        <ele>91</ele>
        <time>2013-08-03T10:38:45Z</time>
      </trkpt>
      <trkpt lat="48.25572" lon="3.23328">
        <ele>91</ele>
        <time>2013-08-03T10:38:48Z</time>
      </trkpt>
      <trkpt lat="48.25567" lon="3.23329">
        <ele>91</ele>
        <time>2013-08-03T10:38:50Z</time>
      </trkpt>
      <trkpt lat="48.25561" lon="3.2333">
        <ele>90</ele>
        <time>2013-08-03T10:38:52Z</time>
      </trkpt>
      <trkpt lat="48.25562" lon="3.23337">
        <ele>90</ele>
        <time>2013-08-03T10:39:00Z</time>
      </trkpt>
      <trkpt lat="48.25555" lon="3.23339">
        <ele>89</ele>
        <time>2013-08-03T10:39:09Z</time>
      </trkpt>
      <trkpt lat="48.2555" lon="3.2334">
        <ele>89</ele>
        <time>2013-08-03T10:39:11Z</time>
      </trkpt>
      <trkpt lat="48.25545" lon="3.2334">
        <ele>89</ele>
        <time>2013-08-03T10:39:13Z</time>
      </trkpt>
      <trkpt lat="48.25543" lon="3.23343">
        <ele>89</ele>
        <time>2013-08-03T10:39:27Z</time>
      </trkpt>
      <trkpt lat="48.25539" lon="3.23348">
        <ele>89</ele>
        <time>2013-08-03T10:39:32Z</time>
      </trkpt>
      <trkpt lat="48.25535" lon="3.2335">
        <ele>88</ele>
        <time>2013-08-03T10:39:37Z</time>
      </trkpt>
      <trkpt lat="48.2553" lon="3.23352">
        <ele>88</ele>
        <time>2013-08-03T10:39:39Z</time>
      </trkpt>
      <trkpt lat="48.25525" lon="3.23353">
        <ele>88</ele>
        <time>2013-08-03T10:39:42Z</time>
      </trkpt>
      <trkpt lat="48.25523" lon="3.2336">
        <ele>88</ele>
        <time>2013-08-03T10:39:49Z</time>
      </trkpt>
      <trkpt lat="48.25519" lon="3.23361">
        <ele>88</ele>
        <time>2013-08-03T10:39:52Z</time>
      </trkpt>
      <trkpt lat="48.25514" lon="3.23361">
        <ele>88</ele>
        <time>2013-08-03T10:39:54Z</time>
      </trkpt>
      <trkpt lat="48.25509" lon="3.23362">
        <ele>87</ele>
        <time>2013-08-03T10:39:56Z</time>
      </trkpt>
      <trkpt lat="48.25503" lon="3.23367">
        <ele>87</ele>
        <time>2013-08-03T10:40:08Z</time>
      </trkpt>
      <trkpt lat="48.25498" lon="3.23367">
        <ele>85</ele>
        <time>2013-08-03T10:40:10Z</time>
      </trkpt>
      <trkpt lat="48.25492" lon="3.23368">
        <ele>85</ele>
        <time>2013-08-03T10:40:13Z</time>
      </trkpt>
      <trkpt lat="48.25492" lon="3.23371">
        <ele>85</ele>
        <time>2013-08-03T10:40:19Z</time>
      </trkpt>
      <trkpt lat="48.25487" lon="3.23373">
        <ele>85</ele>
        <time>2013-08-03T10:40:23Z</time>
      </trkpt>
      <trkpt lat="48.25482" lon="3.23373">
        <ele>85</ele>
        <time>2013-08-03T10:40:25Z</time>
      </trkpt>
      <trkpt lat="48.25476" lon="3.23373">
        <ele>85</ele>
        <time>2013-08-03T10:40:27Z</time>
      </trkpt>
      <trkpt lat="48.25472" lon="3.23377">
        <ele>84</ele>
        <time>2013-08-03T10:40:35Z</time>
      </trkpt>
      <trkpt lat="48.25466" lon="3.23378">
        <ele>84</ele>
        <time>2013-08-03T10:40:38Z</time>
      </trkpt>
      <trkpt lat="48.25461" lon="3.23379">
        <ele>84</ele>
        <time>2013-08-03T10:40:40Z</time>
      </trkpt>
      <trkpt lat="48.25459" lon="3.23378">
        <ele>84</ele>
        <time>2013-08-03T10:40:45Z</time>
      </trkpt>
      <trkpt lat="48.25454" lon="3.23381">
        <ele>84</ele>
        <time>2013-08-03T10:40:50Z</time>
      </trkpt>
      <trkpt lat="48.25449" lon="3.23381">
        <ele>84</ele>
        <time>2013-08-03T10:40:52Z</time>
      </trkpt>
      <trkpt lat="48.25444" lon="3.23383">
        <ele>84</ele>
        <time>2013-08-03T10:40:55Z</time>
      </trkpt>
      <trkpt lat="48.25438" lon="3.23389">
        <ele>84</ele>
        <time>2013-08-03T10:41:13Z</time>
      </trkpt>
      <trkpt lat="48.25432" lon="3.23389">
        <ele>84</ele>
        <time>2013-08-03T10:41:15Z</time>
      </trkpt>
      <trkpt lat="48.25427" lon="3.23389">
        <ele>84</ele>
        <time>2013-08-03T10:41:18Z</time>
      </trkpt>
      <trkpt lat="48.25425" lon="3.23397">
        <ele>83</ele>
        <time>2013-08-03T10:42:01Z</time>
      </trkpt>
      <trkpt lat="48.25421" lon="3.23399">
        <ele>83</ele>
        <time>2013-08-03T10:43:12Z</time>
      </trkpt>
      <trkpt lat="48.25415" lon="3.23401">
        <ele>82</ele>
        <time>2013-08-03T10:43:17Z</time>
      </trkpt>
      <trkpt lat="48.2541" lon="3.23403">
        <ele>82</ele>
        <time>2013-08-03T10:43:21Z</time>
      </trkpt>
      <trkpt lat="48.25405" lon="3.23405">
        <ele>82</ele>
        <time>2013-08-03T10:43:25Z</time>
      </trkpt>
      <trkpt lat="48.254" lon="3.23406">
        <ele>82</ele>
        <time>2013-08-03T10:43:29Z</time>
      </trkpt>
      <trkpt lat="48.25395" lon="3.23406">
        <ele>81</ele>
        <time>2013-08-03T10:43:35Z</time>
      </trkpt>
      <trkpt lat="48.25389" lon="3.23409">
        <ele>81</ele>
        <time>2013-08-03T10:43:40Z</time>
      </trkpt>
      <trkpt lat="48.25384" lon="3.23412">
        <ele>81</ele>
        <time>2013-08-03T10:43:44Z</time>
      </trkpt>
      <trkpt lat="48.25379" lon="3.2341">
        <ele>81</ele>
        <time>2013-08-03T10:43:50Z</time>
      </trkpt>
      <trkpt lat="48.25374" lon="3.23414">
        <ele>81</ele>
        <time>2013-08-03T10:43:55Z</time>
      </trkpt>
      <trkpt lat="48.2537" lon="3.23417">
        <ele>81</ele>
        <time>2013-08-03T10:43:58Z</time>
      </trkpt>
      <trkpt lat="48.25364" lon="3.23419">
        <ele>81</ele>
        <time>2013-08-03T10:44:02Z</time>
      </trkpt>
      <trkpt lat="48.25359" lon="3.23421">
        <ele>81</ele>
        <time>2013-08-03T10:44:06Z</time>
      </trkpt>
      <trkpt lat="48.25354" lon="3.23422">
        <ele>81</ele>
        <time>2013-08-03T10:44:11Z</time>
      </trkpt>
      <trkpt lat="48.25349" lon="3.23427">
        <ele>80</ele>
        <time>2013-08-03T10:44:52Z</time>
      </trkpt>
      <trkpt lat="48.25344" lon="3.2343">
        <ele>80</ele>
        <time>2013-08-03T10:44:56Z</time>
      </trkpt>
      <trkpt lat="48.2534" lon="3.23433">
        <ele>80</ele>
        <time>2013-08-03T10:45:01Z</time>
      </trkpt>
      <trkpt lat="48.25335" lon="3.23437">
        <ele>81</ele>
        <time>2013-08-03T10:45:25Z</time>
      </trkpt>
      <trkpt lat="48.2533" lon="3.23439">
        <ele>79</ele>
        <time>2013-08-03T10:45:29Z</time>
      </trkpt>
      <trkpt lat="48.25326" lon="3.23442">
        <ele>79</ele>
        <time>2013-08-03T10:45:33Z</time>
      </trkpt>
      <trkpt lat="48.2532" lon="3.23444">
        <ele>79</ele>
        <time>2013-08-03T10:45:38Z</time>
      </trkpt>
      <trkpt lat="48.25315" lon="3.23445">
        <ele>79</ele>
        <time>2013-08-03T10:45:42Z</time>
      </trkpt>
      <trkpt lat="48.2531" lon="3.23445">
        <ele>79</ele>
        <time>2013-08-03T10:45:47Z</time>
      </trkpt>
      <trkpt lat="48.25304" lon="3.23448">
        <ele>79</ele>
        <time>2013-08-03T10:46:32Z</time>
      </trkpt>
      <trkpt lat="48.25297" lon="3.23449">
        <ele>79</ele>
        <time>2013-08-03T10:46:37Z</time>
      </trkpt>
      <trkpt lat="48.25292" lon="3.23452">
        <ele>79</ele>
        <time>2013-08-03T10:46:39Z</time>
      </trkpt>
      <trkpt lat="48.25287" lon="3.23454">
        <ele>79</ele>
        <time>2013-08-03T10:46:41Z</time>
      </trkpt>
      <trkpt lat="48.25285" lon="3.2346">
        <ele>79</ele>
        <time>2013-08-03T10:46:48Z</time>
      </trkpt>
      <trkpt lat="48.2528" lon="3.23461">
        <ele>79</ele>
        <time>2013-08-03T10:46:54Z</time>
      </trkpt>
      <trkpt lat="48.25275" lon="3.23461">
        <ele>79</ele>
        <time>2013-08-03T10:46:56Z</time>
      </trkpt>
      <trkpt lat="48.2527" lon="3.23461">
        <ele>79</ele>
        <time>2013-08-03T10:46:58Z</time>
      </trkpt>
      <trkpt lat="48.25265" lon="3.23461">
        <ele>79</ele>
        <time>2013-08-03T10:47:00Z</time>
      </trkpt>
      <trkpt lat="48.2526" lon="3.23468">
        <ele>79</ele>
        <time>2013-08-03T10:47:28Z</time>
      </trkpt>
      <trkpt lat="48.25255" lon="3.23468">
        <ele>79</ele>
        <time>2013-08-03T10:47:31Z</time>
      </trkpt>
      <trkpt lat="48.25248" lon="3.23469">
        <ele>77</ele>
        <time>2013-08-03T10:47:34Z</time>
      </trkpt>
      <trkpt lat="48.25246" lon="3.23476">
        <ele>77</ele>
        <time>2013-08-03T10:47:40Z</time>
      </trkpt>
      <trkpt lat="48.25241" lon="3.23478">
        <ele>77</ele>
        <time>2013-08-03T10:47:44Z</time>
      </trkpt>
      <trkpt lat="48.25235" lon="3.23478">
        <ele>77</ele>
        <time>2013-08-03T10:47:47Z</time>
      </trkpt>
      <trkpt lat="48.2523" lon="3.23479">
        <ele>77</ele>
        <time>2013-08-03T10:47:49Z</time>
      </trkpt>
      <trkpt lat="48.25225" lon="3.23479">
        <ele>77</ele>
        <time>2013-08-03T10:47:51Z</time>
      </trkpt>
      <trkpt lat="48.2522" lon="3.2348">
        <ele>76</ele>
        <time>2013-08-03T10:47:53Z</time>
      </trkpt>
      <trkpt lat="48.25214" lon="3.23482">
        <ele>76</ele>
        <time>2013-08-03T10:47:55Z</time>
      </trkpt>
      <trkpt lat="48.2521" lon="3.23482">
        <ele>76</ele>
        <time>2013-08-03T10:47:57Z</time>
      </trkpt>
      <trkpt lat="48.25207" lon="3.23485">
        <ele>76</ele>
        <time>2013-08-03T10:48:07Z</time>
      </trkpt>
      <trkpt lat="48.25203" lon="3.23491">
        <ele>76</ele>
        <time>2013-08-03T10:48:20Z</time>
      </trkpt>
      <trkpt lat="48.25199" lon="3.23494">
        <ele>76</ele>
        <time>2013-08-03T10:48:25Z</time>
      </trkpt>
      <trkpt lat="48.25194" lon="3.23495">
        <ele>76</ele>
        <time>2013-08-03T10:48:28Z</time>
      </trkpt>
      <trkpt lat="48.2519" lon="3.23494">
        <ele>76</ele>
        <time>2013-08-03T10:48:32Z</time>
      </trkpt>
      <trkpt lat="48.25183" lon="3.23493">
        <ele>76</ele>
        <time>2013-08-03T10:48:35Z</time>
      </trkpt>
      <trkpt lat="48.25178" lon="3.23494">
        <ele>75</ele>
        <time>2013-08-03T10:48:37Z</time>
      </trkpt>
      <trkpt lat="48.25173" lon="3.23494">
        <ele>75</ele>
        <time>2013-08-03T10:48:39Z</time>
      </trkpt>
      <trkpt lat="48.25173" lon="3.235">
        <ele>75</ele>
        <time>2013-08-03T10:48:50Z</time>
      </trkpt>
      <trkpt lat="48.25167" lon="3.23499">
        <ele>75</ele>
        <time>2013-08-03T10:48:53Z</time>
      </trkpt>
      <trkpt lat="48.25161" lon="3.23499">
        <ele>75</ele>
        <time>2013-08-03T10:48:56Z</time>
      </trkpt>
      <trkpt lat="48.2516" lon="3.23506">
        <ele>75</ele>
        <time>2013-08-03T10:49:03Z</time>
      </trkpt>
      <trkpt lat="48.25155" lon="3.23507">
        <ele>74</ele>
        <time>2013-08-03T10:49:08Z</time>
      </trkpt>
      <trkpt lat="48.25148" lon="3.23506">
        <ele>74</ele>
        <time>2013-08-03T10:49:11Z</time>
      </trkpt>
      <trkpt lat="48.25142" lon="3.23505">
        <ele>74</ele>
        <time>2013-08-03T10:49:13Z</time>
      </trkpt>
      <trkpt lat="48.2514" lon="3.23512">
        <ele>74</ele>
        <time>2013-08-03T10:49:19Z</time>
      </trkpt>
      <trkpt lat="48.25133" lon="3.23514">
        <ele>74</ele>
        <time>2013-08-03T10:49:31Z</time>
      </trkpt>
      <trkpt lat="48.25129" lon="3.23513">
        <ele>74</ele>
        <time>2013-08-03T10:49:33Z</time>
      </trkpt>
      <trkpt lat="48.25123" lon="3.23513">
        <ele>73</ele>
        <time>2013-08-03T10:49:35Z</time>
      </trkpt>
      <trkpt lat="48.25119" lon="3.23512">
        <ele>73</ele>
        <time>2013-08-03T10:49:37Z</time>
      </trkpt>
      <trkpt lat="48.25114" lon="3.23514">
        <ele>73</ele>
        <time>2013-08-03T10:49:41Z</time>
      </trkpt>
      <trkpt lat="48.25108" lon="3.23514">
        <ele>73</ele>
        <time>2013-08-03T10:49:45Z</time>
      </trkpt>
      <trkpt lat="48.25103" lon="3.23518">
        <ele>73</ele>
        <time>2013-08-03T10:49:53Z</time>
      </trkpt>
      <trkpt lat="48.25099" lon="3.2352">
        <ele>73</ele>
        <time>2013-08-03T10:49:57Z</time>
      </trkpt>
      <trkpt lat="48.25094" lon="3.23522">
        <ele>73</ele>
        <time>2013-08-03T10:50:00Z</time>
      </trkpt>
      <trkpt lat="48.25089" lon="3.23524">
        <ele>73</ele>
        <time>2013-08-03T10:50:02Z</time>
      </trkpt>
      <trkpt lat="48.25084" lon="3.23527">
        <ele>73</ele>
        <time>2013-08-03T10:50:05Z</time>
      </trkpt>
      <trkpt lat="48.25084" lon="3.23532">
        <ele>73</ele>
        <time>2013-08-03T10:50:13Z</time>
      </trkpt>
      <trkpt lat="48.25079" lon="3.23536">
        <ele>70</ele>
        <time>2013-08-03T10:50:16Z</time>
      </trkpt>
      <trkpt lat="48.25074" lon="3.23541">
        <ele>70</ele>
        <time>2013-08-03T10:50:24Z</time>
      </trkpt>
      <trkpt lat="48.25068" lon="3.23544">
        <ele>70</ele>
        <time>2013-08-03T10:50:27Z</time>
      </trkpt>
      <trkpt lat="48.25064" lon="3.23548">
        <ele>70</ele>
        <time>2013-08-03T10:50:30Z</time>
      </trkpt>
      <trkpt lat="48.25058" lon="3.23552">
        <ele>70</ele>
        <time>2013-08-03T10:50:33Z</time>
      </trkpt>
      <trkpt lat="48.25054" lon="3.23556">
        <ele>70</ele>
        <time>2013-08-03T10:50:36Z</time>
      </trkpt>
      <trkpt lat="48.25051" lon="3.23553">
        <ele>69</ele>
        <time>2013-08-03T10:50:43Z</time>
      </trkpt>
      <trkpt lat="48.25049" lon="3.23561">
        <ele>69</ele>
        <time>2013-08-03T10:50:49Z</time>
      </trkpt>
      <trkpt lat="48.25045" lon="3.23565">
        <ele>69</ele>
        <time>2013-08-03T10:50:53Z</time>
      </trkpt>
      <trkpt lat="48.25041" lon="3.23569">
        <ele>69</ele>
        <time>2013-08-03T10:50:57Z</time>
      </trkpt>
      <trkpt lat="48.25035" lon="3.2357">
        <ele>69</ele>
        <time>2013-08-03T10:51:03Z</time>
      </trkpt>
      <trkpt lat="48.25033" lon="3.23571">
        <ele>69</ele>
        <time>2013-08-03T10:51:09Z</time>
      </trkpt>
      <trkpt lat="48.25031" lon="3.23577">
        <ele>69</ele>
        <time>2013-08-03T10:51:30Z</time>
      </trkpt>
      <trkpt lat="48.25036" lon="3.23642">
        <ele>68</ele>
        <time>2013-08-03T10:54:09Z</time>
      </trkpt>
      <trkpt lat="48.25036" lon="3.23649">
        <ele>68</ele>
        <time>2013-08-03T10:54:18Z</time>
      </trkpt>
      <trkpt lat="48.25038" lon="3.23655">
        <ele>69</ele>
        <time>2013-08-03T10:54:21Z</time>
      </trkpt>
      <trkpt lat="48.2504" lon="3.23663">
        <ele>69</ele>
        <time>2013-08-03T10:54:25Z</time>
      </trkpt>
      <trkpt lat="48.2504" lon="3.2367">
        <ele>68</ele>
        <time>2013-08-03T10:54:29Z</time>
      </trkpt>
      <trkpt lat="48.25041" lon="3.23678">
        <ele>68</ele>
        <time>2013-08-03T10:54:33Z</time>
      </trkpt>
      <trkpt lat="48.25043" lon="3.23686">
        <ele>69</ele>
        <time>2013-08-03T10:54:37Z</time>
      </trkpt>
      <trkpt lat="48.25045" lon="3.237">
        <ele>69</ele>
        <time>2013-08-03T10:54:45Z</time>
      </trkpt>
      <trkpt lat="48.25048" lon="3.23708">
        <ele>69</ele>
        <time>2013-08-03T10:54:51Z</time>
      </trkpt>
      <trkpt lat="48.25049" lon="3.23716">
        <ele>69</ele>
        <time>2013-08-03T10:54:57Z</time>
      </trkpt>
      <trkpt lat="48.2505" lon="3.23724">
        <ele>69</ele>
        <time>2013-08-03T10:55:01Z</time>
      </trkpt>
      <trkpt lat="48.25051" lon="3.23732">
        <ele>69</ele>
        <time>2013-08-03T10:55:05Z</time>
      </trkpt>
      <trkpt lat="48.25051" lon="3.23739">
        <ele>69</ele>
        <time>2013-08-03T10:55:12Z</time>
      </trkpt>
      <trkpt lat="48.25049" lon="3.23747">
        <ele>69</ele>
        <time>2013-08-03T10:55:17Z</time>
      </trkpt>
      <trkpt lat="48.2505" lon="3.23757">
        <ele>68</ele>
        <time>2013-08-03T10:55:22Z</time>
      </trkpt>
      <trkpt lat="48.25052" lon="3.23765">
        <ele>68</ele>
        <time>2013-08-03T10:55:26Z</time>
      </trkpt>
      <trkpt lat="48.25052" lon="3.23773">
        <ele>68</ele>
        <time>2013-08-03T10:55:30Z</time>
      </trkpt>
      <trkpt lat="48.25053" lon="3.2378">
        <ele>68</ele>
        <time>2013-08-03T10:55:34Z</time>
      </trkpt>
      <trkpt lat="48.25055" lon="3.23788">
        <ele>68</ele>
        <time>2013-08-03T10:55:38Z</time>
      </trkpt>
      <trkpt lat="48.25053" lon="3.23794">
        <ele>68</ele>
        <time>2013-08-03T10:55:42Z</time>
      </trkpt>
      <trkpt lat="48.25054" lon="3.23801">
        <ele>67</ele>
        <time>2013-08-03T10:55:46Z</time>
      </trkpt>
      <trkpt lat="48.25056" lon="3.23809">
        <ele>67</ele>
        <time>2013-08-03T10:55:51Z</time>
      </trkpt>
      <trkpt lat="48.25056" lon="3.23816">
        <ele>67</ele>
        <time>2013-08-03T10:55:55Z</time>
      </trkpt>
      <trkpt lat="48.25056" lon="3.23823">
        <ele>67</ele>
        <time>2013-08-03T10:56:00Z</time>
      </trkpt>
      <trkpt lat="48.25056" lon="3.23831">
        <ele>67</ele>
        <time>2013-08-03T10:56:04Z</time>
      </trkpt>
      <trkpt lat="48.25058" lon="3.23837">
        <ele>66</ele>
        <time>2013-08-03T10:56:12Z</time>
      </trkpt>
      <trkpt lat="48.25057" lon="3.23848">
        <ele>66</ele>
        <time>2013-08-03T10:56:24Z</time>
      </trkpt>
      <trkpt lat="48.25056" lon="3.23856">
        <ele>66</ele>
        <time>2013-08-03T10:56:27Z</time>
      </trkpt>
      <trkpt lat="48.25058" lon="3.23861">
        <ele>66</ele>
        <time>2013-08-03T10:56:35Z</time>
      </trkpt>
      <trkpt lat="48.25057" lon="3.2387">
        <ele>66</ele>
        <time>2013-08-03T10:56:40Z</time>
      </trkpt>
      <trkpt lat="48.25056" lon="3.23877">
        <ele>66</ele>
        <time>2013-08-03T10:56:42Z</time>
      </trkpt>
      <trkpt lat="48.25055" lon="3.23885">
        <ele>66</ele>
        <time>2013-08-03T10:56:44Z</time>
      </trkpt>
      <trkpt lat="48.25054" lon="3.23892">
        <ele>66</ele>
        <time>2013-08-03T10:56:46Z</time>
      </trkpt>
      <trkpt lat="48.25053" lon="3.23899">
        <ele>66</ele>
        <time>2013-08-03T10:56:49Z</time>
      </trkpt>
      <trkpt lat="48.25052" lon="3.23908">
        <ele>66</ele>
        <time>2013-08-03T10:56:57Z</time>
      </trkpt>
      <trkpt lat="48.25053" lon="3.23915">
        <ele>66</ele>
        <time>2013-08-03T10:57:01Z</time>
      </trkpt>
      <trkpt lat="48.25055" lon="3.23915">
        <ele>66</ele>
        <time>2013-08-03T10:57:07Z</time>
      </trkpt>
      <trkpt lat="48.25054" lon="3.23922">
        <ele>66</ele>
        <time>2013-08-03T10:57:11Z</time>
      </trkpt>
      <trkpt lat="48.25052" lon="3.23932">
        <ele>66</ele>
        <time>2013-08-03T10:57:14Z</time>
      </trkpt>
      <trkpt lat="48.2505" lon="3.23939">
        <ele>66</ele>
        <time>2013-08-03T10:57:16Z</time>
      </trkpt>
      <trkpt lat="48.25049" lon="3.23948">
        <ele>66</ele>
        <time>2013-08-03T10:57:19Z</time>
      </trkpt>
      <trkpt lat="48.25054" lon="3.23954">
        <ele>66</ele>
        <time>2013-08-03T10:57:34Z</time>
      </trkpt>
      <trkpt lat="48.25053" lon="3.23962">
        <ele>66</ele>
        <time>2013-08-03T10:57:37Z</time>
      </trkpt>
      <trkpt lat="48.25053" lon="3.2397">
        <ele>66</ele>
        <time>2013-08-03T10:57:39Z</time>
      </trkpt>
      <trkpt lat="48.25053" lon="3.23979">
        <ele>66</ele>
        <time>2013-08-03T10:57:41Z</time>
      </trkpt>
      <trkpt lat="48.25053" lon="3.23987">
        <ele>65</ele>
        <time>2013-08-03T10:57:43Z</time>
      </trkpt>
      <trkpt lat="48.25052" lon="3.23995">
        <ele>65</ele>
        <time>2013-08-03T10:57:45Z</time>
      </trkpt>
      <trkpt lat="48.25054" lon="3.24001">
        <ele>65</ele>
        <time>2013-08-03T10:57:56Z</time>
      </trkpt>
      <trkpt lat="48.25058" lon="3.24007">
        <ele>65</ele>
        <time>2013-08-03T10:58:18Z</time>
      </trkpt>
      <trkpt lat="48.25059" lon="3.24012">
        <ele>65</ele>
        <time>2013-08-03T10:58:26Z</time>
      </trkpt>
      <trkpt lat="48.2506" lon="3.24019">
        <ele>65</ele>
        <time>2013-08-03T10:58:31Z</time>
      </trkpt>
      <trkpt lat="48.2506" lon="3.24026">
        <ele>65</ele>
        <time>2013-08-03T10:58:35Z</time>
      </trkpt>
      <trkpt lat="48.25062" lon="3.24033">
        <ele>65</ele>
        <time>2013-08-03T10:58:38Z</time>
      </trkpt>
      <trkpt lat="48.25062" lon="3.24041">
        <ele>65</ele>
        <time>2013-08-03T10:58:41Z</time>
      </trkpt>
      <trkpt lat="48.25061" lon="3.2405">
        <ele>65</ele>
        <time>2013-08-03T10:58:44Z</time>
      </trkpt>
      <trkpt lat="48.2506" lon="3.24058">
        <ele>65</ele>
        <time>2013-08-03T10:58:47Z</time>
      </trkpt>
      <trkpt lat="48.25062" lon="3.24065">
        <ele>65</ele>
        <time>2013-08-03T10:58:51Z</time>
      </trkpt>
      <trkpt lat="48.25059" lon="3.24072">
        <ele>65</ele>
        <time>2013-08-03T10:58:56Z</time>
      </trkpt>
      <trkpt lat="48.25062" lon="3.24079">
        <ele>65</ele>
        <time>2013-08-03T10:59:02Z</time>
      </trkpt>
      <trkpt lat="48.25065" lon="3.24084">
        <ele>64</ele>
        <time>2013-08-03T10:59:06Z</time>
      </trkpt>
      <trkpt lat="48.25067" lon="3.24091">
        <ele>64</ele>
        <time>2013-08-03T10:59:17Z</time>
      </trkpt>
      <trkpt lat="48.25068" lon="3.24105">
        <ele>64</ele>
        <time>2013-08-03T10:59:31Z</time>
      </trkpt>
      <trkpt lat="48.25072" lon="3.24112">
        <ele>64</ele>
        <time>2013-08-03T10:59:34Z</time>
      </trkpt>
      <trkpt lat="48.25074" lon="3.24119">
        <ele>64</ele>
        <time>2013-08-03T10:59:37Z</time>
      </trkpt>
      <trkpt lat="48.25072" lon="3.24126">
        <ele>64</ele>
        <time>2013-08-03T10:59:42Z</time>
      </trkpt>
      <trkpt lat="48.25068" lon="3.24129">
        <ele>64</ele>
        <time>2013-08-03T10:59:47Z</time>
      </trkpt>
      <trkpt lat="48.25063" lon="3.24131">
        <ele>64</ele>
        <time>2013-08-03T10:59:52Z</time>
      </trkpt>
      <trkpt lat="48.25058" lon="3.24133">
        <ele>64</ele>
        <time>2013-08-03T10:59:57Z</time>
      </trkpt>
      <trkpt lat="48.25054" lon="3.24133">
        <ele>64</ele>
        <time>2013-08-03T11:00:06Z</time>
      </trkpt>
      <trkpt lat="48.25057" lon="3.2414">
        <ele>64</ele>
        <time>2013-08-03T11:01:21Z</time>
      </trkpt>
      <trkpt lat="48.25057" lon="3.24145">
        <ele>64</ele>
        <time>2013-08-03T11:01:28Z</time>
      </trkpt>
      <trkpt lat="48.25044" lon="3.24142">
        <ele>64</ele>
        <time>2013-08-03T11:26:08Z</time>
      </trkpt>
      <trkpt lat="48.2504" lon="3.24142">
        <ele>64</ele>
        <time>2013-08-03T11:26:20Z</time>
      </trkpt>
      <trkpt lat="48.25028" lon="3.24154">
        <ele>63</ele>
        <time>2013-08-03T11:26:38Z</time>
      </trkpt>
      <trkpt lat="48.25023" lon="3.24158">
        <ele>63</ele>
        <time>2013-08-03T11:26:47Z</time>
      </trkpt>
      <trkpt lat="48.25018" lon="3.24162">
        <ele>63</ele>
        <time>2013-08-03T11:26:50Z</time>
      </trkpt>
      <trkpt lat="48.25014" lon="3.24164">
        <ele>63</ele>
        <time>2013-08-03T11:26:53Z</time>
      </trkpt>
      <trkpt lat="48.25009" lon="3.24167">
        <ele>62</ele>
        <time>2013-08-03T11:26:55Z</time>
      </trkpt>
      <trkpt lat="48.25004" lon="3.24171">
        <ele>62</ele>
        <time>2013-08-03T11:26:58Z</time>
      </trkpt>
      <trkpt lat="48.24998" lon="3.24175">
        <ele>63</ele>
        <time>2013-08-03T11:27:01Z</time>
      </trkpt>
      <trkpt lat="48.24995" lon="3.2418">
        <ele>63</ele>
        <time>2013-08-03T11:27:04Z</time>
      </trkpt>
      <trkpt lat="48.2499" lon="3.24183">
        <ele>63</ele>
        <time>2013-08-03T11:27:09Z</time>
      </trkpt>
      <trkpt lat="48.24985" lon="3.24185">
        <ele>63</ele>
        <time>2013-08-03T11:27:12Z</time>
      </trkpt>
      <trkpt lat="48.24977" lon="3.24188">
        <ele>63</ele>
        <time>2013-08-03T11:27:15Z</time>
      </trkpt>
      <trkpt lat="48.24973" lon="3.2419">
        <ele>64</ele>
        <time>2013-08-03T11:27:18Z</time>
      </trkpt>
      <trkpt lat="48.24969" lon="3.24194">
        <ele>64</ele>
        <time>2013-08-03T11:27:27Z</time>
      </trkpt>
      <trkpt lat="48.24964" lon="3.24197">
        <ele>64</ele>
        <time>2013-08-03T11:27:30Z</time>
      </trkpt>
      <trkpt lat="48.24962" lon="3.242">
        <ele>64</ele>
        <time>2013-08-03T11:27:36Z</time>
      </trkpt>
      <trkpt lat="48.24957" lon="3.24201">
        <ele>64</ele>
        <time>2013-08-03T11:27:51Z</time>
      </trkpt>
      <trkpt lat="48.24952" lon="3.24204">
        <ele>64</ele>
        <time>2013-08-03T11:27:56Z</time>
      </trkpt>
      <trkpt lat="48.24946" lon="3.24206">
        <ele>64</ele>
        <time>2013-08-03T11:27:58Z</time>
      </trkpt>
      <trkpt lat="48.24941" lon="3.24208">
        <ele>64</ele>
        <time>2013-08-03T11:28:00Z</time>
      </trkpt>
      <trkpt lat="48.24937" lon="3.24213">
        <ele>64</ele>
        <time>2013-08-03T11:28:05Z</time>
      </trkpt>
      <trkpt lat="48.24933" lon="3.2422">
        <ele>64</ele>
        <time>2013-08-03T11:28:12Z</time>
      </trkpt>
      <trkpt lat="48.24929" lon="3.24221">
        <ele>64</ele>
        <time>2013-08-03T11:28:14Z</time>
      </trkpt>
      <trkpt lat="48.24923" lon="3.24223">
        <ele>64</ele>
        <time>2013-08-03T11:28:16Z</time>
      </trkpt>
      <trkpt lat="48.24921" lon="3.24229">
        <ele>64</ele>
        <time>2013-08-03T11:28:22Z</time>
      </trkpt>
      <trkpt lat="48.24918" lon="3.24235">
        <ele>64</ele>
        <time>2013-08-03T11:28:29Z</time>
      </trkpt>
      <trkpt lat="48.24915" lon="3.24237">
        <ele>66</ele>
        <time>2013-08-03T11:28:37Z</time>
      </trkpt>
      <trkpt lat="48.24909" lon="3.24237">
        <ele>67</ele>
        <time>2013-08-03T11:28:42Z</time>
      </trkpt>
      <trkpt lat="48.24903" lon="3.2424">
        <ele>67</ele>
        <time>2013-08-03T11:28:45Z</time>
      </trkpt>
      <trkpt lat="48.24899" lon="3.24245">
        <ele>67</ele>
        <time>2013-08-03T11:28:51Z</time>
      </trkpt>
      <trkpt lat="48.24894" lon="3.24249">
        <ele>67</ele>
        <time>2013-08-03T11:28:57Z</time>
      </trkpt>
      <trkpt lat="48.24889" lon="3.2425">
        <ele>68</ele>
        <time>2013-08-03T11:28:59Z</time>
      </trkpt>
      <trkpt lat="48.24884" lon="3.24251">
        <ele>65</ele>
        <time>2013-08-03T11:29:01Z</time>
      </trkpt>
      <trkpt lat="48.24878" lon="3.24254">
        <ele>65</ele>
        <time>2013-08-03T11:29:03Z</time>
      </trkpt>
      <trkpt lat="48.24877" lon="3.24261">
        <ele>65</ele>
        <time>2013-08-03T11:29:10Z</time>
      </trkpt>
      <trkpt lat="48.24872" lon="3.24263">
        <ele>65</ele>
        <time>2013-08-03T11:29:13Z</time>
      </trkpt>
      <trkpt lat="48.24867" lon="3.24265">
        <ele>65</ele>
        <time>2013-08-03T11:29:15Z</time>
      </trkpt>
      <trkpt lat="48.24862" lon="3.24268">
        <ele>65</ele>
        <time>2013-08-03T11:29:17Z</time>
      </trkpt>
      <trkpt lat="48.24857" lon="3.24271">
        <ele>65</ele>
        <time>2013-08-03T11:29:19Z</time>
      </trkpt>
      <trkpt lat="48.24851" lon="3.24274">
        <ele>65</ele>
        <time>2013-08-03T11:29:22Z</time>
      </trkpt>
      <trkpt lat="48.24851" lon="3.24278">
        <ele>65</ele>
        <time>2013-08-03T11:29:29Z</time>
      </trkpt>
      <trkpt lat="48.24845" lon="3.24284">
        <ele>65</ele>
        <time>2013-08-03T11:29:41Z</time>
      </trkpt>
      <trkpt lat="48.2484" lon="3.24287">
        <ele>65</ele>
        <time>2013-08-03T11:29:44Z</time>
      </trkpt>
      <trkpt lat="48.24836" lon="3.24291">
        <ele>65</ele>
        <time>2013-08-03T11:29:49Z</time>
      </trkpt>
      <trkpt lat="48.24832" lon="3.24295">
        <ele>67</ele>
        <time>2013-08-03T11:29:54Z</time>
      </trkpt>
      <trkpt lat="48.24828" lon="3.24301">
        <ele>67</ele>
        <time>2013-08-03T11:30:00Z</time>
      </trkpt>
      <trkpt lat="48.24824" lon="3.24303">
        <ele>67</ele>
        <time>2013-08-03T11:30:05Z</time>
      </trkpt>
      <trkpt lat="48.24823" lon="3.24307">
        <ele>67</ele>
        <time>2013-08-03T11:30:16Z</time>
      </trkpt>
      <trkpt lat="48.24818" lon="3.24305">
        <ele>67</ele>
        <time>2013-08-03T11:30:17Z</time>
      </trkpt>
      <trkpt lat="48.24813" lon="3.24306">
        <ele>67</ele>
        <time>2013-08-03T11:30:20Z</time>
      </trkpt>
      <trkpt lat="48.24809" lon="3.2431">
        <ele>67</ele>
        <time>2013-08-03T11:30:27Z</time>
      </trkpt>
      <trkpt lat="48.24803" lon="3.24312">
        <ele>67</ele>
        <time>2013-08-03T11:30:29Z</time>
      </trkpt>
      <trkpt lat="48.24798" lon="3.24315">
        <ele>67</ele>
        <time>2013-08-03T11:30:31Z</time>
      </trkpt>
      <trkpt lat="48.24794" lon="3.2432">
        <ele>67</ele>
        <time>2013-08-03T11:30:40Z</time>
      </trkpt>
      <trkpt lat="48.2479" lon="3.24322">
        <ele>67</ele>
        <time>2013-08-03T11:30:42Z</time>
      </trkpt>
      <trkpt lat="48.24786" lon="3.24325">
        <ele>67</ele>
        <time>2013-08-03T11:30:45Z</time>
      </trkpt>
      <trkpt lat="48.24783" lon="3.24331">
        <ele>67</ele>
        <time>2013-08-03T11:30:50Z</time>
      </trkpt>
      <trkpt lat="48.24779" lon="3.24336">
        <ele>64</ele>
        <time>2013-08-03T11:30:56Z</time>
      </trkpt>
      <trkpt lat="48.24776" lon="3.24339">
        <ele>64</ele>
        <time>2013-08-03T11:31:06Z</time>
      </trkpt>
      <trkpt lat="48.24766" lon="3.2434">
        <ele>65</ele>
        <time>2013-08-03T11:31:11Z</time>
      </trkpt>
      <trkpt lat="48.24759" lon="3.24344">
        <ele>65</ele>
        <time>2013-08-03T11:31:13Z</time>
      </trkpt>
      <trkpt lat="48.24754" lon="3.24347">
        <ele>65</ele>
        <time>2013-08-03T11:31:15Z</time>
      </trkpt>
      <trkpt lat="48.2475" lon="3.2435">
        <ele>66</ele>
        <time>2013-08-03T11:31:19Z</time>
      </trkpt>
      <trkpt lat="48.24745" lon="3.24353">
        <ele>66</ele>
        <time>2013-08-03T11:31:23Z</time>
      </trkpt>
      <trkpt lat="48.2474" lon="3.24355">
        <ele>66</ele>
        <time>2013-08-03T11:31:27Z</time>
      </trkpt>
      <trkpt lat="48.24734" lon="3.24357">
        <ele>66</ele>
        <time>2013-08-03T11:31:31Z</time>
      </trkpt>
      <trkpt lat="48.24728" lon="3.24359">
        <ele>66</ele>
        <time>2013-08-03T11:31:33Z</time>
      </trkpt>
      <trkpt lat="48.24722" lon="3.24361">
        <ele>66</ele>
        <time>2013-08-03T11:31:35Z</time>
      </trkpt>
      <trkpt lat="48.24716" lon="3.24364">
        <ele>66</ele>
        <time>2013-08-03T11:31:37Z</time>
      </trkpt>
      <trkpt lat="48.2472" lon="3.24369">
        <ele>66</ele>
        <time>2013-08-03T11:31:43Z</time>
      </trkpt>
      <trkpt lat="48.24714" lon="3.24375">
        <ele>66</ele>
        <time>2013-08-03T11:31:54Z</time>
      </trkpt>
      <trkpt lat="48.24709" lon="3.24377">
        <ele>66</ele>
        <time>2013-08-03T11:31:56Z</time>
      </trkpt>
      <trkpt lat="48.24704" lon="3.24379">
        <ele>66</ele>
        <time>2013-08-03T11:31:58Z</time>
      </trkpt>
      <trkpt lat="48.24699" lon="3.24381">
        <ele>66</ele>
        <time>2013-08-03T11:32:00Z</time>
      </trkpt>
      <trkpt lat="48.24695" lon="3.24386">
        <ele>66</ele>
        <time>2013-08-03T11:32:06Z</time>
      </trkpt>
      <trkpt lat="48.2469" lon="3.24394">
        <ele>65</ele>
        <time>2013-08-03T11:32:10Z</time>
      </trkpt>
      <trkpt lat="48.24684" lon="3.24397">
        <ele>65</ele>
        <time>2013-08-03T11:32:12Z</time>
      </trkpt>
      <trkpt lat="48.24678" lon="3.24399">
        <ele>65</ele>
        <time>2013-08-03T11:32:14Z</time>
      </trkpt>
      <trkpt lat="48.24674" lon="3.24401">
        <ele>65</ele>
        <time>2013-08-03T11:32:16Z</time>
      </trkpt>
      <trkpt lat="48.24668" lon="3.24404">
        <ele>64</ele>
        <time>2013-08-03T11:32:19Z</time>
      </trkpt>
      <trkpt lat="48.2467" lon="3.24411">
        <ele>64</ele>
        <time>2013-08-03T11:32:27Z</time>
      </trkpt>
      <trkpt lat="48.24667" lon="3.24417">
        <ele>63</ele>
        <time>2013-08-03T11:32:33Z</time>
      </trkpt>
      <trkpt lat="48.24661" lon="3.24419">
        <ele>63</ele>
        <time>2013-08-03T11:32:35Z</time>
      </trkpt>
      <trkpt lat="48.24656" lon="3.24421">
        <ele>64</ele>
        <time>2013-08-03T11:32:37Z</time>
      </trkpt>
      <trkpt lat="48.2465" lon="3.24422">
        <ele>64</ele>
        <time>2013-08-03T11:32:38Z</time>
      </trkpt>
      <trkpt lat="48.24645" lon="3.24424">
        <ele>64</ele>
        <time>2013-08-03T11:32:40Z</time>
      </trkpt>
      <trkpt lat="48.24643" lon="3.2443">
        <ele>64</ele>
        <time>2013-08-03T11:32:51Z</time>
      </trkpt>
      <trkpt lat="48.24638" lon="3.24432">
        <ele>64</ele>
        <time>2013-08-03T11:32:54Z</time>
      </trkpt>
      <trkpt lat="48.24632" lon="3.24436">
        <ele>65</ele>
        <time>2013-08-03T11:33:02Z</time>
      </trkpt>
      <trkpt lat="48.24628" lon="3.2444">
        <ele>65</ele>
        <time>2013-08-03T11:33:05Z</time>
      </trkpt>
      <trkpt lat="48.24624" lon="3.24443">
        <ele>65</ele>
        <time>2013-08-03T11:33:16Z</time>
      </trkpt>
      <trkpt lat="48.2462" lon="3.24446">
        <ele>65</ele>
        <time>2013-08-03T11:33:20Z</time>
      </trkpt>
      <trkpt lat="48.24618" lon="3.24451">
        <ele>65</ele>
        <time>2013-08-03T11:33:29Z</time>
      </trkpt>
      <trkpt lat="48.24614" lon="3.24454">
        <ele>65</ele>
        <time>2013-08-03T11:33:31Z</time>
      </trkpt>
      <trkpt lat="48.24609" lon="3.24458">
        <ele>65</ele>
        <time>2013-08-03T11:33:33Z</time>
      </trkpt>
      <trkpt lat="48.24605" lon="3.24461">
        <ele>65</ele>
        <time>2013-08-03T11:33:38Z</time>
      </trkpt>
      <trkpt lat="48.24598" lon="3.24465">
        <ele>64</ele>
        <time>2013-08-03T11:33:47Z</time>
      </trkpt>
      <trkpt lat="48.24594" lon="3.24468">
        <ele>64</ele>
        <time>2013-08-03T11:33:49Z</time>
      </trkpt>
      <trkpt lat="48.24591" lon="3.24471">
        <ele>64</ele>
        <time>2013-08-03T11:33:59Z</time>
      </trkpt>
      <trkpt lat="48.24586" lon="3.24474">
        <ele>64</ele>
        <time>2013-08-03T11:34:01Z</time>
      </trkpt>
      <trkpt lat="48.2458" lon="3.24481">
        <ele>66</ele>
        <time>2013-08-03T11:34:13Z</time>
      </trkpt>
      <trkpt lat="48.24574" lon="3.24485">
        <ele>66</ele>
        <time>2013-08-03T11:34:16Z</time>
      </trkpt>
      <trkpt lat="48.24569" lon="3.24489">
        <ele>66</ele>
        <time>2013-08-03T11:34:19Z</time>
      </trkpt>
      <trkpt lat="48.24564" lon="3.24493">
        <ele>66</ele>
        <time>2013-08-03T11:34:26Z</time>
      </trkpt>
      <trkpt lat="48.24557" lon="3.24497">
        <ele>67</ele>
        <time>2013-08-03T11:34:38Z</time>
      </trkpt>
      <trkpt lat="48.24552" lon="3.24499">
        <ele>67</ele>
        <time>2013-08-03T11:34:40Z</time>
      </trkpt>
      <trkpt lat="48.24545" lon="3.24503">
        <ele>65</ele>
        <time>2013-08-03T11:34:44Z</time>
      </trkpt>
      <trkpt lat="48.24539" lon="3.24507">
        <ele>65</ele>
        <time>2013-08-03T11:34:46Z</time>
      </trkpt>
      <trkpt lat="48.24534" lon="3.24511">
        <ele>65</ele>
        <time>2013-08-03T11:34:48Z</time>
      </trkpt>
      <trkpt lat="48.24534" lon="3.24516">
        <ele>65</ele>
        <time>2013-08-03T11:34:56Z</time>
      </trkpt>
      <trkpt lat="48.24529" lon="3.24519">
        <ele>65</ele>
        <time>2013-08-03T11:35:05Z</time>
      </trkpt>
      <trkpt lat="48.24523" lon="3.24523">
        <ele>65</ele>
        <time>2013-08-03T11:35:07Z</time>
      </trkpt>
      <trkpt lat="48.24518" lon="3.24526">
        <ele>65</ele>
        <time>2013-08-03T11:35:09Z</time>
      </trkpt>
      <trkpt lat="48.24513" lon="3.24529">
        <ele>65</ele>
        <time>2013-08-03T11:35:11Z</time>
      </trkpt>
      <trkpt lat="48.24511" lon="3.24535">
        <ele>65</ele>
        <time>2013-08-03T11:35:19Z</time>
      </trkpt>
      <trkpt lat="48.24507" lon="3.24539">
        <ele>65</ele>
        <time>2013-08-03T11:35:22Z</time>
      </trkpt>
      <trkpt lat="48.24501" lon="3.24542">
        <ele>65</ele>
        <time>2013-08-03T11:35:24Z</time>
      </trkpt>
      <trkpt lat="48.24494" lon="3.24546">
        <ele>67</ele>
        <time>2013-08-03T11:35:26Z</time>
      </trkpt>
      <trkpt lat="48.2449" lon="3.2455">
        <ele>67</ele>
        <time>2013-08-03T11:35:30Z</time>
      </trkpt>
      <trkpt lat="48.24486" lon="3.2455">
        <ele>67</ele>
        <time>2013-08-03T11:35:41Z</time>
      </trkpt>
      <trkpt lat="48.24481" lon="3.24551">
        <ele>67</ele>
        <time>2013-08-03T11:35:43Z</time>
      </trkpt>
      <trkpt lat="48.24474" lon="3.24555">
        <ele>67</ele>
        <time>2013-08-03T11:35:45Z</time>
      </trkpt>
      <trkpt lat="48.24469" lon="3.24558">
        <ele>67</ele>
        <time>2013-08-03T11:35:47Z</time>
      </trkpt>
      <trkpt lat="48.24465" lon="3.24565">
        <ele>67</ele>
        <time>2013-08-03T11:35:56Z</time>
      </trkpt>
      <trkpt lat="48.24459" lon="3.24568">
        <ele>67</ele>
        <time>2013-08-03T11:35:58Z</time>
      </trkpt>
      <trkpt lat="48.24453" lon="3.24572">
        <ele>66</ele>
        <time>2013-08-03T11:36:00Z</time>
      </trkpt>
      <trkpt lat="48.24457" lon="3.24578">
        <ele>66</ele>
        <time>2013-08-03T11:36:05Z</time>
      </trkpt>
      <trkpt lat="48.24457" lon="3.24581">
        <ele>66</ele>
        <time>2013-08-03T11:36:11Z</time>
      </trkpt>
      <trkpt lat="48.2445" lon="3.24584">
        <ele>64</ele>
        <time>2013-08-03T11:36:14Z</time>
      </trkpt>
      <trkpt lat="48.24445" lon="3.24587">
        <ele>64</ele>
        <time>2013-08-03T11:36:16Z</time>
      </trkpt>
      <trkpt lat="48.24443" lon="3.24588">
        <ele>64</ele>
        <time>2013-08-03T11:36:21Z</time>
      </trkpt>
      <trkpt lat="48.24438" lon="3.24591">
        <ele>64</ele>
        <time>2013-08-03T11:36:26Z</time>
      </trkpt>
      <trkpt lat="48.24435" lon="3.24597">
        <ele>64</ele>
        <time>2013-08-03T11:36:30Z</time>
      </trkpt>
      <trkpt lat="48.2443" lon="3.24601">
        <ele>64</ele>
        <time>2013-08-03T11:36:45Z</time>
      </trkpt>
      <trkpt lat="48.24425" lon="3.24604">
        <ele>64</ele>
        <time>2013-08-03T11:36:49Z</time>
      </trkpt>
      <trkpt lat="48.24421" lon="3.24607">
        <ele>64</ele>
        <time>2013-08-03T11:36:53Z</time>
      </trkpt>
      <trkpt lat="48.24414" lon="3.24613">
        <ele>65</ele>
        <time>2013-08-03T11:37:02Z</time>
      </trkpt>
      <trkpt lat="48.2441" lon="3.24616">
        <ele>65</ele>
        <time>2013-08-03T11:37:05Z</time>
      </trkpt>
      <trkpt lat="48.24405" lon="3.24613">
        <ele>65</ele>
        <time>2013-08-03T11:37:09Z</time>
      </trkpt>
      <trkpt lat="48.24402" lon="3.24606">
        <ele>65</ele>
        <time>2013-08-03T11:37:13Z</time>
      </trkpt>
      <trkpt lat="48.24395" lon="3.24585">
        <ele>65</ele>
        <time>2013-08-03T11:37:27Z</time>
      </trkpt>
      <trkpt lat="48.24392" lon="3.2458">
        <ele>69</ele>
        <time>2013-08-03T11:37:29Z</time>
      </trkpt>
      <trkpt lat="48.24387" lon="3.24577">
        <ele>70</ele>
        <time>2013-08-03T11:37:32Z</time>
      </trkpt>
      <trkpt lat="48.24382" lon="3.24578">
        <ele>70</ele>
        <time>2013-08-03T11:37:36Z</time>
      </trkpt>
      <trkpt lat="48.2438" lon="3.24581">
        <ele>70</ele>
        <time>2013-08-03T11:37:42Z</time>
      </trkpt>
      <trkpt lat="48.24375" lon="3.24585">
        <ele>66</ele>
        <time>2013-08-03T11:37:48Z</time>
      </trkpt>
      <trkpt lat="48.24369" lon="3.24585">
        <ele>67</ele>
        <time>2013-08-03T11:37:50Z</time>
      </trkpt>
      <trkpt lat="48.24364" lon="3.24586">
        <ele>67</ele>
        <time>2013-08-03T11:37:52Z</time>
      </trkpt>
      <trkpt lat="48.24362" lon="3.24593">
        <ele>67</ele>
        <time>2013-08-03T11:38:02Z</time>
      </trkpt>
      <trkpt lat="48.24358" lon="3.24597">
        <ele>67</ele>
        <time>2013-08-03T11:38:06Z</time>
      </trkpt>
      <trkpt lat="48.24353" lon="3.24599">
        <ele>68</ele>
        <time>2013-08-03T11:38:08Z</time>
      </trkpt>
      <trkpt lat="48.24347" lon="3.246">
        <ele>68</ele>
        <time>2013-08-03T11:38:10Z</time>
      </trkpt>
      <trkpt lat="48.24342" lon="3.24601">
        <ele>68</ele>
        <time>2013-08-03T11:38:12Z</time>
      </trkpt>
      <trkpt lat="48.24336" lon="3.24604">
        <ele>68</ele>
        <time>2013-08-03T11:38:15Z</time>
      </trkpt>
      <trkpt lat="48.24333" lon="3.24609">
        <ele>72</ele>
        <time>2013-08-03T11:38:21Z</time>
      </trkpt>
      <trkpt lat="48.24336" lon="3.24614">
        <ele>67</ele>
        <time>2013-08-03T11:38:31Z</time>
      </trkpt>
      <trkpt lat="48.2433" lon="3.24615">
        <ele>72</ele>
        <time>2013-08-03T11:38:37Z</time>
      </trkpt>
      <trkpt lat="48.24325" lon="3.24617">
        <ele>72</ele>
        <time>2013-08-03T11:38:38Z</time>
      </trkpt>
      <trkpt lat="48.2432" lon="3.24619">
        <ele>72</ele>
        <time>2013-08-03T11:38:40Z</time>
      </trkpt>
      <trkpt lat="48.24315" lon="3.24623">
        <ele>72</ele>
        <time>2013-08-03T11:38:43Z</time>
      </trkpt>
      <trkpt lat="48.2431" lon="3.24626">
        <ele>72</ele>
        <time>2013-08-03T11:38:51Z</time>
      </trkpt>
      <trkpt lat="48.24306" lon="3.24629">
        <ele>72</ele>
        <time>2013-08-03T11:38:54Z</time>
      </trkpt>
      <trkpt lat="48.24301" lon="3.24632">
        <ele>72</ele>
        <time>2013-08-03T11:38:58Z</time>
      </trkpt>
      <trkpt lat="48.24297" lon="3.24636">
        <ele>72</ele>
        <time>2013-08-03T11:39:02Z</time>
      </trkpt>
      <trkpt lat="48.24292" lon="3.24638">
        <ele>72</ele>
        <time>2013-08-03T11:39:06Z</time>
      </trkpt>
      <trkpt lat="48.24287" lon="3.24641">
        <ele>72</ele>
        <time>2013-08-03T11:39:10Z</time>
      </trkpt>
      <trkpt lat="48.24282" lon="3.24644">
        <ele>72</ele>
        <time>2013-08-03T11:39:17Z</time>
      </trkpt>
      <trkpt lat="48.24277" lon="3.24645">
        <ele>72</ele>
        <time>2013-08-03T11:39:21Z</time>
      </trkpt>
      <trkpt lat="48.24273" lon="3.24648">
        <ele>72</ele>
        <time>2013-08-03T11:39:25Z</time>
      </trkpt>
      <trkpt lat="48.24268" lon="3.24652">
        <ele>71</ele>
        <time>2013-08-03T11:39:29Z</time>
      </trkpt>
      <trkpt lat="48.24266" lon="3.24658">
        <ele>71</ele>
        <time>2013-08-03T11:39:35Z</time>
      </trkpt>
      <trkpt lat="48.24263" lon="3.24664">
        <ele>70</ele>
        <time>2013-08-03T11:39:39Z</time>
      </trkpt>
      <trkpt lat="48.24258" lon="3.24666">
        <ele>70</ele>
        <time>2013-08-03T11:39:42Z</time>
      </trkpt>
      <trkpt lat="48.24252" lon="3.24667">
        <ele>69</ele>
        <time>2013-08-03T11:39:46Z</time>
      </trkpt>
      <trkpt lat="48.24247" lon="3.24668">
        <ele>69</ele>
        <time>2013-08-03T11:39:50Z</time>
      </trkpt>
      <trkpt lat="48.24243" lon="3.24673">
        <ele>69</ele>
        <time>2013-08-03T11:39:54Z</time>
      </trkpt>
      <trkpt lat="48.24237" lon="3.2468">
        <ele>69</ele>
        <time>2013-08-03T11:40:03Z</time>
      </trkpt>
      <trkpt lat="48.24232" lon="3.24685">
        <ele>69</ele>
        <time>2013-08-03T11:40:16Z</time>
      </trkpt>
      <trkpt lat="48.24227" lon="3.24689">
        <ele>69</ele>
        <time>2013-08-03T11:40:20Z</time>
      </trkpt>
      <trkpt lat="48.24221" lon="3.24691">
        <ele>70</ele>
        <time>2013-08-03T11:40:23Z</time>
      </trkpt>
      <trkpt lat="48.24216" lon="3.24692">
        <ele>70</ele>
        <time>2013-08-03T11:40:25Z</time>
      </trkpt>
      <trkpt lat="48.24211" lon="3.24694">
        <ele>70</ele>
        <time>2013-08-03T11:40:27Z</time>
      </trkpt>
      <trkpt lat="48.24208" lon="3.24699">
        <ele>70</ele>
        <time>2013-08-03T11:40:35Z</time>
      </trkpt>
      <trkpt lat="48.24207" lon="3.24703">
        <ele>70</ele>
        <time>2013-08-03T11:40:41Z</time>
      </trkpt>
      <trkpt lat="48.24203" lon="3.24698">
        <ele>70</ele>
        <time>2013-08-03T11:40:47Z</time>
      </trkpt>
      <trkpt lat="48.24198" lon="3.24699">
        <ele>70</ele>
        <time>2013-08-03T11:40:49Z</time>
      </trkpt>
      <trkpt lat="48.24192" lon="3.24701">
        <ele>71</ele>
        <time>2013-08-03T11:40:51Z</time>
      </trkpt>
      <trkpt lat="48.24188" lon="3.24704">
        <ele>71</ele>
        <time>2013-08-03T11:40:53Z</time>
      </trkpt>
      <trkpt lat="48.24184" lon="3.24707">
        <ele>70</ele>
        <time>2013-08-03T11:40:56Z</time>
      </trkpt>
      <trkpt lat="48.2418" lon="3.24713">
        <ele>70</ele>
        <time>2013-08-03T11:41:00Z</time>
      </trkpt>
      <trkpt lat="48.24175" lon="3.24718">
        <ele>70</ele>
        <time>2013-08-03T11:41:04Z</time>
      </trkpt>
      <trkpt lat="48.2417" lon="3.24722">
        <ele>69</ele>
        <time>2013-08-03T11:41:07Z</time>
      </trkpt>
      <trkpt lat="48.24166" lon="3.24727">
        <ele>75</ele>
        <time>2013-08-03T11:41:26Z</time>
      </trkpt>
      <trkpt lat="48.24162" lon="3.2473">
        <ele>74</ele>
        <time>2013-08-03T11:41:30Z</time>
      </trkpt>
      <trkpt lat="48.24157" lon="3.24734">
        <ele>74</ele>
        <time>2013-08-03T11:41:33Z</time>
      </trkpt>
      <trkpt lat="48.24153" lon="3.24737">
        <ele>74</ele>
        <time>2013-08-03T11:41:36Z</time>
      </trkpt>
      <trkpt lat="48.24149" lon="3.24741">
        <ele>74</ele>
        <time>2013-08-03T11:41:41Z</time>
      </trkpt>
      <trkpt lat="48.24144" lon="3.24745">
        <ele>75</ele>
        <time>2013-08-03T11:41:44Z</time>
      </trkpt>
      <trkpt lat="48.24139" lon="3.24748">
        <ele>76</ele>
        <time>2013-08-03T11:41:46Z</time>
      </trkpt>
      <trkpt lat="48.24135" lon="3.24751">
        <ele>70</ele>
        <time>2013-08-03T11:41:49Z</time>
      </trkpt>
      <trkpt lat="48.24131" lon="3.24758">
        <ele>70</ele>
        <time>2013-08-03T11:41:53Z</time>
      </trkpt>
      <trkpt lat="48.24127" lon="3.24763">
        <ele>71</ele>
        <time>2013-08-03T11:41:56Z</time>
      </trkpt>
      <trkpt lat="48.24123" lon="3.24766">
        <ele>71</ele>
        <time>2013-08-03T11:42:00Z</time>
      </trkpt>
      <trkpt lat="48.24117" lon="3.24769">
        <ele>72</ele>
        <time>2013-08-03T11:42:06Z</time>
      </trkpt>
      <trkpt lat="48.24114" lon="3.24772">
        <ele>72</ele>
        <time>2013-08-03T11:42:11Z</time>
      </trkpt>
      <trkpt lat="48.24107" lon="3.24776">
        <ele>72</ele>
        <time>2013-08-03T11:42:15Z</time>
      </trkpt>
      <trkpt lat="48.24102" lon="3.2478">
        <ele>72</ele>
        <time>2013-08-03T11:42:18Z</time>
      </trkpt>
      <trkpt lat="48.24098" lon="3.24786">
        <ele>72</ele>
        <time>2013-08-03T11:42:22Z</time>
      </trkpt>
      <trkpt lat="48.24094" lon="3.24792">
        <ele>71</ele>
        <time>2013-08-03T11:42:26Z</time>
      </trkpt>
      <trkpt lat="48.24091" lon="3.24797">
        <ele>71</ele>
        <time>2013-08-03T11:42:30Z</time>
      </trkpt>
      <trkpt lat="48.24087" lon="3.24798">
        <ele>70</ele>
        <time>2013-08-03T11:42:34Z</time>
      </trkpt>
      <trkpt lat="48.24082" lon="3.24799">
        <ele>79</ele>
        <time>2013-08-03T11:42:38Z</time>
      </trkpt>
      <trkpt lat="48.24077" lon="3.24802">
        <ele>78</ele>
        <time>2013-08-03T11:42:42Z</time>
      </trkpt>
      <trkpt lat="48.24073" lon="3.24807">
        <ele>78</ele>
        <time>2013-08-03T11:42:46Z</time>
      </trkpt>
      <trkpt lat="48.24068" lon="3.2481">
        <ele>78</ele>
        <time>2013-08-03T11:42:50Z</time>
      </trkpt>
      <trkpt lat="48.24055" lon="3.24814">
        <ele>79</ele>
        <time>2013-08-03T11:43:07Z</time>
      </trkpt>
      <trkpt lat="48.24049" lon="3.24817">
        <ele>80</ele>
        <time>2013-08-03T11:43:11Z</time>
      </trkpt>
      <trkpt lat="48.24045" lon="3.2482">
        <ele>80</ele>
        <time>2013-08-03T11:43:17Z</time>
      </trkpt>
      <trkpt lat="48.2404" lon="3.24824">
        <ele>81</ele>
        <time>2013-08-03T11:43:22Z</time>
      </trkpt>
      <trkpt lat="48.24035" lon="3.24829">
        <ele>81</ele>
        <time>2013-08-03T11:43:25Z</time>
      </trkpt>
      <trkpt lat="48.24029" lon="3.24835">
        <ele>73</ele>
        <time>2013-08-03T11:43:32Z</time>
      </trkpt>
      <trkpt lat="48.24024" lon="3.24838">
        <ele>74</ele>
        <time>2013-08-03T11:43:36Z</time>
      </trkpt>
      <trkpt lat="48.24019" lon="3.24841">
        <ele>75</ele>
        <time>2013-08-03T11:43:39Z</time>
      </trkpt>
      <trkpt lat="48.24014" lon="3.24845">
        <ele>75</ele>
        <time>2013-08-03T11:43:42Z</time>
      </trkpt>
      <trkpt lat="48.24011" lon="3.2485">
        <ele>75</ele>
        <time>2013-08-03T11:43:46Z</time>
      </trkpt>
      <trkpt lat="48.24006" lon="3.24856">
        <ele>74</ele>
        <time>2013-08-03T11:43:50Z</time>
      </trkpt>
      <trkpt lat="48.24003" lon="3.2486">
        <ele>74</ele>
        <time>2013-08-03T11:43:53Z</time>
      </trkpt>
      <trkpt lat="48.23999" lon="3.24865">
        <ele>81</ele>
        <time>2013-08-03T11:43:57Z</time>
      </trkpt>
      <trkpt lat="48.23994" lon="3.24868">
        <ele>81</ele>
        <time>2013-08-03T11:44:03Z</time>
      </trkpt>
      <trkpt lat="48.23989" lon="3.24869">
        <ele>81</ele>
        <time>2013-08-03T11:44:06Z</time>
      </trkpt>
      <trkpt lat="48.23983" lon="3.2487">
        <ele>81</ele>
        <time>2013-08-03T11:44:10Z</time>
      </trkpt>
      <trkpt lat="48.23978" lon="3.24872">
        <ele>81</ele>
        <time>2013-08-03T11:44:14Z</time>
      </trkpt>
      <trkpt lat="48.23974" lon="3.24876">
        <ele>81</ele>
        <time>2013-08-03T11:44:17Z</time>
      </trkpt>
      <trkpt lat="48.23971" lon="3.24882">
        <ele>81</ele>
        <time>2013-08-03T11:44:19Z</time>
      </trkpt>
      <trkpt lat="48.23967" lon="3.24886">
        <ele>81</ele>
        <time>2013-08-03T11:44:23Z</time>
      </trkpt>
      <trkpt lat="48.23962" lon="3.2489">
        <ele>81</ele>
        <time>2013-08-03T11:44:26Z</time>
      </trkpt>
      <trkpt lat="48.23957" lon="3.24894">
        <ele>81</ele>
        <time>2013-08-03T11:44:30Z</time>
      </trkpt>
      <trkpt lat="48.23953" lon="3.24898">
        <ele>81</ele>
        <time>2013-08-03T11:44:35Z</time>
      </trkpt>
      <trkpt lat="48.23948" lon="3.24901">
        <ele>81</ele>
        <time>2013-08-03T11:44:39Z</time>
      </trkpt>
      <trkpt lat="48.23943" lon="3.24904">
        <ele>82</ele>
        <time>2013-08-03T11:44:43Z</time>
      </trkpt>
      <trkpt lat="48.23938" lon="3.24906">
        <ele>82</ele>
        <time>2013-08-03T11:44:48Z</time>
      </trkpt>
      <trkpt lat="48.23933" lon="3.2491">
        <ele>82</ele>
        <time>2013-08-03T11:44:52Z</time>
      </trkpt>
      <trkpt lat="48.2393" lon="3.24914">
        <ele>82</ele>
        <time>2013-08-03T11:44:56Z</time>
      </trkpt>
      <trkpt lat="48.23926" lon="3.24919">
        <ele>77</ele>
        <time>2013-08-03T11:44:59Z</time>
      </trkpt>
      <trkpt lat="48.23921" lon="3.24924">
        <ele>77</ele>
        <time>2013-08-03T11:45:03Z</time>
      </trkpt>
      <trkpt lat="48.23917" lon="3.24927">
        <ele>76</ele>
        <time>2013-08-03T11:45:09Z</time>
      </trkpt>
      <trkpt lat="48.23912" lon="3.24928">
        <ele>81</ele>
        <time>2013-08-03T11:45:13Z</time>
      </trkpt>
      <trkpt lat="48.23907" lon="3.24932">
        <ele>82</ele>
        <time>2013-08-03T11:45:18Z</time>
      </trkpt>
      <trkpt lat="48.23902" lon="3.24935">
        <ele>82</ele>
        <time>2013-08-03T11:45:23Z</time>
      </trkpt>
      <trkpt lat="48.239" lon="3.24938">
        <ele>82</ele>
        <time>2013-08-03T11:45:29Z</time>
      </trkpt>
      <trkpt lat="48.23895" lon="3.24943">
        <ele>82</ele>
        <time>2013-08-03T11:45:32Z</time>
      </trkpt>
      <trkpt lat="48.2389" lon="3.24946">
        <ele>82</ele>
        <time>2013-08-03T11:45:35Z</time>
      </trkpt>
      <trkpt lat="48.23886" lon="3.24949">
        <ele>82</ele>
        <time>2013-08-03T11:45:39Z</time>
      </trkpt>
      <trkpt lat="48.23882" lon="3.24953">
        <ele>82</ele>
        <time>2013-08-03T11:45:42Z</time>
      </trkpt>
      <trkpt lat="48.23878" lon="3.24957">
        <ele>82</ele>
        <time>2013-08-03T11:45:45Z</time>
      </trkpt>
      <trkpt lat="48.23874" lon="3.2496">
        <ele>82</ele>
        <time>2013-08-03T11:45:48Z</time>
      </trkpt>
      <trkpt lat="48.23869" lon="3.24964">
        <ele>82</ele>
        <time>2013-08-03T11:45:54Z</time>
      </trkpt>
      <trkpt lat="48.23865" lon="3.24965">
        <ele>82</ele>
        <time>2013-08-03T11:45:59Z</time>
      </trkpt>
      <trkpt lat="48.23859" lon="3.24966">
        <ele>83</ele>
        <time>2013-08-03T11:46:02Z</time>
      </trkpt>
      <trkpt lat="48.23855" lon="3.24969">
        <ele>83</ele>
        <time>2013-08-03T11:46:05Z</time>
      </trkpt>
      <trkpt lat="48.23851" lon="3.24973">
        <ele>82</ele>
        <time>2013-08-03T11:46:08Z</time>
      </trkpt>
      <trkpt lat="48.23847" lon="3.24977">
        <ele>81</ele>
        <time>2013-08-03T11:46:12Z</time>
      </trkpt>
      <trkpt lat="48.23843" lon="3.24981">
        <ele>81</ele>
        <time>2013-08-03T11:46:16Z</time>
      </trkpt>
      <trkpt lat="48.23838" lon="3.24986">
        <ele>80</ele>
        <time>2013-08-03T11:46:20Z</time>
      </trkpt>
      <trkpt lat="48.23833" lon="3.24988">
        <ele>86</ele>
        <time>2013-08-03T11:46:25Z</time>
      </trkpt>
      <trkpt lat="48.23828" lon="3.24989">
        <ele>86</ele>
        <time>2013-08-03T11:46:31Z</time>
      </trkpt>
      <trkpt lat="48.23823" lon="3.24993">
        <ele>86</ele>
        <time>2013-08-03T11:46:36Z</time>
      </trkpt>
      <trkpt lat="48.23819" lon="3.24998">
        <ele>87</ele>
        <time>2013-08-03T11:46:40Z</time>
      </trkpt>
      <trkpt lat="48.23814" lon="3.25002">
        <ele>77</ele>
        <time>2013-08-03T11:46:43Z</time>
      </trkpt>
      <trkpt lat="48.23809" lon="3.25006">
        <ele>77</ele>
        <time>2013-08-03T11:46:46Z</time>
      </trkpt>
      <trkpt lat="48.23804" lon="3.2501">
        <ele>77</ele>
        <time>2013-08-03T11:46:49Z</time>
      </trkpt>
      <trkpt lat="48.23801" lon="3.25016">
        <ele>77</ele>
        <time>2013-08-03T11:46:52Z</time>
      </trkpt>
      <trkpt lat="48.23797" lon="3.25021">
        <ele>77</ele>
        <time>2013-08-03T11:46:56Z</time>
      </trkpt>
      <trkpt lat="48.23793" lon="3.25024">
        <ele>77</ele>
        <time>2013-08-03T11:47:03Z</time>
      </trkpt>
      <trkpt lat="48.23788" lon="3.25027">
        <ele>77</ele>
        <time>2013-08-03T11:47:07Z</time>
      </trkpt>
      <trkpt lat="48.23784" lon="3.2503">
        <ele>77</ele>
        <time>2013-08-03T11:47:10Z</time>
      </trkpt>
      <trkpt lat="48.23779" lon="3.25032">
        <ele>77</ele>
        <time>2013-08-03T11:47:14Z</time>
      </trkpt>
      <trkpt lat="48.23773" lon="3.25036">
        <ele>77</ele>
        <time>2013-08-03T11:47:18Z</time>
      </trkpt>
      <trkpt lat="48.23769" lon="3.2504">
        <ele>76</ele>
        <time>2013-08-03T11:47:22Z</time>
      </trkpt>
      <trkpt lat="48.23765" lon="3.25045">
        <ele>75</ele>
        <time>2013-08-03T11:47:26Z</time>
      </trkpt>
      <trkpt lat="48.2376" lon="3.25051">
        <ele>74</ele>
        <time>2013-08-03T11:47:30Z</time>
      </trkpt>
      <trkpt lat="48.23756" lon="3.25054">
        <ele>74</ele>
        <time>2013-08-03T11:47:34Z</time>
      </trkpt>
      <trkpt lat="48.23753" lon="3.25059">
        <ele>73</ele>
        <time>2013-08-03T11:47:38Z</time>
      </trkpt>
      <trkpt lat="48.23748" lon="3.25063">
        <ele>78</ele>
        <time>2013-08-03T11:47:43Z</time>
      </trkpt>
      <trkpt lat="48.23744" lon="3.25066">
        <ele>77</ele>
        <time>2013-08-03T11:47:47Z</time>
      </trkpt>
      <trkpt lat="48.23737" lon="3.25071">
        <ele>77</ele>
        <time>2013-08-03T11:47:50Z</time>
      </trkpt>
      <trkpt lat="48.23732" lon="3.25075">
        <ele>78</ele>
        <time>2013-08-03T11:47:52Z</time>
      </trkpt>
      <trkpt lat="48.23726" lon="3.25078">
        <ele>79</ele>
        <time>2013-08-03T11:47:55Z</time>
      </trkpt>
      <trkpt lat="48.23721" lon="3.25081">
        <ele>80</ele>
        <time>2013-08-03T11:48:00Z</time>
      </trkpt>
      <trkpt lat="48.23717" lon="3.25084">
        <ele>70</ele>
        <time>2013-08-03T11:48:05Z</time>
      </trkpt>
      <trkpt lat="48.23713" lon="3.25086">
        <ele>70</ele>
        <time>2013-08-03T11:48:10Z</time>
      </trkpt>
      <trkpt lat="48.23708" lon="3.2509">
        <ele>71</ele>
        <time>2013-08-03T11:48:15Z</time>
      </trkpt>
      <trkpt lat="48.23703" lon="3.25095">
        <ele>71</ele>
        <time>2013-08-03T11:48:20Z</time>
      </trkpt>
      <trkpt lat="48.23698" lon="3.251">
        <ele>72</ele>
        <time>2013-08-03T11:48:22Z</time>
      </trkpt>
      <trkpt lat="48.23693" lon="3.25103">
        <ele>72</ele>
        <time>2013-08-03T11:48:24Z</time>
      </trkpt>
      <trkpt lat="48.23693" lon="3.25106">
        <ele>72</ele>
        <time>2013-08-03T11:48:30Z</time>
      </trkpt>
      <trkpt lat="48.23689" lon="3.2511">
        <ele>72</ele>
        <time>2013-08-03T11:48:40Z</time>
      </trkpt>
      <trkpt lat="48.23684" lon="3.25114">
        <ele>72</ele>
        <time>2013-08-03T11:48:43Z</time>
      </trkpt>
      <trkpt lat="48.23681" lon="3.25119">
        <ele>71</ele>
        <time>2013-08-03T11:48:46Z</time>
      </trkpt>
      <trkpt lat="48.23678" lon="3.25126">
        <ele>70</ele>
        <time>2013-08-03T11:48:49Z</time>
      </trkpt>
      <trkpt lat="48.23673" lon="3.25129">
        <ele>70</ele>
        <time>2013-08-03T11:48:54Z</time>
      </trkpt>
      <trkpt lat="48.23668" lon="3.2513">
        <ele>70</ele>
        <time>2013-08-03T11:48:58Z</time>
      </trkpt>
      <trkpt lat="48.23663" lon="3.25133">
        <ele>77</ele>
        <time>2013-08-03T11:49:02Z</time>
      </trkpt>
      <trkpt lat="48.23658" lon="3.25136">
        <ele>76</ele>
        <time>2013-08-03T11:49:07Z</time>
      </trkpt>
      <trkpt lat="48.23653" lon="3.25139">
        <ele>76</ele>
        <time>2013-08-03T11:49:11Z</time>
      </trkpt>
      <trkpt lat="48.23649" lon="3.25144">
        <ele>76</ele>
        <time>2013-08-03T11:49:15Z</time>
      </trkpt>
      <trkpt lat="48.23646" lon="3.25148">
        <ele>76</ele>
        <time>2013-08-03T11:49:19Z</time>
      </trkpt>
      <trkpt lat="48.23642" lon="3.25154">
        <ele>76</ele>
        <time>2013-08-03T11:49:24Z</time>
      </trkpt>
      <trkpt lat="48.23638" lon="3.2516">
        <ele>76</ele>
        <time>2013-08-03T11:49:30Z</time>
      </trkpt>
      <trkpt lat="48.23634" lon="3.25163">
        <ele>76</ele>
        <time>2013-08-03T11:49:34Z</time>
      </trkpt>
      <trkpt lat="48.23629" lon="3.25165">
        <ele>77</ele>
        <time>2013-08-03T11:49:39Z</time>
      </trkpt>
      <trkpt lat="48.23625" lon="3.25169">
        <ele>73</ele>
        <time>2013-08-03T11:49:44Z</time>
      </trkpt>
      <trkpt lat="48.23621" lon="3.25173">
        <ele>73</ele>
        <time>2013-08-03T11:49:49Z</time>
      </trkpt>
      <trkpt lat="48.23617" lon="3.25179">
        <ele>73</ele>
        <time>2013-08-03T11:49:55Z</time>
      </trkpt>
      <trkpt lat="48.23613" lon="3.25182">
        <ele>74</ele>
        <time>2013-08-03T11:50:01Z</time>
      </trkpt>
      <trkpt lat="48.23609" lon="3.25187">
        <ele>74</ele>
        <time>2013-08-03T11:50:06Z</time>
      </trkpt>
      <trkpt lat="48.23604" lon="3.25192">
        <ele>75</ele>
        <time>2013-08-03T11:50:10Z</time>
      </trkpt>
      <trkpt lat="48.23598" lon="3.25197">
        <ele>75</ele>
        <time>2013-08-03T11:50:13Z</time>
      </trkpt>
      <trkpt lat="48.23593" lon="3.25202">
        <ele>75</ele>
        <time>2013-08-03T11:50:16Z</time>
      </trkpt>
      <trkpt lat="48.23588" lon="3.25207">
        <ele>75</ele>
        <time>2013-08-03T11:50:19Z</time>
      </trkpt>
      <trkpt lat="48.23584" lon="3.25211">
        <ele>75</ele>
        <time>2013-08-03T11:50:23Z</time>
      </trkpt>
      <trkpt lat="48.2358" lon="3.25215">
        <ele>79</ele>
        <time>2013-08-03T11:50:27Z</time>
      </trkpt>
      <trkpt lat="48.23575" lon="3.25218">
        <ele>79</ele>
        <time>2013-08-03T11:50:31Z</time>
      </trkpt>
      <trkpt lat="48.2357" lon="3.25221">
        <ele>79</ele>
        <time>2013-08-03T11:50:35Z</time>
      </trkpt>
      <trkpt lat="48.23566" lon="3.25225">
        <ele>79</ele>
        <time>2013-08-03T11:50:40Z</time>
      </trkpt>
      <trkpt lat="48.23563" lon="3.25226">
        <ele>79</ele>
        <time>2013-08-03T11:50:47Z</time>
      </trkpt>
      <trkpt lat="48.23563" lon="3.25233">
        <ele>79</ele>
        <time>2013-08-03T11:51:11Z</time>
      </trkpt>
      <trkpt lat="48.23559" lon="3.25237">
        <ele>79</ele>
        <time>2013-08-03T11:51:18Z</time>
      </trkpt>
      <trkpt lat="48.23552" lon="3.25242">
        <ele>79</ele>
        <time>2013-08-03T11:51:39Z</time>
      </trkpt>
      <trkpt lat="48.23548" lon="3.25245">
        <ele>79</ele>
        <time>2013-08-03T11:51:42Z</time>
      </trkpt>
      <trkpt lat="48.23543" lon="3.25248">
        <ele>79</ele>
        <time>2013-08-03T11:51:45Z</time>
      </trkpt>
      <trkpt lat="48.23538" lon="3.25252">
        <ele>75</ele>
        <time>2013-08-03T11:51:49Z</time>
      </trkpt>
      <trkpt lat="48.23534" lon="3.25256">
        <ele>75</ele>
        <time>2013-08-03T11:51:54Z</time>
      </trkpt>
      <trkpt lat="48.23531" lon="3.2526">
        <ele>75</ele>
        <time>2013-08-03T11:51:58Z</time>
      </trkpt>
      <trkpt lat="48.23527" lon="3.25265">
        <ele>74</ele>
        <time>2013-08-03T11:52:02Z</time>
      </trkpt>
      <trkpt lat="48.23523" lon="3.2527">
        <ele>74</ele>
        <time>2013-08-03T11:52:06Z</time>
      </trkpt>
      <trkpt lat="48.23518" lon="3.25273">
        <ele>74</ele>
        <time>2013-08-03T11:52:08Z</time>
      </trkpt>
      <trkpt lat="48.23514" lon="3.25276">
        <ele>74</ele>
        <time>2013-08-03T11:52:11Z</time>
      </trkpt>
      <trkpt lat="48.23509" lon="3.25281">
        <ele>74</ele>
        <time>2013-08-03T11:52:17Z</time>
      </trkpt>
      <trkpt lat="48.23506" lon="3.25285">
        <ele>74</ele>
        <time>2013-08-03T11:52:21Z</time>
      </trkpt>
      <trkpt lat="48.23503" lon="3.25291">
        <ele>73</ele>
        <time>2013-08-03T11:52:25Z</time>
      </trkpt>
      <trkpt lat="48.23502" lon="3.25294">
        <ele>73</ele>
        <time>2013-08-03T11:52:31Z</time>
      </trkpt>
      <trkpt lat="48.23496" lon="3.25296">
        <ele>74</ele>
        <time>2013-08-03T11:54:01Z</time>
      </trkpt>
      <trkpt lat="48.23492" lon="3.25298">
        <ele>73</ele>
        <time>2013-08-03T11:54:04Z</time>
      </trkpt>
      <trkpt lat="48.23488" lon="3.25301">
        <ele>73</ele>
        <time>2013-08-03T11:54:07Z</time>
      </trkpt>
      <trkpt lat="48.23483" lon="3.25305">
        <ele>73</ele>
        <time>2013-08-03T11:54:11Z</time>
      </trkpt>
      <trkpt lat="48.23479" lon="3.25309">
        <ele>73</ele>
        <time>2013-08-03T11:54:18Z</time>
      </trkpt>
      <trkpt lat="48.2348" lon="3.25313">
        <ele>73</ele>
        <time>2013-08-03T11:54:34Z</time>
      </trkpt>
      <trkpt lat="48.23475" lon="3.25314">
        <ele>73</ele>
        <time>2013-08-03T11:54:38Z</time>
      </trkpt>
      <trkpt lat="48.2347" lon="3.25316">
        <ele>73</ele>
        <time>2013-08-03T11:54:41Z</time>
      </trkpt>
      <trkpt lat="48.23466" lon="3.2532">
        <ele>73</ele>
        <time>2013-08-03T11:54:44Z</time>
      </trkpt>
      <trkpt lat="48.23462" lon="3.25324">
        <ele>73</ele>
        <time>2013-08-03T11:54:47Z</time>
      </trkpt>
      <trkpt lat="48.23459" lon="3.25329">
        <ele>73</ele>
        <time>2013-08-03T11:54:50Z</time>
      </trkpt>
      <trkpt lat="48.23455" lon="3.25334">
        <ele>69</ele>
        <time>2013-08-03T11:54:55Z</time>
      </trkpt>
      <trkpt lat="48.23453" lon="3.25328">
        <ele>73</ele>
        <time>2013-08-03T11:55:05Z</time>
      </trkpt>
      <trkpt lat="48.23448" lon="3.25332">
        <ele>73</ele>
        <time>2013-08-03T11:55:17Z</time>
      </trkpt>
      <trkpt lat="48.23444" lon="3.25337">
        <ele>70</ele>
        <time>2013-08-03T11:55:20Z</time>
      </trkpt>
      <trkpt lat="48.23439" lon="3.25343">
        <ele>70</ele>
        <time>2013-08-03T11:55:23Z</time>
      </trkpt>
      <trkpt lat="48.23435" lon="3.2535">
        <ele>70</ele>
        <time>2013-08-03T11:55:26Z</time>
      </trkpt>
      <trkpt lat="48.23431" lon="3.25355">
        <ele>69</ele>
        <time>2013-08-03T11:55:29Z</time>
      </trkpt>
      <trkpt lat="48.23427" lon="3.2536">
        <ele>69</ele>
        <time>2013-08-03T11:55:32Z</time>
      </trkpt>
      <trkpt lat="48.23423" lon="3.25365">
        <ele>69</ele>
        <time>2013-08-03T11:55:35Z</time>
      </trkpt>
      <trkpt lat="48.23419" lon="3.2537">
        <ele>69</ele>
        <time>2013-08-03T11:55:38Z</time>
      </trkpt>
      <trkpt lat="48.23415" lon="3.25374">
        <ele>70</ele>
        <time>2013-08-03T11:55:42Z</time>
      </trkpt>
      <trkpt lat="48.2341" lon="3.25377">
        <ele>70</ele>
        <time>2013-08-03T11:55:46Z</time>
      </trkpt>
      <trkpt lat="48.23406" lon="3.25381">
        <ele>69</ele>
        <time>2013-08-03T11:55:49Z</time>
      </trkpt>
      <trkpt lat="48.23403" lon="3.25385">
        <ele>69</ele>
        <time>2013-08-03T11:55:53Z</time>
      </trkpt>
      <trkpt lat="48.23398" lon="3.25389">
        <ele>69</ele>
        <time>2013-08-03T11:55:57Z</time>
      </trkpt>
      <trkpt lat="48.23393" lon="3.25392">
        <ele>69</ele>
        <time>2013-08-03T11:56:00Z</time>
      </trkpt>
      <trkpt lat="48.23389" lon="3.25396">
        <ele>69</ele>
        <time>2013-08-03T11:56:03Z</time>
      </trkpt>
      <trkpt lat="48.23385" lon="3.25399">
        <ele>69</ele>
        <time>2013-08-03T11:56:06Z</time>
      </trkpt>
      <trkpt lat="48.2338" lon="3.25403">
        <ele>69</ele>
        <time>2013-08-03T11:56:10Z</time>
      </trkpt>
      <trkpt lat="48.23374" lon="3.25403">
        <ele>69</ele>
        <time>2013-08-03T11:56:14Z</time>
      </trkpt>
      <trkpt lat="48.23369" lon="3.25407">
        <ele>69</ele>
        <time>2013-08-03T11:56:19Z</time>
      </trkpt>
      <trkpt lat="48.23365" lon="3.2541">
        <ele>69</ele>
        <time>2013-08-03T11:56:23Z</time>
      </trkpt>
      <trkpt lat="48.23361" lon="3.25415">
        <ele>69</ele>
        <time>2013-08-03T11:56:28Z</time>
      </trkpt>
      <trkpt lat="48.23356" lon="3.2542">
        <ele>67</ele>
        <time>2013-08-03T11:56:32Z</time>
      </trkpt>
      <trkpt lat="48.23352" lon="3.25424">
        <ele>67</ele>
        <time>2013-08-03T11:56:36Z</time>
      </trkpt>
      <trkpt lat="48.23349" lon="3.25427">
        <ele>67</ele>
        <time>2013-08-03T11:56:40Z</time>
      </trkpt>
      <trkpt lat="48.23344" lon="3.25432">
        <ele>67</ele>
        <time>2013-08-03T11:56:44Z</time>
      </trkpt>
      <trkpt lat="48.2334" lon="3.25437">
        <ele>67</ele>
        <time>2013-08-03T11:56:48Z</time>
      </trkpt>
      <trkpt lat="48.23337" lon="3.25442">
        <ele>67</ele>
        <time>2013-08-03T11:56:55Z</time>
      </trkpt>
      <trkpt lat="48.23332" lon="3.25445">
        <ele>68</ele>
        <time>2013-08-03T11:56:58Z</time>
      </trkpt>
      <trkpt lat="48.23326" lon="3.25449">
        <ele>67</ele>
        <time>2013-08-03T11:57:01Z</time>
      </trkpt>
      <trkpt lat="48.23322" lon="3.25452">
        <ele>67</ele>
        <time>2013-08-03T11:57:04Z</time>
      </trkpt>
      <trkpt lat="48.23318" lon="3.25456">
        <ele>67</ele>
        <time>2013-08-03T11:57:07Z</time>
      </trkpt>
      <trkpt lat="48.23313" lon="3.25461">
        <ele>67</ele>
        <time>2013-08-03T11:57:13Z</time>
      </trkpt>
      <trkpt lat="48.23308" lon="3.25465">
        <ele>67</ele>
        <time>2013-08-03T11:57:16Z</time>
      </trkpt>
      <trkpt lat="48.23303" lon="3.25466">
        <ele>67</ele>
        <time>2013-08-03T11:57:19Z</time>
      </trkpt>
      <trkpt lat="48.23299" lon="3.2547">
        <ele>67</ele>
        <time>2013-08-03T11:57:26Z</time>
      </trkpt>
      <trkpt lat="48.23294" lon="3.25474">
        <ele>67</ele>
        <time>2013-08-03T11:57:29Z</time>
      </trkpt>
      <trkpt lat="48.2329" lon="3.25479">
        <ele>67</ele>
        <time>2013-08-03T11:57:34Z</time>
      </trkpt>
      <trkpt lat="48.23285" lon="3.25482">
        <ele>67</ele>
        <time>2013-08-03T11:57:36Z</time>
      </trkpt>
      <trkpt lat="48.23281" lon="3.25486">
        <ele>67</ele>
        <time>2013-08-03T11:57:39Z</time>
      </trkpt>
      <trkpt lat="48.23278" lon="3.2549">
        <ele>67</ele>
        <time>2013-08-03T11:57:48Z</time>
      </trkpt>
      <trkpt lat="48.23276" lon="3.25498">
        <ele>67</ele>
        <time>2013-08-03T11:57:56Z</time>
      </trkpt>
      <trkpt lat="48.23272" lon="3.25503">
        <ele>65</ele>
        <time>2013-08-03T11:58:02Z</time>
      </trkpt>
      <trkpt lat="48.23268" lon="3.25509">
        <ele>65</ele>
        <time>2013-08-03T11:58:12Z</time>
      </trkpt>
      <trkpt lat="48.23264" lon="3.25514">
        <ele>65</ele>
        <time>2013-08-03T11:58:15Z</time>
      </trkpt>
      <trkpt lat="48.2326" lon="3.25519">
        <ele>65</ele>
        <time>2013-08-03T11:58:18Z</time>
      </trkpt>
      <trkpt lat="48.23255" lon="3.25523">
        <ele>65</ele>
        <time>2013-08-03T11:58:21Z</time>
      </trkpt>
      <trkpt lat="48.23251" lon="3.25528">
        <ele>65</ele>
        <time>2013-08-03T11:58:24Z</time>
      </trkpt>
      <trkpt lat="48.23245" lon="3.25534">
        <ele>65</ele>
        <time>2013-08-03T11:59:02Z</time>
      </trkpt>
      <trkpt lat="48.23241" lon="3.25538">
        <ele>65</ele>
        <time>2013-08-03T11:59:06Z</time>
      </trkpt>
      <trkpt lat="48.23235" lon="3.25541">
        <ele>65</ele>
        <time>2013-08-03T11:59:08Z</time>
      </trkpt>
      <trkpt lat="48.23228" lon="3.25545">
        <ele>65</ele>
        <time>2013-08-03T11:59:10Z</time>
      </trkpt>
      <trkpt lat="48.23221" lon="3.2555">
        <ele>65</ele>
        <time>2013-08-03T11:59:12Z</time>
      </trkpt>
      <trkpt lat="48.23216" lon="3.25554">
        <ele>65</ele>
        <time>2013-08-03T11:59:14Z</time>
      </trkpt>
      <trkpt lat="48.2321" lon="3.25558">
        <ele>65</ele>
        <time>2013-08-03T11:59:16Z</time>
      </trkpt>
      <trkpt lat="48.23204" lon="3.25563">
        <ele>65</ele>
        <time>2013-08-03T11:59:18Z</time>
      </trkpt>
      <trkpt lat="48.232" lon="3.25568">
        <ele>65</ele>
        <time>2013-08-03T11:59:20Z</time>
      </trkpt>
      <trkpt lat="48.23195" lon="3.25572">
        <ele>65</ele>
        <time>2013-08-03T11:59:22Z</time>
      </trkpt>
      <trkpt lat="48.23192" lon="3.25576">
        <ele>66</ele>
        <time>2013-08-03T11:59:24Z</time>
      </trkpt>
      <trkpt lat="48.23187" lon="3.25581">
        <ele>66</ele>
        <time>2013-08-03T11:59:28Z</time>
      </trkpt>
      <trkpt lat="48.23183" lon="3.25584">
        <ele>65</ele>
        <time>2013-08-03T11:59:31Z</time>
      </trkpt>
      <trkpt lat="48.23178" lon="3.25587">
        <ele>65</ele>
        <time>2013-08-03T11:59:33Z</time>
      </trkpt>
      <trkpt lat="48.23174" lon="3.2559">
        <ele>65</ele>
        <time>2013-08-03T11:59:35Z</time>
      </trkpt>
      <trkpt lat="48.23172" lon="3.25595">
        <ele>65</ele>
        <time>2013-08-03T11:59:47Z</time>
      </trkpt>
      <trkpt lat="48.23166" lon="3.256">
        <ele>66</ele>
        <time>2013-08-03T11:59:51Z</time>
      </trkpt>
      <trkpt lat="48.23163" lon="3.25605">
        <ele>66</ele>
        <time>2013-08-03T11:59:54Z</time>
      </trkpt>
      <trkpt lat="48.23158" lon="3.2561">
        <ele>66</ele>
        <time>2013-08-03T11:59:57Z</time>
      </trkpt>
      <trkpt lat="48.23151" lon="3.25617">
        <ele>66</ele>
        <time>2013-08-03T12:00:02Z</time>
      </trkpt>
      <trkpt lat="48.23148" lon="3.25623">
        <ele>66</ele>
        <time>2013-08-03T12:00:08Z</time>
      </trkpt>
      <trkpt lat="48.23144" lon="3.25628">
        <ele>66</ele>
        <time>2013-08-03T12:00:15Z</time>
      </trkpt>
      <trkpt lat="48.23139" lon="3.25632">
        <ele>66</ele>
        <time>2013-08-03T12:00:23Z</time>
      </trkpt>
      <trkpt lat="48.23135" lon="3.25637">
        <ele>66</ele>
        <time>2013-08-03T12:00:28Z</time>
      </trkpt>
      <trkpt lat="48.2313" lon="3.25641">
        <ele>66</ele>
        <time>2013-08-03T12:00:32Z</time>
      </trkpt>
      <trkpt lat="48.23125" lon="3.25647">
        <ele>66</ele>
        <time>2013-08-03T12:00:36Z</time>
      </trkpt>
      <trkpt lat="48.23121" lon="3.25651">
        <ele>66</ele>
        <time>2013-08-03T12:00:38Z</time>
      </trkpt>
      <trkpt lat="48.23118" lon="3.25654">
        <ele>66</ele>
        <time>2013-08-03T12:00:40Z</time>
      </trkpt>
      <trkpt lat="48.23113" lon="3.25657">
        <ele>66</ele>
        <time>2013-08-03T12:00:43Z</time>
      </trkpt>
      <trkpt lat="48.23111" lon="3.25664">
        <ele>66</ele>
        <time>2013-08-03T12:00:49Z</time>
      </trkpt>
      <trkpt lat="48.23107" lon="3.25668">
        <ele>66</ele>
        <time>2013-08-03T12:00:56Z</time>
      </trkpt>
      <trkpt lat="48.23103" lon="3.25674">
        <ele>66</ele>
        <time>2013-08-03T12:01:02Z</time>
      </trkpt>
      <trkpt lat="48.23099" lon="3.25679">
        <ele>66</ele>
        <time>2013-08-03T12:01:07Z</time>
      </trkpt>
      <trkpt lat="48.23094" lon="3.25685">
        <ele>66</ele>
        <time>2013-08-03T12:01:11Z</time>
      </trkpt>
      <trkpt lat="48.23089" lon="3.25687">
        <ele>66</ele>
        <time>2013-08-03T12:01:23Z</time>
      </trkpt>
      <trkpt lat="48.23084" lon="3.25689">
        <ele>66</ele>
        <time>2013-08-03T12:01:27Z</time>
      </trkpt>
      <trkpt lat="48.2308" lon="3.25693">
        <ele>67</ele>
        <time>2013-08-03T12:01:33Z</time>
      </trkpt>
      <trkpt lat="48.23076" lon="3.25697">
        <ele>67</ele>
        <time>2013-08-03T12:01:37Z</time>
      </trkpt>
      <trkpt lat="48.23072" lon="3.25702">
        <ele>66</ele>
        <time>2013-08-03T12:01:41Z</time>
      </trkpt>
      <trkpt lat="48.23067" lon="3.25707">
        <ele>66</ele>
        <time>2013-08-03T12:01:45Z</time>
      </trkpt>
      <trkpt lat="48.23064" lon="3.25712">
        <ele>66</ele>
        <time>2013-08-03T12:01:52Z</time>
      </trkpt>
      <trkpt lat="48.23056" lon="3.25724">
        <ele>66</ele>
        <time>2013-08-03T12:02:04Z</time>
      </trkpt>
      <trkpt lat="48.23052" lon="3.25729">
        <ele>66</ele>
        <time>2013-08-03T12:02:08Z</time>
      </trkpt>
      <trkpt lat="48.23048" lon="3.25732">
        <ele>66</ele>
        <time>2013-08-03T12:02:12Z</time>
      </trkpt>
      <trkpt lat="48.23043" lon="3.25736">
        <ele>66</ele>
        <time>2013-08-03T12:02:17Z</time>
      </trkpt>
      <trkpt lat="48.23038" lon="3.25739">
        <ele>66</ele>
        <time>2013-08-03T12:02:21Z</time>
      </trkpt>
      <trkpt lat="48.23034" lon="3.25741">
        <ele>66</ele>
        <time>2013-08-03T12:02:24Z</time>
      </trkpt>
      <trkpt lat="48.23029" lon="3.25745">
        <ele>66</ele>
        <time>2013-08-03T12:02:29Z</time>
      </trkpt>
      <trkpt lat="48.23025" lon="3.25746">
        <ele>66</ele>
        <time>2013-08-03T12:02:36Z</time>
      </trkpt>
      <trkpt lat="48.2302" lon="3.2575">
        <ele>66</ele>
        <time>2013-08-03T12:02:40Z</time>
      </trkpt>
      <trkpt lat="48.23016" lon="3.25754">
        <ele>65</ele>
        <time>2013-08-03T12:02:44Z</time>
      </trkpt>
      <trkpt lat="48.23012" lon="3.25758">
        <ele>65</ele>
        <time>2013-08-03T12:02:48Z</time>
      </trkpt>
      <trkpt lat="48.23008" lon="3.25763">
        <ele>65</ele>
        <time>2013-08-03T12:02:52Z</time>
      </trkpt>
      <trkpt lat="48.23002" lon="3.2577">
        <ele>65</ele>
        <time>2013-08-03T12:02:58Z</time>
      </trkpt>
      <trkpt lat="48.22998" lon="3.25775">
        <ele>66</ele>
        <time>2013-08-03T12:03:02Z</time>
      </trkpt>
      <trkpt lat="48.22994" lon="3.2578">
        <ele>65</ele>
        <time>2013-08-03T12:03:07Z</time>
      </trkpt>
      <trkpt lat="48.2299" lon="3.25782">
        <ele>65</ele>
        <time>2013-08-03T12:03:10Z</time>
      </trkpt>
      <trkpt lat="48.22986" lon="3.25787">
        <ele>65</ele>
        <time>2013-08-03T12:03:13Z</time>
      </trkpt>
      <trkpt lat="48.22983" lon="3.25792">
        <ele>65</ele>
        <time>2013-08-03T12:03:16Z</time>
      </trkpt>
      <trkpt lat="48.2298" lon="3.25798">
        <ele>65</ele>
        <time>2013-08-03T12:03:20Z</time>
      </trkpt>
      <trkpt lat="48.22977" lon="3.25802">
        <ele>65</ele>
        <time>2013-08-03T12:03:25Z</time>
      </trkpt>
      <trkpt lat="48.22971" lon="3.25803">
        <ele>65</ele>
        <time>2013-08-03T12:03:37Z</time>
      </trkpt>
      <trkpt lat="48.22965" lon="3.25807">
        <ele>65</ele>
        <time>2013-08-03T12:03:40Z</time>
      </trkpt>
      <trkpt lat="48.22962" lon="3.25812">
        <ele>65</ele>
        <time>2013-08-03T12:03:44Z</time>
      </trkpt>
      <trkpt lat="48.22957" lon="3.25819">
        <ele>65</ele>
        <time>2013-08-03T12:03:54Z</time>
      </trkpt>
      <trkpt lat="48.22952" lon="3.25822">
        <ele>65</ele>
        <time>2013-08-03T12:03:57Z</time>
      </trkpt>
      <trkpt lat="48.22947" lon="3.25828">
        <ele>65</ele>
        <time>2013-08-03T12:04:04Z</time>
      </trkpt>
      <trkpt lat="48.22942" lon="3.25831">
        <ele>65</ele>
        <time>2013-08-03T12:04:09Z</time>
      </trkpt>
      <trkpt lat="48.22943" lon="3.25839">
        <ele>64</ele>
        <time>2013-08-03T12:04:22Z</time>
      </trkpt>
      <trkpt lat="48.2294" lon="3.25843">
        <ele>64</ele>
        <time>2013-08-03T12:04:30Z</time>
      </trkpt>
      <trkpt lat="48.22935" lon="3.25846">
        <ele>64</ele>
        <time>2013-08-03T12:04:31Z</time>
      </trkpt>
      <trkpt lat="48.22931" lon="3.25851">
        <ele>64</ele>
        <time>2013-08-03T12:04:37Z</time>
      </trkpt>
      <trkpt lat="48.22929" lon="3.25857">
        <ele>64</ele>
        <time>2013-08-03T12:04:43Z</time>
      </trkpt>
      <trkpt lat="48.22924" lon="3.25861">
        <ele>64</ele>
        <time>2013-08-03T12:04:51Z</time>
      </trkpt>
      <trkpt lat="48.2292" lon="3.25864">
        <ele>64</ele>
        <time>2013-08-03T12:04:54Z</time>
      </trkpt>
      <trkpt lat="48.22913" lon="3.25867">
        <ele>64</ele>
        <time>2013-08-03T12:04:56Z</time>
      </trkpt>
      <trkpt lat="48.22909" lon="3.2587">
        <ele>64</ele>
        <time>2013-08-03T12:04:58Z</time>
      </trkpt>
      <trkpt lat="48.22902" lon="3.25874">
        <ele>64</ele>
        <time>2013-08-03T12:05:00Z</time>
      </trkpt>
      <trkpt lat="48.22895" lon="3.25878">
        <ele>64</ele>
        <time>2013-08-03T12:05:02Z</time>
      </trkpt>
      <trkpt lat="48.22889" lon="3.25883">
        <ele>64</ele>
        <time>2013-08-03T12:05:04Z</time>
      </trkpt>
      <trkpt lat="48.22884" lon="3.25887">
        <ele>64</ele>
        <time>2013-08-03T12:05:06Z</time>
      </trkpt>
      <trkpt lat="48.22881" lon="3.2589">
        <ele>64</ele>
        <time>2013-08-03T12:05:14Z</time>
      </trkpt>
      <trkpt lat="48.22877" lon="3.25895">
        <ele>64</ele>
        <time>2013-08-03T12:05:23Z</time>
      </trkpt>
      <trkpt lat="48.22871" lon="3.25899">
        <ele>64</ele>
        <time>2013-08-03T12:05:26Z</time>
      </trkpt>
      <trkpt lat="48.22866" lon="3.25901">
        <ele>64</ele>
        <time>2013-08-03T12:05:29Z</time>
      </trkpt>
      <trkpt lat="48.22863" lon="3.25907">
        <ele>64</ele>
        <time>2013-08-03T12:05:36Z</time>
      </trkpt>
      <trkpt lat="48.22856" lon="3.25913">
        <ele>64</ele>
        <time>2013-08-03T12:05:41Z</time>
      </trkpt>
      <trkpt lat="48.2285" lon="3.25917">
        <ele>65</ele>
        <time>2013-08-03T12:05:43Z</time>
      </trkpt>
      <trkpt lat="48.22847" lon="3.25919">
        <ele>64</ele>
        <time>2013-08-03T12:05:51Z</time>
      </trkpt>
      <trkpt lat="48.22842" lon="3.25924">
        <ele>64</ele>
        <time>2013-08-03T12:06:09Z</time>
      </trkpt>
      <trkpt lat="48.22838" lon="3.25928">
        <ele>64</ele>
        <time>2013-08-03T12:06:14Z</time>
      </trkpt>
      <trkpt lat="48.22832" lon="3.25931">
        <ele>64</ele>
        <time>2013-08-03T12:06:18Z</time>
      </trkpt>
      <trkpt lat="48.22827" lon="3.25932">
        <ele>64</ele>
        <time>2013-08-03T12:06:21Z</time>
      </trkpt>
      <trkpt lat="48.22822" lon="3.25935">
        <ele>64</ele>
        <time>2013-08-03T12:06:25Z</time>
      </trkpt>
      <trkpt lat="48.22818" lon="3.25937">
        <ele>64</ele>
        <time>2013-08-03T12:06:27Z</time>
      </trkpt>
      <trkpt lat="48.22813" lon="3.2594">
        <ele>64</ele>
        <time>2013-08-03T12:06:30Z</time>
      </trkpt>
      <trkpt lat="48.22812" lon="3.25947">
        <ele>64</ele>
        <time>2013-08-03T12:06:40Z</time>
      </trkpt>
      <trkpt lat="48.22808" lon="3.25951">
        <ele>64</ele>
        <time>2013-08-03T12:06:47Z</time>
      </trkpt>
      <trkpt lat="48.22802" lon="3.25955">
        <ele>64</ele>
        <time>2013-08-03T12:06:50Z</time>
      </trkpt>
      <trkpt lat="48.22797" lon="3.25959">
        <ele>63</ele>
        <time>2013-08-03T12:06:52Z</time>
      </trkpt>
      <trkpt lat="48.22791" lon="3.25963">
        <ele>63</ele>
        <time>2013-08-03T12:06:55Z</time>
      </trkpt>
      <trkpt lat="48.22788" lon="3.25969">
        <ele>63</ele>
        <time>2013-08-03T12:07:03Z</time>
      </trkpt>
      <trkpt lat="48.22783" lon="3.25973">
        <ele>63</ele>
        <time>2013-08-03T12:07:06Z</time>
      </trkpt>
      <trkpt lat="48.2278" lon="3.25979">
        <ele>63</ele>
        <time>2013-08-03T12:07:09Z</time>
      </trkpt>
      <trkpt lat="48.22776" lon="3.25981">
        <ele>63</ele>
        <time>2013-08-03T12:07:13Z</time>
      </trkpt>
      <trkpt lat="48.22771" lon="3.25984">
        <ele>63</ele>
        <time>2013-08-03T12:07:19Z</time>
      </trkpt>
      <trkpt lat="48.22767" lon="3.25988">
        <ele>63</ele>
        <time>2013-08-03T12:07:24Z</time>
      </trkpt>
      <trkpt lat="48.22762" lon="3.25992">
        <ele>63</ele>
        <time>2013-08-03T12:07:27Z</time>
      </trkpt>
      <trkpt lat="48.22758" lon="3.25994">
        <ele>63</ele>
        <time>2013-08-03T12:07:29Z</time>
      </trkpt>
      <trkpt lat="48.22753" lon="3.25995">
        <ele>63</ele>
        <time>2013-08-03T12:07:32Z</time>
      </trkpt>
      <trkpt lat="48.22747" lon="3.25998">
        <ele>63</ele>
        <time>2013-08-03T12:07:36Z</time>
      </trkpt>
      <trkpt lat="48.22741" lon="3.26">
        <ele>63</ele>
        <time>2013-08-03T12:07:39Z</time>
      </trkpt>
      <trkpt lat="48.22739" lon="3.26001">
        <ele>63</ele>
        <time>2013-08-03T12:07:45Z</time>
      </trkpt>
      <trkpt lat="48.22736" lon="3.26008">
        <ele>63</ele>
        <time>2013-08-03T12:07:55Z</time>
      </trkpt>
      <trkpt lat="48.22732" lon="3.26012">
        <ele>63</ele>
        <time>2013-08-03T12:07:59Z</time>
      </trkpt>
      <trkpt lat="48.22727" lon="3.26015">
        <ele>63</ele>
        <time>2013-08-03T12:08:02Z</time>
      </trkpt>
      <trkpt lat="48.22721" lon="3.26017">
        <ele>63</ele>
        <time>2013-08-03T12:08:04Z</time>
      </trkpt>
      <trkpt lat="48.22716" lon="3.26019">
        <ele>63</ele>
        <time>2013-08-03T12:08:06Z</time>
      </trkpt>
      <trkpt lat="48.22712" lon="3.2602">
        <ele>63</ele>
        <time>2013-08-03T12:08:10Z</time>
      </trkpt>
      <trkpt lat="48.22709" lon="3.26021">
        <ele>63</ele>
        <time>2013-08-03T12:08:17Z</time>
      </trkpt>
      <trkpt lat="48.22703" lon="3.26023">
        <ele>62</ele>
        <time>2013-08-03T12:08:27Z</time>
      </trkpt>
      <trkpt lat="48.22699" lon="3.26025">
        <ele>62</ele>
        <time>2013-08-03T12:08:33Z</time>
      </trkpt>
      <trkpt lat="48.22694" lon="3.26028">
        <ele>62</ele>
        <time>2013-08-03T12:08:37Z</time>
      </trkpt>
      <trkpt lat="48.22689" lon="3.2603">
        <ele>62</ele>
        <time>2013-08-03T12:08:41Z</time>
      </trkpt>
      <trkpt lat="48.22685" lon="3.26033">
        <ele>62</ele>
        <time>2013-08-03T12:08:45Z</time>
      </trkpt>
      <trkpt lat="48.22682" lon="3.26035">
        <ele>62</ele>
        <time>2013-08-03T12:08:53Z</time>
      </trkpt>
      <trkpt lat="48.22675" lon="3.26037">
        <ele>62</ele>
        <time>2013-08-03T12:08:57Z</time>
      </trkpt>
      <trkpt lat="48.22668" lon="3.26039">
        <ele>62</ele>
        <time>2013-08-03T12:08:59Z</time>
      </trkpt>
      <trkpt lat="48.22662" lon="3.26042">
        <ele>62</ele>
        <time>2013-08-03T12:09:01Z</time>
      </trkpt>
      <trkpt lat="48.22657" lon="3.26044">
        <ele>63</ele>
        <time>2013-08-03T12:09:04Z</time>
      </trkpt>
      <trkpt lat="48.22657" lon="3.2605">
        <ele>63</ele>
        <time>2013-08-03T12:09:13Z</time>
      </trkpt>
      <trkpt lat="48.22651" lon="3.26052">
        <ele>63</ele>
        <time>2013-08-03T12:09:17Z</time>
      </trkpt>
      <trkpt lat="48.22647" lon="3.26054">
        <ele>63</ele>
        <time>2013-08-03T12:09:19Z</time>
      </trkpt>
      <trkpt lat="48.22641" lon="3.26057">
        <ele>63</ele>
        <time>2013-08-03T12:09:21Z</time>
      </trkpt>
      <trkpt lat="48.22638" lon="3.26062">
        <ele>63</ele>
        <time>2013-08-03T12:09:33Z</time>
      </trkpt>
      <trkpt lat="48.22636" lon="3.26071">
        <ele>63</ele>
        <time>2013-08-03T12:09:38Z</time>
      </trkpt>
      <trkpt lat="48.22632" lon="3.26078">
        <ele>63</ele>
        <time>2013-08-03T12:09:41Z</time>
      </trkpt>
      <trkpt lat="48.22631" lon="3.26086">
        <ele>63</ele>
        <time>2013-08-03T12:09:44Z</time>
      </trkpt>
      <trkpt lat="48.22633" lon="3.26093">
        <ele>63</ele>
        <time>2013-08-03T12:09:48Z</time>
      </trkpt>
      <trkpt lat="48.22633" lon="3.26101">
        <ele>63</ele>
        <time>2013-08-03T12:09:52Z</time>
      </trkpt>
      <trkpt lat="48.22633" lon="3.26111">
        <ele>63</ele>
        <time>2013-08-03T12:09:55Z</time>
      </trkpt>
      <trkpt lat="48.22634" lon="3.26119">
        <ele>63</ele>
        <time>2013-08-03T12:09:59Z</time>
      </trkpt>
      <trkpt lat="48.22635" lon="3.26127">
        <ele>63</ele>
        <time>2013-08-03T12:10:04Z</time>
      </trkpt>
      <trkpt lat="48.22636" lon="3.26134">
        <ele>63</ele>
        <time>2013-08-03T12:10:08Z</time>
      </trkpt>
      <trkpt lat="48.22636" lon="3.26142">
        <ele>63</ele>
        <time>2013-08-03T12:10:12Z</time>
      </trkpt>
      <trkpt lat="48.22635" lon="3.26149">
        <ele>63</ele>
        <time>2013-08-03T12:10:15Z</time>
      </trkpt>
      <trkpt lat="48.22636" lon="3.26157">
        <ele>63</ele>
        <time>2013-08-03T12:10:20Z</time>
      </trkpt>
      <trkpt lat="48.22637" lon="3.26165">
        <ele>63</ele>
        <time>2013-08-03T12:10:25Z</time>
      </trkpt>
      <trkpt lat="48.22635" lon="3.26172">
        <ele>62</ele>
        <time>2013-08-03T12:10:30Z</time>
      </trkpt>
      <trkpt lat="48.22631" lon="3.26177">
        <ele>62</ele>
        <time>2013-08-03T12:10:35Z</time>
      </trkpt>
      <trkpt lat="48.22626" lon="3.26178">
        <ele>62</ele>
        <time>2013-08-03T12:10:39Z</time>
      </trkpt>
      <trkpt lat="48.22621" lon="3.26178">
        <ele>62</ele>
        <time>2013-08-03T12:10:43Z</time>
      </trkpt>
      <trkpt lat="48.22616" lon="3.26177">
        <ele>62</ele>
        <time>2013-08-03T12:10:47Z</time>
      </trkpt>
      <trkpt lat="48.2261" lon="3.26176">
        <ele>62</ele>
        <time>2013-08-03T12:10:51Z</time>
      </trkpt>
      <trkpt lat="48.22606" lon="3.26174">
        <ele>62</ele>
        <time>2013-08-03T12:10:55Z</time>
      </trkpt>
      <trkpt lat="48.22601" lon="3.2617">
        <ele>62</ele>
        <time>2013-08-03T12:11:01Z</time>
      </trkpt>
      <trkpt lat="48.22596" lon="3.26167">
        <ele>62</ele>
        <time>2013-08-03T12:11:06Z</time>
      </trkpt>
      <trkpt lat="48.22592" lon="3.26164">
        <ele>62</ele>
        <time>2013-08-03T12:11:12Z</time>
      </trkpt>
      <trkpt lat="48.22587" lon="3.26161">
        <ele>62</ele>
        <time>2013-08-03T12:11:17Z</time>
      </trkpt>
      <trkpt lat="48.22582" lon="3.26158">
        <ele>62</ele>
        <time>2013-08-03T12:11:23Z</time>
      </trkpt>
      <trkpt lat="48.22577" lon="3.26157">
        <ele>62</ele>
        <time>2013-08-03T12:11:28Z</time>
      </trkpt>
      <trkpt lat="48.22573" lon="3.26157">
        <ele>62</ele>
        <time>2013-08-03T12:11:35Z</time>
      </trkpt>
      <trkpt lat="48.22568" lon="3.26159">
        <ele>62</ele>
        <time>2013-08-03T12:11:39Z</time>
      </trkpt>
      <trkpt lat="48.22562" lon="3.26162">
        <ele>62</ele>
        <time>2013-08-03T12:11:44Z</time>
      </trkpt>
      <trkpt lat="48.22557" lon="3.26165">
        <ele>62</ele>
        <time>2013-08-03T12:11:47Z</time>
      </trkpt>
      <trkpt lat="48.22553" lon="3.26167">
        <ele>62</ele>
        <time>2013-08-03T12:11:50Z</time>
      </trkpt>
      <trkpt lat="48.22547" lon="3.2617">
        <ele>62</ele>
        <time>2013-08-03T12:11:54Z</time>
      </trkpt>
      <trkpt lat="48.22543" lon="3.26173">
        <ele>62</ele>
        <time>2013-08-03T12:11:57Z</time>
      </trkpt>
      <trkpt lat="48.22539" lon="3.26178">
        <ele>62</ele>
        <time>2013-08-03T12:12:00Z</time>
      </trkpt>
      <trkpt lat="48.22534" lon="3.2618">
        <ele>62</ele>
        <time>2013-08-03T12:12:04Z</time>
      </trkpt>
      <trkpt lat="48.2253" lon="3.26184">
        <ele>62</ele>
        <time>2013-08-03T12:12:09Z</time>
      </trkpt>
      <trkpt lat="48.22524" lon="3.26186">
        <ele>62</ele>
        <time>2013-08-03T12:12:29Z</time>
      </trkpt>
      <trkpt lat="48.22519" lon="3.26188">
        <ele>62</ele>
        <time>2013-08-03T12:12:32Z</time>
      </trkpt>
      <trkpt lat="48.22514" lon="3.26191">
        <ele>62</ele>
        <time>2013-08-03T12:12:35Z</time>
      </trkpt>
      <trkpt lat="48.2251" lon="3.26193">
        <ele>62</ele>
        <time>2013-08-03T12:12:38Z</time>
      </trkpt>
      <trkpt lat="48.22504" lon="3.26195">
        <ele>62</ele>
        <time>2013-08-03T12:12:42Z</time>
      </trkpt>
      <trkpt lat="48.22499" lon="3.26197">
        <ele>62</ele>
        <time>2013-08-03T12:12:46Z</time>
      </trkpt>
      <trkpt lat="48.22494" lon="3.26199">
        <ele>62</ele>
        <time>2013-08-03T12:12:50Z</time>
      </trkpt>
      <trkpt lat="48.22489" lon="3.26202">
        <ele>62</ele>
        <time>2013-08-03T12:12:54Z</time>
      </trkpt>
      <trkpt lat="48.22483" lon="3.26204">
        <ele>62</ele>
        <time>2013-08-03T12:12:58Z</time>
      </trkpt>
      <trkpt lat="48.22479" lon="3.26207">
        <ele>62</ele>
        <time>2013-08-03T12:13:02Z</time>
      </trkpt>
      <trkpt lat="48.22474" lon="3.2621">
        <ele>62</ele>
        <time>2013-08-03T12:13:06Z</time>
      </trkpt>
      <trkpt lat="48.22469" lon="3.26213">
        <ele>62</ele>
        <time>2013-08-03T12:13:10Z</time>
      </trkpt>
      <trkpt lat="48.22465" lon="3.26216">
        <ele>62</ele>
        <time>2013-08-03T12:13:14Z</time>
      </trkpt>
      <trkpt lat="48.2246" lon="3.26218">
        <ele>62</ele>
        <time>2013-08-03T12:13:18Z</time>
      </trkpt>
      <trkpt lat="48.22455" lon="3.2622">
        <ele>62</ele>
        <time>2013-08-03T12:13:22Z</time>
      </trkpt>
      <trkpt lat="48.2245" lon="3.26222">
        <ele>62</ele>
        <time>2013-08-03T12:13:26Z</time>
      </trkpt>
      <trkpt lat="48.22446" lon="3.26223">
        <ele>62</ele>
        <time>2013-08-03T12:13:30Z</time>
      </trkpt>
      <trkpt lat="48.2244" lon="3.26224">
        <ele>62</ele>
        <time>2013-08-03T12:13:34Z</time>
      </trkpt>
      <trkpt lat="48.22435" lon="3.26226">
        <ele>62</ele>
        <time>2013-08-03T12:13:38Z</time>
      </trkpt>
      <trkpt lat="48.22431" lon="3.26226">
        <ele>62</ele>
        <time>2013-08-03T12:13:42Z</time>
      </trkpt>
      <trkpt lat="48.22425" lon="3.26228">
        <ele>62</ele>
        <time>2013-08-03T12:13:48Z</time>
      </trkpt>
      <trkpt lat="48.2242" lon="3.26228">
        <ele>62</ele>
        <time>2013-08-03T12:13:53Z</time>
      </trkpt>
      <trkpt lat="48.22415" lon="3.2623">
        <ele>62</ele>
        <time>2013-08-03T12:13:57Z</time>
      </trkpt>
      <trkpt lat="48.2241" lon="3.2623">
        <ele>62</ele>
        <time>2013-08-03T12:14:02Z</time>
      </trkpt>
      <trkpt lat="48.22403" lon="3.26233">
        <ele>62</ele>
        <time>2013-08-03T12:14:11Z</time>
      </trkpt>
      <trkpt lat="48.22398" lon="3.26236">
        <ele>62</ele>
        <time>2013-08-03T12:14:14Z</time>
      </trkpt>
      <trkpt lat="48.22393" lon="3.26237">
        <ele>62</ele>
        <time>2013-08-03T12:14:17Z</time>
      </trkpt>
      <trkpt lat="48.22389" lon="3.26238">
        <ele>62</ele>
        <time>2013-08-03T12:14:20Z</time>
      </trkpt>
      <trkpt lat="48.22384" lon="3.26238">
        <ele>62</ele>
        <time>2013-08-03T12:14:23Z</time>
      </trkpt>
      <trkpt lat="48.22379" lon="3.2624">
        <ele>62</ele>
        <time>2013-08-03T12:14:27Z</time>
      </trkpt>
      <trkpt lat="48.22374" lon="3.26242">
        <ele>62</ele>
        <time>2013-08-03T12:14:31Z</time>
      </trkpt>
      <trkpt lat="48.2237" lon="3.26244">
        <ele>62</ele>
        <time>2013-08-03T12:14:35Z</time>
      </trkpt>
      <trkpt lat="48.22365" lon="3.26247">
        <ele>62</ele>
        <time>2013-08-03T12:14:40Z</time>
      </trkpt>
      <trkpt lat="48.22358" lon="3.26251">
        <ele>62</ele>
        <time>2013-08-03T12:14:43Z</time>
      </trkpt>
      <trkpt lat="48.22354" lon="3.26253">
        <ele>62</ele>
        <time>2013-08-03T12:14:45Z</time>
      </trkpt>
      <trkpt lat="48.22349" lon="3.26255">
        <ele>62</ele>
        <time>2013-08-03T12:14:49Z</time>
      </trkpt>
      <trkpt lat="48.22344" lon="3.26258">
        <ele>62</ele>
        <time>2013-08-03T12:14:54Z</time>
      </trkpt>
      <trkpt lat="48.22339" lon="3.2626">
        <ele>62</ele>
        <time>2013-08-03T12:14:58Z</time>
      </trkpt>
      <trkpt lat="48.22334" lon="3.26259">
        <ele>62</ele>
        <time>2013-08-03T12:15:02Z</time>
      </trkpt>
      <trkpt lat="48.22329" lon="3.2626">
        <ele>62</ele>
        <time>2013-08-03T12:15:07Z</time>
      </trkpt>
      <trkpt lat="48.22325" lon="3.26263">
        <ele>62</ele>
        <time>2013-08-03T12:15:11Z</time>
      </trkpt>
      <trkpt lat="48.22319" lon="3.26266">
        <ele>62</ele>
        <time>2013-08-03T12:15:17Z</time>
      </trkpt>
      <trkpt lat="48.22314" lon="3.26267">
        <ele>62</ele>
        <time>2013-08-03T12:15:21Z</time>
      </trkpt>
      <trkpt lat="48.22309" lon="3.26269">
        <ele>62</ele>
        <time>2013-08-03T12:15:25Z</time>
      </trkpt>
      <trkpt lat="48.22304" lon="3.26272">
        <ele>63</ele>
        <time>2013-08-03T12:15:29Z</time>
      </trkpt>
      <trkpt lat="48.22299" lon="3.26274">
        <ele>63</ele>
        <time>2013-08-03T12:15:33Z</time>
      </trkpt>
      <trkpt lat="48.22294" lon="3.26273">
        <ele>63</ele>
        <time>2013-08-03T12:15:37Z</time>
      </trkpt>
      <trkpt lat="48.22289" lon="3.26274">
        <ele>63</ele>
        <time>2013-08-03T12:15:41Z</time>
      </trkpt>
      <trkpt lat="48.22283" lon="3.26274">
        <ele>63</ele>
        <time>2013-08-03T12:15:45Z</time>
      </trkpt>
      <trkpt lat="48.22278" lon="3.26276">
        <ele>63</ele>
        <time>2013-08-03T12:15:52Z</time>
      </trkpt>
      <trkpt lat="48.22273" lon="3.26275">
        <ele>63</ele>
        <time>2013-08-03T12:15:56Z</time>
      </trkpt>
      <trkpt lat="48.22268" lon="3.26275">
        <ele>63</ele>
        <time>2013-08-03T12:16:01Z</time>
      </trkpt>
      <trkpt lat="48.22263" lon="3.26274">
        <ele>63</ele>
        <time>2013-08-03T12:16:08Z</time>
      </trkpt>
      <trkpt lat="48.22258" lon="3.26274">
        <ele>63</ele>
        <time>2013-08-03T12:16:12Z</time>
      </trkpt>
      <trkpt lat="48.22253" lon="3.26278">
        <ele>63</ele>
        <time>2013-08-03T12:16:16Z</time>
      </trkpt>
      <trkpt lat="48.22248" lon="3.2628">
        <ele>65</ele>
        <time>2013-08-03T12:16:20Z</time>
      </trkpt>
      <trkpt lat="48.22243" lon="3.2628">
        <ele>65</ele>
        <time>2013-08-03T12:16:24Z</time>
      </trkpt>
      <trkpt lat="48.22238" lon="3.26282">
        <ele>65</ele>
        <time>2013-08-03T12:16:28Z</time>
      </trkpt>
      <trkpt lat="48.22234" lon="3.26284">
        <ele>65</ele>
        <time>2013-08-03T12:16:32Z</time>
      </trkpt>
      <trkpt lat="48.22229" lon="3.26282">
        <ele>65</ele>
        <time>2013-08-03T12:16:38Z</time>
      </trkpt>
      <trkpt lat="48.22224" lon="3.26284">
        <ele>65</ele>
        <time>2013-08-03T12:16:44Z</time>
      </trkpt>
      <trkpt lat="48.22219" lon="3.26285">
        <ele>65</ele>
        <time>2013-08-03T12:16:48Z</time>
      </trkpt>
      <trkpt lat="48.22214" lon="3.26288">
        <ele>65</ele>
        <time>2013-08-03T12:16:51Z</time>
      </trkpt>
      <trkpt lat="48.22209" lon="3.2629">
        <ele>65</ele>
        <time>2013-08-03T12:16:55Z</time>
      </trkpt>
      <trkpt lat="48.22204" lon="3.2629">
        <ele>65</ele>
        <time>2013-08-03T12:16:59Z</time>
      </trkpt>
      <trkpt lat="48.22199" lon="3.26291">
        <ele>65</ele>
        <time>2013-08-03T12:17:03Z</time>
      </trkpt>
      <trkpt lat="48.22194" lon="3.26294">
        <ele>65</ele>
        <time>2013-08-03T12:17:08Z</time>
      </trkpt>
      <trkpt lat="48.22189" lon="3.26297">
        <ele>65</ele>
        <time>2013-08-03T12:17:12Z</time>
      </trkpt>
      <trkpt lat="48.22185" lon="3.263">
        <ele>65</ele>
        <time>2013-08-03T12:17:17Z</time>
      </trkpt>
      <trkpt lat="48.2218" lon="3.26303">
        <ele>65</ele>
        <time>2013-08-03T12:17:23Z</time>
      </trkpt>
      <trkpt lat="48.22175" lon="3.26307">
        <ele>65</ele>
        <time>2013-08-03T12:17:40Z</time>
      </trkpt>
      <trkpt lat="48.22169" lon="3.26309">
        <ele>65</ele>
        <time>2013-08-03T12:17:46Z</time>
      </trkpt>
      <trkpt lat="48.22165" lon="3.26311">
        <ele>66</ele>
        <time>2013-08-03T12:17:50Z</time>
      </trkpt>
      <trkpt lat="48.2216" lon="3.26315">
        <ele>66</ele>
        <time>2013-08-03T12:17:55Z</time>
      </trkpt>
      <trkpt lat="48.22155" lon="3.2632">
        <ele>66</ele>
        <time>2013-08-03T12:18:00Z</time>
      </trkpt>
      <trkpt lat="48.22151" lon="3.26324">
        <ele>66</ele>
        <time>2013-08-03T12:18:04Z</time>
      </trkpt>
      <trkpt lat="48.22146" lon="3.26327">
        <ele>66</ele>
        <time>2013-08-03T12:18:08Z</time>
      </trkpt>
      <trkpt lat="48.22142" lon="3.26331">
        <ele>66</ele>
        <time>2013-08-03T12:18:13Z</time>
      </trkpt>
      <trkpt lat="48.22138" lon="3.26336">
        <ele>64</ele>
        <time>2013-08-03T12:18:17Z</time>
      </trkpt>
      <trkpt lat="48.22133" lon="3.2634">
        <ele>64</ele>
        <time>2013-08-03T12:18:21Z</time>
      </trkpt>
      <trkpt lat="48.2213" lon="3.26345">
        <ele>64</ele>
        <time>2013-08-03T12:18:26Z</time>
      </trkpt>
      <trkpt lat="48.22125" lon="3.26348">
        <ele>64</ele>
        <time>2013-08-03T12:18:30Z</time>
      </trkpt>
      <trkpt lat="48.22121" lon="3.26353">
        <ele>64</ele>
        <time>2013-08-03T12:18:35Z</time>
      </trkpt>
      <trkpt lat="48.22116" lon="3.26357">
        <ele>64</ele>
        <time>2013-08-03T12:18:40Z</time>
      </trkpt>
      <trkpt lat="48.22111" lon="3.26359">
        <ele>64</ele>
        <time>2013-08-03T12:18:45Z</time>
      </trkpt>
      <trkpt lat="48.22106" lon="3.2636">
        <ele>64</ele>
        <time>2013-08-03T12:18:49Z</time>
      </trkpt>
      <trkpt lat="48.22101" lon="3.26363">
        <ele>64</ele>
        <time>2013-08-03T12:18:55Z</time>
      </trkpt>
      <trkpt lat="48.22096" lon="3.26363">
        <ele>64</ele>
        <time>2013-08-03T12:18:59Z</time>
      </trkpt>
      <trkpt lat="48.2209" lon="3.26363">
        <ele>64</ele>
        <time>2013-08-03T12:19:01Z</time>
      </trkpt>
      <trkpt lat="48.22086" lon="3.26363">
        <ele>64</ele>
        <time>2013-08-03T12:19:04Z</time>
      </trkpt>
      <trkpt lat="48.22081" lon="3.26366">
        <ele>64</ele>
        <time>2013-08-03T12:19:10Z</time>
      </trkpt>
      <trkpt lat="48.22076" lon="3.26367">
        <ele>64</ele>
        <time>2013-08-03T12:19:13Z</time>
      </trkpt>
      <trkpt lat="48.22069" lon="3.26367">
        <ele>64</ele>
        <time>2013-08-03T12:19:16Z</time>
      </trkpt>
      <trkpt lat="48.22065" lon="3.26368">
        <ele>64</ele>
        <time>2013-08-03T12:19:18Z</time>
      </trkpt>
      <trkpt lat="48.22058" lon="3.26369">
        <ele>64</ele>
        <time>2013-08-03T12:19:27Z</time>
      </trkpt>
      <trkpt lat="48.22053" lon="3.26369">
        <ele>64</ele>
        <time>2013-08-03T12:19:31Z</time>
      </trkpt>
      <trkpt lat="48.22048" lon="3.2637">
        <ele>64</ele>
        <time>2013-08-03T12:19:35Z</time>
      </trkpt>
      <trkpt lat="48.22044" lon="3.26373">
        <ele>64</ele>
        <time>2013-08-03T12:19:40Z</time>
      </trkpt>
      <trkpt lat="48.22038" lon="3.26376">
        <ele>64</ele>
        <time>2013-08-03T12:19:45Z</time>
      </trkpt>
      <trkpt lat="48.22033" lon="3.26378">
        <ele>64</ele>
        <time>2013-08-03T12:19:49Z</time>
      </trkpt>
      <trkpt lat="48.22028" lon="3.26378">
        <ele>64</ele>
        <time>2013-08-03T12:19:53Z</time>
      </trkpt>
      <trkpt lat="48.22023" lon="3.26376">
        <ele>64</ele>
        <time>2013-08-03T12:19:58Z</time>
      </trkpt>
      <trkpt lat="48.22018" lon="3.26375">
        <ele>64</ele>
        <time>2013-08-03T12:20:03Z</time>
      </trkpt>
      <trkpt lat="48.22013" lon="3.26374">
        <ele>64</ele>
        <time>2013-08-03T12:20:08Z</time>
      </trkpt>
      <trkpt lat="48.22009" lon="3.26373">
        <ele>64</ele>
        <time>2013-08-03T12:20:14Z</time>
      </trkpt>
      <trkpt lat="48.22004" lon="3.26376">
        <ele>64</ele>
        <time>2013-08-03T12:20:19Z</time>
      </trkpt>
      <trkpt lat="48.22" lon="3.26376">
        <ele>64</ele>
        <time>2013-08-03T12:20:23Z</time>
      </trkpt>
      <trkpt lat="48.21995" lon="3.26376">
        <ele>64</ele>
        <time>2013-08-03T12:20:27Z</time>
      </trkpt>
      <trkpt lat="48.21988" lon="3.26374">
        <ele>64</ele>
        <time>2013-08-03T12:20:30Z</time>
      </trkpt>
      <trkpt lat="48.21982" lon="3.26374">
        <ele>64</ele>
        <time>2013-08-03T12:20:33Z</time>
      </trkpt>
      <trkpt lat="48.21976" lon="3.26375">
        <ele>64</ele>
        <time>2013-08-03T12:20:36Z</time>
      </trkpt>
      <trkpt lat="48.21971" lon="3.26377">
        <ele>64</ele>
        <time>2013-08-03T12:20:40Z</time>
      </trkpt>
      <trkpt lat="48.21966" lon="3.26379">
        <ele>64</ele>
        <time>2013-08-03T12:20:44Z</time>
      </trkpt>
      <trkpt lat="48.2196" lon="3.26379">
        <ele>64</ele>
        <time>2013-08-03T12:20:49Z</time>
      </trkpt>
      <trkpt lat="48.21955" lon="3.26378">
        <ele>64</ele>
        <time>2013-08-03T12:20:58Z</time>
      </trkpt>
      <trkpt lat="48.21951" lon="3.26376">
        <ele>64</ele>
        <time>2013-08-03T12:21:08Z</time>
      </trkpt>
      <trkpt lat="48.21948" lon="3.26376">
        <ele>64</ele>
        <time>2013-08-03T12:21:17Z</time>
      </trkpt>
      <trkpt lat="48.21945" lon="3.2637">
        <ele>64</ele>
        <time>2013-08-03T12:21:25Z</time>
      </trkpt>
      <trkpt lat="48.2194" lon="3.26366">
        <ele>64</ele>
        <time>2013-08-03T12:21:29Z</time>
      </trkpt>
      <trkpt lat="48.21932" lon="3.26367">
        <ele>64</ele>
        <time>2013-08-03T12:21:43Z</time>
      </trkpt>
      <trkpt lat="48.21927" lon="3.26369">
        <ele>64</ele>
        <time>2013-08-03T12:21:49Z</time>
      </trkpt>
      <trkpt lat="48.21922" lon="3.26367">
        <ele>64</ele>
        <time>2013-08-03T12:21:52Z</time>
      </trkpt>
      <trkpt lat="48.21917" lon="3.26366">
        <ele>64</ele>
        <time>2013-08-03T12:21:56Z</time>
      </trkpt>
      <trkpt lat="48.21912" lon="3.26366">
        <ele>64</ele>
        <time>2013-08-03T12:22:01Z</time>
      </trkpt>
      <trkpt lat="48.21906" lon="3.26365">
        <ele>64</ele>
        <time>2013-08-03T12:22:04Z</time>
      </trkpt>
      <trkpt lat="48.21901" lon="3.26365">
        <ele>64</ele>
        <time>2013-08-03T12:22:07Z</time>
      </trkpt>
      <trkpt lat="48.21895" lon="3.26364">
        <ele>64</ele>
        <time>2013-08-03T12:22:13Z</time>
      </trkpt>
      <trkpt lat="48.21891" lon="3.2636">
        <ele>64</ele>
        <time>2013-08-03T12:22:16Z</time>
      </trkpt>
      <trkpt lat="48.21885" lon="3.26359">
        <ele>64</ele>
        <time>2013-08-03T12:22:20Z</time>
      </trkpt>
      <trkpt lat="48.21879" lon="3.26359">
        <ele>64</ele>
        <time>2013-08-03T12:22:24Z</time>
      </trkpt>
      <trkpt lat="48.21874" lon="3.26358">
        <ele>64</ele>
        <time>2013-08-03T12:22:27Z</time>
      </trkpt>
      <trkpt lat="48.21869" lon="3.26357">
        <ele>64</ele>
        <time>2013-08-03T12:22:31Z</time>
      </trkpt>
      <trkpt lat="48.21863" lon="3.26359">
        <ele>64</ele>
        <time>2013-08-03T12:22:35Z</time>
      </trkpt>
      <trkpt lat="48.21858" lon="3.2636">
        <ele>64</ele>
        <time>2013-08-03T12:22:39Z</time>
      </trkpt>
      <trkpt lat="48.21853" lon="3.26361">
        <ele>64</ele>
        <time>2013-08-03T12:22:42Z</time>
      </trkpt>
      <trkpt lat="48.21848" lon="3.26361">
        <ele>65</ele>
        <time>2013-08-03T12:22:48Z</time>
      </trkpt>
      <trkpt lat="48.21842" lon="3.26361">
        <ele>65</ele>
        <time>2013-08-03T12:22:51Z</time>
      </trkpt>
      <trkpt lat="48.21837" lon="3.2636">
        <ele>65</ele>
        <time>2013-08-03T12:23:02Z</time>
      </trkpt>
      <trkpt lat="48.21832" lon="3.26361">
        <ele>65</ele>
        <time>2013-08-03T12:23:08Z</time>
      </trkpt>
      <trkpt lat="48.21827" lon="3.26361">
        <ele>65</ele>
        <time>2013-08-03T12:23:13Z</time>
      </trkpt>
      <trkpt lat="48.21822" lon="3.26362">
        <ele>65</ele>
        <time>2013-08-03T12:23:19Z</time>
      </trkpt>
      <trkpt lat="48.21817" lon="3.26362">
        <ele>65</ele>
        <time>2013-08-03T12:23:24Z</time>
      </trkpt>
      <trkpt lat="48.21812" lon="3.26366">
        <ele>65</ele>
        <time>2013-08-03T12:23:28Z</time>
      </trkpt>
      <trkpt lat="48.21807" lon="3.26371">
        <ele>65</ele>
        <time>2013-08-03T12:23:33Z</time>
      </trkpt>
      <trkpt lat="48.21802" lon="3.26372">
        <ele>65</ele>
        <time>2013-08-03T12:23:41Z</time>
      </trkpt>
      <trkpt lat="48.21797" lon="3.26375">
        <ele>65</ele>
        <time>2013-08-03T12:23:46Z</time>
      </trkpt>
      <trkpt lat="48.21791" lon="3.26374">
        <ele>65</ele>
        <time>2013-08-03T12:23:51Z</time>
      </trkpt>
      <trkpt lat="48.21786" lon="3.26377">
        <ele>65</ele>
        <time>2013-08-03T12:23:58Z</time>
      </trkpt>
      <trkpt lat="48.21782" lon="3.26373">
        <ele>65</ele>
        <time>2013-08-03T12:24:05Z</time>
      </trkpt>
      <trkpt lat="48.21776" lon="3.26375">
        <ele>65</ele>
        <time>2013-08-03T12:24:09Z</time>
      </trkpt>
      <trkpt lat="48.21772" lon="3.26379">
        <ele>65</ele>
        <time>2013-08-03T12:24:14Z</time>
      </trkpt>
      <trkpt lat="48.21767" lon="3.26377">
        <ele>65</ele>
        <time>2013-08-03T12:24:37Z</time>
      </trkpt>
      <trkpt lat="48.21762" lon="3.26378">
        <ele>65</ele>
        <time>2013-08-03T12:24:40Z</time>
      </trkpt>
      <trkpt lat="48.21756" lon="3.2638">
        <ele>65</ele>
        <time>2013-08-03T12:24:43Z</time>
      </trkpt>
      <trkpt lat="48.21752" lon="3.26382">
        <ele>65</ele>
        <time>2013-08-03T12:24:47Z</time>
      </trkpt>
      <trkpt lat="48.21747" lon="3.26378">
        <ele>66</ele>
        <time>2013-08-03T12:24:56Z</time>
      </trkpt>
      <trkpt lat="48.21742" lon="3.26377">
        <ele>66</ele>
        <time>2013-08-03T12:25:01Z</time>
      </trkpt>
      <trkpt lat="48.21737" lon="3.26377">
        <ele>66</ele>
        <time>2013-08-03T12:25:07Z</time>
      </trkpt>
      <trkpt lat="48.21733" lon="3.26379">
        <ele>66</ele>
        <time>2013-08-03T12:25:12Z</time>
      </trkpt>
      <trkpt lat="48.21728" lon="3.2638">
        <ele>66</ele>
        <time>2013-08-03T12:25:18Z</time>
      </trkpt>
      <trkpt lat="48.21722" lon="3.26379">
        <ele>66</ele>
        <time>2013-08-03T12:25:22Z</time>
      </trkpt>
      <trkpt lat="48.21718" lon="3.26382">
        <ele>66</ele>
        <time>2013-08-03T12:25:32Z</time>
      </trkpt>
      <trkpt lat="48.21714" lon="3.26382">
        <ele>66</ele>
        <time>2013-08-03T12:25:37Z</time>
      </trkpt>
      <trkpt lat="48.21708" lon="3.26383">
        <ele>66</ele>
        <time>2013-08-03T12:25:42Z</time>
      </trkpt>
      <trkpt lat="48.21704" lon="3.26384">
        <ele>66</ele>
        <time>2013-08-03T12:25:46Z</time>
      </trkpt>
      <trkpt lat="48.21699" lon="3.26385">
        <ele>66</ele>
        <time>2013-08-03T12:25:49Z</time>
      </trkpt>
      <trkpt lat="48.21696" lon="3.26387">
        <ele>66</ele>
        <time>2013-08-03T12:25:55Z</time>
      </trkpt>
      <trkpt lat="48.21691" lon="3.26387">
        <ele>66</ele>
        <time>2013-08-03T12:26:06Z</time>
      </trkpt>
      <trkpt lat="48.21686" lon="3.2639">
        <ele>66</ele>
        <time>2013-08-03T12:26:11Z</time>
      </trkpt>
      <trkpt lat="48.2168" lon="3.26392">
        <ele>66</ele>
        <time>2013-08-03T12:26:16Z</time>
      </trkpt>
      <trkpt lat="48.21676" lon="3.26394">
        <ele>66</ele>
        <time>2013-08-03T12:26:20Z</time>
      </trkpt>
      <trkpt lat="48.2167" lon="3.26398">
        <ele>66</ele>
        <time>2013-08-03T12:26:32Z</time>
      </trkpt>
      <trkpt lat="48.21665" lon="3.264">
        <ele>66</ele>
        <time>2013-08-03T12:26:36Z</time>
      </trkpt>
      <trkpt lat="48.21659" lon="3.264">
        <ele>66</ele>
        <time>2013-08-03T12:26:41Z</time>
      </trkpt>
      <trkpt lat="48.21654" lon="3.26399">
        <ele>66</ele>
        <time>2013-08-03T12:26:45Z</time>
      </trkpt>
      <trkpt lat="48.21649" lon="3.26395">
        <ele>66</ele>
        <time>2013-08-03T12:26:50Z</time>
      </trkpt>
      <trkpt lat="48.21645" lon="3.26399">
        <ele>66</ele>
        <time>2013-08-03T12:27:03Z</time>
      </trkpt>
      <trkpt lat="48.2164" lon="3.26401">
        <ele>66</ele>
        <time>2013-08-03T12:27:07Z</time>
      </trkpt>
      <trkpt lat="48.21635" lon="3.26403">
        <ele>65</ele>
        <time>2013-08-03T12:27:14Z</time>
      </trkpt>
      <trkpt lat="48.2163" lon="3.26402">
        <ele>65</ele>
        <time>2013-08-03T12:27:19Z</time>
      </trkpt>
      <trkpt lat="48.21625" lon="3.264">
        <ele>65</ele>
        <time>2013-08-03T12:27:24Z</time>
      </trkpt>
      <trkpt lat="48.2162" lon="3.26401">
        <ele>65</ele>
        <time>2013-08-03T12:27:29Z</time>
      </trkpt>
      <trkpt lat="48.21615" lon="3.26404">
        <ele>65</ele>
        <time>2013-08-03T12:27:34Z</time>
      </trkpt>
      <trkpt lat="48.21609" lon="3.26406">
        <ele>66</ele>
        <time>2013-08-03T12:27:38Z</time>
      </trkpt>
      <trkpt lat="48.21604" lon="3.26408">
        <ele>66</ele>
        <time>2013-08-03T12:27:41Z</time>
      </trkpt>
      <trkpt lat="48.216" lon="3.2641">
        <ele>66</ele>
        <time>2013-08-03T12:27:46Z</time>
      </trkpt>
      <trkpt lat="48.21595" lon="3.26413">
        <ele>66</ele>
        <time>2013-08-03T12:27:51Z</time>
      </trkpt>
      <trkpt lat="48.2159" lon="3.26414">
        <ele>66</ele>
        <time>2013-08-03T12:27:56Z</time>
      </trkpt>
      <trkpt lat="48.21584" lon="3.26415">
        <ele>66</ele>
        <time>2013-08-03T12:28:01Z</time>
      </trkpt>
      <trkpt lat="48.21579" lon="3.26414">
        <ele>66</ele>
        <time>2013-08-03T12:28:07Z</time>
      </trkpt>
      <trkpt lat="48.21574" lon="3.26415">
        <ele>66</ele>
        <time>2013-08-03T12:28:12Z</time>
      </trkpt>
      <trkpt lat="48.21568" lon="3.26413">
        <ele>66</ele>
        <time>2013-08-03T12:28:16Z</time>
      </trkpt>
      <trkpt lat="48.21564" lon="3.26416">
        <ele>66</ele>
        <time>2013-08-03T12:28:22Z</time>
      </trkpt>
      <trkpt lat="48.21559" lon="3.26418">
        <ele>66</ele>
        <time>2013-08-03T12:28:26Z</time>
      </trkpt>
      <trkpt lat="48.21554" lon="3.26418">
        <ele>66</ele>
        <time>2013-08-03T12:28:30Z</time>
      </trkpt>
      <trkpt lat="48.21549" lon="3.26419">
        <ele>66</ele>
        <time>2013-08-03T12:28:34Z</time>
      </trkpt>
      <trkpt lat="48.21544" lon="3.26421">
        <ele>66</ele>
        <time>2013-08-03T12:28:38Z</time>
      </trkpt>
      <trkpt lat="48.21539" lon="3.26422">
        <ele>66</ele>
        <time>2013-08-03T12:28:43Z</time>
      </trkpt>
      <trkpt lat="48.21534" lon="3.26423">
        <ele>66</ele>
        <time>2013-08-03T12:28:48Z</time>
      </trkpt>
      <trkpt lat="48.21529" lon="3.26424">
        <ele>66</ele>
        <time>2013-08-03T12:28:53Z</time>
      </trkpt>
      <trkpt lat="48.21524" lon="3.26424">
        <ele>66</ele>
        <time>2013-08-03T12:28:58Z</time>
      </trkpt>
      <trkpt lat="48.21521" lon="3.26422">
        <ele>66</ele>
        <time>2013-08-03T12:29:09Z</time>
      </trkpt>
      <trkpt lat="48.21515" lon="3.26424">
        <ele>66</ele>
        <time>2013-08-03T12:29:21Z</time>
      </trkpt>
      <trkpt lat="48.2151" lon="3.26426">
        <ele>66</ele>
        <time>2013-08-03T12:29:25Z</time>
      </trkpt>
      <trkpt lat="48.21501" lon="3.26429">
        <ele>66</ele>
        <time>2013-08-03T12:29:34Z</time>
      </trkpt>
      <trkpt lat="48.21497" lon="3.26433">
        <ele>66</ele>
        <time>2013-08-03T12:29:39Z</time>
      </trkpt>
      <trkpt lat="48.21495" lon="3.26441">
        <ele>66</ele>
        <time>2013-08-03T12:29:42Z</time>
      </trkpt>
      <trkpt lat="48.21489" lon="3.26441">
        <ele>66</ele>
        <time>2013-08-03T12:29:49Z</time>
      </trkpt>
      <trkpt lat="48.21484" lon="3.26435">
        <ele>66</ele>
        <time>2013-08-03T12:29:53Z</time>
      </trkpt>
      <trkpt lat="48.21479" lon="3.26432">
        <ele>66</ele>
        <time>2013-08-03T12:29:57Z</time>
      </trkpt>
      <trkpt lat="48.21474" lon="3.2643">
        <ele>66</ele>
        <time>2013-08-03T12:30:01Z</time>
      </trkpt>
      <trkpt lat="48.2147" lon="3.26433">
        <ele>66</ele>
        <time>2013-08-03T12:30:05Z</time>
      </trkpt>
      <trkpt lat="48.21465" lon="3.26435">
        <ele>66</ele>
        <time>2013-08-03T12:30:10Z</time>
      </trkpt>
      <trkpt lat="48.2146" lon="3.26436">
        <ele>66</ele>
        <time>2013-08-03T12:30:15Z</time>
      </trkpt>
      <trkpt lat="48.21455" lon="3.26438">
        <ele>67</ele>
        <time>2013-08-03T12:30:20Z</time>
      </trkpt>
      <trkpt lat="48.2145" lon="3.26441">
        <ele>67</ele>
        <time>2013-08-03T12:30:25Z</time>
      </trkpt>
      <trkpt lat="48.21445" lon="3.26439">
        <ele>67</ele>
        <time>2013-08-03T12:30:30Z</time>
      </trkpt>
      <trkpt lat="48.2144" lon="3.26437">
        <ele>67</ele>
        <time>2013-08-03T12:30:34Z</time>
      </trkpt>
      <trkpt lat="48.21435" lon="3.26438">
        <ele>67</ele>
        <time>2013-08-03T12:30:39Z</time>
      </trkpt>
      <trkpt lat="48.21431" lon="3.26442">
        <ele>67</ele>
        <time>2013-08-03T12:30:44Z</time>
      </trkpt>
      <trkpt lat="48.21426" lon="3.26443">
        <ele>67</ele>
        <time>2013-08-03T12:30:48Z</time>
      </trkpt>
      <trkpt lat="48.21421" lon="3.26444">
        <ele>67</ele>
        <time>2013-08-03T12:30:52Z</time>
      </trkpt>
      <trkpt lat="48.21416" lon="3.26443">
        <ele>68</ele>
        <time>2013-08-03T12:30:56Z</time>
      </trkpt>
      <trkpt lat="48.21411" lon="3.26443">
        <ele>68</ele>
        <time>2013-08-03T12:30:59Z</time>
      </trkpt>
      <trkpt lat="48.21406" lon="3.26445">
        <ele>68</ele>
        <time>2013-08-03T12:31:02Z</time>
      </trkpt>
      <trkpt lat="48.21401" lon="3.26449">
        <ele>67</ele>
        <time>2013-08-03T12:31:06Z</time>
      </trkpt>
      <trkpt lat="48.21396" lon="3.26448">
        <ele>67</ele>
        <time>2013-08-03T12:31:11Z</time>
      </trkpt>
      <trkpt lat="48.2139" lon="3.26449">
        <ele>68</ele>
        <time>2013-08-03T12:31:16Z</time>
      </trkpt>
      <trkpt lat="48.21385" lon="3.26451">
        <ele>67</ele>
        <time>2013-08-03T12:31:19Z</time>
      </trkpt>
      <trkpt lat="48.2138" lon="3.26451">
        <ele>67</ele>
        <time>2013-08-03T12:31:23Z</time>
      </trkpt>
      <trkpt lat="48.21375" lon="3.2645">
        <ele>68</ele>
        <time>2013-08-03T12:31:28Z</time>
      </trkpt>
      <trkpt lat="48.2137" lon="3.26452">
        <ele>68</ele>
        <time>2013-08-03T12:31:32Z</time>
      </trkpt>
      <trkpt lat="48.21365" lon="3.26453">
        <ele>68</ele>
        <time>2013-08-03T12:31:35Z</time>
      </trkpt>
      <trkpt lat="48.2136" lon="3.2646">
        <ele>67</ele>
        <time>2013-08-03T12:31:38Z</time>
      </trkpt>
      <trkpt lat="48.21356" lon="3.26462">
        <ele>67</ele>
        <time>2013-08-03T12:31:41Z</time>
      </trkpt>
      <trkpt lat="48.21351" lon="3.26464">
        <ele>67</ele>
        <time>2013-08-03T12:31:46Z</time>
      </trkpt>
      <trkpt lat="48.21347" lon="3.26465">
        <ele>67</ele>
        <time>2013-08-03T12:31:51Z</time>
      </trkpt>
      <trkpt lat="48.21341" lon="3.26467">
        <ele>67</ele>
        <time>2013-08-03T12:32:00Z</time>
      </trkpt>
      <trkpt lat="48.21335" lon="3.26467">
        <ele>67</ele>
        <time>2013-08-03T12:32:03Z</time>
      </trkpt>
      <trkpt lat="48.2133" lon="3.26466">
        <ele>69</ele>
        <time>2013-08-03T12:32:08Z</time>
      </trkpt>
      <trkpt lat="48.21325" lon="3.26467">
        <ele>69</ele>
        <time>2013-08-03T12:32:13Z</time>
      </trkpt>
      <trkpt lat="48.2132" lon="3.26468">
        <ele>69</ele>
        <time>2013-08-03T12:32:18Z</time>
      </trkpt>
      <trkpt lat="48.21315" lon="3.26471">
        <ele>69</ele>
        <time>2013-08-03T12:32:21Z</time>
      </trkpt>
      <trkpt lat="48.21309" lon="3.26472">
        <ele>69</ele>
        <time>2013-08-03T12:32:24Z</time>
      </trkpt>
      <trkpt lat="48.21303" lon="3.26475">
        <ele>69</ele>
        <time>2013-08-03T12:32:28Z</time>
      </trkpt>
      <trkpt lat="48.21299" lon="3.26478">
        <ele>69</ele>
        <time>2013-08-03T12:32:31Z</time>
      </trkpt>
      <trkpt lat="48.21294" lon="3.26481">
        <ele>69</ele>
        <time>2013-08-03T12:32:35Z</time>
      </trkpt>
      <trkpt lat="48.21289" lon="3.26483">
        <ele>69</ele>
        <time>2013-08-03T12:32:39Z</time>
      </trkpt>
      <trkpt lat="48.21285" lon="3.26485">
        <ele>69</ele>
        <time>2013-08-03T12:32:43Z</time>
      </trkpt>
      <trkpt lat="48.21279" lon="3.26487">
        <ele>69</ele>
        <time>2013-08-03T12:32:48Z</time>
      </trkpt>
      <trkpt lat="48.21275" lon="3.26488">
        <ele>69</ele>
        <time>2013-08-03T12:32:52Z</time>
      </trkpt>
      <trkpt lat="48.2127" lon="3.26489">
        <ele>69</ele>
        <time>2013-08-03T12:32:56Z</time>
      </trkpt>
      <trkpt lat="48.21265" lon="3.2649">
        <ele>69</ele>
        <time>2013-08-03T12:32:59Z</time>
      </trkpt>
      <trkpt lat="48.2126" lon="3.26492">
        <ele>69</ele>
        <time>2013-08-03T12:33:02Z</time>
      </trkpt>
      <trkpt lat="48.21256" lon="3.26493">
        <ele>68</ele>
        <time>2013-08-03T12:33:05Z</time>
      </trkpt>
      <trkpt lat="48.21252" lon="3.26495">
        <ele>68</ele>
        <time>2013-08-03T12:33:09Z</time>
      </trkpt>
      <trkpt lat="48.21247" lon="3.26499">
        <ele>68</ele>
        <time>2013-08-03T12:33:13Z</time>
      </trkpt>
      <trkpt lat="48.21242" lon="3.26502">
        <ele>67</ele>
        <time>2013-08-03T12:33:19Z</time>
      </trkpt>
      <trkpt lat="48.21239" lon="3.26508">
        <ele>67</ele>
        <time>2013-08-03T12:33:26Z</time>
      </trkpt>
      <trkpt lat="48.21234" lon="3.26513">
        <ele>67</ele>
        <time>2013-08-03T12:33:31Z</time>
      </trkpt>
      <trkpt lat="48.21232" lon="3.26519">
        <ele>67</ele>
        <time>2013-08-03T12:33:36Z</time>
      </trkpt>
      <trkpt lat="48.21229" lon="3.26525">
        <ele>66</ele>
        <time>2013-08-03T12:33:40Z</time>
      </trkpt>
      <trkpt lat="48.21224" lon="3.2653">
        <ele>66</ele>
        <time>2013-08-03T12:33:44Z</time>
      </trkpt>
      <trkpt lat="48.21219" lon="3.26537">
        <ele>66</ele>
        <time>2013-08-03T12:33:48Z</time>
      </trkpt>
      <trkpt lat="48.21215" lon="3.26541">
        <ele>66</ele>
        <time>2013-08-03T12:33:52Z</time>
      </trkpt>
      <trkpt lat="48.2121" lon="3.26547">
        <ele>66</ele>
        <time>2013-08-03T12:33:56Z</time>
      </trkpt>
      <trkpt lat="48.21208" lon="3.26552">
        <ele>66</ele>
        <time>2013-08-03T12:33:59Z</time>
      </trkpt>
      <trkpt lat="48.21204" lon="3.26557">
        <ele>66</ele>
        <time>2013-08-03T12:34:02Z</time>
      </trkpt>
      <trkpt lat="48.21201" lon="3.26562">
        <ele>66</ele>
        <time>2013-08-03T12:34:06Z</time>
      </trkpt>
      <trkpt lat="48.21197" lon="3.26565">
        <ele>66</ele>
        <time>2013-08-03T12:34:11Z</time>
      </trkpt>
      <trkpt lat="48.21192" lon="3.2657">
        <ele>66</ele>
        <time>2013-08-03T12:34:16Z</time>
      </trkpt>
      <trkpt lat="48.21188" lon="3.26573">
        <ele>66</ele>
        <time>2013-08-03T12:34:20Z</time>
      </trkpt>
      <trkpt lat="48.2118" lon="3.26581">
        <ele>65</ele>
        <time>2013-08-03T12:34:29Z</time>
      </trkpt>
      <trkpt lat="48.21175" lon="3.26583">
        <ele>65</ele>
        <time>2013-08-03T12:34:33Z</time>
      </trkpt>
      <trkpt lat="48.21171" lon="3.26587">
        <ele>65</ele>
        <time>2013-08-03T12:34:37Z</time>
      </trkpt>
      <trkpt lat="48.21166" lon="3.26591">
        <ele>65</ele>
        <time>2013-08-03T12:34:42Z</time>
      </trkpt>
      <trkpt lat="48.21162" lon="3.26592">
        <ele>65</ele>
        <time>2013-08-03T12:34:46Z</time>
      </trkpt>
      <trkpt lat="48.21157" lon="3.26593">
        <ele>65</ele>
        <time>2013-08-03T12:34:50Z</time>
      </trkpt>
      <trkpt lat="48.21151" lon="3.26592">
        <ele>65</ele>
        <time>2013-08-03T12:34:57Z</time>
      </trkpt>
      <trkpt lat="48.21149" lon="3.26593">
        <ele>65</ele>
        <time>2013-08-03T12:35:03Z</time>
      </trkpt>
      <trkpt lat="48.21144" lon="3.26595">
        <ele>65</ele>
        <time>2013-08-03T12:35:10Z</time>
      </trkpt>
      <trkpt lat="48.2114" lon="3.26596">
        <ele>65</ele>
        <time>2013-08-03T12:35:14Z</time>
      </trkpt>
      <trkpt lat="48.21135" lon="3.26599">
        <ele>65</ele>
        <time>2013-08-03T12:35:31Z</time>
      </trkpt>
      <trkpt lat="48.21131" lon="3.26598">
        <ele>65</ele>
        <time>2013-08-03T12:35:35Z</time>
      </trkpt>
      <trkpt lat="48.21125" lon="3.26599">
        <ele>65</ele>
        <time>2013-08-03T12:35:42Z</time>
      </trkpt>
      <trkpt lat="48.21121" lon="3.26598">
        <ele>65</ele>
        <time>2013-08-03T12:35:47Z</time>
      </trkpt>
      <trkpt lat="48.21115" lon="3.26599">
        <ele>65</ele>
        <time>2013-08-03T12:35:52Z</time>
      </trkpt>
      <trkpt lat="48.2111" lon="3.26599">
        <ele>65</ele>
        <time>2013-08-03T12:35:56Z</time>
      </trkpt>
      <trkpt lat="48.21105" lon="3.26598">
        <ele>65</ele>
        <time>2013-08-03T12:36:01Z</time>
      </trkpt>
      <trkpt lat="48.21099" lon="3.26599">
        <ele>65</ele>
        <time>2013-08-03T12:36:05Z</time>
      </trkpt>
      <trkpt lat="48.21094" lon="3.26598">
        <ele>65</ele>
        <time>2013-08-03T12:36:10Z</time>
      </trkpt>
      <trkpt lat="48.21089" lon="3.26599">
        <ele>65</ele>
        <time>2013-08-03T12:36:15Z</time>
      </trkpt>
      <trkpt lat="48.21084" lon="3.26598">
        <ele>65</ele>
        <time>2013-08-03T12:36:20Z</time>
      </trkpt>
      <trkpt lat="48.21079" lon="3.26598">
        <ele>65</ele>
        <time>2013-08-03T12:36:24Z</time>
      </trkpt>
      <trkpt lat="48.21074" lon="3.26597">
        <ele>65</ele>
        <time>2013-08-03T12:36:29Z</time>
      </trkpt>
      <trkpt lat="48.21069" lon="3.26598">
        <ele>65</ele>
        <time>2013-08-03T12:36:33Z</time>
      </trkpt>
      <trkpt lat="48.21064" lon="3.26598">
        <ele>65</ele>
        <time>2013-08-03T12:36:38Z</time>
      </trkpt>
      <trkpt lat="48.2106" lon="3.26595">
        <ele>65</ele>
        <time>2013-08-03T12:36:42Z</time>
      </trkpt>
      <trkpt lat="48.21055" lon="3.26594">
        <ele>65</ele>
        <time>2013-08-03T12:36:46Z</time>
      </trkpt>
      <trkpt lat="48.2105" lon="3.26594">
        <ele>65</ele>
        <time>2013-08-03T12:36:52Z</time>
      </trkpt>
      <trkpt lat="48.21043" lon="3.2659">
        <ele>65</ele>
        <time>2013-08-03T12:37:02Z</time>
      </trkpt>
      <trkpt lat="48.21039" lon="3.26587">
        <ele>65</ele>
        <time>2013-08-03T12:37:06Z</time>
      </trkpt>
      <trkpt lat="48.21034" lon="3.26586">
        <ele>65</ele>
        <time>2013-08-03T12:37:11Z</time>
      </trkpt>
      <trkpt lat="48.21029" lon="3.26585">
        <ele>65</ele>
        <time>2013-08-03T12:37:14Z</time>
      </trkpt>
      <trkpt lat="48.21023" lon="3.26585">
        <ele>65</ele>
        <time>2013-08-03T12:37:17Z</time>
      </trkpt>
      <trkpt lat="48.21019" lon="3.2658">
        <ele>66</ele>
        <time>2013-08-03T12:37:21Z</time>
      </trkpt>
      <trkpt lat="48.21014" lon="3.26579">
        <ele>66</ele>
        <time>2013-08-03T12:37:25Z</time>
      </trkpt>
      <trkpt lat="48.2101" lon="3.26578">
        <ele>65</ele>
        <time>2013-08-03T12:37:29Z</time>
      </trkpt>
      <trkpt lat="48.21005" lon="3.2658">
        <ele>65</ele>
        <time>2013-08-03T12:37:33Z</time>
      </trkpt>
      <trkpt lat="48.21" lon="3.26581">
        <ele>65</ele>
        <time>2013-08-03T12:37:37Z</time>
      </trkpt>
      <trkpt lat="48.20995" lon="3.26584">
        <ele>65</ele>
        <time>2013-08-03T12:37:40Z</time>
      </trkpt>
      <trkpt lat="48.2099" lon="3.26585">
        <ele>65</ele>
        <time>2013-08-03T12:37:44Z</time>
      </trkpt>
      <trkpt lat="48.20986" lon="3.26583">
        <ele>65</ele>
        <time>2013-08-03T12:37:48Z</time>
      </trkpt>
      <trkpt lat="48.2098" lon="3.26581">
        <ele>65</ele>
        <time>2013-08-03T12:37:53Z</time>
      </trkpt>
      <trkpt lat="48.20974" lon="3.2658">
        <ele>65</ele>
        <time>2013-08-03T12:37:57Z</time>
      </trkpt>
      <trkpt lat="48.20969" lon="3.26578">
        <ele>65</ele>
        <time>2013-08-03T12:38:01Z</time>
      </trkpt>
      <trkpt lat="48.20964" lon="3.26577">
        <ele>65</ele>
        <time>2013-08-03T12:38:05Z</time>
      </trkpt>
      <trkpt lat="48.20959" lon="3.26577">
        <ele>65</ele>
        <time>2013-08-03T12:38:12Z</time>
      </trkpt>
      <trkpt lat="48.20954" lon="3.26577">
        <ele>65</ele>
        <time>2013-08-03T12:38:16Z</time>
      </trkpt>
      <trkpt lat="48.20949" lon="3.26574">
        <ele>65</ele>
        <time>2013-08-03T12:38:19Z</time>
      </trkpt>
      <trkpt lat="48.20945" lon="3.26572">
        <ele>65</ele>
        <time>2013-08-03T12:38:26Z</time>
      </trkpt>
      <trkpt lat="48.2094" lon="3.26575">
        <ele>65</ele>
        <time>2013-08-03T12:38:29Z</time>
      </trkpt>
      <trkpt lat="48.20935" lon="3.26576">
        <ele>65</ele>
        <time>2013-08-03T12:38:33Z</time>
      </trkpt>
      <trkpt lat="48.2093" lon="3.26574">
        <ele>65</ele>
        <time>2013-08-03T12:38:38Z</time>
      </trkpt>
      <trkpt lat="48.20926" lon="3.26573">
        <ele>65</ele>
        <time>2013-08-03T12:38:42Z</time>
      </trkpt>
      <trkpt lat="48.20921" lon="3.26573">
        <ele>65</ele>
        <time>2013-08-03T12:38:46Z</time>
      </trkpt>
      <trkpt lat="48.20916" lon="3.26573">
        <ele>65</ele>
        <time>2013-08-03T12:38:54Z</time>
      </trkpt>
      <trkpt lat="48.20911" lon="3.26574">
        <ele>65</ele>
        <time>2013-08-03T12:38:59Z</time>
      </trkpt>
      <trkpt lat="48.20906" lon="3.26576">
        <ele>65</ele>
        <time>2013-08-03T12:39:03Z</time>
      </trkpt>
      <trkpt lat="48.20903" lon="3.26581">
        <ele>65</ele>
        <time>2013-08-03T12:39:06Z</time>
      </trkpt>
      <trkpt lat="48.20898" lon="3.26581">
        <ele>65</ele>
        <time>2013-08-03T12:39:10Z</time>
      </trkpt>
      <trkpt lat="48.20892" lon="3.26582">
        <ele>65</ele>
        <time>2013-08-03T12:39:15Z</time>
      </trkpt>
      <trkpt lat="48.20887" lon="3.26585">
        <ele>65</ele>
        <time>2013-08-03T12:39:18Z</time>
      </trkpt>
      <trkpt lat="48.20883" lon="3.26588">
        <ele>65</ele>
        <time>2013-08-03T12:39:21Z</time>
      </trkpt>
      <trkpt lat="48.20878" lon="3.26586">
        <ele>65</ele>
        <time>2013-08-03T12:39:29Z</time>
      </trkpt>
      <trkpt lat="48.20873" lon="3.26586">
        <ele>65</ele>
        <time>2013-08-03T12:39:33Z</time>
      </trkpt>
      <trkpt lat="48.20869" lon="3.26587">
        <ele>65</ele>
        <time>2013-08-03T12:39:37Z</time>
      </trkpt>
      <trkpt lat="48.20864" lon="3.26587">
        <ele>65</ele>
        <time>2013-08-03T12:39:42Z</time>
      </trkpt>
      <trkpt lat="48.20859" lon="3.26587">
        <ele>65</ele>
        <time>2013-08-03T12:39:46Z</time>
      </trkpt>
      <trkpt lat="48.20854" lon="3.26588">
        <ele>65</ele>
        <time>2013-08-03T12:39:50Z</time>
      </trkpt>
      <trkpt lat="48.20849" lon="3.2659">
        <ele>65</ele>
        <time>2013-08-03T12:39:55Z</time>
      </trkpt>
      <trkpt lat="48.20844" lon="3.2659">
        <ele>65</ele>
        <time>2013-08-03T12:40:00Z</time>
      </trkpt>
      <trkpt lat="48.20838" lon="3.2659">
        <ele>65</ele>
        <time>2013-08-03T12:40:04Z</time>
      </trkpt>
      <trkpt lat="48.20833" lon="3.2659">
        <ele>65</ele>
        <time>2013-08-03T12:40:08Z</time>
      </trkpt>
      <trkpt lat="48.20828" lon="3.26591">
        <ele>65</ele>
        <time>2013-08-03T12:40:14Z</time>
      </trkpt>
      <trkpt lat="48.20822" lon="3.26593">
        <ele>65</ele>
        <time>2013-08-03T12:40:19Z</time>
      </trkpt>
      <trkpt lat="48.20817" lon="3.26594">
        <ele>65</ele>
        <time>2013-08-03T12:40:23Z</time>
      </trkpt>
      <trkpt lat="48.20812" lon="3.26595">
        <ele>65</ele>
        <time>2013-08-03T12:40:27Z</time>
      </trkpt>
      <trkpt lat="48.20806" lon="3.26595">
        <ele>65</ele>
        <time>2013-08-03T12:40:32Z</time>
      </trkpt>
      <trkpt lat="48.20801" lon="3.26596">
        <ele>65</ele>
        <time>2013-08-03T12:40:37Z</time>
      </trkpt>
      <trkpt lat="48.20796" lon="3.26597">
        <ele>65</ele>
        <time>2013-08-03T12:40:41Z</time>
      </trkpt>
      <trkpt lat="48.20792" lon="3.26598">
        <ele>65</ele>
        <time>2013-08-03T12:40:45Z</time>
      </trkpt>
      <trkpt lat="48.20787" lon="3.266">
        <ele>65</ele>
        <time>2013-08-03T12:40:50Z</time>
      </trkpt>
      <trkpt lat="48.20781" lon="3.26601">
        <ele>65</ele>
        <time>2013-08-03T12:40:55Z</time>
      </trkpt>
      <trkpt lat="48.20777" lon="3.266">
        <ele>65</ele>
        <time>2013-08-03T12:40:59Z</time>
      </trkpt>
      <trkpt lat="48.20774" lon="3.26601">
        <ele>65</ele>
        <time>2013-08-03T12:41:21Z</time>
      </trkpt>
      <trkpt lat="48.2077" lon="3.266">
        <ele>65</ele>
        <time>2013-08-03T12:41:26Z</time>
      </trkpt>
      <trkpt lat="48.20765" lon="3.266">
        <ele>64</ele>
        <time>2013-08-03T12:41:30Z</time>
      </trkpt>
      <trkpt lat="48.20761" lon="3.26602">
        <ele>64</ele>
        <time>2013-08-03T12:41:35Z</time>
      </trkpt>
      <trkpt lat="48.20756" lon="3.26602">
        <ele>64</ele>
        <time>2013-08-03T12:41:39Z</time>
      </trkpt>
      <trkpt lat="48.20751" lon="3.26603">
        <ele>64</ele>
        <time>2013-08-03T12:41:43Z</time>
      </trkpt>
      <trkpt lat="48.20747" lon="3.26606">
        <ele>65</ele>
        <time>2013-08-03T12:41:47Z</time>
      </trkpt>
      <trkpt lat="48.20742" lon="3.26609">
        <ele>65</ele>
        <time>2013-08-03T12:41:53Z</time>
      </trkpt>
      <trkpt lat="48.20737" lon="3.2661">
        <ele>65</ele>
        <time>2013-08-03T12:41:58Z</time>
      </trkpt>
      <trkpt lat="48.20732" lon="3.2661">
        <ele>65</ele>
        <time>2013-08-03T12:42:02Z</time>
      </trkpt>
      <trkpt lat="48.20727" lon="3.26611">
        <ele>65</ele>
        <time>2013-08-03T12:42:05Z</time>
      </trkpt>
      <trkpt lat="48.20723" lon="3.26613">
        <ele>65</ele>
        <time>2013-08-03T12:42:09Z</time>
      </trkpt>
      <trkpt lat="48.20717" lon="3.26615">
        <ele>65</ele>
        <time>2013-08-03T12:42:13Z</time>
      </trkpt>
      <trkpt lat="48.20713" lon="3.26618">
        <ele>65</ele>
        <time>2013-08-03T12:42:17Z</time>
      </trkpt>
      <trkpt lat="48.20708" lon="3.26618">
        <ele>65</ele>
        <time>2013-08-03T12:42:22Z</time>
      </trkpt>
      <trkpt lat="48.20703" lon="3.26622">
        <ele>65</ele>
        <time>2013-08-03T12:42:28Z</time>
      </trkpt>
      <trkpt lat="48.20697" lon="3.26625">
        <ele>65</ele>
        <time>2013-08-03T12:42:32Z</time>
      </trkpt>
      <trkpt lat="48.20692" lon="3.26627">
        <ele>65</ele>
        <time>2013-08-03T12:42:36Z</time>
      </trkpt>
      <trkpt lat="48.20688" lon="3.2663">
        <ele>65</ele>
        <time>2013-08-03T12:42:40Z</time>
      </trkpt>
      <trkpt lat="48.20683" lon="3.26632">
        <ele>65</ele>
        <time>2013-08-03T12:42:45Z</time>
      </trkpt>
      <trkpt lat="48.2068" lon="3.26636">
        <ele>65</ele>
        <time>2013-08-03T12:42:50Z</time>
      </trkpt>
      <trkpt lat="48.20677" lon="3.26637">
        <ele>65</ele>
        <time>2013-08-03T12:42:57Z</time>
      </trkpt>
      <trkpt lat="48.20672" lon="3.26638">
        <ele>65</ele>
        <time>2013-08-03T12:43:07Z</time>
      </trkpt>
      <trkpt lat="48.20667" lon="3.2664">
        <ele>65</ele>
        <time>2013-08-03T12:43:11Z</time>
      </trkpt>
      <trkpt lat="48.20661" lon="3.2664">
        <ele>66</ele>
        <time>2013-08-03T12:43:16Z</time>
      </trkpt>
      <trkpt lat="48.20656" lon="3.26641">
        <ele>66</ele>
        <time>2013-08-03T12:43:20Z</time>
      </trkpt>
      <trkpt lat="48.20651" lon="3.26643">
        <ele>66</ele>
        <time>2013-08-03T12:43:25Z</time>
      </trkpt>
      <trkpt lat="48.20647" lon="3.26645">
        <ele>66</ele>
        <time>2013-08-03T12:43:29Z</time>
      </trkpt>
      <trkpt lat="48.20642" lon="3.26645">
        <ele>66</ele>
        <time>2013-08-03T12:43:34Z</time>
      </trkpt>
      <trkpt lat="48.20637" lon="3.26648">
        <ele>66</ele>
        <time>2013-08-03T12:43:39Z</time>
      </trkpt>
      <trkpt lat="48.20632" lon="3.26647">
        <ele>66</ele>
        <time>2013-08-03T12:43:44Z</time>
      </trkpt>
      <trkpt lat="48.20627" lon="3.26648">
        <ele>66</ele>
        <time>2013-08-03T12:43:47Z</time>
      </trkpt>
      <trkpt lat="48.2062" lon="3.26649">
        <ele>66</ele>
        <time>2013-08-03T12:43:55Z</time>
      </trkpt>
      <trkpt lat="48.20615" lon="3.2665">
        <ele>66</ele>
        <time>2013-08-03T12:43:58Z</time>
      </trkpt>
      <trkpt lat="48.2061" lon="3.26652">
        <ele>66</ele>
        <time>2013-08-03T12:44:01Z</time>
      </trkpt>
      <trkpt lat="48.20605" lon="3.26656">
        <ele>66</ele>
        <time>2013-08-03T12:44:04Z</time>
      </trkpt>
      <trkpt lat="48.20601" lon="3.26658">
        <ele>66</ele>
        <time>2013-08-03T12:44:08Z</time>
      </trkpt>
      <trkpt lat="48.20597" lon="3.26664">
        <ele>66</ele>
        <time>2013-08-03T12:44:13Z</time>
      </trkpt>
      <trkpt lat="48.20592" lon="3.26665">
        <ele>66</ele>
        <time>2013-08-03T12:44:18Z</time>
      </trkpt>
      <trkpt lat="48.20588" lon="3.26666">
        <ele>66</ele>
        <time>2013-08-03T12:44:21Z</time>
      </trkpt>
      <trkpt lat="48.20582" lon="3.26668">
        <ele>66</ele>
        <time>2013-08-03T12:44:25Z</time>
      </trkpt>
      <trkpt lat="48.20577" lon="3.26669">
        <ele>66</ele>
        <time>2013-08-03T12:44:29Z</time>
      </trkpt>
      <trkpt lat="48.20572" lon="3.2667">
        <ele>66</ele>
        <time>2013-08-03T12:44:35Z</time>
      </trkpt>
      <trkpt lat="48.20568" lon="3.26675">
        <ele>65</ele>
        <time>2013-08-03T12:44:38Z</time>
      </trkpt>
      <trkpt lat="48.20563" lon="3.26676">
        <ele>65</ele>
        <time>2013-08-03T12:44:44Z</time>
      </trkpt>
      <trkpt lat="48.20559" lon="3.26672">
        <ele>65</ele>
        <time>2013-08-03T12:44:49Z</time>
      </trkpt>
      <trkpt lat="48.20554" lon="3.26674">
        <ele>65</ele>
        <time>2013-08-03T12:44:53Z</time>
      </trkpt>
      <trkpt lat="48.20549" lon="3.26674">
        <ele>65</ele>
        <time>2013-08-03T12:44:56Z</time>
      </trkpt>
      <trkpt lat="48.20544" lon="3.26675">
        <ele>65</ele>
        <time>2013-08-03T12:44:59Z</time>
      </trkpt>
      <trkpt lat="48.20539" lon="3.26679">
        <ele>65</ele>
        <time>2013-08-03T12:45:03Z</time>
      </trkpt>
      <trkpt lat="48.20535" lon="3.26682">
        <ele>65</ele>
        <time>2013-08-03T12:45:07Z</time>
      </trkpt>
      <trkpt lat="48.20531" lon="3.26684">
        <ele>65</ele>
        <time>2013-08-03T12:45:12Z</time>
      </trkpt>
      <trkpt lat="48.20525" lon="3.26688">
        <ele>65</ele>
        <time>2013-08-03T12:45:17Z</time>
      </trkpt>
      <trkpt lat="48.2052" lon="3.2669">
        <ele>65</ele>
        <time>2013-08-03T12:45:21Z</time>
      </trkpt>
      <trkpt lat="48.20515" lon="3.26693">
        <ele>65</ele>
        <time>2013-08-03T12:45:25Z</time>
      </trkpt>
      <trkpt lat="48.20511" lon="3.26698">
        <ele>65</ele>
        <time>2013-08-03T12:45:29Z</time>
      </trkpt>
      <trkpt lat="48.20507" lon="3.26702">
        <ele>65</ele>
        <time>2013-08-03T12:45:33Z</time>
      </trkpt>
      <trkpt lat="48.20502" lon="3.26704">
        <ele>65</ele>
        <time>2013-08-03T12:45:41Z</time>
      </trkpt>
      <trkpt lat="48.205" lon="3.26712">
        <ele>65</ele>
        <time>2013-08-03T12:45:52Z</time>
      </trkpt>
      <trkpt lat="48.20497" lon="3.26712">
        <ele>65</ele>
        <time>2013-08-03T12:45:58Z</time>
      </trkpt>
      <trkpt lat="48.20493" lon="3.26708">
        <ele>65</ele>
        <time>2013-08-03T12:46:03Z</time>
      </trkpt>
      <trkpt lat="48.20488" lon="3.2671">
        <ele>65</ele>
        <time>2013-08-03T12:46:08Z</time>
      </trkpt>
      <trkpt lat="48.20483" lon="3.26712">
        <ele>65</ele>
        <time>2013-08-03T12:46:13Z</time>
      </trkpt>
      <trkpt lat="48.20478" lon="3.26711">
        <ele>65</ele>
        <time>2013-08-03T12:46:17Z</time>
      </trkpt>
      <trkpt lat="48.20475" lon="3.26714">
        <ele>65</ele>
        <time>2013-08-03T12:46:22Z</time>
      </trkpt>
      <trkpt lat="48.20469" lon="3.26717">
        <ele>65</ele>
        <time>2013-08-03T12:46:27Z</time>
      </trkpt>
      <trkpt lat="48.20465" lon="3.26721">
        <ele>65</ele>
        <time>2013-08-03T12:46:31Z</time>
      </trkpt>
      <trkpt lat="48.20461" lon="3.26726">
        <ele>65</ele>
        <time>2013-08-03T12:46:36Z</time>
      </trkpt>
      <trkpt lat="48.20457" lon="3.26728">
        <ele>65</ele>
        <time>2013-08-03T12:46:41Z</time>
      </trkpt>
      <trkpt lat="48.20452" lon="3.26731">
        <ele>65</ele>
        <time>2013-08-03T12:46:46Z</time>
      </trkpt>
      <trkpt lat="48.20448" lon="3.26735">
        <ele>65</ele>
        <time>2013-08-03T12:46:51Z</time>
      </trkpt>
      <trkpt lat="48.20443" lon="3.26739">
        <ele>65</ele>
        <time>2013-08-03T12:46:55Z</time>
      </trkpt>
      <trkpt lat="48.20439" lon="3.26741">
        <ele>65</ele>
        <time>2013-08-03T12:46:59Z</time>
      </trkpt>
      <trkpt lat="48.20437" lon="3.26742">
        <ele>65</ele>
        <time>2013-08-03T12:47:05Z</time>
      </trkpt>
      <trkpt lat="48.20429" lon="3.26743">
        <ele>65</ele>
        <time>2013-08-03T12:47:17Z</time>
      </trkpt>
      <trkpt lat="48.20425" lon="3.26746">
        <ele>65</ele>
        <time>2013-08-03T12:47:21Z</time>
      </trkpt>
      <trkpt lat="48.2042" lon="3.26749">
        <ele>65</ele>
        <time>2013-08-03T12:47:25Z</time>
      </trkpt>
      <trkpt lat="48.20414" lon="3.26755">
        <ele>65</ele>
        <time>2013-08-03T12:47:28Z</time>
      </trkpt>
      <trkpt lat="48.20409" lon="3.2676">
        <ele>65</ele>
        <time>2013-08-03T12:47:31Z</time>
      </trkpt>
      <trkpt lat="48.20406" lon="3.26765">
        <ele>65</ele>
        <time>2013-08-03T12:47:37Z</time>
      </trkpt>
      <trkpt lat="48.20401" lon="3.26769">
        <ele>65</ele>
        <time>2013-08-03T12:47:44Z</time>
      </trkpt>
      <trkpt lat="48.20397" lon="3.26772">
        <ele>65</ele>
        <time>2013-08-03T12:47:47Z</time>
      </trkpt>
      <trkpt lat="48.20392" lon="3.26776">
        <ele>65</ele>
        <time>2013-08-03T12:47:50Z</time>
      </trkpt>
      <trkpt lat="48.20387" lon="3.26781">
        <ele>65</ele>
        <time>2013-08-03T12:47:53Z</time>
      </trkpt>
      <trkpt lat="48.20383" lon="3.26786">
        <ele>65</ele>
        <time>2013-08-03T12:47:57Z</time>
      </trkpt>
      <trkpt lat="48.2038" lon="3.26792">
        <ele>65</ele>
        <time>2013-08-03T12:48:02Z</time>
      </trkpt>
      <trkpt lat="48.20375" lon="3.26796">
        <ele>65</ele>
        <time>2013-08-03T12:48:07Z</time>
      </trkpt>
      <trkpt lat="48.20371" lon="3.268">
        <ele>65</ele>
        <time>2013-08-03T12:48:11Z</time>
      </trkpt>
      <trkpt lat="48.20365" lon="3.26806">
        <ele>65</ele>
        <time>2013-08-03T12:48:22Z</time>
      </trkpt>
      <trkpt lat="48.20362" lon="3.26812">
        <ele>65</ele>
        <time>2013-08-03T12:48:27Z</time>
      </trkpt>
      <trkpt lat="48.20358" lon="3.2682">
        <ele>65</ele>
        <time>2013-08-03T12:48:31Z</time>
      </trkpt>
      <trkpt lat="48.20353" lon="3.26823">
        <ele>65</ele>
        <time>2013-08-03T12:48:35Z</time>
      </trkpt>
      <trkpt lat="48.20348" lon="3.26823">
        <ele>65</ele>
        <time>2013-08-03T12:48:39Z</time>
      </trkpt>
      <trkpt lat="48.20344" lon="3.26823">
        <ele>65</ele>
        <time>2013-08-03T12:48:44Z</time>
      </trkpt>
      <trkpt lat="48.20339" lon="3.26827">
        <ele>64</ele>
        <time>2013-08-03T12:48:50Z</time>
      </trkpt>
      <trkpt lat="48.20334" lon="3.26829">
        <ele>64</ele>
        <time>2013-08-03T12:48:53Z</time>
      </trkpt>
      <trkpt lat="48.2033" lon="3.26831">
        <ele>64</ele>
        <time>2013-08-03T12:48:55Z</time>
      </trkpt>
      <trkpt lat="48.20325" lon="3.26833">
        <ele>64</ele>
        <time>2013-08-03T12:48:57Z</time>
      </trkpt>
      <trkpt lat="48.20321" lon="3.26835">
        <ele>65</ele>
        <time>2013-08-03T12:48:59Z</time>
      </trkpt>
      <trkpt lat="48.20315" lon="3.2684">
        <ele>65</ele>
        <time>2013-08-03T12:49:02Z</time>
      </trkpt>
      <trkpt lat="48.20312" lon="3.26842">
        <ele>65</ele>
        <time>2013-08-03T12:49:08Z</time>
      </trkpt>
      <trkpt lat="48.20308" lon="3.26841">
        <ele>65</ele>
        <time>2013-08-03T12:49:24Z</time>
      </trkpt>
      <trkpt lat="48.20304" lon="3.26842">
        <ele>65</ele>
        <time>2013-08-03T12:50:05Z</time>
      </trkpt>
      <trkpt lat="48.20299" lon="3.26845">
        <ele>65</ele>
        <time>2013-08-03T12:50:09Z</time>
      </trkpt>
      <trkpt lat="48.20294" lon="3.26848">
        <ele>65</ele>
        <time>2013-08-03T12:50:16Z</time>
      </trkpt>
      <trkpt lat="48.20289" lon="3.26844">
        <ele>65</ele>
        <time>2013-08-03T12:50:22Z</time>
      </trkpt>
      <trkpt lat="48.20284" lon="3.26844">
        <ele>65</ele>
        <time>2013-08-03T12:50:26Z</time>
      </trkpt>
      <trkpt lat="48.20279" lon="3.26847">
        <ele>65</ele>
        <time>2013-08-03T12:50:56Z</time>
      </trkpt>
      <trkpt lat="48.20275" lon="3.26853">
        <ele>65</ele>
        <time>2013-08-03T12:51:01Z</time>
      </trkpt>
      <trkpt lat="48.20272" lon="3.26858">
        <ele>65</ele>
        <time>2013-08-03T12:51:06Z</time>
      </trkpt>
      <trkpt lat="48.20268" lon="3.26862">
        <ele>65</ele>
        <time>2013-08-03T12:51:13Z</time>
      </trkpt>
      <trkpt lat="48.20264" lon="3.26866">
        <ele>65</ele>
        <time>2013-08-03T12:51:17Z</time>
      </trkpt>
      <trkpt lat="48.2026" lon="3.2687">
        <ele>65</ele>
        <time>2013-08-03T12:51:22Z</time>
      </trkpt>
      <trkpt lat="48.20255" lon="3.26873">
        <ele>66</ele>
        <time>2013-08-03T12:51:27Z</time>
      </trkpt>
      <trkpt lat="48.2025" lon="3.26875">
        <ele>66</ele>
        <time>2013-08-03T12:51:31Z</time>
      </trkpt>
      <trkpt lat="48.20246" lon="3.26879">
        <ele>66</ele>
        <time>2013-08-03T12:51:37Z</time>
      </trkpt>
      <trkpt lat="48.20241" lon="3.26879">
        <ele>66</ele>
        <time>2013-08-03T12:51:42Z</time>
      </trkpt>
      <trkpt lat="48.20236" lon="3.26877">
        <ele>66</ele>
        <time>2013-08-03T12:51:46Z</time>
      </trkpt>
      <trkpt lat="48.20231" lon="3.26879">
        <ele>66</ele>
        <time>2013-08-03T12:51:52Z</time>
      </trkpt>
      <trkpt lat="48.20227" lon="3.26883">
        <ele>66</ele>
        <time>2013-08-03T12:51:56Z</time>
      </trkpt>
      <trkpt lat="48.20222" lon="3.26886">
        <ele>66</ele>
        <time>2013-08-03T12:51:59Z</time>
      </trkpt>
      <trkpt lat="48.20218" lon="3.2689">
        <ele>66</ele>
        <time>2013-08-03T12:52:04Z</time>
      </trkpt>
      <trkpt lat="48.20214" lon="3.26895">
        <ele>66</ele>
        <time>2013-08-03T12:52:08Z</time>
      </trkpt>
      <trkpt lat="48.2021" lon="3.26898">
        <ele>66</ele>
        <time>2013-08-03T12:52:12Z</time>
      </trkpt>
      <trkpt lat="48.20206" lon="3.26903">
        <ele>65</ele>
        <time>2013-08-03T12:52:16Z</time>
      </trkpt>
      <trkpt lat="48.20201" lon="3.26906">
        <ele>65</ele>
        <time>2013-08-03T12:52:21Z</time>
      </trkpt>
      <trkpt lat="48.20196" lon="3.26909">
        <ele>65</ele>
        <time>2013-08-03T12:52:27Z</time>
      </trkpt>
      <trkpt lat="48.20191" lon="3.26908">
        <ele>65</ele>
        <time>2013-08-03T12:52:34Z</time>
      </trkpt>
      <trkpt lat="48.20185" lon="3.2691">
        <ele>65</ele>
        <time>2013-08-03T12:52:38Z</time>
      </trkpt>
      <trkpt lat="48.20181" lon="3.26913">
        <ele>65</ele>
        <time>2013-08-03T12:52:41Z</time>
      </trkpt>
      <trkpt lat="48.20176" lon="3.26916">
        <ele>65</ele>
        <time>2013-08-03T12:52:44Z</time>
      </trkpt>
      <trkpt lat="48.20171" lon="3.26915">
        <ele>65</ele>
        <time>2013-08-03T12:52:48Z</time>
      </trkpt>
      <trkpt lat="48.20165" lon="3.26916">
        <ele>65</ele>
        <time>2013-08-03T12:52:52Z</time>
      </trkpt>
      <trkpt lat="48.20161" lon="3.26918">
        <ele>65</ele>
        <time>2013-08-03T12:52:55Z</time>
      </trkpt>
      <trkpt lat="48.20156" lon="3.26922">
        <ele>65</ele>
        <time>2013-08-03T12:52:59Z</time>
      </trkpt>
      <trkpt lat="48.20153" lon="3.26928">
        <ele>65</ele>
        <time>2013-08-03T12:53:03Z</time>
      </trkpt>
      <trkpt lat="48.20151" lon="3.26933">
        <ele>65</ele>
        <time>2013-08-03T12:53:07Z</time>
      </trkpt>
      <trkpt lat="48.20142" lon="3.26941">
        <ele>65</ele>
        <time>2013-08-03T12:53:22Z</time>
      </trkpt>
      <trkpt lat="48.20137" lon="3.26941">
        <ele>65</ele>
        <time>2013-08-03T12:53:27Z</time>
      </trkpt>
      <trkpt lat="48.20132" lon="3.26945">
        <ele>65</ele>
        <time>2013-08-03T12:53:33Z</time>
      </trkpt>
      <trkpt lat="48.20127" lon="3.2695">
        <ele>65</ele>
        <time>2013-08-03T12:53:38Z</time>
      </trkpt>
      <trkpt lat="48.20122" lon="3.26951">
        <ele>65</ele>
        <time>2013-08-03T12:53:45Z</time>
      </trkpt>
      <trkpt lat="48.20119" lon="3.26955">
        <ele>65</ele>
        <time>2013-08-03T12:53:49Z</time>
      </trkpt>
      <trkpt lat="48.20113" lon="3.26958">
        <ele>65</ele>
        <time>2013-08-03T12:53:53Z</time>
      </trkpt>
      <trkpt lat="48.20108" lon="3.2696">
        <ele>65</ele>
        <time>2013-08-03T12:53:57Z</time>
      </trkpt>
      <trkpt lat="48.20105" lon="3.26962">
        <ele>65</ele>
        <time>2013-08-03T12:54:08Z</time>
      </trkpt>
      <trkpt lat="48.201" lon="3.26963">
        <ele>65</ele>
        <time>2013-08-03T12:54:11Z</time>
      </trkpt>
      <trkpt lat="48.20092" lon="3.26965">
        <ele>65</ele>
        <time>2013-08-03T12:54:14Z</time>
      </trkpt>
      <trkpt lat="48.20087" lon="3.26968">
        <ele>65</ele>
        <time>2013-08-03T12:54:16Z</time>
      </trkpt>
      <trkpt lat="48.20083" lon="3.26971">
        <ele>66</ele>
        <time>2013-08-03T12:54:18Z</time>
      </trkpt>
      <trkpt lat="48.20081" lon="3.26978">
        <ele>66</ele>
        <time>2013-08-03T12:54:26Z</time>
      </trkpt>
      <trkpt lat="48.20076" lon="3.26979">
        <ele>66</ele>
        <time>2013-08-03T12:54:32Z</time>
      </trkpt>
      <trkpt lat="48.20071" lon="3.2698">
        <ele>66</ele>
        <time>2013-08-03T12:54:37Z</time>
      </trkpt>
      <trkpt lat="48.20067" lon="3.26984">
        <ele>66</ele>
        <time>2013-08-03T12:54:42Z</time>
      </trkpt>
      <trkpt lat="48.20062" lon="3.26986">
        <ele>66</ele>
        <time>2013-08-03T12:54:46Z</time>
      </trkpt>
      <trkpt lat="48.20056" lon="3.26988">
        <ele>66</ele>
        <time>2013-08-03T12:54:50Z</time>
      </trkpt>
      <trkpt lat="48.20052" lon="3.26992">
        <ele>66</ele>
        <time>2013-08-03T12:54:53Z</time>
      </trkpt>
      <trkpt lat="48.20049" lon="3.26998">
        <ele>66</ele>
        <time>2013-08-03T12:55:00Z</time>
      </trkpt>
      <trkpt lat="48.20045" lon="3.27004">
        <ele>65</ele>
        <time>2013-08-03T12:55:05Z</time>
      </trkpt>
      <trkpt lat="48.20041" lon="3.27008">
        <ele>65</ele>
        <time>2013-08-03T12:55:11Z</time>
      </trkpt>
      <trkpt lat="48.20037" lon="3.27012">
        <ele>65</ele>
        <time>2013-08-03T12:55:16Z</time>
      </trkpt>
      <trkpt lat="48.20032" lon="3.27013">
        <ele>65</ele>
        <time>2013-08-03T12:55:21Z</time>
      </trkpt>
      <trkpt lat="48.20027" lon="3.27017">
        <ele>66</ele>
        <time>2013-08-03T12:55:26Z</time>
      </trkpt>
      <trkpt lat="48.20023" lon="3.2702">
        <ele>66</ele>
        <time>2013-08-03T12:55:30Z</time>
      </trkpt>
      <trkpt lat="48.20018" lon="3.27022">
        <ele>66</ele>
        <time>2013-08-03T12:55:34Z</time>
      </trkpt>
      <trkpt lat="48.20013" lon="3.27023">
        <ele>66</ele>
        <time>2013-08-03T12:55:38Z</time>
      </trkpt>
      <trkpt lat="48.20007" lon="3.27025">
        <ele>66</ele>
        <time>2013-08-03T12:55:42Z</time>
      </trkpt>
      <trkpt lat="48.20003" lon="3.27028">
        <ele>66</ele>
        <time>2013-08-03T12:55:46Z</time>
      </trkpt>
      <trkpt lat="48.19999" lon="3.27031">
        <ele>66</ele>
        <time>2013-08-03T12:55:52Z</time>
      </trkpt>
      <trkpt lat="48.19995" lon="3.27035">
        <ele>66</ele>
        <time>2013-08-03T12:55:57Z</time>
      </trkpt>
      <trkpt lat="48.1999" lon="3.27039">
        <ele>66</ele>
        <time>2013-08-03T12:56:01Z</time>
      </trkpt>
      <trkpt lat="48.19986" lon="3.27043">
        <ele>66</ele>
        <time>2013-08-03T12:56:06Z</time>
      </trkpt>
      <trkpt lat="48.19981" lon="3.27045">
        <ele>66</ele>
        <time>2013-08-03T12:56:11Z</time>
      </trkpt>
      <trkpt lat="48.19976" lon="3.27044">
        <ele>66</ele>
        <time>2013-08-03T12:56:15Z</time>
      </trkpt>
      <trkpt lat="48.19971" lon="3.27045">
        <ele>66</ele>
        <time>2013-08-03T12:56:19Z</time>
      </trkpt>
      <trkpt lat="48.19967" lon="3.2705">
        <ele>66</ele>
        <time>2013-08-03T12:56:25Z</time>
      </trkpt>
      <trkpt lat="48.19964" lon="3.27057">
        <ele>66</ele>
        <time>2013-08-03T12:56:29Z</time>
      </trkpt>
      <trkpt lat="48.19964" lon="3.27061">
        <ele>66</ele>
        <time>2013-08-03T12:56:35Z</time>
      </trkpt>
      <trkpt lat="48.19959" lon="3.27059">
        <ele>66</ele>
        <time>2013-08-03T12:56:40Z</time>
      </trkpt>
      <trkpt lat="48.19954" lon="3.2706">
        <ele>66</ele>
        <time>2013-08-03T12:56:49Z</time>
      </trkpt>
      <trkpt lat="48.19949" lon="3.2706">
        <ele>66</ele>
        <time>2013-08-03T12:56:52Z</time>
      </trkpt>
      <trkpt lat="48.19944" lon="3.27062">
        <ele>66</ele>
        <time>2013-08-03T12:56:55Z</time>
      </trkpt>
      <trkpt lat="48.19938" lon="3.27063">
        <ele>66</ele>
        <time>2013-08-03T12:56:59Z</time>
      </trkpt>
      <trkpt lat="48.19933" lon="3.27063">
        <ele>66</ele>
        <time>2013-08-03T12:57:04Z</time>
      </trkpt>
      <trkpt lat="48.19928" lon="3.27064">
        <ele>66</ele>
        <time>2013-08-03T12:57:08Z</time>
      </trkpt>
      <trkpt lat="48.19923" lon="3.27067">
        <ele>66</ele>
        <time>2013-08-03T12:57:12Z</time>
      </trkpt>
      <trkpt lat="48.19918" lon="3.27069">
        <ele>66</ele>
        <time>2013-08-03T12:57:16Z</time>
      </trkpt>
      <trkpt lat="48.19913" lon="3.27069">
        <ele>66</ele>
        <time>2013-08-03T12:57:20Z</time>
      </trkpt>
      <trkpt lat="48.19908" lon="3.2707">
        <ele>66</ele>
        <time>2013-08-03T12:57:24Z</time>
      </trkpt>
      <trkpt lat="48.19903" lon="3.27074">
        <ele>66</ele>
        <time>2013-08-03T12:57:28Z</time>
      </trkpt>
      <trkpt lat="48.19897" lon="3.27077">
        <ele>66</ele>
        <time>2013-08-03T12:57:32Z</time>
      </trkpt>
      <trkpt lat="48.19892" lon="3.27078">
        <ele>66</ele>
        <time>2013-08-03T12:57:37Z</time>
      </trkpt>
      <trkpt lat="48.19887" lon="3.27082">
        <ele>67</ele>
        <time>2013-08-03T12:57:41Z</time>
      </trkpt>
      <trkpt lat="48.19883" lon="3.27084">
        <ele>67</ele>
        <time>2013-08-03T12:57:45Z</time>
      </trkpt>
      <trkpt lat="48.19877" lon="3.27083">
        <ele>67</ele>
        <time>2013-08-03T12:57:50Z</time>
      </trkpt>
      <trkpt lat="48.19873" lon="3.27084">
        <ele>67</ele>
        <time>2013-08-03T12:57:54Z</time>
      </trkpt>
      <trkpt lat="48.19868" lon="3.27083">
        <ele>67</ele>
        <time>2013-08-03T12:57:58Z</time>
      </trkpt>
      <trkpt lat="48.19863" lon="3.27083">
        <ele>67</ele>
        <time>2013-08-03T12:58:03Z</time>
      </trkpt>
      <trkpt lat="48.19859" lon="3.27086">
        <ele>67</ele>
        <time>2013-08-03T12:58:08Z</time>
      </trkpt>
      <trkpt lat="48.19858" lon="3.27089">
        <ele>67</ele>
        <time>2013-08-03T12:58:14Z</time>
      </trkpt>
      <trkpt lat="48.19852" lon="3.27089">
        <ele>67</ele>
        <time>2013-08-03T12:58:25Z</time>
      </trkpt>
      <trkpt lat="48.19848" lon="3.27089">
        <ele>67</ele>
        <time>2013-08-03T12:58:30Z</time>
      </trkpt>
      <trkpt lat="48.19843" lon="3.27089">
        <ele>67</ele>
        <time>2013-08-03T12:58:33Z</time>
      </trkpt>
      <trkpt lat="48.19838" lon="3.27091">
        <ele>67</ele>
        <time>2013-08-03T12:58:36Z</time>
      </trkpt>
      <trkpt lat="48.19834" lon="3.27094">
        <ele>67</ele>
        <time>2013-08-03T12:58:48Z</time>
      </trkpt>
      <trkpt lat="48.19829" lon="3.27095">
        <ele>67</ele>
        <time>2013-08-03T12:58:52Z</time>
      </trkpt>
      <trkpt lat="48.19824" lon="3.27094">
        <ele>67</ele>
        <time>2013-08-03T12:58:56Z</time>
      </trkpt>
      <trkpt lat="48.19819" lon="3.27097">
        <ele>67</ele>
        <time>2013-08-03T12:59:01Z</time>
      </trkpt>
      <trkpt lat="48.19815" lon="3.27103">
        <ele>67</ele>
        <time>2013-08-03T12:59:06Z</time>
      </trkpt>
      <trkpt lat="48.19813" lon="3.27112">
        <ele>67</ele>
        <time>2013-08-03T12:59:26Z</time>
      </trkpt>
      <trkpt lat="48.19811" lon="3.27121">
        <ele>67</ele>
        <time>2013-08-03T12:59:29Z</time>
      </trkpt>
      <trkpt lat="48.1981" lon="3.27128">
        <ele>67</ele>
        <time>2013-08-03T12:59:31Z</time>
      </trkpt>
      <trkpt lat="48.19807" lon="3.27137">
        <ele>67</ele>
        <time>2013-08-03T12:59:34Z</time>
      </trkpt>
      <trkpt lat="48.19804" lon="3.27143">
        <ele>67</ele>
        <time>2013-08-03T12:59:37Z</time>
      </trkpt>
      <trkpt lat="48.19802" lon="3.27149">
        <ele>67</ele>
        <time>2013-08-03T12:59:40Z</time>
      </trkpt>
      <trkpt lat="48.19798" lon="3.27157">
        <ele>67</ele>
        <time>2013-08-03T12:59:43Z</time>
      </trkpt>
      <trkpt lat="48.19797" lon="3.27164">
        <ele>67</ele>
        <time>2013-08-03T12:59:46Z</time>
      </trkpt>
      <trkpt lat="48.19797" lon="3.27171">
        <ele>67</ele>
        <time>2013-08-03T12:59:51Z</time>
      </trkpt>
      <trkpt lat="48.19799" lon="3.27178">
        <ele>67</ele>
        <time>2013-08-03T12:59:59Z</time>
      </trkpt>
      <trkpt lat="48.19798" lon="3.27186">
        <ele>67</ele>
        <time>2013-08-03T13:00:04Z</time>
      </trkpt>
      <trkpt lat="48.19795" lon="3.27193">
        <ele>67</ele>
        <time>2013-08-03T13:00:07Z</time>
      </trkpt>
      <trkpt lat="48.19793" lon="3.27201">
        <ele>67</ele>
        <time>2013-08-03T13:00:10Z</time>
      </trkpt>
      <trkpt lat="48.19793" lon="3.2721">
        <ele>67</ele>
        <time>2013-08-03T13:00:14Z</time>
      </trkpt>
      <trkpt lat="48.19793" lon="3.27217">
        <ele>67</ele>
        <time>2013-08-03T13:00:18Z</time>
      </trkpt>
      <trkpt lat="48.19794" lon="3.27224">
        <ele>67</ele>
        <time>2013-08-03T13:00:22Z</time>
      </trkpt>
      <trkpt lat="48.19795" lon="3.27232">
        <ele>67</ele>
        <time>2013-08-03T13:00:26Z</time>
      </trkpt>
      <trkpt lat="48.19795" lon="3.27238">
        <ele>67</ele>
        <time>2013-08-03T13:00:30Z</time>
      </trkpt>
      <trkpt lat="48.19793" lon="3.27244">
        <ele>67</ele>
        <time>2013-08-03T13:00:39Z</time>
      </trkpt>
      <trkpt lat="48.19794" lon="3.27251">
        <ele>67</ele>
        <time>2013-08-03T13:00:43Z</time>
      </trkpt>
      <trkpt lat="48.19791" lon="3.27258">
        <ele>66</ele>
        <time>2013-08-03T13:00:47Z</time>
      </trkpt>
      <trkpt lat="48.19791" lon="3.27265">
        <ele>66</ele>
        <time>2013-08-03T13:00:50Z</time>
      </trkpt>
      <trkpt lat="48.19793" lon="3.27272">
        <ele>67</ele>
        <time>2013-08-03T13:00:52Z</time>
      </trkpt>
      <trkpt lat="48.19794" lon="3.27281">
        <ele>67</ele>
        <time>2013-08-03T13:00:55Z</time>
      </trkpt>
      <trkpt lat="48.19794" lon="3.27289">
        <ele>67</ele>
        <time>2013-08-03T13:00:58Z</time>
      </trkpt>
      <trkpt lat="48.19792" lon="3.27295">
        <ele>67</ele>
        <time>2013-08-03T13:01:03Z</time>
      </trkpt>
      <trkpt lat="48.19791" lon="3.27303">
        <ele>66</ele>
        <time>2013-08-03T13:01:09Z</time>
      </trkpt>
      <trkpt lat="48.19789" lon="3.27312">
        <ele>66</ele>
        <time>2013-08-03T13:01:13Z</time>
      </trkpt>
      <trkpt lat="48.19786" lon="3.27318">
        <ele>66</ele>
        <time>2013-08-03T13:01:16Z</time>
      </trkpt>
      <trkpt lat="48.19785" lon="3.27339">
        <ele>67</ele>
        <time>2013-08-03T13:01:22Z</time>
      </trkpt>
      <trkpt lat="48.19773" lon="3.27354">
        <ele>67</ele>
        <time>2013-08-03T13:01:46Z</time>
      </trkpt>
      <trkpt lat="48.19772" lon="3.27363">
        <ele>67</ele>
        <time>2013-08-03T13:01:51Z</time>
      </trkpt>
      <trkpt lat="48.19771" lon="3.27372">
        <ele>67</ele>
        <time>2013-08-03T13:01:56Z</time>
      </trkpt>
      <trkpt lat="48.19771" lon="3.27378">
        <ele>67</ele>
        <time>2013-08-03T13:02:00Z</time>
      </trkpt>
      <trkpt lat="48.19769" lon="3.27385">
        <ele>67</ele>
        <time>2013-08-03T13:02:05Z</time>
      </trkpt>
      <trkpt lat="48.19769" lon="3.27393">
        <ele>67</ele>
        <time>2013-08-03T13:02:09Z</time>
      </trkpt>
      <trkpt lat="48.19769" lon="3.27401">
        <ele>68</ele>
        <time>2013-08-03T13:02:13Z</time>
      </trkpt>
      <trkpt lat="48.19768" lon="3.27409">
        <ele>68</ele>
        <time>2013-08-03T13:02:18Z</time>
      </trkpt>
      <trkpt lat="48.19769" lon="3.27415">
        <ele>68</ele>
        <time>2013-08-03T13:02:22Z</time>
      </trkpt>
      <trkpt lat="48.1977" lon="3.27422">
        <ele>68</ele>
        <time>2013-08-03T13:02:25Z</time>
      </trkpt>
      <trkpt lat="48.1977" lon="3.27429">
        <ele>68</ele>
        <time>2013-08-03T13:02:29Z</time>
      </trkpt>
      <trkpt lat="48.19769" lon="3.27437">
        <ele>68</ele>
        <time>2013-08-03T13:02:34Z</time>
      </trkpt>
      <trkpt lat="48.1977" lon="3.27445">
        <ele>68</ele>
        <time>2013-08-03T13:02:38Z</time>
      </trkpt>
      <trkpt lat="48.19771" lon="3.27452">
        <ele>68</ele>
        <time>2013-08-03T13:02:43Z</time>
      </trkpt>
      <trkpt lat="48.19769" lon="3.2746">
        <ele>68</ele>
        <time>2013-08-03T13:02:47Z</time>
      </trkpt>
      <trkpt lat="48.19767" lon="3.27466">
        <ele>68</ele>
        <time>2013-08-03T13:02:53Z</time>
      </trkpt>
      <trkpt lat="48.19765" lon="3.27472">
        <ele>68</ele>
        <time>2013-08-03T13:02:57Z</time>
      </trkpt>
      <trkpt lat="48.19764" lon="3.27479">
        <ele>68</ele>
        <time>2013-08-03T13:03:00Z</time>
      </trkpt>
      <trkpt lat="48.19764" lon="3.27486">
        <ele>68</ele>
        <time>2013-08-03T13:03:03Z</time>
      </trkpt>
      <trkpt lat="48.19761" lon="3.27493">
        <ele>68</ele>
        <time>2013-08-03T13:03:07Z</time>
      </trkpt>
      <trkpt lat="48.19758" lon="3.27499">
        <ele>68</ele>
        <time>2013-08-03T13:03:11Z</time>
      </trkpt>
      <trkpt lat="48.19755" lon="3.27506">
        <ele>68</ele>
        <time>2013-08-03T13:03:16Z</time>
      </trkpt>
      <trkpt lat="48.19754" lon="3.27513">
        <ele>67</ele>
        <time>2013-08-03T13:03:20Z</time>
      </trkpt>
      <trkpt lat="48.19753" lon="3.27523">
        <ele>67</ele>
        <time>2013-08-03T13:03:30Z</time>
      </trkpt>
      <trkpt lat="48.19758" lon="3.27531">
        <ele>67</ele>
        <time>2013-08-03T13:03:34Z</time>
      </trkpt>
      <trkpt lat="48.1976" lon="3.27538">
        <ele>67</ele>
        <time>2013-08-03T13:03:38Z</time>
      </trkpt>
      <trkpt lat="48.19759" lon="3.27545">
        <ele>66</ele>
        <time>2013-08-03T13:03:41Z</time>
      </trkpt>
      <trkpt lat="48.19758" lon="3.27553">
        <ele>66</ele>
        <time>2013-08-03T13:03:45Z</time>
      </trkpt>
      <trkpt lat="48.19758" lon="3.2756">
        <ele>66</ele>
        <time>2013-08-03T13:03:49Z</time>
      </trkpt>
      <trkpt lat="48.19757" lon="3.27569">
        <ele>66</ele>
        <time>2013-08-03T13:03:52Z</time>
      </trkpt>
      <trkpt lat="48.19756" lon="3.27576">
        <ele>66</ele>
        <time>2013-08-03T13:03:55Z</time>
      </trkpt>
      <trkpt lat="48.19755" lon="3.27584">
        <ele>66</ele>
        <time>2013-08-03T13:03:58Z</time>
      </trkpt>
      <trkpt lat="48.19754" lon="3.27592">
        <ele>66</ele>
        <time>2013-08-03T13:04:02Z</time>
      </trkpt>
      <trkpt lat="48.19753" lon="3.27598">
        <ele>66</ele>
        <time>2013-08-03T13:04:06Z</time>
      </trkpt>
      <trkpt lat="48.19752" lon="3.27605">
        <ele>66</ele>
        <time>2013-08-03T13:04:13Z</time>
      </trkpt>
      <trkpt lat="48.1975" lon="3.27612">
        <ele>66</ele>
        <time>2013-08-03T13:04:19Z</time>
      </trkpt>
      <trkpt lat="48.19749" lon="3.2762">
        <ele>67</ele>
        <time>2013-08-03T13:04:23Z</time>
      </trkpt>
      <trkpt lat="48.19749" lon="3.27628">
        <ele>67</ele>
        <time>2013-08-03T13:04:27Z</time>
      </trkpt>
      <trkpt lat="48.19747" lon="3.27635">
        <ele>67</ele>
        <time>2013-08-03T13:04:32Z</time>
      </trkpt>
      <trkpt lat="48.19745" lon="3.27642">
        <ele>67</ele>
        <time>2013-08-03T13:04:37Z</time>
      </trkpt>
      <trkpt lat="48.19743" lon="3.27647">
        <ele>67</ele>
        <time>2013-08-03T13:04:42Z</time>
      </trkpt>
      <trkpt lat="48.19741" lon="3.27655">
        <ele>67</ele>
        <time>2013-08-03T13:04:48Z</time>
      </trkpt>
      <trkpt lat="48.1974" lon="3.27664">
        <ele>67</ele>
        <time>2013-08-03T13:04:55Z</time>
      </trkpt>
      <trkpt lat="48.19741" lon="3.27672">
        <ele>68</ele>
        <time>2013-08-03T13:04:58Z</time>
      </trkpt>
      <trkpt lat="48.19741" lon="3.27679">
        <ele>68</ele>
        <time>2013-08-03T13:05:01Z</time>
      </trkpt>
      <trkpt lat="48.19744" lon="3.2768">
        <ele>68</ele>
        <time>2013-08-03T13:05:10Z</time>
      </trkpt>
      <trkpt lat="48.19741" lon="3.27686">
        <ele>68</ele>
        <time>2013-08-03T13:05:14Z</time>
      </trkpt>
      <trkpt lat="48.19739" lon="3.27685">
        <ele>68</ele>
        <time>2013-08-03T13:05:20Z</time>
      </trkpt>
      <trkpt lat="48.19739" lon="3.27692">
        <ele>69</ele>
        <time>2013-08-03T13:05:24Z</time>
      </trkpt>
      <trkpt lat="48.19734" lon="3.27696">
        <ele>69</ele>
        <time>2013-08-03T13:05:27Z</time>
      </trkpt>
      <trkpt lat="48.1973" lon="3.277">
        <ele>69</ele>
        <time>2013-08-03T13:05:30Z</time>
      </trkpt>
      <trkpt lat="48.19727" lon="3.27706">
        <ele>69</ele>
        <time>2013-08-03T13:05:34Z</time>
      </trkpt>
      <trkpt lat="48.19724" lon="3.27713">
        <ele>69</ele>
        <time>2013-08-03T13:05:38Z</time>
      </trkpt>
      <trkpt lat="48.19721" lon="3.27718">
        <ele>69</ele>
        <time>2013-08-03T13:05:42Z</time>
      </trkpt>
      <trkpt lat="48.19718" lon="3.27724">
        <ele>70</ele>
        <time>2013-08-03T13:05:48Z</time>
      </trkpt>
      <trkpt lat="48.19715" lon="3.27731">
        <ele>70</ele>
        <time>2013-08-03T13:05:53Z</time>
      </trkpt>
      <trkpt lat="48.19715" lon="3.27739">
        <ele>70</ele>
        <time>2013-08-03T13:05:57Z</time>
      </trkpt>
      <trkpt lat="48.19715" lon="3.27746">
        <ele>70</ele>
        <time>2013-08-03T13:06:01Z</time>
      </trkpt>
      <trkpt lat="48.19715" lon="3.27755">
        <ele>71</ele>
        <time>2013-08-03T13:06:06Z</time>
      </trkpt>
      <trkpt lat="48.19714" lon="3.27761">
        <ele>71</ele>
        <time>2013-08-03T13:06:10Z</time>
      </trkpt>
      <trkpt lat="48.19711" lon="3.27768">
        <ele>71</ele>
        <time>2013-08-03T13:06:15Z</time>
      </trkpt>
      <trkpt lat="48.19712" lon="3.27775">
        <ele>71</ele>
        <time>2013-08-03T13:06:19Z</time>
      </trkpt>
      <trkpt lat="48.19713" lon="3.27783">
        <ele>71</ele>
        <time>2013-08-03T13:06:24Z</time>
      </trkpt>
      <trkpt lat="48.19713" lon="3.2779">
        <ele>71</ele>
        <time>2013-08-03T13:06:28Z</time>
      </trkpt>
      <trkpt lat="48.19714" lon="3.27796">
        <ele>71</ele>
        <time>2013-08-03T13:06:31Z</time>
      </trkpt>
      <trkpt lat="48.19715" lon="3.27805">
        <ele>71</ele>
        <time>2013-08-03T13:06:35Z</time>
      </trkpt>
      <trkpt lat="48.19715" lon="3.27812">
        <ele>71</ele>
        <time>2013-08-03T13:06:39Z</time>
      </trkpt>
      <trkpt lat="48.19714" lon="3.27819">
        <ele>71</ele>
        <time>2013-08-03T13:06:44Z</time>
      </trkpt>
      <trkpt lat="48.19713" lon="3.27826">
        <ele>71</ele>
        <time>2013-08-03T13:06:48Z</time>
      </trkpt>
      <trkpt lat="48.19713" lon="3.27835">
        <ele>72</ele>
        <time>2013-08-03T13:06:52Z</time>
      </trkpt>
      <trkpt lat="48.19715" lon="3.27843">
        <ele>72</ele>
        <time>2013-08-03T13:06:56Z</time>
      </trkpt>
      <trkpt lat="48.19713" lon="3.27849">
        <ele>72</ele>
        <time>2013-08-03T13:07:00Z</time>
      </trkpt>
      <trkpt lat="48.19712" lon="3.27857">
        <ele>72</ele>
        <time>2013-08-03T13:07:05Z</time>
      </trkpt>
      <trkpt lat="48.19712" lon="3.27864">
        <ele>72</ele>
        <time>2013-08-03T13:07:09Z</time>
      </trkpt>
      <trkpt lat="48.19713" lon="3.27872">
        <ele>72</ele>
        <time>2013-08-03T13:07:13Z</time>
      </trkpt>
      <trkpt lat="48.19714" lon="3.27879">
        <ele>72</ele>
        <time>2013-08-03T13:07:16Z</time>
      </trkpt>
      <trkpt lat="48.19715" lon="3.27885">
        <ele>72</ele>
        <time>2013-08-03T13:07:19Z</time>
      </trkpt>
      <trkpt lat="48.19714" lon="3.27893">
        <ele>72</ele>
        <time>2013-08-03T13:07:25Z</time>
      </trkpt>
      <trkpt lat="48.19713" lon="3.279">
        <ele>72</ele>
        <time>2013-08-03T13:07:30Z</time>
      </trkpt>
      <trkpt lat="48.19715" lon="3.27908">
        <ele>72</ele>
        <time>2013-08-03T13:07:35Z</time>
      </trkpt>
      <trkpt lat="48.19719" lon="3.27912">
        <ele>72</ele>
        <time>2013-08-03T13:07:39Z</time>
      </trkpt>
      <trkpt lat="48.19722" lon="3.27918">
        <ele>73</ele>
        <time>2013-08-03T13:07:43Z</time>
      </trkpt>
      <trkpt lat="48.19722" lon="3.27926">
        <ele>73</ele>
        <time>2013-08-03T13:07:47Z</time>
      </trkpt>
      <trkpt lat="48.19722" lon="3.27934">
        <ele>73</ele>
        <time>2013-08-03T13:07:51Z</time>
      </trkpt>
      <trkpt lat="48.19718" lon="3.2794">
        <ele>73</ele>
        <time>2013-08-03T13:07:54Z</time>
      </trkpt>
      <trkpt lat="48.19715" lon="3.27947">
        <ele>73</ele>
        <time>2013-08-03T13:07:59Z</time>
      </trkpt>
      <trkpt lat="48.19715" lon="3.27955">
        <ele>73</ele>
        <time>2013-08-03T13:08:03Z</time>
      </trkpt>
      <trkpt lat="48.19714" lon="3.27963">
        <ele>73</ele>
        <time>2013-08-03T13:08:08Z</time>
      </trkpt>
      <trkpt lat="48.19712" lon="3.2797">
        <ele>73</ele>
        <time>2013-08-03T13:08:12Z</time>
      </trkpt>
      <trkpt lat="48.19712" lon="3.27978">
        <ele>73</ele>
        <time>2013-08-03T13:08:16Z</time>
      </trkpt>
      <trkpt lat="48.19712" lon="3.27985">
        <ele>73</ele>
        <time>2013-08-03T13:08:21Z</time>
      </trkpt>
      <trkpt lat="48.19713" lon="3.27993">
        <ele>73</ele>
        <time>2013-08-03T13:08:25Z</time>
      </trkpt>
      <trkpt lat="48.19715" lon="3.28">
        <ele>73</ele>
        <time>2013-08-03T13:08:29Z</time>
      </trkpt>
      <trkpt lat="48.19716" lon="3.28008">
        <ele>74</ele>
        <time>2013-08-03T13:08:34Z</time>
      </trkpt>
      <trkpt lat="48.19715" lon="3.28014">
        <ele>74</ele>
        <time>2013-08-03T13:08:38Z</time>
      </trkpt>
      <trkpt lat="48.19713" lon="3.28021">
        <ele>74</ele>
        <time>2013-08-03T13:08:43Z</time>
      </trkpt>
      <trkpt lat="48.19714" lon="3.28028">
        <ele>74</ele>
        <time>2013-08-03T13:08:47Z</time>
      </trkpt>
      <trkpt lat="48.19716" lon="3.28035">
        <ele>74</ele>
        <time>2013-08-03T13:08:50Z</time>
      </trkpt>
      <trkpt lat="48.19718" lon="3.28044">
        <ele>74</ele>
        <time>2013-08-03T13:08:57Z</time>
      </trkpt>
      <trkpt lat="48.19721" lon="3.2805">
        <ele>74</ele>
        <time>2013-08-03T13:09:02Z</time>
      </trkpt>
      <trkpt lat="48.19725" lon="3.28056">
        <ele>74</ele>
        <time>2013-08-03T13:09:06Z</time>
      </trkpt>
      <trkpt lat="48.19727" lon="3.28063">
        <ele>74</ele>
        <time>2013-08-03T13:09:11Z</time>
      </trkpt>
      <trkpt lat="48.19731" lon="3.28075">
        <ele>74</ele>
        <time>2013-08-03T13:09:18Z</time>
      </trkpt>
      <trkpt lat="48.19738" lon="3.28094">
        <ele>75</ele>
        <time>2013-08-03T13:09:38Z</time>
      </trkpt>
      <trkpt lat="48.19732" lon="3.28108">
        <ele>75</ele>
        <time>2013-08-03T13:09:45Z</time>
      </trkpt>
      <trkpt lat="48.19728" lon="3.28122">
        <ele>75</ele>
        <time>2013-08-03T13:09:49Z</time>
      </trkpt>
      <trkpt lat="48.19731" lon="3.28135">
        <ele>76</ele>
        <time>2013-08-03T13:09:55Z</time>
      </trkpt>
      <trkpt lat="48.19728" lon="3.28148">
        <ele>76</ele>
        <time>2013-08-03T13:10:03Z</time>
      </trkpt>
      <trkpt lat="48.19724" lon="3.28152">
        <ele>76</ele>
        <time>2013-08-03T13:10:05Z</time>
      </trkpt>
      <trkpt lat="48.1972" lon="3.28167">
        <ele>76</ele>
        <time>2013-08-03T13:10:11Z</time>
      </trkpt>
      <trkpt lat="48.1972" lon="3.28174">
        <ele>77</ele>
        <time>2013-08-03T13:10:15Z</time>
      </trkpt>
      <trkpt lat="48.19721" lon="3.28181">
        <ele>77</ele>
        <time>2013-08-03T13:10:18Z</time>
      </trkpt>
      <trkpt lat="48.19723" lon="3.28187">
        <ele>77</ele>
        <time>2013-08-03T13:10:22Z</time>
      </trkpt>
      <trkpt lat="48.19726" lon="3.282">
        <ele>77</ele>
        <time>2013-08-03T13:10:34Z</time>
      </trkpt>
      <trkpt lat="48.19726" lon="3.28216">
        <ele>77</ele>
        <time>2013-08-03T13:10:41Z</time>
      </trkpt>
      <trkpt lat="48.19727" lon="3.28231">
        <ele>77</ele>
        <time>2013-08-03T13:10:49Z</time>
      </trkpt>
      <trkpt lat="48.19733" lon="3.28242">
        <ele>77</ele>
        <time>2013-08-03T13:10:58Z</time>
      </trkpt>
      <trkpt lat="48.19742" lon="3.28247">
        <ele>78</ele>
        <time>2013-08-03T13:11:05Z</time>
      </trkpt>
      <trkpt lat="48.19746" lon="3.28263">
        <ele>78</ele>
        <time>2013-08-03T13:11:14Z</time>
      </trkpt>
      <trkpt lat="48.19747" lon="3.28279">
        <ele>78</ele>
        <time>2013-08-03T13:11:19Z</time>
      </trkpt>
      <trkpt lat="48.19741" lon="3.28292">
        <ele>77</ele>
        <time>2013-08-03T13:11:25Z</time>
      </trkpt>
      <trkpt lat="48.19737" lon="3.28297">
        <ele>77</ele>
        <time>2013-08-03T13:11:29Z</time>
      </trkpt>
      <trkpt lat="48.19734" lon="3.28303">
        <ele>77</ele>
        <time>2013-08-03T13:11:36Z</time>
      </trkpt>
      <trkpt lat="48.19735" lon="3.2831">
        <ele>78</ele>
        <time>2013-08-03T13:11:42Z</time>
      </trkpt>
      <trkpt lat="48.19736" lon="3.28317">
        <ele>78</ele>
        <time>2013-08-03T13:11:46Z</time>
      </trkpt>
      <trkpt lat="48.19737" lon="3.28325">
        <ele>78</ele>
        <time>2013-08-03T13:11:51Z</time>
      </trkpt>
      <trkpt lat="48.19739" lon="3.28331">
        <ele>78</ele>
        <time>2013-08-03T13:11:54Z</time>
      </trkpt>
      <trkpt lat="48.19738" lon="3.28336">
        <ele>78</ele>
        <time>2013-08-03T13:12:02Z</time>
      </trkpt>
      <trkpt lat="48.19743" lon="3.28337">
        <ele>78</ele>
        <time>2013-08-03T13:12:19Z</time>
      </trkpt>
      <trkpt lat="48.19747" lon="3.28334">
        <ele>78</ele>
        <time>2013-08-03T13:12:22Z</time>
      </trkpt>
      <trkpt lat="48.19753" lon="3.28334">
        <ele>78</ele>
        <time>2013-08-03T13:12:25Z</time>
      </trkpt>
      <trkpt lat="48.19758" lon="3.28335">
        <ele>78</ele>
        <time>2013-08-03T13:12:28Z</time>
      </trkpt>
      <trkpt lat="48.19763" lon="3.28333">
        <ele>78</ele>
        <time>2013-08-03T13:12:32Z</time>
      </trkpt>
      <trkpt lat="48.19779" lon="3.28365">
        <ele>77</ele>
        <time>2013-08-03T13:13:04Z</time>
      </trkpt>
      <trkpt lat="48.19778" lon="3.28372">
        <ele>77</ele>
        <time>2013-08-03T13:13:12Z</time>
      </trkpt>
      <trkpt lat="48.19776" lon="3.28373">
        <ele>77</ele>
        <time>2013-08-03T13:13:18Z</time>
      </trkpt>
      <trkpt lat="48.19773" lon="3.28378">
        <ele>77</ele>
        <time>2013-08-03T13:13:26Z</time>
      </trkpt>
      <trkpt lat="48.19768" lon="3.28372">
        <ele>77</ele>
        <time>2013-08-03T13:13:37Z</time>
      </trkpt>
      <trkpt lat="48.19763" lon="3.28371">
        <ele>77</ele>
        <time>2013-08-03T13:13:41Z</time>
      </trkpt>
      <trkpt lat="48.19764" lon="3.28376">
        <ele>77</ele>
        <time>2013-08-03T13:13:48Z</time>
      </trkpt>
      <trkpt lat="48.19764" lon="3.28386">
        <ele>78</ele>
        <time>2013-08-03T13:14:07Z</time>
      </trkpt>
      <trkpt lat="48.19776" lon="3.28411">
        <ele>78</ele>
        <time>2013-08-03T13:24:10Z</time>
      </trkpt>
      <trkpt lat="48.19767" lon="3.28413">
        <ele>78</ele>
        <time>2013-08-03T13:24:21Z</time>
      </trkpt>
      <trkpt lat="48.19758" lon="3.28411">
        <ele>78</ele>
        <time>2013-08-03T13:24:25Z</time>
      </trkpt>
      <trkpt lat="48.1974" lon="3.28443">
        <ele>77</ele>
        <time>2013-08-03T13:26:57Z</time>
      </trkpt>
      <trkpt lat="48.19745" lon="3.28462">
        <ele>77</ele>
        <time>2013-08-03T13:27:21Z</time>
      </trkpt>
      <trkpt lat="48.19748" lon="3.28475">
        <ele>77</ele>
        <time>2013-08-03T13:27:26Z</time>
      </trkpt>
      <trkpt lat="48.19749" lon="3.28489">
        <ele>78</ele>
        <time>2013-08-03T13:27:37Z</time>
      </trkpt>
      <trkpt lat="48.19755" lon="3.28502">
        <ele>78</ele>
        <time>2013-08-03T13:27:46Z</time>
      </trkpt>
      <trkpt lat="48.19755" lon="3.2851">
        <ele>77</ele>
        <time>2013-08-03T13:27:50Z</time>
      </trkpt>
      <trkpt lat="48.19752" lon="3.28516">
        <ele>77</ele>
        <time>2013-08-03T13:27:54Z</time>
      </trkpt>
      <trkpt lat="48.19752" lon="3.28526">
        <ele>77</ele>
        <time>2013-08-03T13:28:17Z</time>
      </trkpt>
      <trkpt lat="48.19756" lon="3.28531">
        <ele>77</ele>
        <time>2013-08-03T13:28:19Z</time>
      </trkpt>
      <trkpt lat="48.19759" lon="3.28538">
        <ele>77</ele>
        <time>2013-08-03T13:28:22Z</time>
      </trkpt>
      <trkpt lat="48.19757" lon="3.28547">
        <ele>76</ele>
        <time>2013-08-03T13:28:37Z</time>
      </trkpt>
      <trkpt lat="48.19754" lon="3.28548">
        <ele>76</ele>
        <time>2013-08-03T13:29:12Z</time>
      </trkpt>
      <trkpt lat="48.19753" lon="3.2854">
        <ele>77</ele>
        <time>2013-08-03T13:29:25Z</time>
      </trkpt>
      <trkpt lat="48.19757" lon="3.28534">
        <ele>77</ele>
        <time>2013-08-03T13:29:30Z</time>
      </trkpt>
      <trkpt lat="48.19761" lon="3.2853">
        <ele>77</ele>
        <time>2013-08-03T13:29:34Z</time>
      </trkpt>
      <trkpt lat="48.19756" lon="3.28523">
        <ele>77</ele>
        <time>2013-08-03T13:29:39Z</time>
      </trkpt>
      <trkpt lat="48.19753" lon="3.28516">
        <ele>77</ele>
        <time>2013-08-03T13:29:43Z</time>
      </trkpt>
    </trkseg>
  </trk>
</gpx>